<?xml version="1.0" encoding="UTF-8" standalone="no" ?>
<gpx xmlns="http://www.topografix.com/GPX/1/1" xmlns:xsi="http://www.w3.org/2001/XMLSchema-instance" xsi:schemaLocation="http://www.topografix.com/GPX/1/1 http://www.topografix.com/GPX/1/1/gpx.xsd" version="1.1" creator="VisuGPX - https://www.visugpx.com">
  <metadata>
    <name>Raid Junior de St-Priest</name>
    <desc><![CDATA[Fait le 14/06/14 avec Félix, Paul et Marine.]]></desc>
  </metadata>
  <trk>
    <name><![CDATA[2014-06-14T11:30:11Z]]></name>
    <trkseg>
      <trkpt lat="45.69567" lon="4.94157">
        <ele>207.6</ele>
        <time>2014-06-14T11:30:11Z</time>
      </trkpt>
      <trkpt lat="45.69563" lon="4.94157">
        <ele>220.4</ele>
        <time>2014-06-14T11:30:20Z</time>
      </trkpt>
      <trkpt lat="45.69551" lon="4.94152">
        <ele>220.6</ele>
        <time>2014-06-14T11:30:25Z</time>
      </trkpt>
      <trkpt lat="45.69536" lon="4.94148">
        <ele>220.4</ele>
        <time>2014-06-14T11:30:30Z</time>
      </trkpt>
      <trkpt lat="45.69533" lon="4.94148">
        <ele>220.4</ele>
        <time>2014-06-14T11:30:31Z</time>
      </trkpt>
      <trkpt lat="45.6952" lon="4.94144">
        <ele>220.2</ele>
        <time>2014-06-14T11:30:35Z</time>
      </trkpt>
      <trkpt lat="45.69513" lon="4.9414">
        <ele>220</ele>
        <time>2014-06-14T11:30:37Z</time>
      </trkpt>
      <trkpt lat="45.69503" lon="4.94138">
        <ele>219.8</ele>
        <time>2014-06-14T11:30:40Z</time>
      </trkpt>
      <trkpt lat="45.69494" lon="4.94135">
        <ele>219.8</ele>
        <time>2014-06-14T11:30:42Z</time>
      </trkpt>
      <trkpt lat="45.69486" lon="4.94131">
        <ele>219.6</ele>
        <time>2014-06-14T11:30:44Z</time>
      </trkpt>
      <trkpt lat="45.69475" lon="4.94127">
        <ele>219.4</ele>
        <time>2014-06-14T11:30:47Z</time>
      </trkpt>
      <trkpt lat="45.69467" lon="4.94124">
        <ele>219.2</ele>
        <time>2014-06-14T11:30:49Z</time>
      </trkpt>
      <trkpt lat="45.69456" lon="4.9412">
        <ele>219</ele>
        <time>2014-06-14T11:30:52Z</time>
      </trkpt>
      <trkpt lat="45.6945" lon="4.94114">
        <ele>218.8</ele>
        <time>2014-06-14T11:30:54Z</time>
      </trkpt>
      <trkpt lat="45.69446" lon="4.94102">
        <ele>218.4</ele>
        <time>2014-06-14T11:30:57Z</time>
      </trkpt>
      <trkpt lat="45.69447" lon="4.94097">
        <ele>218.2</ele>
        <time>2014-06-14T11:30:58Z</time>
      </trkpt>
      <trkpt lat="45.6945" lon="4.94083">
        <ele>218</ele>
        <time>2014-06-14T11:31:01Z</time>
      </trkpt>
      <trkpt lat="45.69452" lon="4.94073">
        <ele>217.8</ele>
        <time>2014-06-14T11:31:03Z</time>
      </trkpt>
      <trkpt lat="45.69453" lon="4.94068">
        <ele>217.6</ele>
        <time>2014-06-14T11:31:04Z</time>
      </trkpt>
      <trkpt lat="45.69455" lon="4.94039">
        <ele>217.4</ele>
        <time>2014-06-14T11:31:09Z</time>
      </trkpt>
      <trkpt lat="45.69457" lon="4.94014">
        <ele>217.4</ele>
        <time>2014-06-14T11:31:13Z</time>
      </trkpt>
      <trkpt lat="45.69458" lon="4.94008">
        <ele>217.4</ele>
        <time>2014-06-14T11:31:14Z</time>
      </trkpt>
      <trkpt lat="45.6946" lon="4.93999">
        <ele>217.4</ele>
        <time>2014-06-14T11:31:16Z</time>
      </trkpt>
      <trkpt lat="45.69461" lon="4.93989">
        <ele>217.4</ele>
        <time>2014-06-14T11:31:18Z</time>
      </trkpt>
      <trkpt lat="45.69462" lon="4.93979">
        <ele>217.4</ele>
        <time>2014-06-14T11:31:20Z</time>
      </trkpt>
      <trkpt lat="45.69464" lon="4.93961">
        <ele>217.2</ele>
        <time>2014-06-14T11:31:24Z</time>
      </trkpt>
      <trkpt lat="45.69465" lon="4.93952">
        <ele>217.2</ele>
        <time>2014-06-14T11:31:26Z</time>
      </trkpt>
      <trkpt lat="45.69465" lon="4.93943">
        <ele>217.4</ele>
        <time>2014-06-14T11:31:28Z</time>
      </trkpt>
      <trkpt lat="45.69463" lon="4.93926">
        <ele>217.6</ele>
        <time>2014-06-14T11:31:31Z</time>
      </trkpt>
      <trkpt lat="45.69463" lon="4.9392">
        <ele>217.6</ele>
        <time>2014-06-14T11:31:32Z</time>
      </trkpt>
      <trkpt lat="45.69463" lon="4.93898">
        <ele>218.2</ele>
        <time>2014-06-14T11:31:36Z</time>
      </trkpt>
      <trkpt lat="45.69462" lon="4.93888">
        <ele>218.8</ele>
        <time>2014-06-14T11:31:38Z</time>
      </trkpt>
      <trkpt lat="45.69462" lon="4.93868">
        <ele>219.6</ele>
        <time>2014-06-14T11:31:42Z</time>
      </trkpt>
      <trkpt lat="45.69463" lon="4.93863">
        <ele>219.8</ele>
        <time>2014-06-14T11:31:43Z</time>
      </trkpt>
      <trkpt lat="45.69466" lon="4.93839">
        <ele>220.6</ele>
        <time>2014-06-14T11:31:47Z</time>
      </trkpt>
      <trkpt lat="45.69466" lon="4.93835">
        <ele>220.6</ele>
        <time>2014-06-14T11:31:48Z</time>
      </trkpt>
      <trkpt lat="45.69468" lon="4.93817">
        <ele>220.8</ele>
        <time>2014-06-14T11:31:52Z</time>
      </trkpt>
      <trkpt lat="45.6947" lon="4.93814">
        <ele>220.8</ele>
        <time>2014-06-14T11:31:53Z</time>
      </trkpt>
      <trkpt lat="45.69477" lon="4.93805">
        <ele>220.6</ele>
        <time>2014-06-14T11:31:56Z</time>
      </trkpt>
      <trkpt lat="45.69487" lon="4.93798">
        <ele>220.6</ele>
        <time>2014-06-14T11:31:59Z</time>
      </trkpt>
      <trkpt lat="45.69496" lon="4.93793">
        <ele>220.4</ele>
        <time>2014-06-14T11:32:02Z</time>
      </trkpt>
      <trkpt lat="45.69504" lon="4.93787">
        <ele>220.2</ele>
        <time>2014-06-14T11:32:05Z</time>
      </trkpt>
      <trkpt lat="45.69509" lon="4.93781">
        <ele>220</ele>
        <time>2014-06-14T11:32:07Z</time>
      </trkpt>
      <trkpt lat="45.69516" lon="4.93762">
        <ele>219.6</ele>
        <time>2014-06-14T11:32:11Z</time>
      </trkpt>
      <trkpt lat="45.69517" lon="4.93758">
        <ele>219.6</ele>
        <time>2014-06-14T11:32:12Z</time>
      </trkpt>
      <trkpt lat="45.69518" lon="4.93734">
        <ele>219.2</ele>
        <time>2014-06-14T11:32:17Z</time>
      </trkpt>
      <trkpt lat="45.69516" lon="4.93708">
        <ele>218.6</ele>
        <time>2014-06-14T11:32:22Z</time>
      </trkpt>
      <trkpt lat="45.69517" lon="4.93687">
        <ele>218.2</ele>
        <time>2014-06-14T11:32:27Z</time>
      </trkpt>
      <trkpt lat="45.69517" lon="4.93682">
        <ele>218.2</ele>
        <time>2014-06-14T11:32:28Z</time>
      </trkpt>
      <trkpt lat="45.69517" lon="4.93657">
        <ele>217.8</ele>
        <time>2014-06-14T11:32:33Z</time>
      </trkpt>
      <trkpt lat="45.69517" lon="4.93651">
        <ele>217.8</ele>
        <time>2014-06-14T11:32:34Z</time>
      </trkpt>
      <trkpt lat="45.69518" lon="4.93627">
        <ele>217.4</ele>
        <time>2014-06-14T11:32:39Z</time>
      </trkpt>
      <trkpt lat="45.69518" lon="4.93616">
        <ele>217.2</ele>
        <time>2014-06-14T11:32:41Z</time>
      </trkpt>
      <trkpt lat="45.69522" lon="4.93599">
        <ele>217</ele>
        <time>2014-06-14T11:32:45Z</time>
      </trkpt>
      <trkpt lat="45.69526" lon="4.93594">
        <ele>216.8</ele>
        <time>2014-06-14T11:32:47Z</time>
      </trkpt>
      <trkpt lat="45.69533" lon="4.93593">
        <ele>216.6</ele>
        <time>2014-06-14T11:32:49Z</time>
      </trkpt>
      <trkpt lat="45.69541" lon="4.93595">
        <ele>216.4</ele>
        <time>2014-06-14T11:32:51Z</time>
      </trkpt>
      <trkpt lat="45.69544" lon="4.93596">
        <ele>216.4</ele>
        <time>2014-06-14T11:32:52Z</time>
      </trkpt>
      <trkpt lat="45.6955" lon="4.93598">
        <ele>216.2</ele>
        <time>2014-06-14T11:32:54Z</time>
      </trkpt>
      <trkpt lat="45.69559" lon="4.936">
        <ele>215.8</ele>
        <time>2014-06-14T11:32:57Z</time>
      </trkpt>
      <trkpt lat="45.69564" lon="4.936">
        <ele>215.6</ele>
        <time>2014-06-14T11:32:59Z</time>
      </trkpt>
      <trkpt lat="45.69576" lon="4.93602">
        <ele>215.2</ele>
        <time>2014-06-14T11:33:03Z</time>
      </trkpt>
      <trkpt lat="45.69596" lon="4.93604">
        <ele>214.8</ele>
        <time>2014-06-14T11:33:09Z</time>
      </trkpt>
      <trkpt lat="45.69617" lon="4.9361">
        <ele>214.2</ele>
        <time>2014-06-14T11:33:15Z</time>
      </trkpt>
      <trkpt lat="45.69637" lon="4.93612">
        <ele>213.8</ele>
        <time>2014-06-14T11:33:21Z</time>
      </trkpt>
      <trkpt lat="45.69654" lon="4.93617">
        <ele>213.2</ele>
        <time>2014-06-14T11:33:26Z</time>
      </trkpt>
      <trkpt lat="45.69658" lon="4.93618">
        <ele>213.2</ele>
        <time>2014-06-14T11:33:27Z</time>
      </trkpt>
      <trkpt lat="45.69675" lon="4.93621">
        <ele>212.8</ele>
        <time>2014-06-14T11:33:32Z</time>
      </trkpt>
      <trkpt lat="45.69678" lon="4.93621">
        <ele>212.6</ele>
        <time>2014-06-14T11:33:33Z</time>
      </trkpt>
      <trkpt lat="45.69693" lon="4.93625">
        <ele>212.2</ele>
        <time>2014-06-14T11:33:37Z</time>
      </trkpt>
      <trkpt lat="45.69699" lon="4.93626">
        <ele>212</ele>
        <time>2014-06-14T11:33:39Z</time>
      </trkpt>
      <trkpt lat="45.69709" lon="4.93628">
        <ele>211.8</ele>
        <time>2014-06-14T11:33:42Z</time>
      </trkpt>
      <trkpt lat="45.69717" lon="4.93634">
        <ele>211.6</ele>
        <time>2014-06-14T11:33:46Z</time>
      </trkpt>
      <trkpt lat="45.69716" lon="4.93651">
        <ele>211.6</ele>
        <time>2014-06-14T11:33:50Z</time>
      </trkpt>
      <trkpt lat="45.69715" lon="4.93654">
        <ele>211.4</ele>
        <time>2014-06-14T11:33:51Z</time>
      </trkpt>
      <trkpt lat="45.69715" lon="4.93663">
        <ele>211.4</ele>
        <time>2014-06-14T11:33:53Z</time>
      </trkpt>
      <trkpt lat="45.69716" lon="4.93678">
        <ele>211.2</ele>
        <time>2014-06-14T11:33:56Z</time>
      </trkpt>
      <trkpt lat="45.69716" lon="4.93693">
        <ele>211</ele>
        <time>2014-06-14T11:33:59Z</time>
      </trkpt>
      <trkpt lat="45.69715" lon="4.93703">
        <ele>211</ele>
        <time>2014-06-14T11:34:01Z</time>
      </trkpt>
      <trkpt lat="45.69713" lon="4.93722">
        <ele>210.8</ele>
        <time>2014-06-14T11:34:05Z</time>
      </trkpt>
      <trkpt lat="45.69712" lon="4.93737">
        <ele>210.6</ele>
        <time>2014-06-14T11:34:08Z</time>
      </trkpt>
      <trkpt lat="45.69711" lon="4.93749">
        <ele>210.4</ele>
        <time>2014-06-14T11:34:11Z</time>
      </trkpt>
      <trkpt lat="45.69711" lon="4.93764">
        <ele>210.4</ele>
        <time>2014-06-14T11:34:14Z</time>
      </trkpt>
      <trkpt lat="45.6971" lon="4.93774">
        <ele>210.2</ele>
        <time>2014-06-14T11:34:16Z</time>
      </trkpt>
      <trkpt lat="45.6971" lon="4.93791">
        <ele>210</ele>
        <time>2014-06-14T11:34:19Z</time>
      </trkpt>
      <trkpt lat="45.69709" lon="4.93801">
        <ele>210</ele>
        <time>2014-06-14T11:34:21Z</time>
      </trkpt>
      <trkpt lat="45.69707" lon="4.93815">
        <ele>209.8</ele>
        <time>2014-06-14T11:34:24Z</time>
      </trkpt>
      <trkpt lat="45.69706" lon="4.93831">
        <ele>209.8</ele>
        <time>2014-06-14T11:34:27Z</time>
      </trkpt>
      <trkpt lat="45.69705" lon="4.93841">
        <ele>209.6</ele>
        <time>2014-06-14T11:34:29Z</time>
      </trkpt>
      <trkpt lat="45.69704" lon="4.93861">
        <ele>209.4</ele>
        <time>2014-06-14T11:34:33Z</time>
      </trkpt>
      <trkpt lat="45.69704" lon="4.93866">
        <ele>209.4</ele>
        <time>2014-06-14T11:34:34Z</time>
      </trkpt>
      <trkpt lat="45.69701" lon="4.93892">
        <ele>209</ele>
        <time>2014-06-14T11:34:39Z</time>
      </trkpt>
      <trkpt lat="45.69698" lon="4.93918">
        <ele>208.6</ele>
        <time>2014-06-14T11:34:44Z</time>
      </trkpt>
      <trkpt lat="45.69697" lon="4.93944">
        <ele>208.4</ele>
        <time>2014-06-14T11:34:49Z</time>
      </trkpt>
      <trkpt lat="45.69695" lon="4.93973">
        <ele>208</ele>
        <time>2014-06-14T11:34:55Z</time>
      </trkpt>
      <trkpt lat="45.69694" lon="4.94002">
        <ele>207.6</ele>
        <time>2014-06-14T11:35:01Z</time>
      </trkpt>
      <trkpt lat="45.69694" lon="4.94022">
        <ele>207.4</ele>
        <time>2014-06-14T11:35:05Z</time>
      </trkpt>
      <trkpt lat="45.69693" lon="4.94027">
        <ele>207.4</ele>
        <time>2014-06-14T11:35:06Z</time>
      </trkpt>
      <trkpt lat="45.69694" lon="4.94053">
        <ele>207.4</ele>
        <time>2014-06-14T11:35:11Z</time>
      </trkpt>
      <trkpt lat="45.69694" lon="4.94057">
        <ele>207.4</ele>
        <time>2014-06-14T11:35:12Z</time>
      </trkpt>
      <trkpt lat="45.69691" lon="4.94081">
        <ele>207.4</ele>
        <time>2014-06-14T11:35:17Z</time>
      </trkpt>
      <trkpt lat="45.69691" lon="4.94085">
        <ele>207.4</ele>
        <time>2014-06-14T11:35:18Z</time>
      </trkpt>
      <trkpt lat="45.69687" lon="4.94104">
        <ele>207.2</ele>
        <time>2014-06-14T11:35:22Z</time>
      </trkpt>
      <trkpt lat="45.69685" lon="4.94112">
        <ele>207.2</ele>
        <time>2014-06-14T11:35:24Z</time>
      </trkpt>
      <trkpt lat="45.69685" lon="4.94123">
        <ele>207.2</ele>
        <time>2014-06-14T11:35:27Z</time>
      </trkpt>
      <trkpt lat="45.69687" lon="4.94141">
        <ele>208.4</ele>
        <time>2014-06-14T11:35:32Z</time>
      </trkpt>
      <trkpt lat="45.6968" lon="4.94164">
        <ele>209.6</ele>
        <time>2014-06-14T11:35:38Z</time>
      </trkpt>
      <trkpt lat="45.69667" lon="4.9417">
        <ele>209.8</ele>
        <time>2014-06-14T11:35:42Z</time>
      </trkpt>
      <trkpt lat="45.69664" lon="4.9417">
        <ele>209.8</ele>
        <time>2014-06-14T11:35:43Z</time>
      </trkpt>
      <trkpt lat="45.69651" lon="4.94173">
        <ele>209.8</ele>
        <time>2014-06-14T11:35:47Z</time>
      </trkpt>
      <trkpt lat="45.69644" lon="4.94173">
        <ele>209.8</ele>
        <time>2014-06-14T11:35:49Z</time>
      </trkpt>
      <trkpt lat="45.69637" lon="4.94172">
        <ele>210</ele>
        <time>2014-06-14T11:35:51Z</time>
      </trkpt>
      <trkpt lat="45.69622" lon="4.9417">
        <ele>210.6</ele>
        <time>2014-06-14T11:35:55Z</time>
      </trkpt>
      <trkpt lat="45.69606" lon="4.94165">
        <ele>211.4</ele>
        <time>2014-06-14T11:36:00Z</time>
      </trkpt>
      <trkpt lat="45.69602" lon="4.94164">
        <ele>211.6</ele>
        <time>2014-06-14T11:36:01Z</time>
      </trkpt>
      <trkpt lat="45.69585" lon="4.94159">
        <ele>213.6</ele>
        <time>2014-06-14T11:36:05Z</time>
      </trkpt>
      <trkpt lat="45.69581" lon="4.94159">
        <ele>213.8</ele>
        <time>2014-06-14T11:36:06Z</time>
      </trkpt>
      <trkpt lat="45.69569" lon="4.94156">
        <ele>214.8</ele>
        <time>2014-06-14T11:36:10Z</time>
      </trkpt>
      <trkpt lat="45.69562" lon="4.94151">
        <ele>215.6</ele>
        <time>2014-06-14T11:36:13Z</time>
      </trkpt>
      <trkpt lat="45.6956" lon="4.94149">
        <ele>215.8</ele>
        <time>2014-06-14T11:36:15Z</time>
      </trkpt>
      <trkpt lat="45.69559" lon="4.94149">
        <ele>216</ele>
        <time>2014-06-14T11:36:16Z</time>
      </trkpt>
      <trkpt lat="45.69557" lon="4.94148">
        <ele>217</ele>
        <time>2014-06-14T11:36:20Z</time>
      </trkpt>
      <trkpt lat="45.69551" lon="4.94144">
        <ele>221.2</ele>
        <time>2014-06-14T11:36:37Z</time>
      </trkpt>
      <trkpt lat="45.69545" lon="4.94146">
        <ele>221.4</ele>
        <time>2014-06-14T11:36:42Z</time>
      </trkpt>
      <trkpt lat="45.69543" lon="4.94147">
        <ele>221.4</ele>
        <time>2014-06-14T11:36:43Z</time>
      </trkpt>
      <trkpt lat="45.69541" lon="4.94146">
        <ele>221.4</ele>
        <time>2014-06-14T11:36:47Z</time>
      </trkpt>
      <trkpt lat="45.69545" lon="4.94153">
        <ele>221.6</ele>
        <time>2014-06-14T11:37:04Z</time>
      </trkpt>
      <trkpt lat="45.69547" lon="4.94155">
        <ele>221.6</ele>
        <time>2014-06-14T11:37:05Z</time>
      </trkpt>
      <trkpt lat="45.69548" lon="4.94166">
        <ele>221.6</ele>
        <time>2014-06-14T11:37:08Z</time>
      </trkpt>
      <trkpt lat="45.69549" lon="4.94172">
        <ele>221.6</ele>
        <time>2014-06-14T11:37:09Z</time>
      </trkpt>
      <trkpt lat="45.69548" lon="4.94193">
        <ele>221.4</ele>
        <time>2014-06-14T11:37:13Z</time>
      </trkpt>
      <trkpt lat="45.69547" lon="4.94198">
        <ele>221.4</ele>
        <time>2014-06-14T11:37:14Z</time>
      </trkpt>
      <trkpt lat="45.69548" lon="4.94213">
        <ele>221.4</ele>
        <time>2014-06-14T11:37:18Z</time>
      </trkpt>
      <trkpt lat="45.69548" lon="4.94221">
        <ele>221.4</ele>
        <time>2014-06-14T11:37:20Z</time>
      </trkpt>
      <trkpt lat="45.69547" lon="4.94234">
        <ele>221.2</ele>
        <time>2014-06-14T11:37:23Z</time>
      </trkpt>
      <trkpt lat="45.69549" lon="4.94248">
        <ele>221.2</ele>
        <time>2014-06-14T11:37:26Z</time>
      </trkpt>
      <trkpt lat="45.69551" lon="4.94257">
        <ele>221.2</ele>
        <time>2014-06-14T11:37:28Z</time>
      </trkpt>
      <trkpt lat="45.69552" lon="4.94276">
        <ele>221</ele>
        <time>2014-06-14T11:37:32Z</time>
      </trkpt>
      <trkpt lat="45.69551" lon="4.9429">
        <ele>220.8</ele>
        <time>2014-06-14T11:37:35Z</time>
      </trkpt>
      <trkpt lat="45.6955" lon="4.94304">
        <ele>220.8</ele>
        <time>2014-06-14T11:37:38Z</time>
      </trkpt>
      <trkpt lat="45.69548" lon="4.94327">
        <ele>220.6</ele>
        <time>2014-06-14T11:37:43Z</time>
      </trkpt>
      <trkpt lat="45.69547" lon="4.94331">
        <ele>220.6</ele>
        <time>2014-06-14T11:37:44Z</time>
      </trkpt>
      <trkpt lat="45.69546" lon="4.94348">
        <ele>220.6</ele>
        <time>2014-06-14T11:37:48Z</time>
      </trkpt>
      <trkpt lat="45.69543" lon="4.94359">
        <ele>221</ele>
        <time>2014-06-14T11:37:51Z</time>
      </trkpt>
      <trkpt lat="45.69541" lon="4.94368">
        <ele>221.2</ele>
        <time>2014-06-14T11:37:53Z</time>
      </trkpt>
      <trkpt lat="45.69537" lon="4.94386">
        <ele>221.6</ele>
        <time>2014-06-14T11:37:57Z</time>
      </trkpt>
      <trkpt lat="45.69537" lon="4.94393">
        <ele>221.8</ele>
        <time>2014-06-14T11:37:59Z</time>
      </trkpt>
      <trkpt lat="45.69535" lon="4.94414">
        <ele>222.2</ele>
        <time>2014-06-14T11:38:04Z</time>
      </trkpt>
      <trkpt lat="45.69534" lon="4.94422">
        <ele>222.4</ele>
        <time>2014-06-14T11:38:06Z</time>
      </trkpt>
      <trkpt lat="45.69533" lon="4.9444">
        <ele>222.8</ele>
        <time>2014-06-14T11:38:10Z</time>
      </trkpt>
      <trkpt lat="45.69534" lon="4.94452">
        <ele>222.8</ele>
        <time>2014-06-14T11:38:13Z</time>
      </trkpt>
      <trkpt lat="45.69532" lon="4.94468">
        <ele>223</ele>
        <time>2014-06-14T11:38:17Z</time>
      </trkpt>
      <trkpt lat="45.69531" lon="4.94476">
        <ele>223.2</ele>
        <time>2014-06-14T11:38:19Z</time>
      </trkpt>
      <trkpt lat="45.6953" lon="4.94494">
        <ele>223.4</ele>
        <time>2014-06-14T11:38:23Z</time>
      </trkpt>
      <trkpt lat="45.69528" lon="4.94507">
        <ele>223.4</ele>
        <time>2014-06-14T11:38:26Z</time>
      </trkpt>
      <trkpt lat="45.69526" lon="4.94522">
        <ele>223.6</ele>
        <time>2014-06-14T11:38:29Z</time>
      </trkpt>
      <trkpt lat="45.69522" lon="4.94542">
        <ele>224</ele>
        <time>2014-06-14T11:38:33Z</time>
      </trkpt>
      <trkpt lat="45.69523" lon="4.94547">
        <ele>224</ele>
        <time>2014-06-14T11:38:34Z</time>
      </trkpt>
      <trkpt lat="45.69526" lon="4.94555">
        <ele>224</ele>
        <time>2014-06-14T11:38:36Z</time>
      </trkpt>
      <trkpt lat="45.69533" lon="4.94559">
        <ele>224.4</ele>
        <time>2014-06-14T11:38:39Z</time>
      </trkpt>
      <trkpt lat="45.69537" lon="4.94561">
        <ele>224.6</ele>
        <time>2014-06-14T11:38:41Z</time>
      </trkpt>
      <trkpt lat="45.6954" lon="4.94562">
        <ele>224.6</ele>
        <time>2014-06-14T11:38:42Z</time>
      </trkpt>
      <trkpt lat="45.69548" lon="4.94563">
        <ele>225</ele>
        <time>2014-06-14T11:38:45Z</time>
      </trkpt>
      <trkpt lat="45.69556" lon="4.94561">
        <ele>225.6</ele>
        <time>2014-06-14T11:38:48Z</time>
      </trkpt>
      <trkpt lat="45.69561" lon="4.94556">
        <ele>225.6</ele>
        <time>2014-06-14T11:38:50Z</time>
      </trkpt>
      <trkpt lat="45.69572" lon="4.94544">
        <ele>226.2</ele>
        <time>2014-06-14T11:38:54Z</time>
      </trkpt>
      <trkpt lat="45.69575" lon="4.9454">
        <ele>226.4</ele>
        <time>2014-06-14T11:38:55Z</time>
      </trkpt>
      <trkpt lat="45.69588" lon="4.94524">
        <ele>227.2</ele>
        <time>2014-06-14T11:38:59Z</time>
      </trkpt>
      <trkpt lat="45.69594" lon="4.94518">
        <ele>227.8</ele>
        <time>2014-06-14T11:39:01Z</time>
      </trkpt>
      <trkpt lat="45.696" lon="4.94512">
        <ele>228</ele>
        <time>2014-06-14T11:39:04Z</time>
      </trkpt>
      <trkpt lat="45.696" lon="4.94509">
        <ele>228.2</ele>
        <time>2014-06-14T11:39:05Z</time>
      </trkpt>
      <trkpt lat="45.69599" lon="4.94502">
        <ele>228.4</ele>
        <time>2014-06-14T11:39:07Z</time>
      </trkpt>
      <trkpt lat="45.696" lon="4.94492">
        <ele>228.6</ele>
        <time>2014-06-14T11:39:09Z</time>
      </trkpt>
      <trkpt lat="45.696" lon="4.94486">
        <ele>228.6</ele>
        <time>2014-06-14T11:39:10Z</time>
      </trkpt>
      <trkpt lat="45.69599" lon="4.94476">
        <ele>228.8</ele>
        <time>2014-06-14T11:39:12Z</time>
      </trkpt>
      <trkpt lat="45.69596" lon="4.94469">
        <ele>228.8</ele>
        <time>2014-06-14T11:39:14Z</time>
      </trkpt>
      <trkpt lat="45.69593" lon="4.94465">
        <ele>228.8</ele>
        <time>2014-06-14T11:39:18Z</time>
      </trkpt>
      <trkpt lat="45.69594" lon="4.94465">
        <ele>228.8</ele>
        <time>2014-06-14T11:39:19Z</time>
      </trkpt>
      <trkpt lat="45.69597" lon="4.94472">
        <ele>228.8</ele>
        <time>2014-06-14T11:39:22Z</time>
      </trkpt>
      <trkpt lat="45.69595" lon="4.94492">
        <ele>228.8</ele>
        <time>2014-06-14T11:39:25Z</time>
      </trkpt>
      <trkpt lat="45.69594" lon="4.94498">
        <ele>228.6</ele>
        <time>2014-06-14T11:39:26Z</time>
      </trkpt>
      <trkpt lat="45.69594" lon="4.94507">
        <ele>228.6</ele>
        <time>2014-06-14T11:39:28Z</time>
      </trkpt>
      <trkpt lat="45.69596" lon="4.94508">
        <ele>228.6</ele>
        <time>2014-06-14T11:39:29Z</time>
      </trkpt>
      <trkpt lat="45.69602" lon="4.94496">
        <ele>228.6</ele>
        <time>2014-06-14T11:39:32Z</time>
      </trkpt>
      <trkpt lat="45.69601" lon="4.9449">
        <ele>228.4</ele>
        <time>2014-06-14T11:39:33Z</time>
      </trkpt>
      <trkpt lat="45.69604" lon="4.94465">
        <ele>228.4</ele>
        <time>2014-06-14T11:39:37Z</time>
      </trkpt>
      <trkpt lat="45.69607" lon="4.94439">
        <ele>228.4</ele>
        <time>2014-06-14T11:39:41Z</time>
      </trkpt>
      <trkpt lat="45.69608" lon="4.94425">
        <ele>228.2</ele>
        <time>2014-06-14T11:39:43Z</time>
      </trkpt>
      <trkpt lat="45.69609" lon="4.94418">
        <ele>228.2</ele>
        <time>2014-06-14T11:39:44Z</time>
      </trkpt>
      <trkpt lat="45.69611" lon="4.94409">
        <ele>228.2</ele>
        <time>2014-06-14T11:39:45Z</time>
      </trkpt>
      <trkpt lat="45.69614" lon="4.94392">
        <ele>228</ele>
        <time>2014-06-14T11:39:47Z</time>
      </trkpt>
      <trkpt lat="45.69616" lon="4.94383">
        <ele>228</ele>
        <time>2014-06-14T11:39:48Z</time>
      </trkpt>
      <trkpt lat="45.69617" lon="4.94363">
        <ele>227.8</ele>
        <time>2014-06-14T11:39:51Z</time>
      </trkpt>
      <trkpt lat="45.69614" lon="4.9436">
        <ele>227.8</ele>
        <time>2014-06-14T11:39:54Z</time>
      </trkpt>
      <trkpt lat="45.69614" lon="4.94364">
        <ele>227.6</ele>
        <time>2014-06-14T11:39:55Z</time>
      </trkpt>
      <trkpt lat="45.69612" lon="4.94375">
        <ele>227.6</ele>
        <time>2014-06-14T11:39:57Z</time>
      </trkpt>
      <trkpt lat="45.69609" lon="4.94386">
        <ele>227.6</ele>
        <time>2014-06-14T11:39:59Z</time>
      </trkpt>
      <trkpt lat="45.69607" lon="4.94393">
        <ele>227.6</ele>
        <time>2014-06-14T11:40:00Z</time>
      </trkpt>
      <trkpt lat="45.69603" lon="4.94406">
        <ele>227.6</ele>
        <time>2014-06-14T11:40:02Z</time>
      </trkpt>
      <trkpt lat="45.69602" lon="4.94413">
        <ele>227.6</ele>
        <time>2014-06-14T11:40:03Z</time>
      </trkpt>
      <trkpt lat="45.69598" lon="4.94421">
        <ele>227.6</ele>
        <time>2014-06-14T11:40:06Z</time>
      </trkpt>
      <trkpt lat="45.69596" lon="4.94423">
        <ele>227.6</ele>
        <time>2014-06-14T11:40:12Z</time>
      </trkpt>
      <trkpt lat="45.6959" lon="4.94422">
        <ele>227.4</ele>
        <time>2014-06-14T11:40:18Z</time>
      </trkpt>
      <trkpt lat="45.69587" lon="4.94422">
        <ele>227.2</ele>
        <time>2014-06-14T11:40:21Z</time>
      </trkpt>
      <trkpt lat="45.69586" lon="4.94421">
        <ele>227.2</ele>
        <time>2014-06-14T11:40:22Z</time>
      </trkpt>
      <trkpt lat="45.6958" lon="4.94424">
        <ele>227</ele>
        <time>2014-06-14T11:40:26Z</time>
      </trkpt>
      <trkpt lat="45.69575" lon="4.94428">
        <ele>226.8</ele>
        <time>2014-06-14T11:40:29Z</time>
      </trkpt>
      <trkpt lat="45.69574" lon="4.94429">
        <ele>226.6</ele>
        <time>2014-06-14T11:40:30Z</time>
      </trkpt>
      <trkpt lat="45.69576" lon="4.94431">
        <ele>226.6</ele>
        <time>2014-06-14T11:40:33Z</time>
      </trkpt>
      <trkpt lat="45.69578" lon="4.94432">
        <ele>226.6</ele>
        <time>2014-06-14T11:40:34Z</time>
      </trkpt>
      <trkpt lat="45.6958" lon="4.94444">
        <ele>226.4</ele>
        <time>2014-06-14T11:40:38Z</time>
      </trkpt>
      <trkpt lat="45.69577" lon="4.94451">
        <ele>226.2</ele>
        <time>2014-06-14T11:40:40Z</time>
      </trkpt>
      <trkpt lat="45.69575" lon="4.94455">
        <ele>226.2</ele>
        <time>2014-06-14T11:40:41Z</time>
      </trkpt>
      <trkpt lat="45.69573" lon="4.94468">
        <ele>226.2</ele>
        <time>2014-06-14T11:40:44Z</time>
      </trkpt>
      <trkpt lat="45.69571" lon="4.94479">
        <ele>226</ele>
        <time>2014-06-14T11:40:47Z</time>
      </trkpt>
      <trkpt lat="45.6957" lon="4.94485">
        <ele>226</ele>
        <time>2014-06-14T11:40:49Z</time>
      </trkpt>
      <trkpt lat="45.69568" lon="4.94493">
        <ele>226</ele>
        <time>2014-06-14T11:40:53Z</time>
      </trkpt>
      <trkpt lat="45.69568" lon="4.94493">
        <ele>225.8</ele>
        <time>2014-06-14T11:40:54Z</time>
      </trkpt>
      <trkpt lat="45.6957" lon="4.94494">
        <ele>224.8</ele>
        <time>2014-06-14T11:41:23Z</time>
      </trkpt>
      <trkpt lat="45.69572" lon="4.94497">
        <ele>224.6</ele>
        <time>2014-06-14T11:41:29Z</time>
      </trkpt>
      <trkpt lat="45.69573" lon="4.94501">
        <ele>224.6</ele>
        <time>2014-06-14T11:41:30Z</time>
      </trkpt>
      <trkpt lat="45.6957" lon="4.94516">
        <ele>224.6</ele>
        <time>2014-06-14T11:41:34Z</time>
      </trkpt>
      <trkpt lat="45.69569" lon="4.9452">
        <ele>224.6</ele>
        <time>2014-06-14T11:41:37Z</time>
      </trkpt>
      <trkpt lat="45.69569" lon="4.9452">
        <ele>224.8</ele>
        <time>2014-06-14T11:41:38Z</time>
      </trkpt>
      <trkpt lat="45.69572" lon="4.94516">
        <ele>224.8</ele>
        <time>2014-06-14T11:41:41Z</time>
      </trkpt>
      <trkpt lat="45.69574" lon="4.94513">
        <ele>224.6</ele>
        <time>2014-06-14T11:41:42Z</time>
      </trkpt>
      <trkpt lat="45.69579" lon="4.945">
        <ele>224.6</ele>
        <time>2014-06-14T11:41:47Z</time>
      </trkpt>
      <trkpt lat="45.69582" lon="4.94496">
        <ele>224.6</ele>
        <time>2014-06-14T11:41:52Z</time>
      </trkpt>
      <trkpt lat="45.69583" lon="4.94497">
        <ele>224.6</ele>
        <time>2014-06-14T11:41:53Z</time>
      </trkpt>
      <trkpt lat="45.69585" lon="4.94496">
        <ele>224.4</ele>
        <time>2014-06-14T11:41:54Z</time>
      </trkpt>
      <trkpt lat="45.69591" lon="4.94491">
        <ele>224.4</ele>
        <time>2014-06-14T11:41:57Z</time>
      </trkpt>
      <trkpt lat="45.69591" lon="4.94488">
        <ele>224.2</ele>
        <time>2014-06-14T11:42:02Z</time>
      </trkpt>
      <trkpt lat="45.69587" lon="4.94458">
        <ele>223.4</ele>
        <time>2014-06-14T11:42:35Z</time>
      </trkpt>
      <trkpt lat="45.69587" lon="4.94456">
        <ele>223.6</ele>
        <time>2014-06-14T11:42:36Z</time>
      </trkpt>
      <trkpt lat="45.69584" lon="4.94453">
        <ele>224</ele>
        <time>2014-06-14T11:42:40Z</time>
      </trkpt>
      <trkpt lat="45.69582" lon="4.9445">
        <ele>224</ele>
        <time>2014-06-14T11:42:46Z</time>
      </trkpt>
      <trkpt lat="45.69587" lon="4.94455">
        <ele>224</ele>
        <time>2014-06-14T11:43:10Z</time>
      </trkpt>
      <trkpt lat="45.69585" lon="4.9446">
        <ele>224.2</ele>
        <time>2014-06-14T11:43:11Z</time>
      </trkpt>
      <trkpt lat="45.69581" lon="4.94463">
        <ele>224.2</ele>
        <time>2014-06-14T11:43:12Z</time>
      </trkpt>
      <trkpt lat="45.69579" lon="4.94463">
        <ele>224</ele>
        <time>2014-06-14T11:43:26Z</time>
      </trkpt>
      <trkpt lat="45.6958" lon="4.94465">
        <ele>224</ele>
        <time>2014-06-14T11:43:27Z</time>
      </trkpt>
      <trkpt lat="45.69579" lon="4.94471">
        <ele>224</ele>
        <time>2014-06-14T11:43:29Z</time>
      </trkpt>
      <trkpt lat="45.69577" lon="4.94481">
        <ele>223.8</ele>
        <time>2014-06-14T11:43:46Z</time>
      </trkpt>
      <trkpt lat="45.69574" lon="4.94487">
        <ele>223.6</ele>
        <time>2014-06-14T11:43:49Z</time>
      </trkpt>
      <trkpt lat="45.69571" lon="4.94492">
        <ele>223.6</ele>
        <time>2014-06-14T11:43:51Z</time>
      </trkpt>
      <trkpt lat="45.6957" lon="4.94493">
        <ele>223.6</ele>
        <time>2014-06-14T11:43:52Z</time>
      </trkpt>
      <trkpt lat="45.69568" lon="4.94493">
        <ele>223.6</ele>
        <time>2014-06-14T11:43:55Z</time>
      </trkpt>
      <trkpt lat="45.69569" lon="4.94494">
        <ele>223.6</ele>
        <time>2014-06-14T11:44:32Z</time>
      </trkpt>
      <trkpt lat="45.6957" lon="4.94495">
        <ele>224.4</ele>
        <time>2014-06-14T11:44:38Z</time>
      </trkpt>
      <trkpt lat="45.69573" lon="4.94494">
        <ele>226.8</ele>
        <time>2014-06-14T11:45:54Z</time>
      </trkpt>
      <trkpt lat="45.69574" lon="4.94499">
        <ele>226.8</ele>
        <time>2014-06-14T11:45:56Z</time>
      </trkpt>
      <trkpt lat="45.69574" lon="4.94503">
        <ele>227</ele>
        <time>2014-06-14T11:45:57Z</time>
      </trkpt>
      <trkpt lat="45.69572" lon="4.9451">
        <ele>227</ele>
        <time>2014-06-14T11:45:59Z</time>
      </trkpt>
      <trkpt lat="45.69568" lon="4.94518">
        <ele>227</ele>
        <time>2014-06-14T11:46:01Z</time>
      </trkpt>
      <trkpt lat="45.69565" lon="4.94525">
        <ele>226.8</ele>
        <time>2014-06-14T11:46:03Z</time>
      </trkpt>
      <trkpt lat="45.69561" lon="4.94538">
        <ele>227</ele>
        <time>2014-06-14T11:46:06Z</time>
      </trkpt>
      <trkpt lat="45.69559" lon="4.94548">
        <ele>226.8</ele>
        <time>2014-06-14T11:46:09Z</time>
      </trkpt>
      <trkpt lat="45.69557" lon="4.9455">
        <ele>226.8</ele>
        <time>2014-06-14T11:46:10Z</time>
      </trkpt>
      <trkpt lat="45.6955" lon="4.94551">
        <ele>226.8</ele>
        <time>2014-06-14T11:46:13Z</time>
      </trkpt>
      <trkpt lat="45.69544" lon="4.94544">
        <ele>226.6</ele>
        <time>2014-06-14T11:46:17Z</time>
      </trkpt>
      <trkpt lat="45.69543" lon="4.94541">
        <ele>226.6</ele>
        <time>2014-06-14T11:46:18Z</time>
      </trkpt>
      <trkpt lat="45.6954" lon="4.94519">
        <ele>226.2</ele>
        <time>2014-06-14T11:46:23Z</time>
      </trkpt>
      <trkpt lat="45.69539" lon="4.94515">
        <ele>226.2</ele>
        <time>2014-06-14T11:46:24Z</time>
      </trkpt>
      <trkpt lat="45.69536" lon="4.94498">
        <ele>225.8</ele>
        <time>2014-06-14T11:46:28Z</time>
      </trkpt>
      <trkpt lat="45.69537" lon="4.94488">
        <ele>225.6</ele>
        <time>2014-06-14T11:46:30Z</time>
      </trkpt>
      <trkpt lat="45.6954" lon="4.94475">
        <ele>225.4</ele>
        <time>2014-06-14T11:46:33Z</time>
      </trkpt>
      <trkpt lat="45.69545" lon="4.9446">
        <ele>225.2</ele>
        <time>2014-06-14T11:46:37Z</time>
      </trkpt>
      <trkpt lat="45.69547" lon="4.94457">
        <ele>225.2</ele>
        <time>2014-06-14T11:46:38Z</time>
      </trkpt>
      <trkpt lat="45.69558" lon="4.94439">
        <ele>224.8</ele>
        <time>2014-06-14T11:46:45Z</time>
      </trkpt>
      <trkpt lat="45.69561" lon="4.94433">
        <ele>224.8</ele>
        <time>2014-06-14T11:46:48Z</time>
      </trkpt>
      <trkpt lat="45.69564" lon="4.94432">
        <ele>224.6</ele>
        <time>2014-06-14T11:46:50Z</time>
      </trkpt>
      <trkpt lat="45.6957" lon="4.94428">
        <ele>224.4</ele>
        <time>2014-06-14T11:46:55Z</time>
      </trkpt>
      <trkpt lat="45.69573" lon="4.94426">
        <ele>224.4</ele>
        <time>2014-06-14T11:46:57Z</time>
      </trkpt>
      <trkpt lat="45.69579" lon="4.94422">
        <ele>224.2</ele>
        <time>2014-06-14T11:47:00Z</time>
      </trkpt>
      <trkpt lat="45.69583" lon="4.94419">
        <ele>224.2</ele>
        <time>2014-06-14T11:47:02Z</time>
      </trkpt>
      <trkpt lat="45.69586" lon="4.94419">
        <ele>224.2</ele>
        <time>2014-06-14T11:47:03Z</time>
      </trkpt>
      <trkpt lat="45.6959" lon="4.9442">
        <ele>224.2</ele>
        <time>2014-06-14T11:47:05Z</time>
      </trkpt>
      <trkpt lat="45.69592" lon="4.94421">
        <ele>224.2</ele>
        <time>2014-06-14T11:47:06Z</time>
      </trkpt>
      <trkpt lat="45.696" lon="4.94421">
        <ele>224</ele>
        <time>2014-06-14T11:47:14Z</time>
      </trkpt>
      <trkpt lat="45.69604" lon="4.94419">
        <ele>223.8</ele>
        <time>2014-06-14T11:47:20Z</time>
      </trkpt>
      <trkpt lat="45.69605" lon="4.94416">
        <ele>223.8</ele>
        <time>2014-06-14T11:47:21Z</time>
      </trkpt>
      <trkpt lat="45.69605" lon="4.94412">
        <ele>223.8</ele>
        <time>2014-06-14T11:47:22Z</time>
      </trkpt>
      <trkpt lat="45.69607" lon="4.94401">
        <ele>223.6</ele>
        <time>2014-06-14T11:47:24Z</time>
      </trkpt>
      <trkpt lat="45.69611" lon="4.94385">
        <ele>223.6</ele>
        <time>2014-06-14T11:47:27Z</time>
      </trkpt>
      <trkpt lat="45.69616" lon="4.94368">
        <ele>223.2</ele>
        <time>2014-06-14T11:47:31Z</time>
      </trkpt>
      <trkpt lat="45.69618" lon="4.94369">
        <ele>223.2</ele>
        <time>2014-06-14T11:47:34Z</time>
      </trkpt>
      <trkpt lat="45.69618" lon="4.94372">
        <ele>223.2</ele>
        <time>2014-06-14T11:47:35Z</time>
      </trkpt>
      <trkpt lat="45.69616" lon="4.94377">
        <ele>223.2</ele>
        <time>2014-06-14T11:47:36Z</time>
      </trkpt>
      <trkpt lat="45.69615" lon="4.94386">
        <ele>223.2</ele>
        <time>2014-06-14T11:47:38Z</time>
      </trkpt>
      <trkpt lat="45.69612" lon="4.944">
        <ele>223.6</ele>
        <time>2014-06-14T11:47:41Z</time>
      </trkpt>
      <trkpt lat="45.69608" lon="4.94421">
        <ele>224.4</ele>
        <time>2014-06-14T11:47:46Z</time>
      </trkpt>
      <trkpt lat="45.69607" lon="4.94425">
        <ele>224.6</ele>
        <time>2014-06-14T11:47:47Z</time>
      </trkpt>
      <trkpt lat="45.69602" lon="4.9445">
        <ele>226</ele>
        <time>2014-06-14T11:47:53Z</time>
      </trkpt>
      <trkpt lat="45.69602" lon="4.94454">
        <ele>226.2</ele>
        <time>2014-06-14T11:47:54Z</time>
      </trkpt>
      <trkpt lat="45.696" lon="4.94479">
        <ele>226.8</ele>
        <time>2014-06-14T11:47:59Z</time>
      </trkpt>
      <trkpt lat="45.69599" lon="4.94488">
        <ele>226.8</ele>
        <time>2014-06-14T11:48:01Z</time>
      </trkpt>
      <trkpt lat="45.69595" lon="4.94508">
        <ele>227.4</ele>
        <time>2014-06-14T11:48:06Z</time>
      </trkpt>
      <trkpt lat="45.69594" lon="4.94511">
        <ele>227.4</ele>
        <time>2014-06-14T11:48:07Z</time>
      </trkpt>
      <trkpt lat="45.69583" lon="4.94522">
        <ele>227.8</ele>
        <time>2014-06-14T11:48:11Z</time>
      </trkpt>
      <trkpt lat="45.69581" lon="4.94526">
        <ele>227.8</ele>
        <time>2014-06-14T11:48:12Z</time>
      </trkpt>
      <trkpt lat="45.69568" lon="4.94545">
        <ele>228.4</ele>
        <time>2014-06-14T11:48:17Z</time>
      </trkpt>
      <trkpt lat="45.69563" lon="4.94553">
        <ele>228.4</ele>
        <time>2014-06-14T11:48:19Z</time>
      </trkpt>
      <trkpt lat="45.69552" lon="4.94563">
        <ele>228.8</ele>
        <time>2014-06-14T11:48:24Z</time>
      </trkpt>
      <trkpt lat="45.6955" lon="4.94563">
        <ele>229</ele>
        <time>2014-06-14T11:48:29Z</time>
      </trkpt>
      <trkpt lat="45.69549" lon="4.94562">
        <ele>228.8</ele>
        <time>2014-06-14T11:48:35Z</time>
      </trkpt>
      <trkpt lat="45.69545" lon="4.94565">
        <ele>228.8</ele>
        <time>2014-06-14T11:48:45Z</time>
      </trkpt>
      <trkpt lat="45.69542" lon="4.94567">
        <ele>228.8</ele>
        <time>2014-06-14T11:48:46Z</time>
      </trkpt>
      <trkpt lat="45.69539" lon="4.94572">
        <ele>228.8</ele>
        <time>2014-06-14T11:48:47Z</time>
      </trkpt>
      <trkpt lat="45.69535" lon="4.94586">
        <ele>228.8</ele>
        <time>2014-06-14T11:48:49Z</time>
      </trkpt>
      <trkpt lat="45.69536" lon="4.94596">
        <ele>228.8</ele>
        <time>2014-06-14T11:48:51Z</time>
      </trkpt>
      <trkpt lat="45.69539" lon="4.94605">
        <ele>228.8</ele>
        <time>2014-06-14T11:48:53Z</time>
      </trkpt>
      <trkpt lat="45.69538" lon="4.94619">
        <ele>228.8</ele>
        <time>2014-06-14T11:48:56Z</time>
      </trkpt>
      <trkpt lat="45.69537" lon="4.94623">
        <ele>228.8</ele>
        <time>2014-06-14T11:48:57Z</time>
      </trkpt>
      <trkpt lat="45.69528" lon="4.94648">
        <ele>229.2</ele>
        <time>2014-06-14T11:49:03Z</time>
      </trkpt>
      <trkpt lat="45.69516" lon="4.94674">
        <ele>229.6</ele>
        <time>2014-06-14T11:49:09Z</time>
      </trkpt>
      <trkpt lat="45.69514" lon="4.94678">
        <ele>229.6</ele>
        <time>2014-06-14T11:49:10Z</time>
      </trkpt>
      <trkpt lat="45.69509" lon="4.9469">
        <ele>229.6</ele>
        <time>2014-06-14T11:49:13Z</time>
      </trkpt>
      <trkpt lat="45.69503" lon="4.94692">
        <ele>229.6</ele>
        <time>2014-06-14T11:49:15Z</time>
      </trkpt>
      <trkpt lat="45.69494" lon="4.9468">
        <ele>229.6</ele>
        <time>2014-06-14T11:49:18Z</time>
      </trkpt>
      <trkpt lat="45.69491" lon="4.94676">
        <ele>229.4</ele>
        <time>2014-06-14T11:49:19Z</time>
      </trkpt>
      <trkpt lat="45.69475" lon="4.94655">
        <ele>229.2</ele>
        <time>2014-06-14T11:49:24Z</time>
      </trkpt>
      <trkpt lat="45.69461" lon="4.94637">
        <ele>229</ele>
        <time>2014-06-14T11:49:28Z</time>
      </trkpt>
      <trkpt lat="45.69452" lon="4.94625">
        <ele>228.8</ele>
        <time>2014-06-14T11:49:31Z</time>
      </trkpt>
      <trkpt lat="45.69446" lon="4.94615">
        <ele>228.4</ele>
        <time>2014-06-14T11:49:35Z</time>
      </trkpt>
      <trkpt lat="45.69443" lon="4.9461">
        <ele>228.4</ele>
        <time>2014-06-14T11:49:37Z</time>
      </trkpt>
      <trkpt lat="45.69439" lon="4.94604">
        <ele>228</ele>
        <time>2014-06-14T11:49:41Z</time>
      </trkpt>
      <trkpt lat="45.69441" lon="4.94612">
        <ele>227.8</ele>
        <time>2014-06-14T11:49:47Z</time>
      </trkpt>
      <trkpt lat="45.69442" lon="4.94614">
        <ele>227.8</ele>
        <time>2014-06-14T11:49:48Z</time>
      </trkpt>
      <trkpt lat="45.69444" lon="4.94615">
        <ele>227.8</ele>
        <time>2014-06-14T11:49:49Z</time>
      </trkpt>
      <trkpt lat="45.69446" lon="4.94615">
        <ele>227.8</ele>
        <time>2014-06-14T11:49:51Z</time>
      </trkpt>
      <trkpt lat="45.69445" lon="4.94616">
        <ele>227.6</ele>
        <time>2014-06-14T11:49:56Z</time>
      </trkpt>
      <trkpt lat="45.69444" lon="4.94617">
        <ele>228.2</ele>
        <time>2014-06-14T11:50:14Z</time>
      </trkpt>
      <trkpt lat="45.69444" lon="4.94615">
        <ele>228.2</ele>
        <time>2014-06-14T11:50:15Z</time>
      </trkpt>
      <trkpt lat="45.69438" lon="4.94606">
        <ele>228.2</ele>
        <time>2014-06-14T11:50:18Z</time>
      </trkpt>
      <trkpt lat="45.69436" lon="4.946">
        <ele>228</ele>
        <time>2014-06-14T11:50:19Z</time>
      </trkpt>
      <trkpt lat="45.69428" lon="4.94586">
        <ele>228</ele>
        <time>2014-06-14T11:50:23Z</time>
      </trkpt>
      <trkpt lat="45.69426" lon="4.94582">
        <ele>228</ele>
        <time>2014-06-14T11:50:24Z</time>
      </trkpt>
      <trkpt lat="45.69422" lon="4.94566">
        <ele>228</ele>
        <time>2014-06-14T11:50:27Z</time>
      </trkpt>
      <trkpt lat="45.69417" lon="4.94555">
        <ele>227.8</ele>
        <time>2014-06-14T11:50:29Z</time>
      </trkpt>
      <trkpt lat="45.69415" lon="4.94543">
        <ele>227.8</ele>
        <time>2014-06-14T11:50:31Z</time>
      </trkpt>
      <trkpt lat="45.69413" lon="4.94528">
        <ele>227.8</ele>
        <time>2014-06-14T11:50:33Z</time>
      </trkpt>
      <trkpt lat="45.69412" lon="4.94512">
        <ele>227.6</ele>
        <time>2014-06-14T11:50:35Z</time>
      </trkpt>
      <trkpt lat="45.69412" lon="4.94497">
        <ele>227.6</ele>
        <time>2014-06-14T11:50:37Z</time>
      </trkpt>
      <trkpt lat="45.69413" lon="4.94482">
        <ele>227.4</ele>
        <time>2014-06-14T11:50:40Z</time>
      </trkpt>
      <trkpt lat="45.69408" lon="4.94469">
        <ele>227.2</ele>
        <time>2014-06-14T11:50:44Z</time>
      </trkpt>
      <trkpt lat="45.69407" lon="4.94452">
        <ele>227</ele>
        <time>2014-06-14T11:50:48Z</time>
      </trkpt>
      <trkpt lat="45.69407" lon="4.94446">
        <ele>227</ele>
        <time>2014-06-14T11:50:49Z</time>
      </trkpt>
      <trkpt lat="45.6941" lon="4.94415">
        <ele>226.8</ele>
        <time>2014-06-14T11:50:53Z</time>
      </trkpt>
      <trkpt lat="45.69411" lon="4.94407">
        <ele>226.8</ele>
        <time>2014-06-14T11:50:54Z</time>
      </trkpt>
      <trkpt lat="45.69413" lon="4.94386">
        <ele>226.6</ele>
        <time>2014-06-14T11:50:57Z</time>
      </trkpt>
      <trkpt lat="45.69412" lon="4.94381">
        <ele>226.4</ele>
        <time>2014-06-14T11:50:58Z</time>
      </trkpt>
      <trkpt lat="45.69405" lon="4.94372">
        <ele>226</ele>
        <time>2014-06-14T11:51:02Z</time>
      </trkpt>
      <trkpt lat="45.69398" lon="4.94375">
        <ele>225.8</ele>
        <time>2014-06-14T11:51:04Z</time>
      </trkpt>
      <trkpt lat="45.69391" lon="4.94376">
        <ele>225.8</ele>
        <time>2014-06-14T11:51:06Z</time>
      </trkpt>
      <trkpt lat="45.69379" lon="4.94378">
        <ele>225.4</ele>
        <time>2014-06-14T11:51:09Z</time>
      </trkpt>
      <trkpt lat="45.69365" lon="4.94381">
        <ele>225</ele>
        <time>2014-06-14T11:51:12Z</time>
      </trkpt>
      <trkpt lat="45.6936" lon="4.94381">
        <ele>225</ele>
        <time>2014-06-14T11:51:13Z</time>
      </trkpt>
      <trkpt lat="45.69356" lon="4.94381">
        <ele>224.8</ele>
        <time>2014-06-14T11:51:14Z</time>
      </trkpt>
      <trkpt lat="45.69351" lon="4.94379">
        <ele>224.6</ele>
        <time>2014-06-14T11:51:16Z</time>
      </trkpt>
      <trkpt lat="45.69348" lon="4.94367">
        <ele>224.4</ele>
        <time>2014-06-14T11:51:19Z</time>
      </trkpt>
      <trkpt lat="45.69347" lon="4.94342">
        <ele>224.2</ele>
        <time>2014-06-14T11:51:23Z</time>
      </trkpt>
      <trkpt lat="45.69339" lon="4.9433">
        <ele>224.2</ele>
        <time>2014-06-14T11:51:27Z</time>
      </trkpt>
      <trkpt lat="45.69336" lon="4.94329">
        <ele>224.2</ele>
        <time>2014-06-14T11:51:28Z</time>
      </trkpt>
      <trkpt lat="45.69332" lon="4.94328">
        <ele>224</ele>
        <time>2014-06-14T11:51:29Z</time>
      </trkpt>
      <trkpt lat="45.69328" lon="4.94328">
        <ele>224</ele>
        <time>2014-06-14T11:51:32Z</time>
      </trkpt>
      <trkpt lat="45.69326" lon="4.94329">
        <ele>223.8</ele>
        <time>2014-06-14T11:51:36Z</time>
      </trkpt>
      <trkpt lat="45.69323" lon="4.9433">
        <ele>223.8</ele>
        <time>2014-06-14T11:51:38Z</time>
      </trkpt>
      <trkpt lat="45.69321" lon="4.94331">
        <ele>223.6</ele>
        <time>2014-06-14T11:51:41Z</time>
      </trkpt>
      <trkpt lat="45.69317" lon="4.94332">
        <ele>223.4</ele>
        <time>2014-06-14T11:51:45Z</time>
      </trkpt>
      <trkpt lat="45.69317" lon="4.94333">
        <ele>223.2</ele>
        <time>2014-06-14T11:51:46Z</time>
      </trkpt>
      <trkpt lat="45.69316" lon="4.94335">
        <ele>223</ele>
        <time>2014-06-14T11:51:49Z</time>
      </trkpt>
      <trkpt lat="45.69315" lon="4.94337">
        <ele>222.8</ele>
        <time>2014-06-14T11:51:52Z</time>
      </trkpt>
      <trkpt lat="45.69314" lon="4.94339">
        <ele>222.8</ele>
        <time>2014-06-14T11:51:53Z</time>
      </trkpt>
      <trkpt lat="45.69307" lon="4.94349">
        <ele>222.6</ele>
        <time>2014-06-14T11:51:58Z</time>
      </trkpt>
      <trkpt lat="45.69303" lon="4.94353">
        <ele>222.4</ele>
        <time>2014-06-14T11:52:03Z</time>
      </trkpt>
      <trkpt lat="45.69302" lon="4.94353">
        <ele>222.6</ele>
        <time>2014-06-14T11:52:04Z</time>
      </trkpt>
      <trkpt lat="45.69299" lon="4.94355">
        <ele>222.6</ele>
        <time>2014-06-14T11:52:05Z</time>
      </trkpt>
      <trkpt lat="45.69299" lon="4.94355">
        <ele>222.4</ele>
        <time>2014-06-14T11:52:09Z</time>
      </trkpt>
      <trkpt lat="45.69298" lon="4.94358">
        <ele>223</ele>
        <time>2014-06-14T11:52:17Z</time>
      </trkpt>
      <trkpt lat="45.69294" lon="4.94357">
        <ele>222.8</ele>
        <time>2014-06-14T11:52:32Z</time>
      </trkpt>
      <trkpt lat="45.69293" lon="4.94357">
        <ele>222.6</ele>
        <time>2014-06-14T11:52:34Z</time>
      </trkpt>
      <trkpt lat="45.69291" lon="4.94357">
        <ele>222.2</ele>
        <time>2014-06-14T11:52:36Z</time>
      </trkpt>
      <trkpt lat="45.6929" lon="4.94358">
        <ele>222.2</ele>
        <time>2014-06-14T11:52:38Z</time>
      </trkpt>
      <trkpt lat="45.69287" lon="4.94359">
        <ele>221.8</ele>
        <time>2014-06-14T11:52:40Z</time>
      </trkpt>
      <trkpt lat="45.69287" lon="4.9436">
        <ele>221.6</ele>
        <time>2014-06-14T11:52:42Z</time>
      </trkpt>
      <trkpt lat="45.69287" lon="4.94362">
        <ele>221.4</ele>
        <time>2014-06-14T11:52:44Z</time>
      </trkpt>
      <trkpt lat="45.69287" lon="4.94363">
        <ele>221.2</ele>
        <time>2014-06-14T11:52:45Z</time>
      </trkpt>
      <trkpt lat="45.69287" lon="4.94364">
        <ele>221.2</ele>
        <time>2014-06-14T11:52:46Z</time>
      </trkpt>
      <trkpt lat="45.69287" lon="4.94365">
        <ele>220.8</ele>
        <time>2014-06-14T11:52:48Z</time>
      </trkpt>
      <trkpt lat="45.69287" lon="4.94367">
        <ele>220.6</ele>
        <time>2014-06-14T11:52:54Z</time>
      </trkpt>
      <trkpt lat="45.69289" lon="4.9437">
        <ele>220.8</ele>
        <time>2014-06-14T11:52:59Z</time>
      </trkpt>
      <trkpt lat="45.69286" lon="4.94369">
        <ele>221.4</ele>
        <time>2014-06-14T11:53:03Z</time>
      </trkpt>
      <trkpt lat="45.69285" lon="4.94368">
        <ele>221.4</ele>
        <time>2014-06-14T11:53:05Z</time>
      </trkpt>
      <trkpt lat="45.69284" lon="4.94365">
        <ele>221.4</ele>
        <time>2014-06-14T11:53:10Z</time>
      </trkpt>
      <trkpt lat="45.69285" lon="4.94364">
        <ele>221.8</ele>
        <time>2014-06-14T11:53:12Z</time>
      </trkpt>
      <trkpt lat="45.69286" lon="4.94364">
        <ele>222.4</ele>
        <time>2014-06-14T11:53:14Z</time>
      </trkpt>
      <trkpt lat="45.69284" lon="4.94364">
        <ele>222.6</ele>
        <time>2014-06-14T11:53:15Z</time>
      </trkpt>
      <trkpt lat="45.69283" lon="4.94357">
        <ele>223.2</ele>
        <time>2014-06-14T11:53:19Z</time>
      </trkpt>
      <trkpt lat="45.69287" lon="4.94348">
        <ele>223.6</ele>
        <time>2014-06-14T11:53:24Z</time>
      </trkpt>
      <trkpt lat="45.69294" lon="4.94343">
        <ele>223.6</ele>
        <time>2014-06-14T11:53:26Z</time>
      </trkpt>
      <trkpt lat="45.69297" lon="4.94341">
        <ele>224</ele>
        <time>2014-06-14T11:53:27Z</time>
      </trkpt>
      <trkpt lat="45.69305" lon="4.94339">
        <ele>223.8</ele>
        <time>2014-06-14T11:53:30Z</time>
      </trkpt>
      <trkpt lat="45.69309" lon="4.94339">
        <ele>223.8</ele>
        <time>2014-06-14T11:53:32Z</time>
      </trkpt>
      <trkpt lat="45.69311" lon="4.9434">
        <ele>223.8</ele>
        <time>2014-06-14T11:53:34Z</time>
      </trkpt>
      <trkpt lat="45.69322" lon="4.94331">
        <ele>221.8</ele>
        <time>2014-06-14T11:58:23Z</time>
      </trkpt>
      <trkpt lat="45.69318" lon="4.94325">
        <ele>222.6</ele>
        <time>2014-06-14T11:58:26Z</time>
      </trkpt>
      <trkpt lat="45.69323" lon="4.94328">
        <ele>221.8</ele>
        <time>2014-06-14T11:58:27Z</time>
      </trkpt>
      <trkpt lat="45.69322" lon="4.9433">
        <ele>222</ele>
        <time>2014-06-14T11:58:29Z</time>
      </trkpt>
      <trkpt lat="45.69321" lon="4.9433">
        <ele>222.2</ele>
        <time>2014-06-14T11:58:30Z</time>
      </trkpt>
      <trkpt lat="45.69324" lon="4.94329">
        <ele>223</ele>
        <time>2014-06-14T11:58:34Z</time>
      </trkpt>
      <trkpt lat="45.69324" lon="4.94327">
        <ele>223.2</ele>
        <time>2014-06-14T11:58:35Z</time>
      </trkpt>
      <trkpt lat="45.69334" lon="4.94327">
        <ele>224.4</ele>
        <time>2014-06-14T11:58:41Z</time>
      </trkpt>
      <trkpt lat="45.69336" lon="4.94328">
        <ele>224.6</ele>
        <time>2014-06-14T11:58:42Z</time>
      </trkpt>
      <trkpt lat="45.69345" lon="4.94337">
        <ele>225.6</ele>
        <time>2014-06-14T11:58:47Z</time>
      </trkpt>
      <trkpt lat="45.69348" lon="4.94343">
        <ele>226</ele>
        <time>2014-06-14T11:58:49Z</time>
      </trkpt>
      <trkpt lat="45.6935" lon="4.94352">
        <ele>226.4</ele>
        <time>2014-06-14T11:58:51Z</time>
      </trkpt>
      <trkpt lat="45.69351" lon="4.9437">
        <ele>227.2</ele>
        <time>2014-06-14T11:58:56Z</time>
      </trkpt>
      <trkpt lat="45.69352" lon="4.94373">
        <ele>227.4</ele>
        <time>2014-06-14T11:58:57Z</time>
      </trkpt>
      <trkpt lat="45.69353" lon="4.94375">
        <ele>227.6</ele>
        <time>2014-06-14T11:58:58Z</time>
      </trkpt>
      <trkpt lat="45.6936" lon="4.94376">
        <ele>227.8</ele>
        <time>2014-06-14T11:59:01Z</time>
      </trkpt>
      <trkpt lat="45.69369" lon="4.94376">
        <ele>228.2</ele>
        <time>2014-06-14T11:59:04Z</time>
      </trkpt>
      <trkpt lat="45.69381" lon="4.94375">
        <ele>228.2</ele>
        <time>2014-06-14T11:59:08Z</time>
      </trkpt>
      <trkpt lat="45.69389" lon="4.94375">
        <ele>228</ele>
        <time>2014-06-14T11:59:11Z</time>
      </trkpt>
      <trkpt lat="45.69402" lon="4.94376">
        <ele>228</ele>
        <time>2014-06-14T11:59:15Z</time>
      </trkpt>
      <trkpt lat="45.69408" lon="4.94373">
        <ele>227.8</ele>
        <time>2014-06-14T11:59:17Z</time>
      </trkpt>
      <trkpt lat="45.69417" lon="4.94365">
        <ele>227.6</ele>
        <time>2014-06-14T11:59:20Z</time>
      </trkpt>
      <trkpt lat="45.69417" lon="4.9436">
        <ele>227.6</ele>
        <time>2014-06-14T11:59:21Z</time>
      </trkpt>
      <trkpt lat="45.69418" lon="4.94355">
        <ele>227.4</ele>
        <time>2014-06-14T11:59:22Z</time>
      </trkpt>
      <trkpt lat="45.69419" lon="4.9435">
        <ele>227.4</ele>
        <time>2014-06-14T11:59:23Z</time>
      </trkpt>
      <trkpt lat="45.69421" lon="4.94327">
        <ele>226.8</ele>
        <time>2014-06-14T11:59:28Z</time>
      </trkpt>
      <trkpt lat="45.69426" lon="4.94304">
        <ele>226.4</ele>
        <time>2014-06-14T11:59:33Z</time>
      </trkpt>
      <trkpt lat="45.69428" lon="4.943">
        <ele>226.4</ele>
        <time>2014-06-14T11:59:34Z</time>
      </trkpt>
      <trkpt lat="45.69427" lon="4.9428">
        <ele>226</ele>
        <time>2014-06-14T11:59:38Z</time>
      </trkpt>
      <trkpt lat="45.69428" lon="4.94271">
        <ele>225.8</ele>
        <time>2014-06-14T11:59:40Z</time>
      </trkpt>
      <trkpt lat="45.69431" lon="4.94256">
        <ele>225.6</ele>
        <time>2014-06-14T11:59:43Z</time>
      </trkpt>
      <trkpt lat="45.69431" lon="4.94244">
        <ele>225.2</ele>
        <time>2014-06-14T11:59:46Z</time>
      </trkpt>
      <trkpt lat="45.69431" lon="4.9424">
        <ele>225.2</ele>
        <time>2014-06-14T11:59:47Z</time>
      </trkpt>
      <trkpt lat="45.69433" lon="4.94224">
        <ele>224.6</ele>
        <time>2014-06-14T11:59:52Z</time>
      </trkpt>
      <trkpt lat="45.69433" lon="4.94215">
        <ele>224.4</ele>
        <time>2014-06-14T11:59:54Z</time>
      </trkpt>
      <trkpt lat="45.69435" lon="4.94195">
        <ele>224</ele>
        <time>2014-06-14T11:59:57Z</time>
      </trkpt>
      <trkpt lat="45.69435" lon="4.94188">
        <ele>224</ele>
        <time>2014-06-14T11:59:58Z</time>
      </trkpt>
      <trkpt lat="45.69438" lon="4.94168">
        <ele>223.6</ele>
        <time>2014-06-14T12:00:01Z</time>
      </trkpt>
      <trkpt lat="45.6944" lon="4.94162">
        <ele>223.4</ele>
        <time>2014-06-14T12:00:02Z</time>
      </trkpt>
      <trkpt lat="45.69442" lon="4.94156">
        <ele>223.2</ele>
        <time>2014-06-14T12:00:03Z</time>
      </trkpt>
      <trkpt lat="45.6945" lon="4.94145">
        <ele>222.8</ele>
        <time>2014-06-14T12:00:06Z</time>
      </trkpt>
      <trkpt lat="45.69454" lon="4.94142">
        <ele>222.6</ele>
        <time>2014-06-14T12:00:07Z</time>
      </trkpt>
      <trkpt lat="45.6946" lon="4.94141">
        <ele>222.2</ele>
        <time>2014-06-14T12:00:09Z</time>
      </trkpt>
      <trkpt lat="45.69463" lon="4.9414">
        <ele>222.2</ele>
        <time>2014-06-14T12:00:10Z</time>
      </trkpt>
      <trkpt lat="45.69474" lon="4.94142">
        <ele>221.8</ele>
        <time>2014-06-14T12:00:13Z</time>
      </trkpt>
      <trkpt lat="45.69481" lon="4.94143">
        <ele>221.6</ele>
        <time>2014-06-14T12:00:15Z</time>
      </trkpt>
      <trkpt lat="45.69492" lon="4.94144">
        <ele>221.2</ele>
        <time>2014-06-14T12:00:19Z</time>
      </trkpt>
      <trkpt lat="45.69501" lon="4.94146">
        <ele>221</ele>
        <time>2014-06-14T12:00:22Z</time>
      </trkpt>
      <trkpt lat="45.69512" lon="4.94148">
        <ele>220.8</ele>
        <time>2014-06-14T12:00:26Z</time>
      </trkpt>
      <trkpt lat="45.69527" lon="4.94149">
        <ele>220.6</ele>
        <time>2014-06-14T12:00:31Z</time>
      </trkpt>
      <trkpt lat="45.69531" lon="4.9415">
        <ele>220.4</ele>
        <time>2014-06-14T12:00:32Z</time>
      </trkpt>
      <trkpt lat="45.69536" lon="4.94151">
        <ele>220.4</ele>
        <time>2014-06-14T12:00:34Z</time>
      </trkpt>
      <trkpt lat="45.69542" lon="4.94149">
        <ele>220.4</ele>
        <time>2014-06-14T12:00:36Z</time>
      </trkpt>
      <trkpt lat="45.69548" lon="4.94147">
        <ele>220.4</ele>
        <time>2014-06-14T12:00:38Z</time>
      </trkpt>
      <trkpt lat="45.69558" lon="4.94147">
        <ele>220.2</ele>
        <time>2014-06-14T12:00:41Z</time>
      </trkpt>
      <trkpt lat="45.69569" lon="4.94147">
        <ele>220.2</ele>
        <time>2014-06-14T12:00:46Z</time>
      </trkpt>
      <trkpt lat="45.69569" lon="4.94147">
        <ele>220.2</ele>
        <time>2014-06-14T12:00:47Z</time>
      </trkpt>
      <trkpt lat="45.69568" lon="4.94146">
        <ele>220.6</ele>
        <time>2014-06-14T12:00:53Z</time>
      </trkpt>
      <trkpt lat="45.69567" lon="4.94145">
        <ele>221.4</ele>
        <time>2014-06-14T12:00:58Z</time>
      </trkpt>
      <trkpt lat="45.69567" lon="4.94138">
        <ele>227.2</ele>
        <time>2014-06-14T12:01:14Z</time>
      </trkpt>
      <trkpt lat="45.69573" lon="4.94138">
        <ele>227.6</ele>
        <time>2014-06-14T12:01:16Z</time>
      </trkpt>
      <trkpt lat="45.69579" lon="4.94139">
        <ele>228.4</ele>
        <time>2014-06-14T12:01:18Z</time>
      </trkpt>
      <trkpt lat="45.69582" lon="4.94139">
        <ele>228.8</ele>
        <time>2014-06-14T12:01:19Z</time>
      </trkpt>
      <trkpt lat="45.69594" lon="4.94142">
        <ele>229.6</ele>
        <time>2014-06-14T12:01:22Z</time>
      </trkpt>
      <trkpt lat="45.69598" lon="4.94143">
        <ele>230</ele>
        <time>2014-06-14T12:01:23Z</time>
      </trkpt>
      <trkpt lat="45.69611" lon="4.94147">
        <ele>230.8</ele>
        <time>2014-06-14T12:01:27Z</time>
      </trkpt>
      <trkpt lat="45.6962" lon="4.94151">
        <ele>231</ele>
        <time>2014-06-14T12:01:30Z</time>
      </trkpt>
      <trkpt lat="45.69624" lon="4.94153">
        <ele>231.4</ele>
        <time>2014-06-14T12:01:31Z</time>
      </trkpt>
      <trkpt lat="45.69636" lon="4.94155">
        <ele>230.8</ele>
        <time>2014-06-14T12:01:36Z</time>
      </trkpt>
      <trkpt lat="45.69638" lon="4.94151">
        <ele>230.6</ele>
        <time>2014-06-14T12:01:38Z</time>
      </trkpt>
      <trkpt lat="45.69641" lon="4.94139">
        <ele>230</ele>
        <time>2014-06-14T12:01:42Z</time>
      </trkpt>
      <trkpt lat="45.69644" lon="4.94125">
        <ele>228.6</ele>
        <time>2014-06-14T12:01:47Z</time>
      </trkpt>
      <trkpt lat="45.69645" lon="4.94123">
        <ele>228.2</ele>
        <time>2014-06-14T12:01:48Z</time>
      </trkpt>
      <trkpt lat="45.69645" lon="4.94118">
        <ele>227</ele>
        <time>2014-06-14T12:01:51Z</time>
      </trkpt>
      <trkpt lat="45.69645" lon="4.94101">
        <ele>225.4</ele>
        <time>2014-06-14T12:01:55Z</time>
      </trkpt>
      <trkpt lat="45.69645" lon="4.94096">
        <ele>225</ele>
        <time>2014-06-14T12:01:56Z</time>
      </trkpt>
      <trkpt lat="45.69643" lon="4.94077">
        <ele>223.4</ele>
        <time>2014-06-14T12:02:00Z</time>
      </trkpt>
      <trkpt lat="45.69643" lon="4.94072">
        <ele>223</ele>
        <time>2014-06-14T12:02:01Z</time>
      </trkpt>
      <trkpt lat="45.69644" lon="4.94049">
        <ele>221.4</ele>
        <time>2014-06-14T12:02:05Z</time>
      </trkpt>
      <trkpt lat="45.69645" lon="4.94044">
        <ele>221</ele>
        <time>2014-06-14T12:02:06Z</time>
      </trkpt>
      <trkpt lat="45.69646" lon="4.94026">
        <ele>219.2</ele>
        <time>2014-06-14T12:02:10Z</time>
      </trkpt>
      <trkpt lat="45.69647" lon="4.94022">
        <ele>218.8</ele>
        <time>2014-06-14T12:02:11Z</time>
      </trkpt>
      <trkpt lat="45.69648" lon="4.94018">
        <ele>218.6</ele>
        <time>2014-06-14T12:02:12Z</time>
      </trkpt>
      <trkpt lat="45.69648" lon="4.9401">
        <ele>217.8</ele>
        <time>2014-06-14T12:02:14Z</time>
      </trkpt>
      <trkpt lat="45.69644" lon="4.93989">
        <ele>216.2</ele>
        <time>2014-06-14T12:02:18Z</time>
      </trkpt>
      <trkpt lat="45.6964" lon="4.93967">
        <ele>215</ele>
        <time>2014-06-14T12:02:22Z</time>
      </trkpt>
      <trkpt lat="45.69639" lon="4.93962">
        <ele>214.8</ele>
        <time>2014-06-14T12:02:23Z</time>
      </trkpt>
      <trkpt lat="45.69637" lon="4.93952">
        <ele>214.4</ele>
        <time>2014-06-14T12:02:25Z</time>
      </trkpt>
      <trkpt lat="45.69635" lon="4.93937">
        <ele>213.6</ele>
        <time>2014-06-14T12:02:28Z</time>
      </trkpt>
      <trkpt lat="45.69636" lon="4.93909">
        <ele>212.6</ele>
        <time>2014-06-14T12:02:34Z</time>
      </trkpt>
      <trkpt lat="45.69637" lon="4.93901">
        <ele>212.2</ele>
        <time>2014-06-14T12:02:36Z</time>
      </trkpt>
      <trkpt lat="45.69636" lon="4.93881">
        <ele>211.4</ele>
        <time>2014-06-14T12:02:40Z</time>
      </trkpt>
      <trkpt lat="45.69637" lon="4.93876">
        <ele>211.4</ele>
        <time>2014-06-14T12:02:41Z</time>
      </trkpt>
      <trkpt lat="45.69638" lon="4.93852">
        <ele>210.6</ele>
        <time>2014-06-14T12:02:46Z</time>
      </trkpt>
      <trkpt lat="45.69638" lon="4.93844">
        <ele>210.2</ele>
        <time>2014-06-14T12:02:48Z</time>
      </trkpt>
      <trkpt lat="45.69635" lon="4.93837">
        <ele>210</ele>
        <time>2014-06-14T12:02:50Z</time>
      </trkpt>
      <trkpt lat="45.69631" lon="4.93831">
        <ele>209.8</ele>
        <time>2014-06-14T12:02:53Z</time>
      </trkpt>
      <trkpt lat="45.69631" lon="4.9383">
        <ele>209.8</ele>
        <time>2014-06-14T12:02:54Z</time>
      </trkpt>
      <trkpt lat="45.69628" lon="4.9383">
        <ele>209.6</ele>
        <time>2014-06-14T12:02:56Z</time>
      </trkpt>
      <trkpt lat="45.69625" lon="4.93829">
        <ele>209.6</ele>
        <time>2014-06-14T12:02:57Z</time>
      </trkpt>
      <trkpt lat="45.69611" lon="4.93826">
        <ele>209.4</ele>
        <time>2014-06-14T12:03:01Z</time>
      </trkpt>
      <trkpt lat="45.69607" lon="4.93825">
        <ele>209.4</ele>
        <time>2014-06-14T12:03:02Z</time>
      </trkpt>
      <trkpt lat="45.69593" lon="4.93823">
        <ele>209.2</ele>
        <time>2014-06-14T12:03:06Z</time>
      </trkpt>
      <trkpt lat="45.69578" lon="4.93819">
        <ele>209</ele>
        <time>2014-06-14T12:03:11Z</time>
      </trkpt>
      <trkpt lat="45.69575" lon="4.93819">
        <ele>208.8</ele>
        <time>2014-06-14T12:03:12Z</time>
      </trkpt>
      <trkpt lat="45.69563" lon="4.93815">
        <ele>208.8</ele>
        <time>2014-06-14T12:03:16Z</time>
      </trkpt>
      <trkpt lat="45.69563" lon="4.93813">
        <ele>208.8</ele>
        <time>2014-06-14T12:03:17Z</time>
      </trkpt>
      <trkpt lat="45.69567" lon="4.93808">
        <ele>208.6</ele>
        <time>2014-06-14T12:03:19Z</time>
      </trkpt>
      <trkpt lat="45.69572" lon="4.93802">
        <ele>208.6</ele>
        <time>2014-06-14T12:03:21Z</time>
      </trkpt>
      <trkpt lat="45.69579" lon="4.93795">
        <ele>208.6</ele>
        <time>2014-06-14T12:03:24Z</time>
      </trkpt>
      <trkpt lat="45.69583" lon="4.93791">
        <ele>208.4</ele>
        <time>2014-06-14T12:03:26Z</time>
      </trkpt>
      <trkpt lat="45.69593" lon="4.93781">
        <ele>208.2</ele>
        <time>2014-06-14T12:03:30Z</time>
      </trkpt>
      <trkpt lat="45.69596" lon="4.93777">
        <ele>208.2</ele>
        <time>2014-06-14T12:03:31Z</time>
      </trkpt>
      <trkpt lat="45.69607" lon="4.93765">
        <ele>208</ele>
        <time>2014-06-14T12:03:35Z</time>
      </trkpt>
      <trkpt lat="45.69609" lon="4.93764">
        <ele>208</ele>
        <time>2014-06-14T12:03:36Z</time>
      </trkpt>
      <trkpt lat="45.69614" lon="4.93764">
        <ele>207.8</ele>
        <time>2014-06-14T12:03:38Z</time>
      </trkpt>
      <trkpt lat="45.69617" lon="4.93763">
        <ele>207.8</ele>
        <time>2014-06-14T12:03:39Z</time>
      </trkpt>
      <trkpt lat="45.69635" lon="4.93761">
        <ele>207.6</ele>
        <time>2014-06-14T12:03:46Z</time>
      </trkpt>
      <trkpt lat="45.69654" lon="4.93763">
        <ele>207.2</ele>
        <time>2014-06-14T12:03:52Z</time>
      </trkpt>
      <trkpt lat="45.69669" lon="4.93766">
        <ele>207</ele>
        <time>2014-06-14T12:03:58Z</time>
      </trkpt>
      <trkpt lat="45.69669" lon="4.93772">
        <ele>206.8</ele>
        <time>2014-06-14T12:04:01Z</time>
      </trkpt>
      <trkpt lat="45.69669" lon="4.93773">
        <ele>206.8</ele>
        <time>2014-06-14T12:04:02Z</time>
      </trkpt>
      <trkpt lat="45.69667" lon="4.93777">
        <ele>206.8</ele>
        <time>2014-06-14T12:04:04Z</time>
      </trkpt>
      <trkpt lat="45.6966" lon="4.93785">
        <ele>206.6</ele>
        <time>2014-06-14T12:04:08Z</time>
      </trkpt>
      <trkpt lat="45.6966" lon="4.93785">
        <ele>206.6</ele>
        <time>2014-06-14T12:04:10Z</time>
      </trkpt>
      <trkpt lat="45.69662" lon="4.93785">
        <ele>206.6</ele>
        <time>2014-06-14T12:04:12Z</time>
      </trkpt>
      <trkpt lat="45.69664" lon="4.93785">
        <ele>206.6</ele>
        <time>2014-06-14T12:04:13Z</time>
      </trkpt>
      <trkpt lat="45.69667" lon="4.93784">
        <ele>206.6</ele>
        <time>2014-06-14T12:04:18Z</time>
      </trkpt>
      <trkpt lat="45.69668" lon="4.93778">
        <ele>207.8</ele>
        <time>2014-06-14T12:04:54Z</time>
      </trkpt>
      <trkpt lat="45.69668" lon="4.93775">
        <ele>208</ele>
        <time>2014-06-14T12:04:55Z</time>
      </trkpt>
      <trkpt lat="45.69672" lon="4.93768">
        <ele>208.2</ele>
        <time>2014-06-14T12:04:59Z</time>
      </trkpt>
      <trkpt lat="45.69672" lon="4.93766">
        <ele>208.2</ele>
        <time>2014-06-14T12:05:00Z</time>
      </trkpt>
      <trkpt lat="45.69675" lon="4.93762">
        <ele>208.4</ele>
        <time>2014-06-14T12:05:03Z</time>
      </trkpt>
      <trkpt lat="45.69675" lon="4.93762">
        <ele>208.4</ele>
        <time>2014-06-14T12:05:04Z</time>
      </trkpt>
      <trkpt lat="45.69686" lon="4.93764">
        <ele>208.4</ele>
        <time>2014-06-14T12:05:07Z</time>
      </trkpt>
      <trkpt lat="45.69706" lon="4.93764">
        <ele>208.4</ele>
        <time>2014-06-14T12:05:11Z</time>
      </trkpt>
      <trkpt lat="45.69709" lon="4.93766">
        <ele>208.4</ele>
        <time>2014-06-14T12:05:12Z</time>
      </trkpt>
      <trkpt lat="45.6971" lon="4.93776">
        <ele>208.4</ele>
        <time>2014-06-14T12:05:14Z</time>
      </trkpt>
      <trkpt lat="45.6971" lon="4.93787">
        <ele>208.6</ele>
        <time>2014-06-14T12:05:16Z</time>
      </trkpt>
      <trkpt lat="45.69711" lon="4.93798">
        <ele>208.6</ele>
        <time>2014-06-14T12:05:18Z</time>
      </trkpt>
      <trkpt lat="45.69709" lon="4.93816">
        <ele>208.4</ele>
        <time>2014-06-14T12:05:21Z</time>
      </trkpt>
      <trkpt lat="45.69708" lon="4.93835">
        <ele>208.4</ele>
        <time>2014-06-14T12:05:24Z</time>
      </trkpt>
      <trkpt lat="45.69707" lon="4.93847">
        <ele>208.4</ele>
        <time>2014-06-14T12:05:26Z</time>
      </trkpt>
      <trkpt lat="45.69704" lon="4.93874">
        <ele>208.4</ele>
        <time>2014-06-14T12:05:31Z</time>
      </trkpt>
      <trkpt lat="45.69701" lon="4.93905">
        <ele>208.4</ele>
        <time>2014-06-14T12:05:36Z</time>
      </trkpt>
      <trkpt lat="45.697" lon="4.93917">
        <ele>208.4</ele>
        <time>2014-06-14T12:05:38Z</time>
      </trkpt>
      <trkpt lat="45.697" lon="4.93928">
        <ele>208.4</ele>
        <time>2014-06-14T12:05:40Z</time>
      </trkpt>
      <trkpt lat="45.697" lon="4.93934">
        <ele>208.4</ele>
        <time>2014-06-14T12:05:41Z</time>
      </trkpt>
      <trkpt lat="45.69699" lon="4.9394">
        <ele>208.4</ele>
        <time>2014-06-14T12:05:42Z</time>
      </trkpt>
      <trkpt lat="45.69699" lon="4.93951">
        <ele>208.2</ele>
        <time>2014-06-14T12:05:43Z</time>
      </trkpt>
      <trkpt lat="45.69699" lon="4.93964">
        <ele>208.2</ele>
        <time>2014-06-14T12:05:46Z</time>
      </trkpt>
      <trkpt lat="45.69697" lon="4.93993">
        <ele>208.2</ele>
        <time>2014-06-14T12:05:51Z</time>
      </trkpt>
      <trkpt lat="45.69696" lon="4.94022">
        <ele>208.2</ele>
        <time>2014-06-14T12:05:56Z</time>
      </trkpt>
      <trkpt lat="45.69696" lon="4.94049">
        <ele>208.4</ele>
        <time>2014-06-14T12:06:01Z</time>
      </trkpt>
      <trkpt lat="45.69694" lon="4.94065">
        <ele>208.4</ele>
        <time>2014-06-14T12:06:03Z</time>
      </trkpt>
      <trkpt lat="45.69692" lon="4.94079">
        <ele>208.6</ele>
        <time>2014-06-14T12:06:07Z</time>
      </trkpt>
      <trkpt lat="45.69691" lon="4.94094">
        <ele>208.8</ele>
        <time>2014-06-14T12:06:10Z</time>
      </trkpt>
      <trkpt lat="45.69687" lon="4.94103">
        <ele>209</ele>
        <time>2014-06-14T12:06:13Z</time>
      </trkpt>
      <trkpt lat="45.69684" lon="4.94102">
        <ele>209</ele>
        <time>2014-06-14T12:06:14Z</time>
      </trkpt>
      <trkpt lat="45.69669" lon="4.94096">
        <ele>208.8</ele>
        <time>2014-06-14T12:06:19Z</time>
      </trkpt>
      <trkpt lat="45.69665" lon="4.94096">
        <ele>208.8</ele>
        <time>2014-06-14T12:06:20Z</time>
      </trkpt>
      <trkpt lat="45.6965" lon="4.94093">
        <ele>209</ele>
        <time>2014-06-14T12:06:23Z</time>
      </trkpt>
      <trkpt lat="45.69647" lon="4.94092">
        <ele>208.8</ele>
        <time>2014-06-14T12:06:25Z</time>
      </trkpt>
      <trkpt lat="45.69641" lon="4.9409">
        <ele>208.8</ele>
        <time>2014-06-14T12:06:27Z</time>
      </trkpt>
      <trkpt lat="45.69631" lon="4.94088">
        <ele>208.8</ele>
        <time>2014-06-14T12:06:31Z</time>
      </trkpt>
      <trkpt lat="45.69628" lon="4.94087">
        <ele>208.8</ele>
        <time>2014-06-14T12:06:32Z</time>
      </trkpt>
      <trkpt lat="45.6962" lon="4.94084">
        <ele>208.6</ele>
        <time>2014-06-14T12:06:35Z</time>
      </trkpt>
      <trkpt lat="45.69608" lon="4.94081">
        <ele>208.6</ele>
        <time>2014-06-14T12:06:39Z</time>
      </trkpt>
      <trkpt lat="45.69605" lon="4.9408">
        <ele>208.6</ele>
        <time>2014-06-14T12:06:40Z</time>
      </trkpt>
      <trkpt lat="45.6959" lon="4.94083">
        <ele>208.6</ele>
        <time>2014-06-14T12:06:43Z</time>
      </trkpt>
      <trkpt lat="45.6959" lon="4.94083">
        <ele>208.6</ele>
        <time>2014-06-14T12:06:44Z</time>
      </trkpt>
      <trkpt lat="45.69581" lon="4.94097">
        <ele>208.8</ele>
        <time>2014-06-14T12:06:47Z</time>
      </trkpt>
      <trkpt lat="45.69576" lon="4.94109">
        <ele>209</ele>
        <time>2014-06-14T12:06:49Z</time>
      </trkpt>
      <trkpt lat="45.69574" lon="4.94114">
        <ele>209.2</ele>
        <time>2014-06-14T12:06:51Z</time>
      </trkpt>
      <trkpt lat="45.69564" lon="4.94119">
        <ele>209.6</ele>
        <time>2014-06-14T12:06:54Z</time>
      </trkpt>
      <trkpt lat="45.6956" lon="4.94117">
        <ele>209.6</ele>
        <time>2014-06-14T12:06:55Z</time>
      </trkpt>
      <trkpt lat="45.69543" lon="4.9411">
        <ele>210.2</ele>
        <time>2014-06-14T12:06:59Z</time>
      </trkpt>
      <trkpt lat="45.6953" lon="4.94108">
        <ele>210.6</ele>
        <time>2014-06-14T12:07:02Z</time>
      </trkpt>
      <trkpt lat="45.69521" lon="4.94105">
        <ele>210.8</ele>
        <time>2014-06-14T12:07:03Z</time>
      </trkpt>
      <trkpt lat="45.69504" lon="4.94099">
        <ele>212</ele>
        <time>2014-06-14T12:07:08Z</time>
      </trkpt>
      <trkpt lat="45.69499" lon="4.94098">
        <ele>212.2</ele>
        <time>2014-06-14T12:07:09Z</time>
      </trkpt>
      <trkpt lat="45.69495" lon="4.94097">
        <ele>212.4</ele>
        <time>2014-06-14T12:07:10Z</time>
      </trkpt>
      <trkpt lat="45.69486" lon="4.94093">
        <ele>212.8</ele>
        <time>2014-06-14T12:07:12Z</time>
      </trkpt>
      <trkpt lat="45.69476" lon="4.94094">
        <ele>212.8</ele>
        <time>2014-06-14T12:07:14Z</time>
      </trkpt>
      <trkpt lat="45.69472" lon="4.94094">
        <ele>213</ele>
        <time>2014-06-14T12:07:15Z</time>
      </trkpt>
      <trkpt lat="45.69463" lon="4.94098">
        <ele>213.2</ele>
        <time>2014-06-14T12:07:17Z</time>
      </trkpt>
      <trkpt lat="45.69463" lon="4.94098">
        <ele>213.4</ele>
        <time>2014-06-14T12:07:18Z</time>
      </trkpt>
      <trkpt lat="45.6946" lon="4.94101">
        <ele>213.4</ele>
        <time>2014-06-14T12:07:19Z</time>
      </trkpt>
      <trkpt lat="45.69456" lon="4.941">
        <ele>214</ele>
        <time>2014-06-14T12:07:23Z</time>
      </trkpt>
      <trkpt lat="45.69448" lon="4.94099">
        <ele>215</ele>
        <time>2014-06-14T12:07:28Z</time>
      </trkpt>
      <trkpt lat="45.69445" lon="4.941">
        <ele>215.2</ele>
        <time>2014-06-14T12:07:30Z</time>
      </trkpt>
      <trkpt lat="45.69444" lon="4.94102">
        <ele>215.2</ele>
        <time>2014-06-14T12:07:31Z</time>
      </trkpt>
      <trkpt lat="45.69444" lon="4.94102">
        <ele>215.4</ele>
        <time>2014-06-14T12:07:32Z</time>
      </trkpt>
      <trkpt lat="45.69439" lon="4.94109">
        <ele>215.6</ele>
        <time>2014-06-14T12:07:34Z</time>
      </trkpt>
      <trkpt lat="45.69439" lon="4.94109">
        <ele>215.8</ele>
        <time>2014-06-14T12:07:35Z</time>
      </trkpt>
      <trkpt lat="45.69429" lon="4.94107">
        <ele>215.8</ele>
        <time>2014-06-14T12:07:37Z</time>
      </trkpt>
      <trkpt lat="45.69417" lon="4.94106">
        <ele>216</ele>
        <time>2014-06-14T12:07:40Z</time>
      </trkpt>
      <trkpt lat="45.69409" lon="4.94103">
        <ele>216</ele>
        <time>2014-06-14T12:07:42Z</time>
      </trkpt>
      <trkpt lat="45.69394" lon="4.94099">
        <ele>215.8</ele>
        <time>2014-06-14T12:07:46Z</time>
      </trkpt>
      <trkpt lat="45.69394" lon="4.94099">
        <ele>215.8</ele>
        <time>2014-06-14T12:07:47Z</time>
      </trkpt>
      <trkpt lat="45.6939" lon="4.94098">
        <ele>215.8</ele>
        <time>2014-06-14T12:07:48Z</time>
      </trkpt>
      <trkpt lat="45.69382" lon="4.941">
        <ele>215.8</ele>
        <time>2014-06-14T12:07:50Z</time>
      </trkpt>
      <trkpt lat="45.6938" lon="4.94107">
        <ele>216</ele>
        <time>2014-06-14T12:07:52Z</time>
      </trkpt>
      <trkpt lat="45.6938" lon="4.94113">
        <ele>216.2</ele>
        <time>2014-06-14T12:07:54Z</time>
      </trkpt>
      <trkpt lat="45.69379" lon="4.94119">
        <ele>216.4</ele>
        <time>2014-06-14T12:07:56Z</time>
      </trkpt>
      <trkpt lat="45.69372" lon="4.94125">
        <ele>216.6</ele>
        <time>2014-06-14T12:07:59Z</time>
      </trkpt>
      <trkpt lat="45.69366" lon="4.94127">
        <ele>216.6</ele>
        <time>2014-06-14T12:08:01Z</time>
      </trkpt>
      <trkpt lat="45.69366" lon="4.94127">
        <ele>216.6</ele>
        <time>2014-06-14T12:08:02Z</time>
      </trkpt>
      <trkpt lat="45.69358" lon="4.94129">
        <ele>216.8</ele>
        <time>2014-06-14T12:08:04Z</time>
      </trkpt>
      <trkpt lat="45.69348" lon="4.94131">
        <ele>216.8</ele>
        <time>2014-06-14T12:08:07Z</time>
      </trkpt>
      <trkpt lat="45.69343" lon="4.94131">
        <ele>217</ele>
        <time>2014-06-14T12:08:09Z</time>
      </trkpt>
      <trkpt lat="45.69343" lon="4.94132">
        <ele>217</ele>
        <time>2014-06-14T12:08:10Z</time>
      </trkpt>
      <trkpt lat="45.69339" lon="4.94133">
        <ele>217.8</ele>
        <time>2014-06-14T12:08:13Z</time>
      </trkpt>
      <trkpt lat="45.69337" lon="4.94134">
        <ele>218.2</ele>
        <time>2014-06-14T12:08:15Z</time>
      </trkpt>
      <trkpt lat="45.69331" lon="4.94132">
        <ele>218.6</ele>
        <time>2014-06-14T12:08:18Z</time>
      </trkpt>
      <trkpt lat="45.6933" lon="4.94132">
        <ele>218.8</ele>
        <time>2014-06-14T12:08:19Z</time>
      </trkpt>
      <trkpt lat="45.69327" lon="4.94131">
        <ele>219</ele>
        <time>2014-06-14T12:08:20Z</time>
      </trkpt>
      <trkpt lat="45.69322" lon="4.9413">
        <ele>219.4</ele>
        <time>2014-06-14T12:08:22Z</time>
      </trkpt>
      <trkpt lat="45.6931" lon="4.94125">
        <ele>219.2</ele>
        <time>2014-06-14T12:08:26Z</time>
      </trkpt>
      <trkpt lat="45.69307" lon="4.94125">
        <ele>219.2</ele>
        <time>2014-06-14T12:08:27Z</time>
      </trkpt>
      <trkpt lat="45.69292" lon="4.94129">
        <ele>219.4</ele>
        <time>2014-06-14T12:08:31Z</time>
      </trkpt>
      <trkpt lat="45.69284" lon="4.94129">
        <ele>219.4</ele>
        <time>2014-06-14T12:08:33Z</time>
      </trkpt>
      <trkpt lat="45.69271" lon="4.94129">
        <ele>219.2</ele>
        <time>2014-06-14T12:08:37Z</time>
      </trkpt>
      <trkpt lat="45.69262" lon="4.9413">
        <ele>219</ele>
        <time>2014-06-14T12:08:40Z</time>
      </trkpt>
      <trkpt lat="45.6925" lon="4.94125">
        <ele>218.8</ele>
        <time>2014-06-14T12:08:44Z</time>
      </trkpt>
      <trkpt lat="45.69246" lon="4.94125">
        <ele>218.8</ele>
        <time>2014-06-14T12:08:45Z</time>
      </trkpt>
      <trkpt lat="45.69238" lon="4.94114">
        <ele>218.6</ele>
        <time>2014-06-14T12:08:49Z</time>
      </trkpt>
      <trkpt lat="45.69236" lon="4.94109">
        <ele>218.6</ele>
        <time>2014-06-14T12:08:50Z</time>
      </trkpt>
      <trkpt lat="45.69228" lon="4.94097">
        <ele>218.4</ele>
        <time>2014-06-14T12:08:53Z</time>
      </trkpt>
      <trkpt lat="45.69221" lon="4.94089">
        <ele>218.4</ele>
        <time>2014-06-14T12:08:55Z</time>
      </trkpt>
      <trkpt lat="45.69206" lon="4.94076">
        <ele>218.2</ele>
        <time>2014-06-14T12:08:58Z</time>
      </trkpt>
      <trkpt lat="45.69201" lon="4.94071">
        <ele>218.2</ele>
        <time>2014-06-14T12:08:59Z</time>
      </trkpt>
      <trkpt lat="45.69196" lon="4.94067">
        <ele>218.2</ele>
        <time>2014-06-14T12:09:00Z</time>
      </trkpt>
      <trkpt lat="45.69181" lon="4.9406">
        <ele>218</ele>
        <time>2014-06-14T12:09:03Z</time>
      </trkpt>
      <trkpt lat="45.69171" lon="4.94068">
        <ele>217.8</ele>
        <time>2014-06-14T12:09:06Z</time>
      </trkpt>
      <trkpt lat="45.69168" lon="4.94073">
        <ele>217.8</ele>
        <time>2014-06-14T12:09:07Z</time>
      </trkpt>
      <trkpt lat="45.69165" lon="4.94078">
        <ele>217.8</ele>
        <time>2014-06-14T12:09:08Z</time>
      </trkpt>
      <trkpt lat="45.6916" lon="4.94084">
        <ele>217.6</ele>
        <time>2014-06-14T12:09:10Z</time>
      </trkpt>
      <trkpt lat="45.69163" lon="4.94091">
        <ele>217.4</ele>
        <time>2014-06-14T12:09:13Z</time>
      </trkpt>
      <trkpt lat="45.69171" lon="4.94089">
        <ele>217.2</ele>
        <time>2014-06-14T12:09:17Z</time>
      </trkpt>
      <trkpt lat="45.69176" lon="4.94079">
        <ele>217.2</ele>
        <time>2014-06-14T12:09:19Z</time>
      </trkpt>
      <trkpt lat="45.69179" lon="4.9407">
        <ele>217</ele>
        <time>2014-06-14T12:09:21Z</time>
      </trkpt>
      <trkpt lat="45.6918" lon="4.94068">
        <ele>216.8</ele>
        <time>2014-06-14T12:09:24Z</time>
      </trkpt>
      <trkpt lat="45.69179" lon="4.94068">
        <ele>216.6</ele>
        <time>2014-06-14T12:09:25Z</time>
      </trkpt>
      <trkpt lat="45.69179" lon="4.94074">
        <ele>216.2</ele>
        <time>2014-06-14T12:09:28Z</time>
      </trkpt>
      <trkpt lat="45.69179" lon="4.94085">
        <ele>216.2</ele>
        <time>2014-06-14T12:09:30Z</time>
      </trkpt>
      <trkpt lat="45.6918" lon="4.94089">
        <ele>216</ele>
        <time>2014-06-14T12:09:32Z</time>
      </trkpt>
      <trkpt lat="45.69182" lon="4.94096">
        <ele>216</ele>
        <time>2014-06-14T12:09:33Z</time>
      </trkpt>
      <trkpt lat="45.69183" lon="4.94097">
        <ele>216</ele>
        <time>2014-06-14T12:09:34Z</time>
      </trkpt>
      <trkpt lat="45.69189" lon="4.941">
        <ele>215.8</ele>
        <time>2014-06-14T12:09:39Z</time>
      </trkpt>
      <trkpt lat="45.69191" lon="4.94099">
        <ele>215.8</ele>
        <time>2014-06-14T12:09:40Z</time>
      </trkpt>
      <trkpt lat="45.69189" lon="4.941">
        <ele>215.8</ele>
        <time>2014-06-14T12:09:45Z</time>
      </trkpt>
      <trkpt lat="45.6919" lon="4.941">
        <ele>216</ele>
        <time>2014-06-14T12:09:47Z</time>
      </trkpt>
      <trkpt lat="45.69192" lon="4.94099">
        <ele>216</ele>
        <time>2014-06-14T12:09:49Z</time>
      </trkpt>
      <trkpt lat="45.69194" lon="4.94098">
        <ele>216.2</ele>
        <time>2014-06-14T12:09:53Z</time>
      </trkpt>
      <trkpt lat="45.69192" lon="4.94109">
        <ele>220.6</ele>
        <time>2014-06-14T12:10:11Z</time>
      </trkpt>
      <trkpt lat="45.69189" lon="4.94108">
        <ele>223</ele>
        <time>2014-06-14T12:10:19Z</time>
      </trkpt>
      <trkpt lat="45.69185" lon="4.94109">
        <ele>223.4</ele>
        <time>2014-06-14T12:10:22Z</time>
      </trkpt>
      <trkpt lat="45.69184" lon="4.94108">
        <ele>223.2</ele>
        <time>2014-06-14T12:10:23Z</time>
      </trkpt>
      <trkpt lat="45.69184" lon="4.94102">
        <ele>223.2</ele>
        <time>2014-06-14T12:10:26Z</time>
      </trkpt>
      <trkpt lat="45.69181" lon="4.94089">
        <ele>223</ele>
        <time>2014-06-14T12:10:30Z</time>
      </trkpt>
      <trkpt lat="45.69181" lon="4.94085">
        <ele>222.8</ele>
        <time>2014-06-14T12:10:31Z</time>
      </trkpt>
      <trkpt lat="45.69184" lon="4.94077">
        <ele>222.4</ele>
        <time>2014-06-14T12:10:35Z</time>
      </trkpt>
      <trkpt lat="45.69183" lon="4.94075">
        <ele>222.4</ele>
        <time>2014-06-14T12:10:37Z</time>
      </trkpt>
      <trkpt lat="45.69182" lon="4.94071">
        <ele>222</ele>
        <time>2014-06-14T12:10:41Z</time>
      </trkpt>
      <trkpt lat="45.69179" lon="4.94067">
        <ele>221.4</ele>
        <time>2014-06-14T12:10:45Z</time>
      </trkpt>
      <trkpt lat="45.69179" lon="4.94066">
        <ele>221.2</ele>
        <time>2014-06-14T12:10:46Z</time>
      </trkpt>
      <trkpt lat="45.6918" lon="4.94062">
        <ele>221</ele>
        <time>2014-06-14T12:10:48Z</time>
      </trkpt>
      <trkpt lat="45.6918" lon="4.9406">
        <ele>220.8</ele>
        <time>2014-06-14T12:10:49Z</time>
      </trkpt>
      <trkpt lat="45.69184" lon="4.94057">
        <ele>220.4</ele>
        <time>2014-06-14T12:10:53Z</time>
      </trkpt>
      <trkpt lat="45.69185" lon="4.94057">
        <ele>220.2</ele>
        <time>2014-06-14T12:10:54Z</time>
      </trkpt>
      <trkpt lat="45.69194" lon="4.9406">
        <ele>220</ele>
        <time>2014-06-14T12:10:58Z</time>
      </trkpt>
      <trkpt lat="45.69209" lon="4.94072">
        <ele>219.6</ele>
        <time>2014-06-14T12:11:03Z</time>
      </trkpt>
      <trkpt lat="45.69212" lon="4.94074">
        <ele>219.6</ele>
        <time>2014-06-14T12:11:04Z</time>
      </trkpt>
      <trkpt lat="45.69219" lon="4.94083">
        <ele>219.6</ele>
        <time>2014-06-14T12:11:07Z</time>
      </trkpt>
      <trkpt lat="45.69226" lon="4.94092">
        <ele>219.4</ele>
        <time>2014-06-14T12:11:10Z</time>
      </trkpt>
      <trkpt lat="45.69232" lon="4.94098">
        <ele>219.4</ele>
        <time>2014-06-14T12:11:12Z</time>
      </trkpt>
      <trkpt lat="45.69242" lon="4.94107">
        <ele>219.2</ele>
        <time>2014-06-14T12:11:16Z</time>
      </trkpt>
      <trkpt lat="45.69257" lon="4.94123">
        <ele>219.2</ele>
        <time>2014-06-14T12:11:22Z</time>
      </trkpt>
      <trkpt lat="45.69269" lon="4.9413">
        <ele>219</ele>
        <time>2014-06-14T12:11:27Z</time>
      </trkpt>
      <trkpt lat="45.69276" lon="4.9413">
        <ele>219</ele>
        <time>2014-06-14T12:11:29Z</time>
      </trkpt>
      <trkpt lat="45.69286" lon="4.9413">
        <ele>219</ele>
        <time>2014-06-14T12:11:32Z</time>
      </trkpt>
      <trkpt lat="45.69295" lon="4.94129">
        <ele>218.8</ele>
        <time>2014-06-14T12:11:35Z</time>
      </trkpt>
      <trkpt lat="45.69301" lon="4.94128">
        <ele>218.8</ele>
        <time>2014-06-14T12:11:37Z</time>
      </trkpt>
      <trkpt lat="45.69313" lon="4.94127">
        <ele>218.8</ele>
        <time>2014-06-14T12:11:42Z</time>
      </trkpt>
      <trkpt lat="45.69316" lon="4.94128">
        <ele>218.8</ele>
        <time>2014-06-14T12:11:43Z</time>
      </trkpt>
      <trkpt lat="45.69324" lon="4.94127">
        <ele>218.6</ele>
        <time>2014-06-14T12:11:46Z</time>
      </trkpt>
      <trkpt lat="45.69332" lon="4.94128">
        <ele>218.6</ele>
        <time>2014-06-14T12:11:50Z</time>
      </trkpt>
      <trkpt lat="45.69334" lon="4.9413">
        <ele>218.8</ele>
        <time>2014-06-14T12:11:52Z</time>
      </trkpt>
      <trkpt lat="45.69335" lon="4.9413">
        <ele>218.8</ele>
        <time>2014-06-14T12:11:54Z</time>
      </trkpt>
      <trkpt lat="45.69336" lon="4.94133">
        <ele>219.4</ele>
        <time>2014-06-14T12:11:57Z</time>
      </trkpt>
      <trkpt lat="45.69338" lon="4.94136">
        <ele>220.4</ele>
        <time>2014-06-14T12:12:00Z</time>
      </trkpt>
      <trkpt lat="45.69339" lon="4.94136">
        <ele>220.8</ele>
        <time>2014-06-14T12:12:02Z</time>
      </trkpt>
      <trkpt lat="45.6934" lon="4.94135">
        <ele>221.2</ele>
        <time>2014-06-14T12:12:03Z</time>
      </trkpt>
      <trkpt lat="45.69349" lon="4.94131">
        <ele>221.6</ele>
        <time>2014-06-14T12:12:06Z</time>
      </trkpt>
      <trkpt lat="45.69352" lon="4.94129">
        <ele>221.8</ele>
        <time>2014-06-14T12:12:07Z</time>
      </trkpt>
      <trkpt lat="45.69366" lon="4.94127">
        <ele>222.4</ele>
        <time>2014-06-14T12:12:11Z</time>
      </trkpt>
      <trkpt lat="45.69373" lon="4.94127">
        <ele>222.8</ele>
        <time>2014-06-14T12:12:13Z</time>
      </trkpt>
      <trkpt lat="45.69383" lon="4.94127">
        <ele>223.6</ele>
        <time>2014-06-14T12:12:16Z</time>
      </trkpt>
      <trkpt lat="45.69392" lon="4.94128">
        <ele>224</ele>
        <time>2014-06-14T12:12:19Z</time>
      </trkpt>
      <trkpt lat="45.69403" lon="4.94131">
        <ele>224.4</ele>
        <time>2014-06-14T12:12:22Z</time>
      </trkpt>
      <trkpt lat="45.6941" lon="4.94132">
        <ele>224.6</ele>
        <time>2014-06-14T12:12:24Z</time>
      </trkpt>
      <trkpt lat="45.69419" lon="4.94132">
        <ele>224.6</ele>
        <time>2014-06-14T12:12:27Z</time>
      </trkpt>
      <trkpt lat="45.6943" lon="4.94131">
        <ele>224.6</ele>
        <time>2014-06-14T12:12:30Z</time>
      </trkpt>
      <trkpt lat="45.69439" lon="4.94129">
        <ele>224.8</ele>
        <time>2014-06-14T12:12:33Z</time>
      </trkpt>
      <trkpt lat="45.69448" lon="4.94129">
        <ele>224.6</ele>
        <time>2014-06-14T12:12:36Z</time>
      </trkpt>
      <trkpt lat="45.69455" lon="4.94129">
        <ele>224.8</ele>
        <time>2014-06-14T12:12:38Z</time>
      </trkpt>
      <trkpt lat="45.69469" lon="4.9413">
        <ele>225.2</ele>
        <time>2014-06-14T12:12:43Z</time>
      </trkpt>
      <trkpt lat="45.69489" lon="4.94133">
        <ele>225.2</ele>
        <time>2014-06-14T12:12:50Z</time>
      </trkpt>
      <trkpt lat="45.69504" lon="4.94131">
        <ele>225</ele>
        <time>2014-06-14T12:12:55Z</time>
      </trkpt>
      <trkpt lat="45.69507" lon="4.94131">
        <ele>225</ele>
        <time>2014-06-14T12:12:56Z</time>
      </trkpt>
      <trkpt lat="45.69518" lon="4.94133">
        <ele>224.8</ele>
        <time>2014-06-14T12:13:00Z</time>
      </trkpt>
      <trkpt lat="45.69526" lon="4.94136">
        <ele>224.8</ele>
        <time>2014-06-14T12:13:03Z</time>
      </trkpt>
      <trkpt lat="45.6953" lon="4.94136">
        <ele>224.8</ele>
        <time>2014-06-14T12:13:05Z</time>
      </trkpt>
      <trkpt lat="45.69544" lon="4.94138">
        <ele>224.6</ele>
        <time>2014-06-14T12:13:10Z</time>
      </trkpt>
      <trkpt lat="45.69548" lon="4.9414">
        <ele>224.6</ele>
        <time>2014-06-14T12:13:11Z</time>
      </trkpt>
      <trkpt lat="45.69561" lon="4.94147">
        <ele>224.4</ele>
        <time>2014-06-14T12:13:16Z</time>
      </trkpt>
      <trkpt lat="45.69562" lon="4.94147">
        <ele>224.2</ele>
        <time>2014-06-14T12:13:17Z</time>
      </trkpt>
      <trkpt lat="45.69571" lon="4.94148">
        <ele>224.2</ele>
        <time>2014-06-14T12:13:24Z</time>
      </trkpt>
      <trkpt lat="45.6957" lon="4.94148">
        <ele>232.4</ele>
        <time>2014-06-14T12:13:49Z</time>
      </trkpt>
      <trkpt lat="45.69568" lon="4.94149">
        <ele>233.2</ele>
        <time>2014-06-14T12:13:51Z</time>
      </trkpt>
      <trkpt lat="45.69566" lon="4.94148">
        <ele>234.2</ele>
        <time>2014-06-14T12:13:54Z</time>
      </trkpt>
      <trkpt lat="45.69568" lon="4.94146">
        <ele>238.2</ele>
        <time>2014-06-14T12:14:06Z</time>
      </trkpt>
      <trkpt lat="45.69571" lon="4.94147">
        <ele>239.8</ele>
        <time>2014-06-14T12:14:11Z</time>
      </trkpt>
      <trkpt lat="45.69574" lon="4.94145">
        <ele>242.4</ele>
        <time>2014-06-14T12:14:19Z</time>
      </trkpt>
      <trkpt lat="45.69579" lon="4.94147">
        <ele>245</ele>
        <time>2014-06-14T12:14:26Z</time>
      </trkpt>
      <trkpt lat="45.69578" lon="4.94147">
        <ele>246.4</ele>
        <time>2014-06-14T12:14:29Z</time>
      </trkpt>
      <trkpt lat="45.69577" lon="4.94146">
        <ele>247.2</ele>
        <time>2014-06-14T12:14:31Z</time>
      </trkpt>
      <trkpt lat="45.6958" lon="4.94143">
        <ele>248.2</ele>
        <time>2014-06-14T12:14:33Z</time>
      </trkpt>
      <trkpt lat="45.69586" lon="4.94144">
        <ele>249.4</ele>
        <time>2014-06-14T12:14:35Z</time>
      </trkpt>
      <trkpt lat="45.69598" lon="4.94146">
        <ele>251</ele>
        <time>2014-06-14T12:14:39Z</time>
      </trkpt>
      <trkpt lat="45.69599" lon="4.94146">
        <ele>251.2</ele>
        <time>2014-06-14T12:14:40Z</time>
      </trkpt>
      <trkpt lat="45.6962" lon="4.94153">
        <ele>253.2</ele>
        <time>2014-06-14T12:14:45Z</time>
      </trkpt>
      <trkpt lat="45.69641" lon="4.94165">
        <ele>254.8</ele>
        <time>2014-06-14T12:14:50Z</time>
      </trkpt>
      <trkpt lat="45.69648" lon="4.94169">
        <ele>255.4</ele>
        <time>2014-06-14T12:14:52Z</time>
      </trkpt>
      <trkpt lat="45.69658" lon="4.94175">
        <ele>255.4</ele>
        <time>2014-06-14T12:14:54Z</time>
      </trkpt>
      <trkpt lat="45.69662" lon="4.94175">
        <ele>255.4</ele>
        <time>2014-06-14T12:14:55Z</time>
      </trkpt>
      <trkpt lat="45.69666" lon="4.94173">
        <ele>255.4</ele>
        <time>2014-06-14T12:14:56Z</time>
      </trkpt>
      <trkpt lat="45.69676" lon="4.94158">
        <ele>255.2</ele>
        <time>2014-06-14T12:14:59Z</time>
      </trkpt>
      <trkpt lat="45.69681" lon="4.94154">
        <ele>255</ele>
        <time>2014-06-14T12:15:00Z</time>
      </trkpt>
      <trkpt lat="45.69689" lon="4.94138">
        <ele>254.6</ele>
        <time>2014-06-14T12:15:03Z</time>
      </trkpt>
      <trkpt lat="45.69691" lon="4.94131">
        <ele>254.4</ele>
        <time>2014-06-14T12:15:04Z</time>
      </trkpt>
      <trkpt lat="45.69695" lon="4.94111">
        <ele>253.6</ele>
        <time>2014-06-14T12:15:07Z</time>
      </trkpt>
      <trkpt lat="45.69695" lon="4.94106">
        <ele>253.2</ele>
        <time>2014-06-14T12:15:08Z</time>
      </trkpt>
      <trkpt lat="45.69699" lon="4.94081">
        <ele>251.8</ele>
        <time>2014-06-14T12:15:12Z</time>
      </trkpt>
      <trkpt lat="45.69699" lon="4.94072">
        <ele>251.4</ele>
        <time>2014-06-14T12:15:13Z</time>
      </trkpt>
      <trkpt lat="45.697" lon="4.94052">
        <ele>250.4</ele>
        <time>2014-06-14T12:15:16Z</time>
      </trkpt>
      <trkpt lat="45.69702" lon="4.94041">
        <ele>249.6</ele>
        <time>2014-06-14T12:15:18Z</time>
      </trkpt>
      <trkpt lat="45.69704" lon="4.94023">
        <ele>248.4</ele>
        <time>2014-06-14T12:15:21Z</time>
      </trkpt>
      <trkpt lat="45.69705" lon="4.9401">
        <ele>247.6</ele>
        <time>2014-06-14T12:15:23Z</time>
      </trkpt>
      <trkpt lat="45.69708" lon="4.93999">
        <ele>246.6</ele>
        <time>2014-06-14T12:15:25Z</time>
      </trkpt>
      <trkpt lat="45.69709" lon="4.93993">
        <ele>246.2</ele>
        <time>2014-06-14T12:15:26Z</time>
      </trkpt>
      <trkpt lat="45.69711" lon="4.93981">
        <ele>245.4</ele>
        <time>2014-06-14T12:15:28Z</time>
      </trkpt>
      <trkpt lat="45.69711" lon="4.93965">
        <ele>244.2</ele>
        <time>2014-06-14T12:15:31Z</time>
      </trkpt>
      <trkpt lat="45.69711" lon="4.9396">
        <ele>243.8</ele>
        <time>2014-06-14T12:15:32Z</time>
      </trkpt>
      <trkpt lat="45.69711" lon="4.93955">
        <ele>243.2</ele>
        <time>2014-06-14T12:15:33Z</time>
      </trkpt>
      <trkpt lat="45.69712" lon="4.93942">
        <ele>242</ele>
        <time>2014-06-14T12:15:36Z</time>
      </trkpt>
      <trkpt lat="45.69712" lon="4.93937">
        <ele>241.6</ele>
        <time>2014-06-14T12:15:37Z</time>
      </trkpt>
      <trkpt lat="45.69713" lon="4.93926">
        <ele>240.8</ele>
        <time>2014-06-14T12:15:39Z</time>
      </trkpt>
      <trkpt lat="45.69714" lon="4.93911">
        <ele>239.4</ele>
        <time>2014-06-14T12:15:42Z</time>
      </trkpt>
      <trkpt lat="45.69716" lon="4.93902">
        <ele>238.6</ele>
        <time>2014-06-14T12:15:44Z</time>
      </trkpt>
      <trkpt lat="45.69718" lon="4.93885">
        <ele>237</ele>
        <time>2014-06-14T12:15:48Z</time>
      </trkpt>
      <trkpt lat="45.69718" lon="4.93877">
        <ele>236.2</ele>
        <time>2014-06-14T12:15:50Z</time>
      </trkpt>
      <trkpt lat="45.69719" lon="4.93867">
        <ele>234.8</ele>
        <time>2014-06-14T12:15:54Z</time>
      </trkpt>
      <trkpt lat="45.69718" lon="4.93865">
        <ele>234.4</ele>
        <time>2014-06-14T12:15:55Z</time>
      </trkpt>
      <trkpt lat="45.69719" lon="4.93857">
        <ele>233.4</ele>
        <time>2014-06-14T12:15:58Z</time>
      </trkpt>
      <trkpt lat="45.69721" lon="4.9385">
        <ele>232.6</ele>
        <time>2014-06-14T12:16:00Z</time>
      </trkpt>
      <trkpt lat="45.69724" lon="4.93841">
        <ele>231.4</ele>
        <time>2014-06-14T12:16:03Z</time>
      </trkpt>
      <trkpt lat="45.69726" lon="4.93833">
        <ele>230.6</ele>
        <time>2014-06-14T12:16:05Z</time>
      </trkpt>
      <trkpt lat="45.69727" lon="4.93825">
        <ele>229.8</ele>
        <time>2014-06-14T12:16:07Z</time>
      </trkpt>
      <trkpt lat="45.6973" lon="4.93804">
        <ele>227.6</ele>
        <time>2014-06-14T12:16:12Z</time>
      </trkpt>
      <trkpt lat="45.69729" lon="4.9378">
        <ele>226</ele>
        <time>2014-06-14T12:16:17Z</time>
      </trkpt>
      <trkpt lat="45.6973" lon="4.93776">
        <ele>225.6</ele>
        <time>2014-06-14T12:16:18Z</time>
      </trkpt>
      <trkpt lat="45.69729" lon="4.93772">
        <ele>225.2</ele>
        <time>2014-06-14T12:16:19Z</time>
      </trkpt>
      <trkpt lat="45.6973" lon="4.93764">
        <ele>224.4</ele>
        <time>2014-06-14T12:16:21Z</time>
      </trkpt>
      <trkpt lat="45.69731" lon="4.93746">
        <ele>223.2</ele>
        <time>2014-06-14T12:16:25Z</time>
      </trkpt>
      <trkpt lat="45.69731" lon="4.93742">
        <ele>223</ele>
        <time>2014-06-14T12:16:26Z</time>
      </trkpt>
      <trkpt lat="45.69731" lon="4.93723">
        <ele>222</ele>
        <time>2014-06-14T12:16:30Z</time>
      </trkpt>
      <trkpt lat="45.6973" lon="4.93719">
        <ele>221.8</ele>
        <time>2014-06-14T12:16:31Z</time>
      </trkpt>
      <trkpt lat="45.6973" lon="4.93715">
        <ele>221.6</ele>
        <time>2014-06-14T12:16:32Z</time>
      </trkpt>
      <trkpt lat="45.69729" lon="4.93712">
        <ele>221.2</ele>
        <time>2014-06-14T12:16:33Z</time>
      </trkpt>
      <trkpt lat="45.69726" lon="4.93704">
        <ele>220.8</ele>
        <time>2014-06-14T12:16:35Z</time>
      </trkpt>
      <trkpt lat="45.69722" lon="4.93692">
        <ele>220.4</ele>
        <time>2014-06-14T12:16:38Z</time>
      </trkpt>
      <trkpt lat="45.69721" lon="4.93686">
        <ele>220.2</ele>
        <time>2014-06-14T12:16:39Z</time>
      </trkpt>
      <trkpt lat="45.69722" lon="4.93664">
        <ele>219.2</ele>
        <time>2014-06-14T12:16:44Z</time>
      </trkpt>
      <trkpt lat="45.69726" lon="4.93642">
        <ele>218.4</ele>
        <time>2014-06-14T12:16:50Z</time>
      </trkpt>
      <trkpt lat="45.69726" lon="4.93638">
        <ele>218.4</ele>
        <time>2014-06-14T12:16:51Z</time>
      </trkpt>
      <trkpt lat="45.69724" lon="4.93614">
        <ele>217.6</ele>
        <time>2014-06-14T12:16:57Z</time>
      </trkpt>
      <trkpt lat="45.69724" lon="4.9361">
        <ele>217.6</ele>
        <time>2014-06-14T12:16:58Z</time>
      </trkpt>
      <trkpt lat="45.69728" lon="4.93597">
        <ele>217</ele>
        <time>2014-06-14T12:17:02Z</time>
      </trkpt>
      <trkpt lat="45.69729" lon="4.93584">
        <ele>216.8</ele>
        <time>2014-06-14T12:17:05Z</time>
      </trkpt>
      <trkpt lat="45.6973" lon="4.93574">
        <ele>216.6</ele>
        <time>2014-06-14T12:17:07Z</time>
      </trkpt>
      <trkpt lat="45.69731" lon="4.93557">
        <ele>216.4</ele>
        <time>2014-06-14T12:17:12Z</time>
      </trkpt>
      <trkpt lat="45.69731" lon="4.93541">
        <ele>216</ele>
        <time>2014-06-14T12:17:17Z</time>
      </trkpt>
      <trkpt lat="45.69729" lon="4.93529">
        <ele>215.8</ele>
        <time>2014-06-14T12:17:20Z</time>
      </trkpt>
      <trkpt lat="45.69729" lon="4.93525">
        <ele>215.8</ele>
        <time>2014-06-14T12:17:21Z</time>
      </trkpt>
      <trkpt lat="45.69727" lon="4.93506">
        <ele>215.6</ele>
        <time>2014-06-14T12:17:25Z</time>
      </trkpt>
      <trkpt lat="45.69727" lon="4.93503">
        <ele>215.6</ele>
        <time>2014-06-14T12:17:26Z</time>
      </trkpt>
      <trkpt lat="45.69729" lon="4.93489">
        <ele>215.6</ele>
        <time>2014-06-14T12:17:30Z</time>
      </trkpt>
      <trkpt lat="45.69732" lon="4.93475">
        <ele>215.4</ele>
        <time>2014-06-14T12:17:34Z</time>
      </trkpt>
      <trkpt lat="45.69733" lon="4.93471">
        <ele>215.4</ele>
        <time>2014-06-14T12:17:35Z</time>
      </trkpt>
      <trkpt lat="45.69737" lon="4.9345">
        <ele>214.8</ele>
        <time>2014-06-14T12:17:40Z</time>
      </trkpt>
      <trkpt lat="45.69738" lon="4.93446">
        <ele>214.6</ele>
        <time>2014-06-14T12:17:41Z</time>
      </trkpt>
      <trkpt lat="45.69745" lon="4.93423">
        <ele>213.6</ele>
        <time>2014-06-14T12:17:47Z</time>
      </trkpt>
      <trkpt lat="45.69753" lon="4.93401">
        <ele>212.4</ele>
        <time>2014-06-14T12:17:53Z</time>
      </trkpt>
      <trkpt lat="45.69754" lon="4.93398">
        <ele>212</ele>
        <time>2014-06-14T12:17:54Z</time>
      </trkpt>
      <trkpt lat="45.69757" lon="4.93387">
        <ele>211.4</ele>
        <time>2014-06-14T12:17:57Z</time>
      </trkpt>
      <trkpt lat="45.69756" lon="4.93371">
        <ele>210.4</ele>
        <time>2014-06-14T12:18:01Z</time>
      </trkpt>
      <trkpt lat="45.69756" lon="4.93341">
        <ele>209.4</ele>
        <time>2014-06-14T12:18:07Z</time>
      </trkpt>
      <trkpt lat="45.69756" lon="4.93336">
        <ele>209.2</ele>
        <time>2014-06-14T12:18:08Z</time>
      </trkpt>
      <trkpt lat="45.69758" lon="4.9331">
        <ele>208.4</ele>
        <time>2014-06-14T12:18:13Z</time>
      </trkpt>
      <trkpt lat="45.69758" lon="4.93306">
        <ele>208.2</ele>
        <time>2014-06-14T12:18:14Z</time>
      </trkpt>
      <trkpt lat="45.69759" lon="4.93281">
        <ele>207.4</ele>
        <time>2014-06-14T12:18:19Z</time>
      </trkpt>
      <trkpt lat="45.69759" lon="4.93261">
        <ele>207</ele>
        <time>2014-06-14T12:18:23Z</time>
      </trkpt>
      <trkpt lat="45.69759" lon="4.93252">
        <ele>206.8</ele>
        <time>2014-06-14T12:18:25Z</time>
      </trkpt>
      <trkpt lat="45.69758" lon="4.93241">
        <ele>206.6</ele>
        <time>2014-06-14T12:18:28Z</time>
      </trkpt>
      <trkpt lat="45.69757" lon="4.93223">
        <ele>206.4</ele>
        <time>2014-06-14T12:18:32Z</time>
      </trkpt>
      <trkpt lat="45.69755" lon="4.93207">
        <ele>206.4</ele>
        <time>2014-06-14T12:18:36Z</time>
      </trkpt>
      <trkpt lat="45.69757" lon="4.93193">
        <ele>206.4</ele>
        <time>2014-06-14T12:18:41Z</time>
      </trkpt>
      <trkpt lat="45.69759" lon="4.93162">
        <ele>206.6</ele>
        <time>2014-06-14T12:18:46Z</time>
      </trkpt>
      <trkpt lat="45.69761" lon="4.93156">
        <ele>206.6</ele>
        <time>2014-06-14T12:18:47Z</time>
      </trkpt>
      <trkpt lat="45.69766" lon="4.93132">
        <ele>207</ele>
        <time>2014-06-14T12:18:51Z</time>
      </trkpt>
      <trkpt lat="45.69767" lon="4.93119">
        <ele>207</ele>
        <time>2014-06-14T12:18:53Z</time>
      </trkpt>
      <trkpt lat="45.69765" lon="4.93105">
        <ele>207</ele>
        <time>2014-06-14T12:18:55Z</time>
      </trkpt>
      <trkpt lat="45.69763" lon="4.9309">
        <ele>207</ele>
        <time>2014-06-14T12:18:59Z</time>
      </trkpt>
      <trkpt lat="45.69756" lon="4.93082">
        <ele>207.6</ele>
        <time>2014-06-14T12:19:21Z</time>
      </trkpt>
      <trkpt lat="45.69756" lon="4.93079">
        <ele>207.8</ele>
        <time>2014-06-14T12:19:22Z</time>
      </trkpt>
      <trkpt lat="45.69757" lon="4.93066">
        <ele>207.6</ele>
        <time>2014-06-14T12:19:25Z</time>
      </trkpt>
      <trkpt lat="45.69758" lon="4.9305">
        <ele>207.6</ele>
        <time>2014-06-14T12:19:28Z</time>
      </trkpt>
      <trkpt lat="45.69761" lon="4.93035">
        <ele>207.4</ele>
        <time>2014-06-14T12:19:31Z</time>
      </trkpt>
      <trkpt lat="45.69764" lon="4.93024">
        <ele>207.4</ele>
        <time>2014-06-14T12:19:33Z</time>
      </trkpt>
      <trkpt lat="45.69767" lon="4.93009">
        <ele>207.2</ele>
        <time>2014-06-14T12:19:35Z</time>
      </trkpt>
      <trkpt lat="45.69769" lon="4.92995">
        <ele>207</ele>
        <time>2014-06-14T12:19:37Z</time>
      </trkpt>
      <trkpt lat="45.69773" lon="4.92966">
        <ele>207</ele>
        <time>2014-06-14T12:19:41Z</time>
      </trkpt>
      <trkpt lat="45.69774" lon="4.9296">
        <ele>207</ele>
        <time>2014-06-14T12:19:42Z</time>
      </trkpt>
      <trkpt lat="45.69774" lon="4.92953">
        <ele>206.8</ele>
        <time>2014-06-14T12:19:43Z</time>
      </trkpt>
      <trkpt lat="45.69775" lon="4.92942">
        <ele>206.8</ele>
        <time>2014-06-14T12:19:45Z</time>
      </trkpt>
      <trkpt lat="45.69776" lon="4.92938">
        <ele>206.8</ele>
        <time>2014-06-14T12:19:46Z</time>
      </trkpt>
      <trkpt lat="45.69779" lon="4.92912">
        <ele>206.6</ele>
        <time>2014-06-14T12:19:50Z</time>
      </trkpt>
      <trkpt lat="45.6978" lon="4.929">
        <ele>206.4</ele>
        <time>2014-06-14T12:19:52Z</time>
      </trkpt>
      <trkpt lat="45.69781" lon="4.92894">
        <ele>206.4</ele>
        <time>2014-06-14T12:19:53Z</time>
      </trkpt>
      <trkpt lat="45.69782" lon="4.92881">
        <ele>206.2</ele>
        <time>2014-06-14T12:19:55Z</time>
      </trkpt>
      <trkpt lat="45.69785" lon="4.92855">
        <ele>205.8</ele>
        <time>2014-06-14T12:19:59Z</time>
      </trkpt>
      <trkpt lat="45.69788" lon="4.92827">
        <ele>205.4</ele>
        <time>2014-06-14T12:20:03Z</time>
      </trkpt>
      <trkpt lat="45.69787" lon="4.92807">
        <ele>205.2</ele>
        <time>2014-06-14T12:20:06Z</time>
      </trkpt>
      <trkpt lat="45.69789" lon="4.92797">
        <ele>205.2</ele>
        <time>2014-06-14T12:20:08Z</time>
      </trkpt>
      <trkpt lat="45.69789" lon="4.9279">
        <ele>205.2</ele>
        <time>2014-06-14T12:20:09Z</time>
      </trkpt>
      <trkpt lat="45.69792" lon="4.9278">
        <ele>205</ele>
        <time>2014-06-14T12:20:11Z</time>
      </trkpt>
      <trkpt lat="45.69797" lon="4.92772">
        <ele>205</ele>
        <time>2014-06-14T12:20:13Z</time>
      </trkpt>
      <trkpt lat="45.69799" lon="4.92768">
        <ele>205</ele>
        <time>2014-06-14T12:20:14Z</time>
      </trkpt>
      <trkpt lat="45.69806" lon="4.92759">
        <ele>204.8</ele>
        <time>2014-06-14T12:20:17Z</time>
      </trkpt>
      <trkpt lat="45.69809" lon="4.92756">
        <ele>204.8</ele>
        <time>2014-06-14T12:20:18Z</time>
      </trkpt>
      <trkpt lat="45.69811" lon="4.92752">
        <ele>204.8</ele>
        <time>2014-06-14T12:20:19Z</time>
      </trkpt>
      <trkpt lat="45.69821" lon="4.92736">
        <ele>204.6</ele>
        <time>2014-06-14T12:20:23Z</time>
      </trkpt>
      <trkpt lat="45.69824" lon="4.92732">
        <ele>204.6</ele>
        <time>2014-06-14T12:20:24Z</time>
      </trkpt>
      <trkpt lat="45.69837" lon="4.92721">
        <ele>204.4</ele>
        <time>2014-06-14T12:20:28Z</time>
      </trkpt>
      <trkpt lat="45.69839" lon="4.9272">
        <ele>204.4</ele>
        <time>2014-06-14T12:20:30Z</time>
      </trkpt>
      <trkpt lat="45.69839" lon="4.9272">
        <ele>204.6</ele>
        <time>2014-06-14T12:20:31Z</time>
      </trkpt>
      <trkpt lat="45.6984" lon="4.92718">
        <ele>204.6</ele>
        <time>2014-06-14T12:20:33Z</time>
      </trkpt>
      <trkpt lat="45.69842" lon="4.92717">
        <ele>204.6</ele>
        <time>2014-06-14T12:20:34Z</time>
      </trkpt>
      <trkpt lat="45.69844" lon="4.92715">
        <ele>204.8</ele>
        <time>2014-06-14T12:20:35Z</time>
      </trkpt>
      <trkpt lat="45.69857" lon="4.92709">
        <ele>205.2</ele>
        <time>2014-06-14T12:20:39Z</time>
      </trkpt>
      <trkpt lat="45.6986" lon="4.92709">
        <ele>205.4</ele>
        <time>2014-06-14T12:20:40Z</time>
      </trkpt>
      <trkpt lat="45.69872" lon="4.92706">
        <ele>205.8</ele>
        <time>2014-06-14T12:20:44Z</time>
      </trkpt>
      <trkpt lat="45.69879" lon="4.92703">
        <ele>206</ele>
        <time>2014-06-14T12:20:47Z</time>
      </trkpt>
      <trkpt lat="45.69886" lon="4.92699">
        <ele>206.2</ele>
        <time>2014-06-14T12:20:50Z</time>
      </trkpt>
      <trkpt lat="45.69897" lon="4.92695">
        <ele>206.6</ele>
        <time>2014-06-14T12:20:54Z</time>
      </trkpt>
      <trkpt lat="45.699" lon="4.92694">
        <ele>206.6</ele>
        <time>2014-06-14T12:20:55Z</time>
      </trkpt>
      <trkpt lat="45.69916" lon="4.92689">
        <ele>206.8</ele>
        <time>2014-06-14T12:21:00Z</time>
      </trkpt>
      <trkpt lat="45.6993" lon="4.92684">
        <ele>206.6</ele>
        <time>2014-06-14T12:21:05Z</time>
      </trkpt>
      <trkpt lat="45.69934" lon="4.92683">
        <ele>206.6</ele>
        <time>2014-06-14T12:21:06Z</time>
      </trkpt>
      <trkpt lat="45.69946" lon="4.92678">
        <ele>206.6</ele>
        <time>2014-06-14T12:21:10Z</time>
      </trkpt>
      <trkpt lat="45.69952" lon="4.92676">
        <ele>206.6</ele>
        <time>2014-06-14T12:21:12Z</time>
      </trkpt>
      <trkpt lat="45.69962" lon="4.92673">
        <ele>206.6</ele>
        <time>2014-06-14T12:21:15Z</time>
      </trkpt>
      <trkpt lat="45.69973" lon="4.9267">
        <ele>206.6</ele>
        <time>2014-06-14T12:21:18Z</time>
      </trkpt>
      <trkpt lat="45.69976" lon="4.92669">
        <ele>206.6</ele>
        <time>2014-06-14T12:21:19Z</time>
      </trkpt>
      <trkpt lat="45.69993" lon="4.92664">
        <ele>206.6</ele>
        <time>2014-06-14T12:21:24Z</time>
      </trkpt>
      <trkpt lat="45.69996" lon="4.92662">
        <ele>206.8</ele>
        <time>2014-06-14T12:21:25Z</time>
      </trkpt>
      <trkpt lat="45.70012" lon="4.92657">
        <ele>206.8</ele>
        <time>2014-06-14T12:21:30Z</time>
      </trkpt>
      <trkpt lat="45.70027" lon="4.92652">
        <ele>206.8</ele>
        <time>2014-06-14T12:21:35Z</time>
      </trkpt>
      <trkpt lat="45.7003" lon="4.92651">
        <ele>206.8</ele>
        <time>2014-06-14T12:21:36Z</time>
      </trkpt>
      <trkpt lat="45.70041" lon="4.92649">
        <ele>206.8</ele>
        <time>2014-06-14T12:21:40Z</time>
      </trkpt>
      <trkpt lat="45.70051" lon="4.92648">
        <ele>207.2</ele>
        <time>2014-06-14T12:21:43Z</time>
      </trkpt>
      <trkpt lat="45.70059" lon="4.92648">
        <ele>207.4</ele>
        <time>2014-06-14T12:21:46Z</time>
      </trkpt>
      <trkpt lat="45.7007" lon="4.92649">
        <ele>207.6</ele>
        <time>2014-06-14T12:21:49Z</time>
      </trkpt>
      <trkpt lat="45.70081" lon="4.92649">
        <ele>207.6</ele>
        <time>2014-06-14T12:21:52Z</time>
      </trkpt>
      <trkpt lat="45.70091" lon="4.9265">
        <ele>207.8</ele>
        <time>2014-06-14T12:21:55Z</time>
      </trkpt>
      <trkpt lat="45.70096" lon="4.92652">
        <ele>207.6</ele>
        <time>2014-06-14T12:21:58Z</time>
      </trkpt>
      <trkpt lat="45.70098" lon="4.92651">
        <ele>207.6</ele>
        <time>2014-06-14T12:22:02Z</time>
      </trkpt>
      <trkpt lat="45.70102" lon="4.9265">
        <ele>207.6</ele>
        <time>2014-06-14T12:22:04Z</time>
      </trkpt>
      <trkpt lat="45.70107" lon="4.92645">
        <ele>207.6</ele>
        <time>2014-06-14T12:22:06Z</time>
      </trkpt>
      <trkpt lat="45.70112" lon="4.92623">
        <ele>207.4</ele>
        <time>2014-06-14T12:22:10Z</time>
      </trkpt>
      <trkpt lat="45.70113" lon="4.92616">
        <ele>207.2</ele>
        <time>2014-06-14T12:22:11Z</time>
      </trkpt>
      <trkpt lat="45.70117" lon="4.92585">
        <ele>207</ele>
        <time>2014-06-14T12:22:16Z</time>
      </trkpt>
      <trkpt lat="45.7012" lon="4.92566">
        <ele>206.8</ele>
        <time>2014-06-14T12:22:19Z</time>
      </trkpt>
      <trkpt lat="45.70122" lon="4.92559">
        <ele>206.8</ele>
        <time>2014-06-14T12:22:20Z</time>
      </trkpt>
      <trkpt lat="45.70124" lon="4.92552">
        <ele>206.8</ele>
        <time>2014-06-14T12:22:21Z</time>
      </trkpt>
      <trkpt lat="45.7013" lon="4.92533">
        <ele>206.6</ele>
        <time>2014-06-14T12:22:24Z</time>
      </trkpt>
      <trkpt lat="45.70136" lon="4.92515">
        <ele>206.4</ele>
        <time>2014-06-14T12:22:27Z</time>
      </trkpt>
      <trkpt lat="45.70138" lon="4.92509">
        <ele>206.4</ele>
        <time>2014-06-14T12:22:28Z</time>
      </trkpt>
      <trkpt lat="45.70151" lon="4.92491">
        <ele>206.2</ele>
        <time>2014-06-14T12:22:32Z</time>
      </trkpt>
      <trkpt lat="45.70167" lon="4.92478">
        <ele>206</ele>
        <time>2014-06-14T12:22:36Z</time>
      </trkpt>
      <trkpt lat="45.70176" lon="4.92473">
        <ele>205.8</ele>
        <time>2014-06-14T12:22:38Z</time>
      </trkpt>
      <trkpt lat="45.70188" lon="4.92465">
        <ele>205.6</ele>
        <time>2014-06-14T12:22:41Z</time>
      </trkpt>
      <trkpt lat="45.70197" lon="4.92458">
        <ele>205.4</ele>
        <time>2014-06-14T12:22:44Z</time>
      </trkpt>
      <trkpt lat="45.70204" lon="4.92454">
        <ele>205.4</ele>
        <time>2014-06-14T12:22:46Z</time>
      </trkpt>
      <trkpt lat="45.70218" lon="4.92451">
        <ele>205.2</ele>
        <time>2014-06-14T12:22:50Z</time>
      </trkpt>
      <trkpt lat="45.70222" lon="4.9245">
        <ele>205.2</ele>
        <time>2014-06-14T12:22:51Z</time>
      </trkpt>
      <trkpt lat="45.70238" lon="4.92443">
        <ele>205</ele>
        <time>2014-06-14T12:22:55Z</time>
      </trkpt>
      <trkpt lat="45.70242" lon="4.92441">
        <ele>205</ele>
        <time>2014-06-14T12:22:56Z</time>
      </trkpt>
      <trkpt lat="45.70261" lon="4.92432">
        <ele>204.6</ele>
        <time>2014-06-14T12:23:01Z</time>
      </trkpt>
      <trkpt lat="45.70273" lon="4.92426">
        <ele>204.6</ele>
        <time>2014-06-14T12:23:04Z</time>
      </trkpt>
      <trkpt lat="45.70282" lon="4.92422">
        <ele>204.6</ele>
        <time>2014-06-14T12:23:06Z</time>
      </trkpt>
      <trkpt lat="45.70303" lon="4.92414">
        <ele>204.2</ele>
        <time>2014-06-14T12:23:11Z</time>
      </trkpt>
      <trkpt lat="45.70307" lon="4.92413">
        <ele>204.2</ele>
        <time>2014-06-14T12:23:12Z</time>
      </trkpt>
      <trkpt lat="45.70324" lon="4.92409">
        <ele>204</ele>
        <time>2014-06-14T12:23:16Z</time>
      </trkpt>
      <trkpt lat="45.7033" lon="4.92407">
        <ele>204</ele>
        <time>2014-06-14T12:23:18Z</time>
      </trkpt>
      <trkpt lat="45.70332" lon="4.92406">
        <ele>204</ele>
        <time>2014-06-14T12:23:19Z</time>
      </trkpt>
      <trkpt lat="45.70333" lon="4.92403">
        <ele>204</ele>
        <time>2014-06-14T12:23:21Z</time>
      </trkpt>
      <trkpt lat="45.70335" lon="4.92398">
        <ele>203.8</ele>
        <time>2014-06-14T12:23:26Z</time>
      </trkpt>
      <trkpt lat="45.70334" lon="4.92392">
        <ele>203.6</ele>
        <time>2014-06-14T12:23:28Z</time>
      </trkpt>
      <trkpt lat="45.70332" lon="4.92383">
        <ele>203.6</ele>
        <time>2014-06-14T12:23:30Z</time>
      </trkpt>
      <trkpt lat="45.70331" lon="4.92365">
        <ele>203.6</ele>
        <time>2014-06-14T12:23:34Z</time>
      </trkpt>
      <trkpt lat="45.7033" lon="4.92347">
        <ele>203.4</ele>
        <time>2014-06-14T12:23:38Z</time>
      </trkpt>
      <trkpt lat="45.70329" lon="4.92338">
        <ele>203.4</ele>
        <time>2014-06-14T12:23:40Z</time>
      </trkpt>
      <trkpt lat="45.70326" lon="4.92325">
        <ele>203.2</ele>
        <time>2014-06-14T12:23:43Z</time>
      </trkpt>
      <trkpt lat="45.70324" lon="4.92312">
        <ele>203.2</ele>
        <time>2014-06-14T12:23:46Z</time>
      </trkpt>
      <trkpt lat="45.70322" lon="4.92299">
        <ele>203.2</ele>
        <time>2014-06-14T12:23:49Z</time>
      </trkpt>
      <trkpt lat="45.70319" lon="4.92287">
        <ele>203.2</ele>
        <time>2014-06-14T12:23:52Z</time>
      </trkpt>
      <trkpt lat="45.70315" lon="4.92274">
        <ele>203</ele>
        <time>2014-06-14T12:23:55Z</time>
      </trkpt>
      <trkpt lat="45.70312" lon="4.92262">
        <ele>203</ele>
        <time>2014-06-14T12:23:58Z</time>
      </trkpt>
      <trkpt lat="45.70308" lon="4.92249">
        <ele>203</ele>
        <time>2014-06-14T12:24:01Z</time>
      </trkpt>
      <trkpt lat="45.70306" lon="4.92238">
        <ele>202.8</ele>
        <time>2014-06-14T12:24:04Z</time>
      </trkpt>
      <trkpt lat="45.70302" lon="4.92223">
        <ele>202.8</ele>
        <time>2014-06-14T12:24:08Z</time>
      </trkpt>
      <trkpt lat="45.703" lon="4.92214">
        <ele>202.8</ele>
        <time>2014-06-14T12:24:11Z</time>
      </trkpt>
      <trkpt lat="45.70301" lon="4.92213">
        <ele>202.6</ele>
        <time>2014-06-14T12:24:13Z</time>
      </trkpt>
      <trkpt lat="45.7031" lon="4.92212">
        <ele>202.6</ele>
        <time>2014-06-14T12:24:19Z</time>
      </trkpt>
      <trkpt lat="45.70321" lon="4.92207">
        <ele>202.6</ele>
        <time>2014-06-14T12:24:23Z</time>
      </trkpt>
      <trkpt lat="45.70325" lon="4.92207">
        <ele>202.6</ele>
        <time>2014-06-14T12:24:24Z</time>
      </trkpt>
      <trkpt lat="45.7033" lon="4.9221">
        <ele>202.6</ele>
        <time>2014-06-14T12:24:26Z</time>
      </trkpt>
      <trkpt lat="45.70334" lon="4.92218">
        <ele>202.6</ele>
        <time>2014-06-14T12:24:28Z</time>
      </trkpt>
      <trkpt lat="45.70336" lon="4.92222">
        <ele>202.6</ele>
        <time>2014-06-14T12:24:29Z</time>
      </trkpt>
      <trkpt lat="45.7034" lon="4.92236">
        <ele>202.6</ele>
        <time>2014-06-14T12:24:32Z</time>
      </trkpt>
      <trkpt lat="45.70341" lon="4.92241">
        <ele>202.6</ele>
        <time>2014-06-14T12:24:33Z</time>
      </trkpt>
      <trkpt lat="45.70343" lon="4.92248">
        <ele>202.6</ele>
        <time>2014-06-14T12:24:35Z</time>
      </trkpt>
      <trkpt lat="45.70345" lon="4.92256">
        <ele>202.8</ele>
        <time>2014-06-14T12:24:38Z</time>
      </trkpt>
      <trkpt lat="45.70345" lon="4.92254">
        <ele>203</ele>
        <time>2014-06-14T12:24:43Z</time>
      </trkpt>
      <trkpt lat="45.70346" lon="4.92251">
        <ele>203.2</ele>
        <time>2014-06-14T12:24:54Z</time>
      </trkpt>
      <trkpt lat="45.70342" lon="4.92236">
        <ele>203.6</ele>
        <time>2014-06-14T12:24:58Z</time>
      </trkpt>
      <trkpt lat="45.70331" lon="4.92212">
        <ele>203.8</ele>
        <time>2014-06-14T12:25:04Z</time>
      </trkpt>
      <trkpt lat="45.70325" lon="4.9221">
        <ele>204</ele>
        <time>2014-06-14T12:25:06Z</time>
      </trkpt>
      <trkpt lat="45.70324" lon="4.9221">
        <ele>204</ele>
        <time>2014-06-14T12:25:07Z</time>
      </trkpt>
      <trkpt lat="45.70317" lon="4.92211">
        <ele>204</ele>
        <time>2014-06-14T12:25:12Z</time>
      </trkpt>
      <trkpt lat="45.70312" lon="4.92213">
        <ele>204.2</ele>
        <time>2014-06-14T12:25:14Z</time>
      </trkpt>
      <trkpt lat="45.70307" lon="4.92218">
        <ele>204.2</ele>
        <time>2014-06-14T12:25:16Z</time>
      </trkpt>
      <trkpt lat="45.70306" lon="4.92229">
        <ele>204</ele>
        <time>2014-06-14T12:25:19Z</time>
      </trkpt>
      <trkpt lat="45.70307" lon="4.92234">
        <ele>204</ele>
        <time>2014-06-14T12:25:20Z</time>
      </trkpt>
      <trkpt lat="45.70308" lon="4.9224">
        <ele>204</ele>
        <time>2014-06-14T12:25:21Z</time>
      </trkpt>
      <trkpt lat="45.70312" lon="4.92268">
        <ele>204</ele>
        <time>2014-06-14T12:25:26Z</time>
      </trkpt>
      <trkpt lat="45.70316" lon="4.92292">
        <ele>204.2</ele>
        <time>2014-06-14T12:25:30Z</time>
      </trkpt>
      <trkpt lat="45.70317" lon="4.92298">
        <ele>204.2</ele>
        <time>2014-06-14T12:25:31Z</time>
      </trkpt>
      <trkpt lat="45.70324" lon="4.92328">
        <ele>204.2</ele>
        <time>2014-06-14T12:25:36Z</time>
      </trkpt>
      <trkpt lat="45.70326" lon="4.92341">
        <ele>204.2</ele>
        <time>2014-06-14T12:25:38Z</time>
      </trkpt>
      <trkpt lat="45.70329" lon="4.92358">
        <ele>204.2</ele>
        <time>2014-06-14T12:25:41Z</time>
      </trkpt>
      <trkpt lat="45.70333" lon="4.92382">
        <ele>204.2</ele>
        <time>2014-06-14T12:25:45Z</time>
      </trkpt>
      <trkpt lat="45.70334" lon="4.92386">
        <ele>204.4</ele>
        <time>2014-06-14T12:25:46Z</time>
      </trkpt>
      <trkpt lat="45.70336" lon="4.92397">
        <ele>204.4</ele>
        <time>2014-06-14T12:25:49Z</time>
      </trkpt>
      <trkpt lat="45.70339" lon="4.92411">
        <ele>204.4</ele>
        <time>2014-06-14T12:25:53Z</time>
      </trkpt>
      <trkpt lat="45.70341" lon="4.92421">
        <ele>204.4</ele>
        <time>2014-06-14T12:25:55Z</time>
      </trkpt>
      <trkpt lat="45.70344" lon="4.92441">
        <ele>204.4</ele>
        <time>2014-06-14T12:25:59Z</time>
      </trkpt>
      <trkpt lat="45.70345" lon="4.92446">
        <ele>204.4</ele>
        <time>2014-06-14T12:26:00Z</time>
      </trkpt>
      <trkpt lat="45.70348" lon="4.92468">
        <ele>204.4</ele>
        <time>2014-06-14T12:26:04Z</time>
      </trkpt>
      <trkpt lat="45.70351" lon="4.92491">
        <ele>204.4</ele>
        <time>2014-06-14T12:26:08Z</time>
      </trkpt>
      <trkpt lat="45.70352" lon="4.92497">
        <ele>204.4</ele>
        <time>2014-06-14T12:26:09Z</time>
      </trkpt>
      <trkpt lat="45.70359" lon="4.92526">
        <ele>204.4</ele>
        <time>2014-06-14T12:26:14Z</time>
      </trkpt>
      <trkpt lat="45.70361" lon="4.92532">
        <ele>204.2</ele>
        <time>2014-06-14T12:26:15Z</time>
      </trkpt>
      <trkpt lat="45.70366" lon="4.92549">
        <ele>204.2</ele>
        <time>2014-06-14T12:26:18Z</time>
      </trkpt>
      <trkpt lat="45.70367" lon="4.92554">
        <ele>204.2</ele>
        <time>2014-06-14T12:26:19Z</time>
      </trkpt>
      <trkpt lat="45.70368" lon="4.92559">
        <ele>204.2</ele>
        <time>2014-06-14T12:26:20Z</time>
      </trkpt>
      <trkpt lat="45.70369" lon="4.92564">
        <ele>204.2</ele>
        <time>2014-06-14T12:26:21Z</time>
      </trkpt>
      <trkpt lat="45.70373" lon="4.92581">
        <ele>204.4</ele>
        <time>2014-06-14T12:26:24Z</time>
      </trkpt>
      <trkpt lat="45.70375" lon="4.92588">
        <ele>204.4</ele>
        <time>2014-06-14T12:26:25Z</time>
      </trkpt>
      <trkpt lat="45.7038" lon="4.92608">
        <ele>204.4</ele>
        <time>2014-06-14T12:26:28Z</time>
      </trkpt>
      <trkpt lat="45.70382" lon="4.92612">
        <ele>204.4</ele>
        <time>2014-06-14T12:26:29Z</time>
      </trkpt>
      <trkpt lat="45.70387" lon="4.92613">
        <ele>204.6</ele>
        <time>2014-06-14T12:26:32Z</time>
      </trkpt>
      <trkpt lat="45.70388" lon="4.9261">
        <ele>204.4</ele>
        <time>2014-06-14T12:26:37Z</time>
      </trkpt>
      <trkpt lat="45.70389" lon="4.9261">
        <ele>204.4</ele>
        <time>2014-06-14T12:26:38Z</time>
      </trkpt>
      <trkpt lat="45.7039" lon="4.92608">
        <ele>204.4</ele>
        <time>2014-06-14T12:26:40Z</time>
      </trkpt>
      <trkpt lat="45.70391" lon="4.92606">
        <ele>204.4</ele>
        <time>2014-06-14T12:26:41Z</time>
      </trkpt>
      <trkpt lat="45.70394" lon="4.92605">
        <ele>204.4</ele>
        <time>2014-06-14T12:26:42Z</time>
      </trkpt>
      <trkpt lat="45.70404" lon="4.926">
        <ele>204.2</ele>
        <time>2014-06-14T12:26:45Z</time>
      </trkpt>
      <trkpt lat="45.70414" lon="4.92594">
        <ele>204.2</ele>
        <time>2014-06-14T12:26:48Z</time>
      </trkpt>
      <trkpt lat="45.70427" lon="4.92582">
        <ele>204</ele>
        <time>2014-06-14T12:26:52Z</time>
      </trkpt>
      <trkpt lat="45.70429" lon="4.92578">
        <ele>204</ele>
        <time>2014-06-14T12:26:53Z</time>
      </trkpt>
      <trkpt lat="45.70433" lon="4.92569">
        <ele>203.8</ele>
        <time>2014-06-14T12:26:56Z</time>
      </trkpt>
      <trkpt lat="45.70432" lon="4.92569">
        <ele>203.6</ele>
        <time>2014-06-14T12:27:03Z</time>
      </trkpt>
      <trkpt lat="45.70437" lon="4.92562">
        <ele>203.6</ele>
        <time>2014-06-14T12:27:10Z</time>
      </trkpt>
      <trkpt lat="45.70441" lon="4.92557">
        <ele>203.4</ele>
        <time>2014-06-14T12:27:12Z</time>
      </trkpt>
      <trkpt lat="45.70443" lon="4.92556">
        <ele>203.4</ele>
        <time>2014-06-14T12:27:15Z</time>
      </trkpt>
      <trkpt lat="45.70441" lon="4.92558">
        <ele>203.4</ele>
        <time>2014-06-14T12:27:25Z</time>
      </trkpt>
      <trkpt lat="45.70434" lon="4.92562">
        <ele>203.4</ele>
        <time>2014-06-14T12:27:28Z</time>
      </trkpt>
      <trkpt lat="45.70427" lon="4.92562">
        <ele>203.2</ele>
        <time>2014-06-14T12:27:30Z</time>
      </trkpt>
      <trkpt lat="45.7042" lon="4.92558">
        <ele>203.2</ele>
        <time>2014-06-14T12:27:32Z</time>
      </trkpt>
      <trkpt lat="45.70414" lon="4.92543">
        <ele>203.2</ele>
        <time>2014-06-14T12:27:36Z</time>
      </trkpt>
      <trkpt lat="45.70411" lon="4.92516">
        <ele>203</ele>
        <time>2014-06-14T12:27:42Z</time>
      </trkpt>
      <trkpt lat="45.70408" lon="4.92492">
        <ele>203</ele>
        <time>2014-06-14T12:27:47Z</time>
      </trkpt>
      <trkpt lat="45.70407" lon="4.92487">
        <ele>203</ele>
        <time>2014-06-14T12:27:48Z</time>
      </trkpt>
      <trkpt lat="45.70404" lon="4.92471">
        <ele>203</ele>
        <time>2014-06-14T12:27:52Z</time>
      </trkpt>
      <trkpt lat="45.70403" lon="4.92459">
        <ele>203.2</ele>
        <time>2014-06-14T12:27:55Z</time>
      </trkpt>
      <trkpt lat="45.70401" lon="4.92448">
        <ele>203.2</ele>
        <time>2014-06-14T12:27:58Z</time>
      </trkpt>
      <trkpt lat="45.70398" lon="4.92432">
        <ele>203.2</ele>
        <time>2014-06-14T12:28:04Z</time>
      </trkpt>
      <trkpt lat="45.70396" lon="4.92417">
        <ele>203.2</ele>
        <time>2014-06-14T12:28:08Z</time>
      </trkpt>
      <trkpt lat="45.70393" lon="4.92403">
        <ele>203.2</ele>
        <time>2014-06-14T12:28:11Z</time>
      </trkpt>
      <trkpt lat="45.70393" lon="4.92394">
        <ele>203.2</ele>
        <time>2014-06-14T12:28:13Z</time>
      </trkpt>
      <trkpt lat="45.70394" lon="4.92391">
        <ele>203.4</ele>
        <time>2014-06-14T12:28:14Z</time>
      </trkpt>
      <trkpt lat="45.70401" lon="4.92383">
        <ele>203.2</ele>
        <time>2014-06-14T12:28:17Z</time>
      </trkpt>
      <trkpt lat="45.70401" lon="4.92379">
        <ele>203.4</ele>
        <time>2014-06-14T12:28:18Z</time>
      </trkpt>
      <trkpt lat="45.704" lon="4.9237">
        <ele>203.4</ele>
        <time>2014-06-14T12:28:21Z</time>
      </trkpt>
      <trkpt lat="45.70396" lon="4.92351">
        <ele>203.6</ele>
        <time>2014-06-14T12:28:29Z</time>
      </trkpt>
      <trkpt lat="45.70389" lon="4.92323">
        <ele>203.8</ele>
        <time>2014-06-14T12:28:35Z</time>
      </trkpt>
      <trkpt lat="45.70384" lon="4.92302">
        <ele>203.8</ele>
        <time>2014-06-14T12:28:40Z</time>
      </trkpt>
      <trkpt lat="45.70383" lon="4.92298">
        <ele>203.8</ele>
        <time>2014-06-14T12:28:41Z</time>
      </trkpt>
      <trkpt lat="45.70379" lon="4.92282">
        <ele>203.8</ele>
        <time>2014-06-14T12:28:45Z</time>
      </trkpt>
      <trkpt lat="45.70378" lon="4.9227">
        <ele>203.8</ele>
        <time>2014-06-14T12:28:48Z</time>
      </trkpt>
      <trkpt lat="45.70379" lon="4.92262">
        <ele>203.8</ele>
        <time>2014-06-14T12:28:50Z</time>
      </trkpt>
      <trkpt lat="45.7038" lon="4.92256">
        <ele>203.6</ele>
        <time>2014-06-14T12:28:52Z</time>
      </trkpt>
      <trkpt lat="45.70385" lon="4.92251">
        <ele>203.6</ele>
        <time>2014-06-14T12:28:54Z</time>
      </trkpt>
      <trkpt lat="45.70388" lon="4.9225">
        <ele>203.6</ele>
        <time>2014-06-14T12:28:55Z</time>
      </trkpt>
      <trkpt lat="45.70399" lon="4.92246">
        <ele>203.6</ele>
        <time>2014-06-14T12:28:59Z</time>
      </trkpt>
      <trkpt lat="45.70405" lon="4.92243">
        <ele>203.4</ele>
        <time>2014-06-14T12:29:03Z</time>
      </trkpt>
      <trkpt lat="45.70405" lon="4.92243">
        <ele>203.4</ele>
        <time>2014-06-14T12:29:04Z</time>
      </trkpt>
      <trkpt lat="45.70412" lon="4.92238">
        <ele>203.4</ele>
        <time>2014-06-14T12:29:07Z</time>
      </trkpt>
      <trkpt lat="45.70423" lon="4.92234">
        <ele>203.4</ele>
        <time>2014-06-14T12:29:11Z</time>
      </trkpt>
      <trkpt lat="45.70429" lon="4.92231">
        <ele>203.2</ele>
        <time>2014-06-14T12:29:13Z</time>
      </trkpt>
      <trkpt lat="45.70434" lon="4.92231">
        <ele>203.2</ele>
        <time>2014-06-14T12:29:15Z</time>
      </trkpt>
      <trkpt lat="45.7044" lon="4.92235">
        <ele>203.2</ele>
        <time>2014-06-14T12:29:17Z</time>
      </trkpt>
      <trkpt lat="45.70442" lon="4.92237">
        <ele>203.2</ele>
        <time>2014-06-14T12:29:18Z</time>
      </trkpt>
      <trkpt lat="45.70451" lon="4.92246">
        <ele>203</ele>
        <time>2014-06-14T12:29:22Z</time>
      </trkpt>
      <trkpt lat="45.70455" lon="4.92248">
        <ele>203</ele>
        <time>2014-06-14T12:29:25Z</time>
      </trkpt>
      <trkpt lat="45.70455" lon="4.92248">
        <ele>203</ele>
        <time>2014-06-14T12:29:26Z</time>
      </trkpt>
      <trkpt lat="45.70456" lon="4.92246">
        <ele>202.6</ele>
        <time>2014-06-14T12:29:38Z</time>
      </trkpt>
      <trkpt lat="45.70456" lon="4.92247">
        <ele>201.8</ele>
        <time>2014-06-14T12:29:54Z</time>
      </trkpt>
      <trkpt lat="45.7046" lon="4.92245">
        <ele>201.6</ele>
        <time>2014-06-14T12:30:05Z</time>
      </trkpt>
      <trkpt lat="45.70472" lon="4.92238">
        <ele>201.4</ele>
        <time>2014-06-14T12:30:09Z</time>
      </trkpt>
      <trkpt lat="45.70475" lon="4.92236">
        <ele>201.4</ele>
        <time>2014-06-14T12:30:10Z</time>
      </trkpt>
      <trkpt lat="45.70489" lon="4.92228">
        <ele>201.2</ele>
        <time>2014-06-14T12:30:14Z</time>
      </trkpt>
      <trkpt lat="45.70498" lon="4.92224">
        <ele>201</ele>
        <time>2014-06-14T12:30:17Z</time>
      </trkpt>
      <trkpt lat="45.70507" lon="4.9222">
        <ele>201</ele>
        <time>2014-06-14T12:30:20Z</time>
      </trkpt>
      <trkpt lat="45.70514" lon="4.92217">
        <ele>200.8</ele>
        <time>2014-06-14T12:30:22Z</time>
      </trkpt>
      <trkpt lat="45.70527" lon="4.92211">
        <ele>200.6</ele>
        <time>2014-06-14T12:30:26Z</time>
      </trkpt>
      <trkpt lat="45.70533" lon="4.92208">
        <ele>200.6</ele>
        <time>2014-06-14T12:30:28Z</time>
      </trkpt>
      <trkpt lat="45.70546" lon="4.92202">
        <ele>200.4</ele>
        <time>2014-06-14T12:30:32Z</time>
      </trkpt>
      <trkpt lat="45.70553" lon="4.92197">
        <ele>200.4</ele>
        <time>2014-06-14T12:30:35Z</time>
      </trkpt>
      <trkpt lat="45.70551" lon="4.92182">
        <ele>200.2</ele>
        <time>2014-06-14T12:30:39Z</time>
      </trkpt>
      <trkpt lat="45.70556" lon="4.92169">
        <ele>200.2</ele>
        <time>2014-06-14T12:30:43Z</time>
      </trkpt>
      <trkpt lat="45.70561" lon="4.92171">
        <ele>200</ele>
        <time>2014-06-14T12:30:46Z</time>
      </trkpt>
      <trkpt lat="45.70561" lon="4.92167">
        <ele>200</ele>
        <time>2014-06-14T12:30:49Z</time>
      </trkpt>
      <trkpt lat="45.70563" lon="4.92165">
        <ele>200</ele>
        <time>2014-06-14T12:30:50Z</time>
      </trkpt>
      <trkpt lat="45.70571" lon="4.9217">
        <ele>199.8</ele>
        <time>2014-06-14T12:30:55Z</time>
      </trkpt>
      <trkpt lat="45.70572" lon="4.92173">
        <ele>199.8</ele>
        <time>2014-06-14T12:30:56Z</time>
      </trkpt>
      <trkpt lat="45.70574" lon="4.9218">
        <ele>199.8</ele>
        <time>2014-06-14T12:30:58Z</time>
      </trkpt>
      <trkpt lat="45.70576" lon="4.92191">
        <ele>199.8</ele>
        <time>2014-06-14T12:31:01Z</time>
      </trkpt>
      <trkpt lat="45.70581" lon="4.92206">
        <ele>199.8</ele>
        <time>2014-06-14T12:31:05Z</time>
      </trkpt>
      <trkpt lat="45.70582" lon="4.92208">
        <ele>199.8</ele>
        <time>2014-06-14T12:31:06Z</time>
      </trkpt>
      <trkpt lat="45.70583" lon="4.9221">
        <ele>199.8</ele>
        <time>2014-06-14T12:31:10Z</time>
      </trkpt>
      <trkpt lat="45.70585" lon="4.92211">
        <ele>199.6</ele>
        <time>2014-06-14T12:31:16Z</time>
      </trkpt>
      <trkpt lat="45.70587" lon="4.92212">
        <ele>199.6</ele>
        <time>2014-06-14T12:31:17Z</time>
      </trkpt>
      <trkpt lat="45.70598" lon="4.92211">
        <ele>199.6</ele>
        <time>2014-06-14T12:31:20Z</time>
      </trkpt>
      <trkpt lat="45.70602" lon="4.9221">
        <ele>199.6</ele>
        <time>2014-06-14T12:31:21Z</time>
      </trkpt>
      <trkpt lat="45.70617" lon="4.92202">
        <ele>199.6</ele>
        <time>2014-06-14T12:31:25Z</time>
      </trkpt>
      <trkpt lat="45.70619" lon="4.92197">
        <ele>199.6</ele>
        <time>2014-06-14T12:31:26Z</time>
      </trkpt>
      <trkpt lat="45.70628" lon="4.92181">
        <ele>199.6</ele>
        <time>2014-06-14T12:31:29Z</time>
      </trkpt>
      <trkpt lat="45.70639" lon="4.9216">
        <ele>199.4</ele>
        <time>2014-06-14T12:31:33Z</time>
      </trkpt>
      <trkpt lat="45.70652" lon="4.92135">
        <ele>199.2</ele>
        <time>2014-06-14T12:31:38Z</time>
      </trkpt>
      <trkpt lat="45.70657" lon="4.92126">
        <ele>199.2</ele>
        <time>2014-06-14T12:31:40Z</time>
      </trkpt>
      <trkpt lat="45.7066" lon="4.92123">
        <ele>199.2</ele>
        <time>2014-06-14T12:31:41Z</time>
      </trkpt>
      <trkpt lat="45.70667" lon="4.92116">
        <ele>199</ele>
        <time>2014-06-14T12:31:43Z</time>
      </trkpt>
      <trkpt lat="45.70674" lon="4.92103">
        <ele>199</ele>
        <time>2014-06-14T12:31:46Z</time>
      </trkpt>
      <trkpt lat="45.70677" lon="4.92099">
        <ele>199</ele>
        <time>2014-06-14T12:31:47Z</time>
      </trkpt>
      <trkpt lat="45.70679" lon="4.92095">
        <ele>199</ele>
        <time>2014-06-14T12:31:48Z</time>
      </trkpt>
      <trkpt lat="45.70691" lon="4.92069">
        <ele>198.8</ele>
        <time>2014-06-14T12:31:54Z</time>
      </trkpt>
      <trkpt lat="45.70701" lon="4.92047">
        <ele>198.6</ele>
        <time>2014-06-14T12:31:59Z</time>
      </trkpt>
      <trkpt lat="45.70708" lon="4.92034">
        <ele>198.6</ele>
        <time>2014-06-14T12:32:02Z</time>
      </trkpt>
      <trkpt lat="45.70713" lon="4.92024">
        <ele>198.4</ele>
        <time>2014-06-14T12:32:04Z</time>
      </trkpt>
      <trkpt lat="45.70723" lon="4.92">
        <ele>198.2</ele>
        <time>2014-06-14T12:32:09Z</time>
      </trkpt>
      <trkpt lat="45.70734" lon="4.91978">
        <ele>198</ele>
        <time>2014-06-14T12:32:14Z</time>
      </trkpt>
      <trkpt lat="45.70739" lon="4.9197">
        <ele>197.8</ele>
        <time>2014-06-14T12:32:16Z</time>
      </trkpt>
      <trkpt lat="45.70746" lon="4.91956">
        <ele>197.6</ele>
        <time>2014-06-14T12:32:19Z</time>
      </trkpt>
      <trkpt lat="45.70757" lon="4.91935">
        <ele>197.4</ele>
        <time>2014-06-14T12:32:24Z</time>
      </trkpt>
      <trkpt lat="45.7076" lon="4.9193">
        <ele>197.4</ele>
        <time>2014-06-14T12:32:25Z</time>
      </trkpt>
      <trkpt lat="45.70769" lon="4.9191">
        <ele>197.2</ele>
        <time>2014-06-14T12:32:29Z</time>
      </trkpt>
      <trkpt lat="45.70776" lon="4.91893">
        <ele>197.2</ele>
        <time>2014-06-14T12:32:32Z</time>
      </trkpt>
      <trkpt lat="45.70778" lon="4.91888">
        <ele>197.2</ele>
        <time>2014-06-14T12:32:33Z</time>
      </trkpt>
      <trkpt lat="45.70782" lon="4.91877">
        <ele>197.2</ele>
        <time>2014-06-14T12:32:35Z</time>
      </trkpt>
      <trkpt lat="45.70788" lon="4.91864">
        <ele>197.2</ele>
        <time>2014-06-14T12:32:38Z</time>
      </trkpt>
      <trkpt lat="45.70801" lon="4.9184">
        <ele>197</ele>
        <time>2014-06-14T12:32:43Z</time>
      </trkpt>
      <trkpt lat="45.70804" lon="4.91835">
        <ele>197</ele>
        <time>2014-06-14T12:32:44Z</time>
      </trkpt>
      <trkpt lat="45.70808" lon="4.91832">
        <ele>197</ele>
        <time>2014-06-14T12:32:45Z</time>
      </trkpt>
      <trkpt lat="45.70818" lon="4.9183">
        <ele>197</ele>
        <time>2014-06-14T12:32:48Z</time>
      </trkpt>
      <trkpt lat="45.70819" lon="4.91833">
        <ele>197</ele>
        <time>2014-06-14T12:32:49Z</time>
      </trkpt>
      <trkpt lat="45.7082" lon="4.91837">
        <ele>197</ele>
        <time>2014-06-14T12:32:50Z</time>
      </trkpt>
      <trkpt lat="45.70823" lon="4.91843">
        <ele>196.8</ele>
        <time>2014-06-14T12:32:54Z</time>
      </trkpt>
      <trkpt lat="45.70825" lon="4.91844">
        <ele>196.8</ele>
        <time>2014-06-14T12:32:56Z</time>
      </trkpt>
      <trkpt lat="45.7083" lon="4.91847">
        <ele>196.8</ele>
        <time>2014-06-14T12:32:58Z</time>
      </trkpt>
      <trkpt lat="45.70847" lon="4.91858">
        <ele>197</ele>
        <time>2014-06-14T12:33:04Z</time>
      </trkpt>
      <trkpt lat="45.70866" lon="4.91867">
        <ele>197.4</ele>
        <time>2014-06-14T12:33:10Z</time>
      </trkpt>
      <trkpt lat="45.70876" lon="4.91878">
        <ele>197.6</ele>
        <time>2014-06-14T12:33:15Z</time>
      </trkpt>
      <trkpt lat="45.70877" lon="4.9188">
        <ele>197.6</ele>
        <time>2014-06-14T12:33:16Z</time>
      </trkpt>
      <trkpt lat="45.70881" lon="4.91883">
        <ele>197.6</ele>
        <time>2014-06-14T12:33:18Z</time>
      </trkpt>
      <trkpt lat="45.70884" lon="4.91884">
        <ele>197.8</ele>
        <time>2014-06-14T12:33:19Z</time>
      </trkpt>
      <trkpt lat="45.70891" lon="4.91889">
        <ele>198</ele>
        <time>2014-06-14T12:33:22Z</time>
      </trkpt>
      <trkpt lat="45.70897" lon="4.91892">
        <ele>198</ele>
        <time>2014-06-14T12:33:24Z</time>
      </trkpt>
      <trkpt lat="45.709" lon="4.91893">
        <ele>198</ele>
        <time>2014-06-14T12:33:25Z</time>
      </trkpt>
      <trkpt lat="45.70911" lon="4.919">
        <ele>198.2</ele>
        <time>2014-06-14T12:33:29Z</time>
      </trkpt>
      <trkpt lat="45.70918" lon="4.91905">
        <ele>198.4</ele>
        <time>2014-06-14T12:33:32Z</time>
      </trkpt>
      <trkpt lat="45.70925" lon="4.91909">
        <ele>198.4</ele>
        <time>2014-06-14T12:33:35Z</time>
      </trkpt>
      <trkpt lat="45.70935" lon="4.91916">
        <ele>198.6</ele>
        <time>2014-06-14T12:33:39Z</time>
      </trkpt>
      <trkpt lat="45.70937" lon="4.91918">
        <ele>198.6</ele>
        <time>2014-06-14T12:33:40Z</time>
      </trkpt>
      <trkpt lat="45.70953" lon="4.91928">
        <ele>198.8</ele>
        <time>2014-06-14T12:33:46Z</time>
      </trkpt>
      <trkpt lat="45.70969" lon="4.91938">
        <ele>198.8</ele>
        <time>2014-06-14T12:33:52Z</time>
      </trkpt>
      <trkpt lat="45.70972" lon="4.91939">
        <ele>198.8</ele>
        <time>2014-06-14T12:33:53Z</time>
      </trkpt>
      <trkpt lat="45.7098" lon="4.91945">
        <ele>198.8</ele>
        <time>2014-06-14T12:33:56Z</time>
      </trkpt>
      <trkpt lat="45.7099" lon="4.9195">
        <ele>198.8</ele>
        <time>2014-06-14T12:33:59Z</time>
      </trkpt>
      <trkpt lat="45.70996" lon="4.91952">
        <ele>198.8</ele>
        <time>2014-06-14T12:34:01Z</time>
      </trkpt>
      <trkpt lat="45.71008" lon="4.91958">
        <ele>198.8</ele>
        <time>2014-06-14T12:34:05Z</time>
      </trkpt>
      <trkpt lat="45.71011" lon="4.91959">
        <ele>198.8</ele>
        <time>2014-06-14T12:34:06Z</time>
      </trkpt>
      <trkpt lat="45.71026" lon="4.91967">
        <ele>199</ele>
        <time>2014-06-14T12:34:11Z</time>
      </trkpt>
      <trkpt lat="45.71032" lon="4.9197">
        <ele>199</ele>
        <time>2014-06-14T12:34:13Z</time>
      </trkpt>
      <trkpt lat="45.71045" lon="4.91975">
        <ele>199.4</ele>
        <time>2014-06-14T12:34:17Z</time>
      </trkpt>
      <trkpt lat="45.71048" lon="4.91976">
        <ele>199.4</ele>
        <time>2014-06-14T12:34:18Z</time>
      </trkpt>
      <trkpt lat="45.71062" lon="4.91983">
        <ele>200</ele>
        <time>2014-06-14T12:34:23Z</time>
      </trkpt>
      <trkpt lat="45.71064" lon="4.91985">
        <ele>200</ele>
        <time>2014-06-14T12:34:24Z</time>
      </trkpt>
      <trkpt lat="45.71078" lon="4.91992">
        <ele>200.6</ele>
        <time>2014-06-14T12:34:29Z</time>
      </trkpt>
      <trkpt lat="45.71083" lon="4.91994">
        <ele>200.8</ele>
        <time>2014-06-14T12:34:31Z</time>
      </trkpt>
      <trkpt lat="45.7109" lon="4.91997">
        <ele>201</ele>
        <time>2014-06-14T12:34:33Z</time>
      </trkpt>
      <trkpt lat="45.71103" lon="4.92004">
        <ele>201.6</ele>
        <time>2014-06-14T12:34:38Z</time>
      </trkpt>
      <trkpt lat="45.71117" lon="4.92011">
        <ele>202</ele>
        <time>2014-06-14T12:34:43Z</time>
      </trkpt>
      <trkpt lat="45.71122" lon="4.92014">
        <ele>202</ele>
        <time>2014-06-14T12:34:45Z</time>
      </trkpt>
      <trkpt lat="45.7113" lon="4.92017">
        <ele>202.2</ele>
        <time>2014-06-14T12:34:48Z</time>
      </trkpt>
      <trkpt lat="45.7114" lon="4.92022">
        <ele>202.4</ele>
        <time>2014-06-14T12:34:52Z</time>
      </trkpt>
      <trkpt lat="45.71145" lon="4.92025">
        <ele>202.6</ele>
        <time>2014-06-14T12:34:54Z</time>
      </trkpt>
      <trkpt lat="45.71157" lon="4.92033">
        <ele>202.8</ele>
        <time>2014-06-14T12:34:59Z</time>
      </trkpt>
      <trkpt lat="45.71161" lon="4.92037">
        <ele>202.8</ele>
        <time>2014-06-14T12:35:01Z</time>
      </trkpt>
      <trkpt lat="45.71174" lon="4.92047">
        <ele>203</ele>
        <time>2014-06-14T12:35:06Z</time>
      </trkpt>
      <trkpt lat="45.71186" lon="4.92057">
        <ele>203</ele>
        <time>2014-06-14T12:35:11Z</time>
      </trkpt>
      <trkpt lat="45.7119" lon="4.92058">
        <ele>203</ele>
        <time>2014-06-14T12:35:13Z</time>
      </trkpt>
      <trkpt lat="45.71194" lon="4.92054">
        <ele>202.8</ele>
        <time>2014-06-14T12:35:15Z</time>
      </trkpt>
      <trkpt lat="45.71198" lon="4.92049">
        <ele>202.8</ele>
        <time>2014-06-14T12:35:17Z</time>
      </trkpt>
      <trkpt lat="45.71203" lon="4.92042">
        <ele>202.6</ele>
        <time>2014-06-14T12:35:20Z</time>
      </trkpt>
      <trkpt lat="45.71205" lon="4.92042">
        <ele>202.6</ele>
        <time>2014-06-14T12:35:21Z</time>
      </trkpt>
      <trkpt lat="45.71215" lon="4.92044">
        <ele>202.4</ele>
        <time>2014-06-14T12:35:25Z</time>
      </trkpt>
      <trkpt lat="45.71222" lon="4.92052">
        <ele>202.4</ele>
        <time>2014-06-14T12:35:29Z</time>
      </trkpt>
      <trkpt lat="45.71224" lon="4.92052">
        <ele>202.2</ele>
        <time>2014-06-14T12:35:30Z</time>
      </trkpt>
      <trkpt lat="45.71226" lon="4.92052">
        <ele>202</ele>
        <time>2014-06-14T12:35:35Z</time>
      </trkpt>
      <trkpt lat="45.71225" lon="4.92053">
        <ele>202</ele>
        <time>2014-06-14T12:35:38Z</time>
      </trkpt>
      <trkpt lat="45.71224" lon="4.92052">
        <ele>202</ele>
        <time>2014-06-14T12:35:39Z</time>
      </trkpt>
      <trkpt lat="45.71223" lon="4.92051">
        <ele>201.8</ele>
        <time>2014-06-14T12:35:41Z</time>
      </trkpt>
      <trkpt lat="45.71223" lon="4.92048">
        <ele>201.4</ele>
        <time>2014-06-14T12:35:44Z</time>
      </trkpt>
      <trkpt lat="45.71223" lon="4.92045">
        <ele>201</ele>
        <time>2014-06-14T12:35:50Z</time>
      </trkpt>
      <trkpt lat="45.71219" lon="4.92041">
        <ele>200</ele>
        <time>2014-06-14T12:36:16Z</time>
      </trkpt>
      <trkpt lat="45.71218" lon="4.92038">
        <ele>200</ele>
        <time>2014-06-14T12:36:17Z</time>
      </trkpt>
      <trkpt lat="45.71215" lon="4.92027">
        <ele>200</ele>
        <time>2014-06-14T12:36:20Z</time>
      </trkpt>
      <trkpt lat="45.71217" lon="4.92022">
        <ele>199.8</ele>
        <time>2014-06-14T12:36:21Z</time>
      </trkpt>
      <trkpt lat="45.71221" lon="4.92012">
        <ele>199.8</ele>
        <time>2014-06-14T12:36:23Z</time>
      </trkpt>
      <trkpt lat="45.71234" lon="4.91988">
        <ele>199.6</ele>
        <time>2014-06-14T12:36:28Z</time>
      </trkpt>
      <trkpt lat="45.71236" lon="4.91983">
        <ele>199.6</ele>
        <time>2014-06-14T12:36:29Z</time>
      </trkpt>
      <trkpt lat="45.71244" lon="4.91965">
        <ele>199.4</ele>
        <time>2014-06-14T12:36:33Z</time>
      </trkpt>
      <trkpt lat="45.71246" lon="4.9196">
        <ele>199.4</ele>
        <time>2014-06-14T12:36:34Z</time>
      </trkpt>
      <trkpt lat="45.71256" lon="4.91943">
        <ele>199.2</ele>
        <time>2014-06-14T12:36:38Z</time>
      </trkpt>
      <trkpt lat="45.71267" lon="4.9192">
        <ele>198.8</ele>
        <time>2014-06-14T12:36:43Z</time>
      </trkpt>
      <trkpt lat="45.71278" lon="4.91898">
        <ele>198.6</ele>
        <time>2014-06-14T12:36:48Z</time>
      </trkpt>
      <trkpt lat="45.71286" lon="4.9188">
        <ele>198.4</ele>
        <time>2014-06-14T12:36:52Z</time>
      </trkpt>
      <trkpt lat="45.71288" lon="4.91875">
        <ele>198.4</ele>
        <time>2014-06-14T12:36:53Z</time>
      </trkpt>
      <trkpt lat="45.713" lon="4.9185">
        <ele>198.2</ele>
        <time>2014-06-14T12:36:58Z</time>
      </trkpt>
      <trkpt lat="45.71305" lon="4.9184">
        <ele>198</ele>
        <time>2014-06-14T12:37:00Z</time>
      </trkpt>
      <trkpt lat="45.71314" lon="4.91825">
        <ele>198</ele>
        <time>2014-06-14T12:37:03Z</time>
      </trkpt>
      <trkpt lat="45.71317" lon="4.91821">
        <ele>198</ele>
        <time>2014-06-14T12:37:04Z</time>
      </trkpt>
      <trkpt lat="45.71321" lon="4.91812">
        <ele>197.8</ele>
        <time>2014-06-14T12:37:06Z</time>
      </trkpt>
      <trkpt lat="45.71325" lon="4.91803">
        <ele>197.6</ele>
        <time>2014-06-14T12:37:08Z</time>
      </trkpt>
      <trkpt lat="45.71339" lon="4.91778">
        <ele>197.2</ele>
        <time>2014-06-14T12:37:13Z</time>
      </trkpt>
      <trkpt lat="45.71352" lon="4.91753">
        <ele>196.8</ele>
        <time>2014-06-14T12:37:18Z</time>
      </trkpt>
      <trkpt lat="45.71358" lon="4.91744">
        <ele>196.8</ele>
        <time>2014-06-14T12:37:20Z</time>
      </trkpt>
      <trkpt lat="45.71365" lon="4.91728">
        <ele>196.4</ele>
        <time>2014-06-14T12:37:23Z</time>
      </trkpt>
      <trkpt lat="45.7137" lon="4.91717">
        <ele>196.4</ele>
        <time>2014-06-14T12:37:25Z</time>
      </trkpt>
      <trkpt lat="45.71373" lon="4.91705">
        <ele>196.2</ele>
        <time>2014-06-14T12:37:27Z</time>
      </trkpt>
      <trkpt lat="45.71382" lon="4.9168">
        <ele>196</ele>
        <time>2014-06-14T12:37:31Z</time>
      </trkpt>
      <trkpt lat="45.71388" lon="4.91661">
        <ele>196</ele>
        <time>2014-06-14T12:37:34Z</time>
      </trkpt>
      <trkpt lat="45.7139" lon="4.91654">
        <ele>196</ele>
        <time>2014-06-14T12:37:35Z</time>
      </trkpt>
      <trkpt lat="45.71399" lon="4.91631">
        <ele>195.8</ele>
        <time>2014-06-14T12:37:39Z</time>
      </trkpt>
      <trkpt lat="45.71401" lon="4.91626">
        <ele>195.6</ele>
        <time>2014-06-14T12:37:40Z</time>
      </trkpt>
      <trkpt lat="45.71409" lon="4.91605">
        <ele>195.6</ele>
        <time>2014-06-14T12:37:44Z</time>
      </trkpt>
      <trkpt lat="45.71411" lon="4.916">
        <ele>195.6</ele>
        <time>2014-06-14T12:37:45Z</time>
      </trkpt>
      <trkpt lat="45.71414" lon="4.91591">
        <ele>195.4</ele>
        <time>2014-06-14T12:37:47Z</time>
      </trkpt>
      <trkpt lat="45.71418" lon="4.91579">
        <ele>195.4</ele>
        <time>2014-06-14T12:37:50Z</time>
      </trkpt>
      <trkpt lat="45.71421" lon="4.91573">
        <ele>195.2</ele>
        <time>2014-06-14T12:37:53Z</time>
      </trkpt>
      <trkpt lat="45.7143" lon="4.91555">
        <ele>195</ele>
        <time>2014-06-14T12:37:58Z</time>
      </trkpt>
      <trkpt lat="45.71441" lon="4.91528">
        <ele>195</ele>
        <time>2014-06-14T12:38:03Z</time>
      </trkpt>
      <trkpt lat="45.71453" lon="4.91503">
        <ele>194.8</ele>
        <time>2014-06-14T12:38:07Z</time>
      </trkpt>
      <trkpt lat="45.71456" lon="4.91501">
        <ele>194.6</ele>
        <time>2014-06-14T12:38:08Z</time>
      </trkpt>
      <trkpt lat="45.71465" lon="4.91505">
        <ele>194.6</ele>
        <time>2014-06-14T12:38:11Z</time>
      </trkpt>
      <trkpt lat="45.71469" lon="4.9151">
        <ele>194.4</ele>
        <time>2014-06-14T12:38:13Z</time>
      </trkpt>
      <trkpt lat="45.71472" lon="4.91518">
        <ele>194.4</ele>
        <time>2014-06-14T12:38:15Z</time>
      </trkpt>
      <trkpt lat="45.71479" lon="4.91533">
        <ele>194.2</ele>
        <time>2014-06-14T12:38:19Z</time>
      </trkpt>
      <trkpt lat="45.71483" lon="4.9154">
        <ele>194.2</ele>
        <time>2014-06-14T12:38:21Z</time>
      </trkpt>
      <trkpt lat="45.71491" lon="4.91554">
        <ele>194.2</ele>
        <time>2014-06-14T12:38:25Z</time>
      </trkpt>
      <trkpt lat="45.71503" lon="4.91578">
        <ele>194</ele>
        <time>2014-06-14T12:38:31Z</time>
      </trkpt>
      <trkpt lat="45.71505" lon="4.91582">
        <ele>194</ele>
        <time>2014-06-14T12:38:32Z</time>
      </trkpt>
      <trkpt lat="45.71513" lon="4.91602">
        <ele>194</ele>
        <time>2014-06-14T12:38:36Z</time>
      </trkpt>
      <trkpt lat="45.71516" lon="4.91612">
        <ele>194</ele>
        <time>2014-06-14T12:38:38Z</time>
      </trkpt>
      <trkpt lat="45.71518" lon="4.91621">
        <ele>194</ele>
        <time>2014-06-14T12:38:41Z</time>
      </trkpt>
      <trkpt lat="45.71518" lon="4.91622">
        <ele>193.8</ele>
        <time>2014-06-14T12:38:43Z</time>
      </trkpt>
      <trkpt lat="45.71521" lon="4.91627">
        <ele>193.8</ele>
        <time>2014-06-14T12:38:45Z</time>
      </trkpt>
      <trkpt lat="45.71531" lon="4.91642">
        <ele>193.8</ele>
        <time>2014-06-14T12:38:49Z</time>
      </trkpt>
      <trkpt lat="45.71533" lon="4.9165">
        <ele>193.8</ele>
        <time>2014-06-14T12:38:51Z</time>
      </trkpt>
      <trkpt lat="45.71538" lon="4.91663">
        <ele>193.6</ele>
        <time>2014-06-14T12:38:54Z</time>
      </trkpt>
      <trkpt lat="45.71541" lon="4.91675">
        <ele>193.6</ele>
        <time>2014-06-14T12:38:57Z</time>
      </trkpt>
      <trkpt lat="45.71544" lon="4.91683">
        <ele>193.6</ele>
        <time>2014-06-14T12:38:59Z</time>
      </trkpt>
      <trkpt lat="45.7155" lon="4.91701">
        <ele>193.4</ele>
        <time>2014-06-14T12:39:04Z</time>
      </trkpt>
      <trkpt lat="45.71559" lon="4.91712">
        <ele>193.4</ele>
        <time>2014-06-14T12:39:08Z</time>
      </trkpt>
      <trkpt lat="45.71565" lon="4.91719">
        <ele>193.2</ele>
        <time>2014-06-14T12:39:11Z</time>
      </trkpt>
      <trkpt lat="45.71576" lon="4.91729">
        <ele>193.2</ele>
        <time>2014-06-14T12:39:16Z</time>
      </trkpt>
      <trkpt lat="45.7158" lon="4.91735">
        <ele>193.2</ele>
        <time>2014-06-14T12:39:18Z</time>
      </trkpt>
      <trkpt lat="45.71585" lon="4.91742">
        <ele>193.2</ele>
        <time>2014-06-14T12:39:21Z</time>
      </trkpt>
      <trkpt lat="45.71589" lon="4.91748">
        <ele>193.2</ele>
        <time>2014-06-14T12:39:26Z</time>
      </trkpt>
      <trkpt lat="45.71589" lon="4.91749">
        <ele>193</ele>
        <time>2014-06-14T12:39:27Z</time>
      </trkpt>
      <trkpt lat="45.7159" lon="4.9175">
        <ele>193</ele>
        <time>2014-06-14T12:39:30Z</time>
      </trkpt>
      <trkpt lat="45.71591" lon="4.91752">
        <ele>193</ele>
        <time>2014-06-14T12:39:31Z</time>
      </trkpt>
      <trkpt lat="45.71594" lon="4.91755">
        <ele>193</ele>
        <time>2014-06-14T12:39:32Z</time>
      </trkpt>
      <trkpt lat="45.71603" lon="4.91764">
        <ele>193</ele>
        <time>2014-06-14T12:39:35Z</time>
      </trkpt>
      <trkpt lat="45.7161" lon="4.91773">
        <ele>193</ele>
        <time>2014-06-14T12:39:38Z</time>
      </trkpt>
      <trkpt lat="45.71615" lon="4.91779">
        <ele>193</ele>
        <time>2014-06-14T12:39:40Z</time>
      </trkpt>
      <trkpt lat="45.71623" lon="4.91791">
        <ele>193</ele>
        <time>2014-06-14T12:39:44Z</time>
      </trkpt>
      <trkpt lat="45.71627" lon="4.91797">
        <ele>192.8</ele>
        <time>2014-06-14T12:39:46Z</time>
      </trkpt>
      <trkpt lat="45.71635" lon="4.91814">
        <ele>192.8</ele>
        <time>2014-06-14T12:39:51Z</time>
      </trkpt>
      <trkpt lat="45.71642" lon="4.91832">
        <ele>192.6</ele>
        <time>2014-06-14T12:39:56Z</time>
      </trkpt>
      <trkpt lat="45.71645" lon="4.91838">
        <ele>192.6</ele>
        <time>2014-06-14T12:39:58Z</time>
      </trkpt>
      <trkpt lat="45.71649" lon="4.9185">
        <ele>192.6</ele>
        <time>2014-06-14T12:40:01Z</time>
      </trkpt>
      <trkpt lat="45.71654" lon="4.91864">
        <ele>192.4</ele>
        <time>2014-06-14T12:40:05Z</time>
      </trkpt>
      <trkpt lat="45.71658" lon="4.91866">
        <ele>192.4</ele>
        <time>2014-06-14T12:40:07Z</time>
      </trkpt>
      <trkpt lat="45.71662" lon="4.91862">
        <ele>192.4</ele>
        <time>2014-06-14T12:40:09Z</time>
      </trkpt>
      <trkpt lat="45.71671" lon="4.91854">
        <ele>192.4</ele>
        <time>2014-06-14T12:40:13Z</time>
      </trkpt>
      <trkpt lat="45.71672" lon="4.91852">
        <ele>192.4</ele>
        <time>2014-06-14T12:40:14Z</time>
      </trkpt>
      <trkpt lat="45.71684" lon="4.9184">
        <ele>192.2</ele>
        <time>2014-06-14T12:40:19Z</time>
      </trkpt>
      <trkpt lat="45.71687" lon="4.91838">
        <ele>192.2</ele>
        <time>2014-06-14T12:40:20Z</time>
      </trkpt>
      <trkpt lat="45.71701" lon="4.91828">
        <ele>192.2</ele>
        <time>2014-06-14T12:40:26Z</time>
      </trkpt>
      <trkpt lat="45.71703" lon="4.91826">
        <ele>192.4</ele>
        <time>2014-06-14T12:40:27Z</time>
      </trkpt>
      <trkpt lat="45.71715" lon="4.91817">
        <ele>193</ele>
        <time>2014-06-14T12:40:32Z</time>
      </trkpt>
      <trkpt lat="45.71721" lon="4.91813">
        <ele>193.4</ele>
        <time>2014-06-14T12:40:34Z</time>
      </trkpt>
      <trkpt lat="45.71733" lon="4.91805">
        <ele>194.6</ele>
        <time>2014-06-14T12:40:39Z</time>
      </trkpt>
      <trkpt lat="45.71739" lon="4.91801">
        <ele>195</ele>
        <time>2014-06-14T12:40:41Z</time>
      </trkpt>
      <trkpt lat="45.71749" lon="4.91794">
        <ele>195.8</ele>
        <time>2014-06-14T12:40:45Z</time>
      </trkpt>
      <trkpt lat="45.71755" lon="4.9179">
        <ele>196.2</ele>
        <time>2014-06-14T12:40:47Z</time>
      </trkpt>
      <trkpt lat="45.7177" lon="4.91779">
        <ele>197.2</ele>
        <time>2014-06-14T12:40:52Z</time>
      </trkpt>
      <trkpt lat="45.71772" lon="4.91777">
        <ele>197.4</ele>
        <time>2014-06-14T12:40:53Z</time>
      </trkpt>
      <trkpt lat="45.71789" lon="4.91764">
        <ele>198.4</ele>
        <time>2014-06-14T12:40:59Z</time>
      </trkpt>
      <trkpt lat="45.71799" lon="4.9175">
        <ele>199.8</ele>
        <time>2014-06-14T12:41:04Z</time>
      </trkpt>
      <trkpt lat="45.718" lon="4.91743">
        <ele>200.4</ele>
        <time>2014-06-14T12:41:06Z</time>
      </trkpt>
      <trkpt lat="45.718" lon="4.91733">
        <ele>201.2</ele>
        <time>2014-06-14T12:41:09Z</time>
      </trkpt>
      <trkpt lat="45.718" lon="4.91727">
        <ele>201.6</ele>
        <time>2014-06-14T12:41:11Z</time>
      </trkpt>
      <trkpt lat="45.71799" lon="4.91719">
        <ele>201.6</ele>
        <time>2014-06-14T12:41:13Z</time>
      </trkpt>
      <trkpt lat="45.71799" lon="4.91714">
        <ele>201.6</ele>
        <time>2014-06-14T12:41:14Z</time>
      </trkpt>
      <trkpt lat="45.718" lon="4.91702">
        <ele>201.6</ele>
        <time>2014-06-14T12:41:17Z</time>
      </trkpt>
      <trkpt lat="45.71803" lon="4.91692">
        <ele>201.2</ele>
        <time>2014-06-14T12:41:21Z</time>
      </trkpt>
      <trkpt lat="45.718" lon="4.91697">
        <ele>199.2</ele>
        <time>2014-06-14T12:41:38Z</time>
      </trkpt>
      <trkpt lat="45.718" lon="4.91699">
        <ele>198.8</ele>
        <time>2014-06-14T12:41:41Z</time>
      </trkpt>
      <trkpt lat="45.718" lon="4.91703">
        <ele>198.6</ele>
        <time>2014-06-14T12:41:43Z</time>
      </trkpt>
      <trkpt lat="45.71797" lon="4.91712">
        <ele>198.2</ele>
        <time>2014-06-14T12:41:46Z</time>
      </trkpt>
      <trkpt lat="45.71795" lon="4.91714">
        <ele>198</ele>
        <time>2014-06-14T12:41:47Z</time>
      </trkpt>
      <trkpt lat="45.71792" lon="4.9172">
        <ele>197.8</ele>
        <time>2014-06-14T12:41:49Z</time>
      </trkpt>
      <trkpt lat="45.71792" lon="4.91725">
        <ele>197.8</ele>
        <time>2014-06-14T12:41:50Z</time>
      </trkpt>
      <trkpt lat="45.71796" lon="4.91742">
        <ele>197.4</ele>
        <time>2014-06-14T12:41:53Z</time>
      </trkpt>
      <trkpt lat="45.71798" lon="4.91747">
        <ele>197.4</ele>
        <time>2014-06-14T12:41:54Z</time>
      </trkpt>
      <trkpt lat="45.718" lon="4.91758">
        <ele>197.2</ele>
        <time>2014-06-14T12:41:56Z</time>
      </trkpt>
      <trkpt lat="45.71797" lon="4.91767">
        <ele>197</ele>
        <time>2014-06-14T12:41:58Z</time>
      </trkpt>
      <trkpt lat="45.71793" lon="4.9177">
        <ele>197</ele>
        <time>2014-06-14T12:41:59Z</time>
      </trkpt>
      <trkpt lat="45.71778" lon="4.91779">
        <ele>197</ele>
        <time>2014-06-14T12:42:03Z</time>
      </trkpt>
      <trkpt lat="45.71775" lon="4.91782">
        <ele>197</ele>
        <time>2014-06-14T12:42:04Z</time>
      </trkpt>
      <trkpt lat="45.71754" lon="4.91794">
        <ele>197</ele>
        <time>2014-06-14T12:42:09Z</time>
      </trkpt>
      <trkpt lat="45.7175" lon="4.91797">
        <ele>197.2</ele>
        <time>2014-06-14T12:42:10Z</time>
      </trkpt>
      <trkpt lat="45.71736" lon="4.91803">
        <ele>197.6</ele>
        <time>2014-06-14T12:42:13Z</time>
      </trkpt>
      <trkpt lat="45.71719" lon="4.9181">
        <ele>198.2</ele>
        <time>2014-06-14T12:42:17Z</time>
      </trkpt>
      <trkpt lat="45.71715" lon="4.91812">
        <ele>198.4</ele>
        <time>2014-06-14T12:42:18Z</time>
      </trkpt>
      <trkpt lat="45.71698" lon="4.91823">
        <ele>199.2</ele>
        <time>2014-06-14T12:42:22Z</time>
      </trkpt>
      <trkpt lat="45.71685" lon="4.91832">
        <ele>200</ele>
        <time>2014-06-14T12:42:25Z</time>
      </trkpt>
      <trkpt lat="45.71681" lon="4.91835">
        <ele>200</ele>
        <time>2014-06-14T12:42:26Z</time>
      </trkpt>
      <trkpt lat="45.71665" lon="4.91852">
        <ele>199.8</ele>
        <time>2014-06-14T12:42:31Z</time>
      </trkpt>
      <trkpt lat="45.71661" lon="4.91855">
        <ele>199.8</ele>
        <time>2014-06-14T12:42:32Z</time>
      </trkpt>
      <trkpt lat="45.7165" lon="4.91872">
        <ele>199.8</ele>
        <time>2014-06-14T12:42:36Z</time>
      </trkpt>
      <trkpt lat="45.71641" lon="4.91877">
        <ele>199.6</ele>
        <time>2014-06-14T12:42:40Z</time>
      </trkpt>
      <trkpt lat="45.71639" lon="4.91878">
        <ele>199.4</ele>
        <time>2014-06-14T12:42:44Z</time>
      </trkpt>
      <trkpt lat="45.71635" lon="4.91881">
        <ele>199.2</ele>
        <time>2014-06-14T12:42:49Z</time>
      </trkpt>
      <trkpt lat="45.71633" lon="4.91882">
        <ele>199</ele>
        <time>2014-06-14T12:42:51Z</time>
      </trkpt>
      <trkpt lat="45.71624" lon="4.91886">
        <ele>198.8</ele>
        <time>2014-06-14T12:42:55Z</time>
      </trkpt>
      <trkpt lat="45.71614" lon="4.91888">
        <ele>198.6</ele>
        <time>2014-06-14T12:42:58Z</time>
      </trkpt>
      <trkpt lat="45.71603" lon="4.91891">
        <ele>198.6</ele>
        <time>2014-06-14T12:43:01Z</time>
      </trkpt>
      <trkpt lat="45.71595" lon="4.91892">
        <ele>198.4</ele>
        <time>2014-06-14T12:43:03Z</time>
      </trkpt>
      <trkpt lat="45.71588" lon="4.91894">
        <ele>198.2</ele>
        <time>2014-06-14T12:43:05Z</time>
      </trkpt>
      <trkpt lat="45.71577" lon="4.91899">
        <ele>198.2</ele>
        <time>2014-06-14T12:43:08Z</time>
      </trkpt>
      <trkpt lat="45.71573" lon="4.91902">
        <ele>198</ele>
        <time>2014-06-14T12:43:10Z</time>
      </trkpt>
      <trkpt lat="45.71572" lon="4.91904">
        <ele>198</ele>
        <time>2014-06-14T12:43:11Z</time>
      </trkpt>
      <trkpt lat="45.71573" lon="4.91911">
        <ele>197.8</ele>
        <time>2014-06-14T12:43:14Z</time>
      </trkpt>
      <trkpt lat="45.71574" lon="4.91923">
        <ele>197.6</ele>
        <time>2014-06-14T12:43:17Z</time>
      </trkpt>
      <trkpt lat="45.71574" lon="4.91937">
        <ele>197.4</ele>
        <time>2014-06-14T12:43:21Z</time>
      </trkpt>
      <trkpt lat="45.71575" lon="4.91951">
        <ele>197.2</ele>
        <time>2014-06-14T12:43:25Z</time>
      </trkpt>
      <trkpt lat="45.71576" lon="4.91961">
        <ele>197.2</ele>
        <time>2014-06-14T12:43:27Z</time>
      </trkpt>
      <trkpt lat="45.71577" lon="4.91981">
        <ele>197</ele>
        <time>2014-06-14T12:43:31Z</time>
      </trkpt>
      <trkpt lat="45.71577" lon="4.92001">
        <ele>196.8</ele>
        <time>2014-06-14T12:43:35Z</time>
      </trkpt>
      <trkpt lat="45.71577" lon="4.92007">
        <ele>196.8</ele>
        <time>2014-06-14T12:43:36Z</time>
      </trkpt>
      <trkpt lat="45.71575" lon="4.92037">
        <ele>196.6</ele>
        <time>2014-06-14T12:43:42Z</time>
      </trkpt>
      <trkpt lat="45.71572" lon="4.92067">
        <ele>196.4</ele>
        <time>2014-06-14T12:43:48Z</time>
      </trkpt>
      <trkpt lat="45.71572" lon="4.92072">
        <ele>196.4</ele>
        <time>2014-06-14T12:43:49Z</time>
      </trkpt>
      <trkpt lat="45.71568" lon="4.92093">
        <ele>196.2</ele>
        <time>2014-06-14T12:43:53Z</time>
      </trkpt>
      <trkpt lat="45.71565" lon="4.92103">
        <ele>196.2</ele>
        <time>2014-06-14T12:43:55Z</time>
      </trkpt>
      <trkpt lat="45.7156" lon="4.9212">
        <ele>196</ele>
        <time>2014-06-14T12:43:58Z</time>
      </trkpt>
      <trkpt lat="45.71552" lon="4.92138">
        <ele>196</ele>
        <time>2014-06-14T12:44:02Z</time>
      </trkpt>
      <trkpt lat="45.71552" lon="4.92142">
        <ele>196</ele>
        <time>2014-06-14T12:44:03Z</time>
      </trkpt>
      <trkpt lat="45.71552" lon="4.92145">
        <ele>195.8</ele>
        <time>2014-06-14T12:44:04Z</time>
      </trkpt>
      <trkpt lat="45.71555" lon="4.92152">
        <ele>195.8</ele>
        <time>2014-06-14T12:44:06Z</time>
      </trkpt>
      <trkpt lat="45.71563" lon="4.92169">
        <ele>195.8</ele>
        <time>2014-06-14T12:44:11Z</time>
      </trkpt>
      <trkpt lat="45.71566" lon="4.92177">
        <ele>195.8</ele>
        <time>2014-06-14T12:44:13Z</time>
      </trkpt>
      <trkpt lat="45.71569" lon="4.92193">
        <ele>195.8</ele>
        <time>2014-06-14T12:44:18Z</time>
      </trkpt>
      <trkpt lat="45.7157" lon="4.92195">
        <ele>195.8</ele>
        <time>2014-06-14T12:44:19Z</time>
      </trkpt>
      <trkpt lat="45.7157" lon="4.92201">
        <ele>196.2</ele>
        <time>2014-06-14T12:44:25Z</time>
      </trkpt>
      <trkpt lat="45.71571" lon="4.92207">
        <ele>196.4</ele>
        <time>2014-06-14T12:44:30Z</time>
      </trkpt>
      <trkpt lat="45.71572" lon="4.92221">
        <ele>196.8</ele>
        <time>2014-06-14T12:44:34Z</time>
      </trkpt>
      <trkpt lat="45.71571" lon="4.92225">
        <ele>196.8</ele>
        <time>2014-06-14T12:44:35Z</time>
      </trkpt>
      <trkpt lat="45.71566" lon="4.92245">
        <ele>197.2</ele>
        <time>2014-06-14T12:44:41Z</time>
      </trkpt>
      <trkpt lat="45.71565" lon="4.92248">
        <ele>197.2</ele>
        <time>2014-06-14T12:44:42Z</time>
      </trkpt>
      <trkpt lat="45.7156" lon="4.92258">
        <ele>197.4</ele>
        <time>2014-06-14T12:44:46Z</time>
      </trkpt>
      <trkpt lat="45.71551" lon="4.92267">
        <ele>198.2</ele>
        <time>2014-06-14T12:44:51Z</time>
      </trkpt>
      <trkpt lat="45.71541" lon="4.92276">
        <ele>199</ele>
        <time>2014-06-14T12:44:56Z</time>
      </trkpt>
      <trkpt lat="45.71537" lon="4.92284">
        <ele>199.4</ele>
        <time>2014-06-14T12:44:59Z</time>
      </trkpt>
      <trkpt lat="45.71531" lon="4.92292">
        <ele>200.4</ele>
        <time>2014-06-14T12:45:03Z</time>
      </trkpt>
      <trkpt lat="45.71525" lon="4.92299">
        <ele>201</ele>
        <time>2014-06-14T12:45:09Z</time>
      </trkpt>
      <trkpt lat="45.71523" lon="4.923">
        <ele>201.2</ele>
        <time>2014-06-14T12:45:11Z</time>
      </trkpt>
      <trkpt lat="45.71517" lon="4.92304">
        <ele>201.2</ele>
        <time>2014-06-14T12:45:17Z</time>
      </trkpt>
      <trkpt lat="45.71514" lon="4.92306">
        <ele>201.2</ele>
        <time>2014-06-14T12:45:20Z</time>
      </trkpt>
      <trkpt lat="45.71513" lon="4.92306">
        <ele>201.2</ele>
        <time>2014-06-14T12:45:22Z</time>
      </trkpt>
      <trkpt lat="45.71506" lon="4.92313">
        <ele>201.2</ele>
        <time>2014-06-14T12:45:28Z</time>
      </trkpt>
      <trkpt lat="45.71502" lon="4.92317">
        <ele>201.2</ele>
        <time>2014-06-14T12:45:32Z</time>
      </trkpt>
      <trkpt lat="45.71501" lon="4.92321">
        <ele>201</ele>
        <time>2014-06-14T12:45:34Z</time>
      </trkpt>
      <trkpt lat="45.71499" lon="4.92323">
        <ele>201</ele>
        <time>2014-06-14T12:45:35Z</time>
      </trkpt>
      <trkpt lat="45.71492" lon="4.92329">
        <ele>201</ele>
        <time>2014-06-14T12:45:38Z</time>
      </trkpt>
      <trkpt lat="45.71488" lon="4.92333">
        <ele>201</ele>
        <time>2014-06-14T12:45:40Z</time>
      </trkpt>
      <trkpt lat="45.71478" lon="4.92347">
        <ele>201</ele>
        <time>2014-06-14T12:45:45Z</time>
      </trkpt>
      <trkpt lat="45.71476" lon="4.9235">
        <ele>201</ele>
        <time>2014-06-14T12:45:46Z</time>
      </trkpt>
      <trkpt lat="45.71464" lon="4.92367">
        <ele>201.4</ele>
        <time>2014-06-14T12:45:52Z</time>
      </trkpt>
      <trkpt lat="45.71457" lon="4.9238">
        <ele>201.8</ele>
        <time>2014-06-14T12:45:57Z</time>
      </trkpt>
      <trkpt lat="45.71451" lon="4.92387">
        <ele>202.2</ele>
        <time>2014-06-14T12:46:00Z</time>
      </trkpt>
      <trkpt lat="45.71446" lon="4.92391">
        <ele>202.4</ele>
        <time>2014-06-14T12:46:02Z</time>
      </trkpt>
      <trkpt lat="45.71434" lon="4.92404">
        <ele>203.2</ele>
        <time>2014-06-14T12:46:08Z</time>
      </trkpt>
      <trkpt lat="45.71425" lon="4.92415">
        <ele>203.8</ele>
        <time>2014-06-14T12:46:13Z</time>
      </trkpt>
      <trkpt lat="45.71419" lon="4.9242">
        <ele>204.2</ele>
        <time>2014-06-14T12:46:16Z</time>
      </trkpt>
      <trkpt lat="45.7141" lon="4.92428">
        <ele>204.8</ele>
        <time>2014-06-14T12:46:20Z</time>
      </trkpt>
      <trkpt lat="45.71403" lon="4.92434">
        <ele>205.2</ele>
        <time>2014-06-14T12:46:23Z</time>
      </trkpt>
      <trkpt lat="45.71395" lon="4.92438">
        <ele>205.6</ele>
        <time>2014-06-14T12:46:26Z</time>
      </trkpt>
      <trkpt lat="45.7139" lon="4.92442">
        <ele>206</ele>
        <time>2014-06-14T12:46:29Z</time>
      </trkpt>
      <trkpt lat="45.7139" lon="4.92443">
        <ele>206.2</ele>
        <time>2014-06-14T12:46:30Z</time>
      </trkpt>
      <trkpt lat="45.71392" lon="4.92446">
        <ele>206.6</ele>
        <time>2014-06-14T12:46:34Z</time>
      </trkpt>
      <trkpt lat="45.71392" lon="4.92448">
        <ele>206.8</ele>
        <time>2014-06-14T12:46:35Z</time>
      </trkpt>
      <trkpt lat="45.71391" lon="4.92447">
        <ele>207</ele>
        <time>2014-06-14T12:46:38Z</time>
      </trkpt>
      <trkpt lat="45.71392" lon="4.92446">
        <ele>207.2</ele>
        <time>2014-06-14T12:46:41Z</time>
      </trkpt>
      <trkpt lat="45.71395" lon="4.92454">
        <ele>207.8</ele>
        <time>2014-06-14T12:46:46Z</time>
      </trkpt>
      <trkpt lat="45.714" lon="4.92462">
        <ele>207.8</ele>
        <time>2014-06-14T12:46:48Z</time>
      </trkpt>
      <trkpt lat="45.71407" lon="4.92472">
        <ele>207.8</ele>
        <time>2014-06-14T12:46:50Z</time>
      </trkpt>
      <trkpt lat="45.71415" lon="4.92482">
        <ele>208</ele>
        <time>2014-06-14T12:46:52Z</time>
      </trkpt>
      <trkpt lat="45.71431" lon="4.92503">
        <ele>208</ele>
        <time>2014-06-14T12:46:56Z</time>
      </trkpt>
      <trkpt lat="45.71435" lon="4.92509">
        <ele>208</ele>
        <time>2014-06-14T12:46:57Z</time>
      </trkpt>
      <trkpt lat="45.71446" lon="4.92523">
        <ele>208</ele>
        <time>2014-06-14T12:47:00Z</time>
      </trkpt>
      <trkpt lat="45.71453" lon="4.92531">
        <ele>208</ele>
        <time>2014-06-14T12:47:02Z</time>
      </trkpt>
      <trkpt lat="45.71456" lon="4.92535">
        <ele>208</ele>
        <time>2014-06-14T12:47:03Z</time>
      </trkpt>
      <trkpt lat="45.71461" lon="4.92542">
        <ele>208</ele>
        <time>2014-06-14T12:47:05Z</time>
      </trkpt>
      <trkpt lat="45.71467" lon="4.92553">
        <ele>207.8</ele>
        <time>2014-06-14T12:47:08Z</time>
      </trkpt>
      <trkpt lat="45.71469" lon="4.92558">
        <ele>207.8</ele>
        <time>2014-06-14T12:47:09Z</time>
      </trkpt>
      <trkpt lat="45.71473" lon="4.92567">
        <ele>208</ele>
        <time>2014-06-14T12:47:11Z</time>
      </trkpt>
      <trkpt lat="45.71475" lon="4.92577">
        <ele>208</ele>
        <time>2014-06-14T12:47:13Z</time>
      </trkpt>
      <trkpt lat="45.71471" lon="4.92591">
        <ele>207.8</ele>
        <time>2014-06-14T12:47:16Z</time>
      </trkpt>
      <trkpt lat="45.71468" lon="4.92596">
        <ele>207.8</ele>
        <time>2014-06-14T12:47:17Z</time>
      </trkpt>
      <trkpt lat="45.71459" lon="4.92617">
        <ele>207.8</ele>
        <time>2014-06-14T12:47:21Z</time>
      </trkpt>
      <trkpt lat="45.71455" lon="4.92629">
        <ele>207.8</ele>
        <time>2014-06-14T12:47:23Z</time>
      </trkpt>
      <trkpt lat="45.71452" lon="4.92642">
        <ele>207.6</ele>
        <time>2014-06-14T12:47:25Z</time>
      </trkpt>
      <trkpt lat="45.71451" lon="4.92648">
        <ele>207.6</ele>
        <time>2014-06-14T12:47:26Z</time>
      </trkpt>
      <trkpt lat="45.71448" lon="4.92668">
        <ele>207.6</ele>
        <time>2014-06-14T12:47:29Z</time>
      </trkpt>
      <trkpt lat="45.71447" lon="4.92687">
        <ele>207.6</ele>
        <time>2014-06-14T12:47:32Z</time>
      </trkpt>
      <trkpt lat="45.71446" lon="4.92693">
        <ele>207.4</ele>
        <time>2014-06-14T12:47:33Z</time>
      </trkpt>
      <trkpt lat="45.71445" lon="4.92705">
        <ele>207.4</ele>
        <time>2014-06-14T12:47:35Z</time>
      </trkpt>
      <trkpt lat="45.71445" lon="4.92712">
        <ele>207.4</ele>
        <time>2014-06-14T12:47:36Z</time>
      </trkpt>
      <trkpt lat="45.71446" lon="4.92724">
        <ele>207.4</ele>
        <time>2014-06-14T12:47:38Z</time>
      </trkpt>
      <trkpt lat="45.7145" lon="4.92754">
        <ele>207.2</ele>
        <time>2014-06-14T12:47:43Z</time>
      </trkpt>
      <trkpt lat="45.71451" lon="4.92759">
        <ele>207.2</ele>
        <time>2014-06-14T12:47:44Z</time>
      </trkpt>
      <trkpt lat="45.71457" lon="4.92781">
        <ele>207</ele>
        <time>2014-06-14T12:47:48Z</time>
      </trkpt>
      <trkpt lat="45.71465" lon="4.92801">
        <ele>206.8</ele>
        <time>2014-06-14T12:47:52Z</time>
      </trkpt>
      <trkpt lat="45.71467" lon="4.92806">
        <ele>206.8</ele>
        <time>2014-06-14T12:47:53Z</time>
      </trkpt>
      <trkpt lat="45.71475" lon="4.92823">
        <ele>206.6</ele>
        <time>2014-06-14T12:47:57Z</time>
      </trkpt>
      <trkpt lat="45.71478" lon="4.92828">
        <ele>206.6</ele>
        <time>2014-06-14T12:47:58Z</time>
      </trkpt>
      <trkpt lat="45.71489" lon="4.92845">
        <ele>206.6</ele>
        <time>2014-06-14T12:48:02Z</time>
      </trkpt>
      <trkpt lat="45.71492" lon="4.92847">
        <ele>206.6</ele>
        <time>2014-06-14T12:48:03Z</time>
      </trkpt>
      <trkpt lat="45.71501" lon="4.9285">
        <ele>206.4</ele>
        <time>2014-06-14T12:48:06Z</time>
      </trkpt>
      <trkpt lat="45.71503" lon="4.92847">
        <ele>206.4</ele>
        <time>2014-06-14T12:48:07Z</time>
      </trkpt>
      <trkpt lat="45.7151" lon="4.92847">
        <ele>206.4</ele>
        <time>2014-06-14T12:48:09Z</time>
      </trkpt>
      <trkpt lat="45.71514" lon="4.92849">
        <ele>206.4</ele>
        <time>2014-06-14T12:48:10Z</time>
      </trkpt>
      <trkpt lat="45.71529" lon="4.92853">
        <ele>206.2</ele>
        <time>2014-06-14T12:48:14Z</time>
      </trkpt>
      <trkpt lat="45.71541" lon="4.92845">
        <ele>206</ele>
        <time>2014-06-14T12:48:17Z</time>
      </trkpt>
      <trkpt lat="45.71547" lon="4.92841">
        <ele>206</ele>
        <time>2014-06-14T12:48:19Z</time>
      </trkpt>
      <trkpt lat="45.71551" lon="4.92839">
        <ele>206</ele>
        <time>2014-06-14T12:48:20Z</time>
      </trkpt>
      <trkpt lat="45.71563" lon="4.92827">
        <ele>205.8</ele>
        <time>2014-06-14T12:48:24Z</time>
      </trkpt>
      <trkpt lat="45.71567" lon="4.92819">
        <ele>205.6</ele>
        <time>2014-06-14T12:48:26Z</time>
      </trkpt>
      <trkpt lat="45.71576" lon="4.92808">
        <ele>205.4</ele>
        <time>2014-06-14T12:48:29Z</time>
      </trkpt>
      <trkpt lat="45.71586" lon="4.92793">
        <ele>205.2</ele>
        <time>2014-06-14T12:48:33Z</time>
      </trkpt>
      <trkpt lat="45.71589" lon="4.92788">
        <ele>205.2</ele>
        <time>2014-06-14T12:48:34Z</time>
      </trkpt>
      <trkpt lat="45.71601" lon="4.92767">
        <ele>205</ele>
        <time>2014-06-14T12:48:40Z</time>
      </trkpt>
      <trkpt lat="45.71603" lon="4.92762">
        <ele>205</ele>
        <time>2014-06-14T12:48:42Z</time>
      </trkpt>
      <trkpt lat="45.71605" lon="4.92763">
        <ele>205</ele>
        <time>2014-06-14T12:48:44Z</time>
      </trkpt>
      <trkpt lat="45.71609" lon="4.92768">
        <ele>204.8</ele>
        <time>2014-06-14T12:48:46Z</time>
      </trkpt>
      <trkpt lat="45.71613" lon="4.92775">
        <ele>204.8</ele>
        <time>2014-06-14T12:48:48Z</time>
      </trkpt>
      <trkpt lat="45.71615" lon="4.92778">
        <ele>204.8</ele>
        <time>2014-06-14T12:48:49Z</time>
      </trkpt>
      <trkpt lat="45.71623" lon="4.92791">
        <ele>204.8</ele>
        <time>2014-06-14T12:48:53Z</time>
      </trkpt>
      <trkpt lat="45.71628" lon="4.92798">
        <ele>204.8</ele>
        <time>2014-06-14T12:48:56Z</time>
      </trkpt>
      <trkpt lat="45.71637" lon="4.92809">
        <ele>205</ele>
        <time>2014-06-14T12:49:00Z</time>
      </trkpt>
      <trkpt lat="45.71642" lon="4.92815">
        <ele>205</ele>
        <time>2014-06-14T12:49:02Z</time>
      </trkpt>
      <trkpt lat="45.7165" lon="4.92826">
        <ele>205.2</ele>
        <time>2014-06-14T12:49:05Z</time>
      </trkpt>
      <trkpt lat="45.71654" lon="4.9283">
        <ele>205.2</ele>
        <time>2014-06-14T12:49:07Z</time>
      </trkpt>
      <trkpt lat="45.71659" lon="4.9283">
        <ele>205.2</ele>
        <time>2014-06-14T12:49:09Z</time>
      </trkpt>
      <trkpt lat="45.71666" lon="4.92821">
        <ele>205.2</ele>
        <time>2014-06-14T12:49:13Z</time>
      </trkpt>
      <trkpt lat="45.71673" lon="4.92822">
        <ele>205.4</ele>
        <time>2014-06-14T12:49:16Z</time>
      </trkpt>
      <trkpt lat="45.71675" lon="4.92824">
        <ele>205.4</ele>
        <time>2014-06-14T12:49:17Z</time>
      </trkpt>
      <trkpt lat="45.71679" lon="4.9283">
        <ele>205.4</ele>
        <time>2014-06-14T12:49:19Z</time>
      </trkpt>
      <trkpt lat="45.71685" lon="4.92838">
        <ele>205.4</ele>
        <time>2014-06-14T12:49:22Z</time>
      </trkpt>
      <trkpt lat="45.71688" lon="4.92844">
        <ele>205.4</ele>
        <time>2014-06-14T12:49:24Z</time>
      </trkpt>
      <trkpt lat="45.71687" lon="4.92851">
        <ele>205.4</ele>
        <time>2014-06-14T12:49:27Z</time>
      </trkpt>
      <trkpt lat="45.71685" lon="4.92854">
        <ele>205.4</ele>
        <time>2014-06-14T12:49:28Z</time>
      </trkpt>
      <trkpt lat="45.71677" lon="4.92865">
        <ele>205.4</ele>
        <time>2014-06-14T12:49:33Z</time>
      </trkpt>
      <trkpt lat="45.71677" lon="4.92866">
        <ele>205.4</ele>
        <time>2014-06-14T12:49:34Z</time>
      </trkpt>
      <trkpt lat="45.71678" lon="4.92866">
        <ele>205.4</ele>
        <time>2014-06-14T12:49:40Z</time>
      </trkpt>
      <trkpt lat="45.71678" lon="4.92863">
        <ele>205.2</ele>
        <time>2014-06-14T12:49:47Z</time>
      </trkpt>
      <trkpt lat="45.71679" lon="4.9286">
        <ele>205.2</ele>
        <time>2014-06-14T12:49:59Z</time>
      </trkpt>
      <trkpt lat="45.71679" lon="4.92859">
        <ele>205.2</ele>
        <time>2014-06-14T12:50:00Z</time>
      </trkpt>
      <trkpt lat="45.71673" lon="4.9285">
        <ele>205</ele>
        <time>2014-06-14T12:50:03Z</time>
      </trkpt>
      <trkpt lat="45.71671" lon="4.92846">
        <ele>205</ele>
        <time>2014-06-14T12:50:04Z</time>
      </trkpt>
      <trkpt lat="45.71664" lon="4.9284">
        <ele>204.8</ele>
        <time>2014-06-14T12:50:07Z</time>
      </trkpt>
      <trkpt lat="45.71654" lon="4.92834">
        <ele>204.6</ele>
        <time>2014-06-14T12:50:11Z</time>
      </trkpt>
      <trkpt lat="45.71639" lon="4.92816">
        <ele>204.4</ele>
        <time>2014-06-14T12:50:17Z</time>
      </trkpt>
      <trkpt lat="45.71625" lon="4.92798">
        <ele>204.2</ele>
        <time>2014-06-14T12:50:22Z</time>
      </trkpt>
      <trkpt lat="45.71623" lon="4.92794">
        <ele>204.2</ele>
        <time>2014-06-14T12:50:23Z</time>
      </trkpt>
      <trkpt lat="45.71611" lon="4.92776">
        <ele>204.2</ele>
        <time>2014-06-14T12:50:29Z</time>
      </trkpt>
      <trkpt lat="45.71609" lon="4.92774">
        <ele>204</ele>
        <time>2014-06-14T12:50:30Z</time>
      </trkpt>
      <trkpt lat="45.71604" lon="4.92766">
        <ele>204</ele>
        <time>2014-06-14T12:50:34Z</time>
      </trkpt>
      <trkpt lat="45.71603" lon="4.92767">
        <ele>204</ele>
        <time>2014-06-14T12:50:35Z</time>
      </trkpt>
      <trkpt lat="45.71599" lon="4.9277">
        <ele>203.8</ele>
        <time>2014-06-14T12:50:38Z</time>
      </trkpt>
      <trkpt lat="45.71596" lon="4.92773">
        <ele>203.8</ele>
        <time>2014-06-14T12:50:39Z</time>
      </trkpt>
      <trkpt lat="45.71594" lon="4.92775">
        <ele>203.8</ele>
        <time>2014-06-14T12:50:40Z</time>
      </trkpt>
      <trkpt lat="45.71582" lon="4.92792">
        <ele>203.6</ele>
        <time>2014-06-14T12:50:46Z</time>
      </trkpt>
      <trkpt lat="45.71571" lon="4.92807">
        <ele>203.6</ele>
        <time>2014-06-14T12:50:52Z</time>
      </trkpt>
      <trkpt lat="45.71568" lon="4.92808">
        <ele>203.6</ele>
        <time>2014-06-14T12:50:53Z</time>
      </trkpt>
      <trkpt lat="45.71563" lon="4.92808">
        <ele>203.6</ele>
        <time>2014-06-14T12:50:56Z</time>
      </trkpt>
      <trkpt lat="45.71558" lon="4.92808">
        <ele>203.6</ele>
        <time>2014-06-14T12:50:59Z</time>
      </trkpt>
      <trkpt lat="45.71553" lon="4.92805">
        <ele>203.6</ele>
        <time>2014-06-14T12:51:03Z</time>
      </trkpt>
      <trkpt lat="45.71551" lon="4.92805">
        <ele>203.6</ele>
        <time>2014-06-14T12:51:05Z</time>
      </trkpt>
      <trkpt lat="45.71543" lon="4.92819">
        <ele>203.6</ele>
        <time>2014-06-14T12:51:09Z</time>
      </trkpt>
      <trkpt lat="45.71538" lon="4.92827">
        <ele>203.6</ele>
        <time>2014-06-14T12:51:11Z</time>
      </trkpt>
      <trkpt lat="45.71532" lon="4.92834">
        <ele>203.6</ele>
        <time>2014-06-14T12:51:13Z</time>
      </trkpt>
      <trkpt lat="45.71525" lon="4.92847">
        <ele>203.6</ele>
        <time>2014-06-14T12:51:16Z</time>
      </trkpt>
      <trkpt lat="45.71522" lon="4.92851">
        <ele>203.6</ele>
        <time>2014-06-14T12:51:17Z</time>
      </trkpt>
      <trkpt lat="45.71516" lon="4.92852">
        <ele>203.6</ele>
        <time>2014-06-14T12:51:19Z</time>
      </trkpt>
      <trkpt lat="45.71513" lon="4.9285">
        <ele>203.6</ele>
        <time>2014-06-14T12:51:20Z</time>
      </trkpt>
      <trkpt lat="45.71509" lon="4.92839">
        <ele>203.4</ele>
        <time>2014-06-14T12:51:22Z</time>
      </trkpt>
      <trkpt lat="45.71507" lon="4.92834">
        <ele>203.4</ele>
        <time>2014-06-14T12:51:23Z</time>
      </trkpt>
      <trkpt lat="45.71501" lon="4.92816">
        <ele>203.2</ele>
        <time>2014-06-14T12:51:27Z</time>
      </trkpt>
      <trkpt lat="45.71499" lon="4.92812">
        <ele>203.2</ele>
        <time>2014-06-14T12:51:28Z</time>
      </trkpt>
      <trkpt lat="45.71493" lon="4.92789">
        <ele>203</ele>
        <time>2014-06-14T12:51:33Z</time>
      </trkpt>
      <trkpt lat="45.71492" lon="4.92784">
        <ele>202.8</ele>
        <time>2014-06-14T12:51:34Z</time>
      </trkpt>
      <trkpt lat="45.71485" lon="4.92764">
        <ele>202.8</ele>
        <time>2014-06-14T12:51:39Z</time>
      </trkpt>
      <trkpt lat="45.71483" lon="4.92759">
        <ele>202.6</ele>
        <time>2014-06-14T12:51:43Z</time>
      </trkpt>
      <trkpt lat="45.71478" lon="4.92756">
        <ele>200.8</ele>
        <time>2014-06-14T12:52:56Z</time>
      </trkpt>
      <trkpt lat="45.71483" lon="4.92758">
        <ele>200.8</ele>
        <time>2014-06-14T12:52:59Z</time>
      </trkpt>
      <trkpt lat="45.71484" lon="4.92761">
        <ele>200.8</ele>
        <time>2014-06-14T12:53:00Z</time>
      </trkpt>
      <trkpt lat="45.71486" lon="4.92762">
        <ele>200.8</ele>
        <time>2014-06-14T12:53:03Z</time>
      </trkpt>
      <trkpt lat="45.71487" lon="4.92763">
        <ele>200.8</ele>
        <time>2014-06-14T12:53:07Z</time>
      </trkpt>
      <trkpt lat="45.71489" lon="4.92773">
        <ele>200.8</ele>
        <time>2014-06-14T12:53:12Z</time>
      </trkpt>
      <trkpt lat="45.71492" lon="4.9278">
        <ele>200.8</ele>
        <time>2014-06-14T12:53:14Z</time>
      </trkpt>
      <trkpt lat="45.71494" lon="4.9279">
        <ele>200.8</ele>
        <time>2014-06-14T12:53:16Z</time>
      </trkpt>
      <trkpt lat="45.71499" lon="4.92805">
        <ele>200.8</ele>
        <time>2014-06-14T12:53:19Z</time>
      </trkpt>
      <trkpt lat="45.71506" lon="4.9283">
        <ele>200.8</ele>
        <time>2014-06-14T12:53:24Z</time>
      </trkpt>
      <trkpt lat="45.71517" lon="4.9285">
        <ele>200.8</ele>
        <time>2014-06-14T12:53:29Z</time>
      </trkpt>
      <trkpt lat="45.71533" lon="4.92851">
        <ele>201.2</ele>
        <time>2014-06-14T12:53:34Z</time>
      </trkpt>
      <trkpt lat="45.71536" lon="4.9285">
        <ele>201.4</ele>
        <time>2014-06-14T12:53:35Z</time>
      </trkpt>
      <trkpt lat="45.71551" lon="4.92845">
        <ele>202</ele>
        <time>2014-06-14T12:53:40Z</time>
      </trkpt>
      <trkpt lat="45.71554" lon="4.92841">
        <ele>202</ele>
        <time>2014-06-14T12:53:41Z</time>
      </trkpt>
      <trkpt lat="45.71564" lon="4.92829">
        <ele>202.6</ele>
        <time>2014-06-14T12:53:45Z</time>
      </trkpt>
      <trkpt lat="45.71567" lon="4.92829">
        <ele>202.6</ele>
        <time>2014-06-14T12:53:46Z</time>
      </trkpt>
      <trkpt lat="45.71569" lon="4.92831">
        <ele>202.8</ele>
        <time>2014-06-14T12:53:47Z</time>
      </trkpt>
      <trkpt lat="45.71575" lon="4.9284">
        <ele>203</ele>
        <time>2014-06-14T12:53:49Z</time>
      </trkpt>
      <trkpt lat="45.71584" lon="4.92853">
        <ele>203.8</ele>
        <time>2014-06-14T12:53:52Z</time>
      </trkpt>
      <trkpt lat="45.71592" lon="4.92864">
        <ele>204.4</ele>
        <time>2014-06-14T12:53:55Z</time>
      </trkpt>
      <trkpt lat="45.71597" lon="4.92871">
        <ele>204.6</ele>
        <time>2014-06-14T12:53:57Z</time>
      </trkpt>
      <trkpt lat="45.71607" lon="4.92886">
        <ele>205.2</ele>
        <time>2014-06-14T12:54:01Z</time>
      </trkpt>
      <trkpt lat="45.71612" lon="4.92893">
        <ele>205.4</ele>
        <time>2014-06-14T12:54:03Z</time>
      </trkpt>
      <trkpt lat="45.71615" lon="4.92896">
        <ele>205.6</ele>
        <time>2014-06-14T12:54:04Z</time>
      </trkpt>
      <trkpt lat="45.7162" lon="4.92896">
        <ele>205.8</ele>
        <time>2014-06-14T12:54:06Z</time>
      </trkpt>
      <trkpt lat="45.71631" lon="4.92885">
        <ele>206</ele>
        <time>2014-06-14T12:54:10Z</time>
      </trkpt>
      <trkpt lat="45.71638" lon="4.92868">
        <ele>206</ele>
        <time>2014-06-14T12:54:13Z</time>
      </trkpt>
      <trkpt lat="45.71641" lon="4.92863">
        <ele>206</ele>
        <time>2014-06-14T12:54:14Z</time>
      </trkpt>
      <trkpt lat="45.71647" lon="4.92852">
        <ele>206</ele>
        <time>2014-06-14T12:54:16Z</time>
      </trkpt>
      <trkpt lat="45.71654" lon="4.92842">
        <ele>206.2</ele>
        <time>2014-06-14T12:54:18Z</time>
      </trkpt>
      <trkpt lat="45.71669" lon="4.92821">
        <ele>206.2</ele>
        <time>2014-06-14T12:54:23Z</time>
      </trkpt>
      <trkpt lat="45.71679" lon="4.92827">
        <ele>206</ele>
        <time>2014-06-14T12:54:26Z</time>
      </trkpt>
      <trkpt lat="45.71684" lon="4.92835">
        <ele>206</ele>
        <time>2014-06-14T12:54:28Z</time>
      </trkpt>
      <trkpt lat="45.71687" lon="4.92838">
        <ele>206</ele>
        <time>2014-06-14T12:54:29Z</time>
      </trkpt>
      <trkpt lat="45.71688" lon="4.92847">
        <ele>206</ele>
        <time>2014-06-14T12:54:31Z</time>
      </trkpt>
      <trkpt lat="45.71681" lon="4.92858">
        <ele>206</ele>
        <time>2014-06-14T12:54:34Z</time>
      </trkpt>
      <trkpt lat="45.71679" lon="4.92861">
        <ele>206</ele>
        <time>2014-06-14T12:54:35Z</time>
      </trkpt>
      <trkpt lat="45.71679" lon="4.92864">
        <ele>206</ele>
        <time>2014-06-14T12:54:36Z</time>
      </trkpt>
      <trkpt lat="45.71682" lon="4.92871">
        <ele>206</ele>
        <time>2014-06-14T12:54:38Z</time>
      </trkpt>
      <trkpt lat="45.71687" lon="4.92878">
        <ele>206</ele>
        <time>2014-06-14T12:54:40Z</time>
      </trkpt>
      <trkpt lat="45.71703" lon="4.929">
        <ele>206</ele>
        <time>2014-06-14T12:54:45Z</time>
      </trkpt>
      <trkpt lat="45.71719" lon="4.92922">
        <ele>205.8</ele>
        <time>2014-06-14T12:54:49Z</time>
      </trkpt>
      <trkpt lat="45.71723" lon="4.92927">
        <ele>205.8</ele>
        <time>2014-06-14T12:54:50Z</time>
      </trkpt>
      <trkpt lat="45.71733" lon="4.92941">
        <ele>205.6</ele>
        <time>2014-06-14T12:54:54Z</time>
      </trkpt>
      <trkpt lat="45.71739" lon="4.9295">
        <ele>205.6</ele>
        <time>2014-06-14T12:54:59Z</time>
      </trkpt>
      <trkpt lat="45.71744" lon="4.92955">
        <ele>205.4</ele>
        <time>2014-06-14T12:55:04Z</time>
      </trkpt>
      <trkpt lat="45.71747" lon="4.92959">
        <ele>205.4</ele>
        <time>2014-06-14T12:55:05Z</time>
      </trkpt>
      <trkpt lat="45.71761" lon="4.92979">
        <ele>205.2</ele>
        <time>2014-06-14T12:55:10Z</time>
      </trkpt>
      <trkpt lat="45.71773" lon="4.92995">
        <ele>205.2</ele>
        <time>2014-06-14T12:55:14Z</time>
      </trkpt>
      <trkpt lat="45.71776" lon="4.92999">
        <ele>205.2</ele>
        <time>2014-06-14T12:55:15Z</time>
      </trkpt>
      <trkpt lat="45.7179" lon="4.93019">
        <ele>205</ele>
        <time>2014-06-14T12:55:20Z</time>
      </trkpt>
      <trkpt lat="45.71802" lon="4.93035">
        <ele>205</ele>
        <time>2014-06-14T12:55:24Z</time>
      </trkpt>
      <trkpt lat="45.71805" lon="4.9304">
        <ele>205</ele>
        <time>2014-06-14T12:55:25Z</time>
      </trkpt>
      <trkpt lat="45.71809" lon="4.93043">
        <ele>205</ele>
        <time>2014-06-14T12:55:26Z</time>
      </trkpt>
      <trkpt lat="45.71821" lon="4.93059">
        <ele>204.8</ele>
        <time>2014-06-14T12:55:30Z</time>
      </trkpt>
      <trkpt lat="45.71823" lon="4.93064">
        <ele>204.8</ele>
        <time>2014-06-14T12:55:31Z</time>
      </trkpt>
      <trkpt lat="45.71836" lon="4.9308">
        <ele>204.8</ele>
        <time>2014-06-14T12:55:35Z</time>
      </trkpt>
      <trkpt lat="45.71844" lon="4.93092">
        <ele>204.8</ele>
        <time>2014-06-14T12:55:38Z</time>
      </trkpt>
      <trkpt lat="45.7185" lon="4.931">
        <ele>204.8</ele>
        <time>2014-06-14T12:55:40Z</time>
      </trkpt>
      <trkpt lat="45.71865" lon="4.9312">
        <ele>204.8</ele>
        <time>2014-06-14T12:55:45Z</time>
      </trkpt>
      <trkpt lat="45.71877" lon="4.93137">
        <ele>204.8</ele>
        <time>2014-06-14T12:55:50Z</time>
      </trkpt>
      <trkpt lat="45.71878" lon="4.93139">
        <ele>204.8</ele>
        <time>2014-06-14T12:55:55Z</time>
      </trkpt>
      <trkpt lat="45.71877" lon="4.93137">
        <ele>204.8</ele>
        <time>2014-06-14T12:55:59Z</time>
      </trkpt>
      <trkpt lat="45.71874" lon="4.93131">
        <ele>204.4</ele>
        <time>2014-06-14T12:56:03Z</time>
      </trkpt>
      <trkpt lat="45.71873" lon="4.9313">
        <ele>204.4</ele>
        <time>2014-06-14T12:56:04Z</time>
      </trkpt>
      <trkpt lat="45.71871" lon="4.93128">
        <ele>204.2</ele>
        <time>2014-06-14T12:56:07Z</time>
      </trkpt>
      <trkpt lat="45.71864" lon="4.93119">
        <ele>203.8</ele>
        <time>2014-06-14T12:56:11Z</time>
      </trkpt>
      <trkpt lat="45.71862" lon="4.93115">
        <ele>203.8</ele>
        <time>2014-06-14T12:56:12Z</time>
      </trkpt>
      <trkpt lat="45.7185" lon="4.93098">
        <ele>203.6</ele>
        <time>2014-06-14T12:56:16Z</time>
      </trkpt>
      <trkpt lat="45.71838" lon="4.93083">
        <ele>203.2</ele>
        <time>2014-06-14T12:56:20Z</time>
      </trkpt>
      <trkpt lat="45.71835" lon="4.93079">
        <ele>203.2</ele>
        <time>2014-06-14T12:56:21Z</time>
      </trkpt>
      <trkpt lat="45.71819" lon="4.93058">
        <ele>202.8</ele>
        <time>2014-06-14T12:56:26Z</time>
      </trkpt>
      <trkpt lat="45.71817" lon="4.93055">
        <ele>202.8</ele>
        <time>2014-06-14T12:56:27Z</time>
      </trkpt>
      <trkpt lat="45.71816" lon="4.93052">
        <ele>202.6</ele>
        <time>2014-06-14T12:56:30Z</time>
      </trkpt>
      <trkpt lat="45.71811" lon="4.93046">
        <ele>202.4</ele>
        <time>2014-06-14T12:56:33Z</time>
      </trkpt>
      <trkpt lat="45.71806" lon="4.93039">
        <ele>202.2</ele>
        <time>2014-06-14T12:56:35Z</time>
      </trkpt>
      <trkpt lat="45.71799" lon="4.9303">
        <ele>202</ele>
        <time>2014-06-14T12:56:38Z</time>
      </trkpt>
      <trkpt lat="45.71792" lon="4.9302">
        <ele>201.8</ele>
        <time>2014-06-14T12:56:41Z</time>
      </trkpt>
      <trkpt lat="45.71785" lon="4.9301">
        <ele>201.6</ele>
        <time>2014-06-14T12:56:44Z</time>
      </trkpt>
      <trkpt lat="45.71777" lon="4.93">
        <ele>201.4</ele>
        <time>2014-06-14T12:56:47Z</time>
      </trkpt>
      <trkpt lat="45.71773" lon="4.92993">
        <ele>201.4</ele>
        <time>2014-06-14T12:56:49Z</time>
      </trkpt>
      <trkpt lat="45.71763" lon="4.92981">
        <ele>201</ele>
        <time>2014-06-14T12:56:53Z</time>
      </trkpt>
      <trkpt lat="45.71756" lon="4.92972">
        <ele>200.8</ele>
        <time>2014-06-14T12:56:56Z</time>
      </trkpt>
      <trkpt lat="45.71749" lon="4.92963">
        <ele>200.8</ele>
        <time>2014-06-14T12:56:59Z</time>
      </trkpt>
      <trkpt lat="45.71745" lon="4.92957">
        <ele>200.6</ele>
        <time>2014-06-14T12:57:01Z</time>
      </trkpt>
      <trkpt lat="45.71738" lon="4.92953">
        <ele>200.6</ele>
        <time>2014-06-14T12:57:04Z</time>
      </trkpt>
      <trkpt lat="45.71736" lon="4.92955">
        <ele>200.4</ele>
        <time>2014-06-14T12:57:05Z</time>
      </trkpt>
      <trkpt lat="45.71734" lon="4.92957">
        <ele>200.4</ele>
        <time>2014-06-14T12:57:06Z</time>
      </trkpt>
      <trkpt lat="45.71726" lon="4.92968">
        <ele>200.4</ele>
        <time>2014-06-14T12:57:10Z</time>
      </trkpt>
      <trkpt lat="45.7172" lon="4.92977">
        <ele>200.2</ele>
        <time>2014-06-14T12:57:13Z</time>
      </trkpt>
      <trkpt lat="45.71712" lon="4.92989">
        <ele>200.2</ele>
        <time>2014-06-14T12:57:17Z</time>
      </trkpt>
      <trkpt lat="45.71706" lon="4.92998">
        <ele>200.2</ele>
        <time>2014-06-14T12:57:20Z</time>
      </trkpt>
      <trkpt lat="45.71703" lon="4.93004">
        <ele>200.2</ele>
        <time>2014-06-14T12:57:22Z</time>
      </trkpt>
      <trkpt lat="45.71692" lon="4.93018">
        <ele>200.2</ele>
        <time>2014-06-14T12:57:27Z</time>
      </trkpt>
      <trkpt lat="45.71688" lon="4.93023">
        <ele>200.2</ele>
        <time>2014-06-14T12:57:29Z</time>
      </trkpt>
      <trkpt lat="45.71675" lon="4.93032">
        <ele>200.2</ele>
        <time>2014-06-14T12:57:34Z</time>
      </trkpt>
      <trkpt lat="45.71673" lon="4.93033">
        <ele>200.2</ele>
        <time>2014-06-14T12:57:35Z</time>
      </trkpt>
      <trkpt lat="45.71669" lon="4.93039">
        <ele>200.2</ele>
        <time>2014-06-14T12:57:37Z</time>
      </trkpt>
      <trkpt lat="45.71669" lon="4.93043">
        <ele>200.2</ele>
        <time>2014-06-14T12:57:38Z</time>
      </trkpt>
      <trkpt lat="45.71668" lon="4.93055">
        <ele>200.4</ele>
        <time>2014-06-14T12:57:41Z</time>
      </trkpt>
      <trkpt lat="45.71669" lon="4.93061">
        <ele>200.4</ele>
        <time>2014-06-14T12:57:43Z</time>
      </trkpt>
      <trkpt lat="45.71669" lon="4.93077">
        <ele>200.4</ele>
        <time>2014-06-14T12:57:47Z</time>
      </trkpt>
      <trkpt lat="45.7167" lon="4.9308">
        <ele>200.4</ele>
        <time>2014-06-14T12:57:48Z</time>
      </trkpt>
      <trkpt lat="45.71673" lon="4.93094">
        <ele>200.6</ele>
        <time>2014-06-14T12:57:52Z</time>
      </trkpt>
      <trkpt lat="45.71675" lon="4.93107">
        <ele>201</ele>
        <time>2014-06-14T12:57:56Z</time>
      </trkpt>
      <trkpt lat="45.71677" lon="4.93113">
        <ele>201</ele>
        <time>2014-06-14T12:57:58Z</time>
      </trkpt>
      <trkpt lat="45.71678" lon="4.93116">
        <ele>201.2</ele>
        <time>2014-06-14T12:57:59Z</time>
      </trkpt>
      <trkpt lat="45.71685" lon="4.93128">
        <ele>201.8</ele>
        <time>2014-06-14T12:58:03Z</time>
      </trkpt>
      <trkpt lat="45.71689" lon="4.93135">
        <ele>201.8</ele>
        <time>2014-06-14T12:58:05Z</time>
      </trkpt>
      <trkpt lat="45.71695" lon="4.93147">
        <ele>202.2</ele>
        <time>2014-06-14T12:58:09Z</time>
      </trkpt>
      <trkpt lat="45.71697" lon="4.9315">
        <ele>202.4</ele>
        <time>2014-06-14T12:58:10Z</time>
      </trkpt>
      <trkpt lat="45.71705" lon="4.93161">
        <ele>202.6</ele>
        <time>2014-06-14T12:58:14Z</time>
      </trkpt>
      <trkpt lat="45.71711" lon="4.93168">
        <ele>202.8</ele>
        <time>2014-06-14T12:58:17Z</time>
      </trkpt>
      <trkpt lat="45.71721" lon="4.93178">
        <ele>203</ele>
        <time>2014-06-14T12:58:21Z</time>
      </trkpt>
      <trkpt lat="45.71728" lon="4.93184">
        <ele>203</ele>
        <time>2014-06-14T12:58:24Z</time>
      </trkpt>
      <trkpt lat="45.7173" lon="4.93187">
        <ele>203.2</ele>
        <time>2014-06-14T12:58:26Z</time>
      </trkpt>
      <trkpt lat="45.71743" lon="4.93199">
        <ele>203.6</ele>
        <time>2014-06-14T12:58:32Z</time>
      </trkpt>
      <trkpt lat="45.71754" lon="4.93208">
        <ele>204</ele>
        <time>2014-06-14T12:58:37Z</time>
      </trkpt>
      <trkpt lat="45.71761" lon="4.93209">
        <ele>204.2</ele>
        <time>2014-06-14T12:58:39Z</time>
      </trkpt>
      <trkpt lat="45.71766" lon="4.93209">
        <ele>204.2</ele>
        <time>2014-06-14T12:58:41Z</time>
      </trkpt>
      <trkpt lat="45.71779" lon="4.93208">
        <ele>204.6</ele>
        <time>2014-06-14T12:58:45Z</time>
      </trkpt>
      <trkpt lat="45.71782" lon="4.93208">
        <ele>204.6</ele>
        <time>2014-06-14T12:58:46Z</time>
      </trkpt>
      <trkpt lat="45.71797" lon="4.93207">
        <ele>205.2</ele>
        <time>2014-06-14T12:58:51Z</time>
      </trkpt>
      <trkpt lat="45.71814" lon="4.93203">
        <ele>205.6</ele>
        <time>2014-06-14T12:58:57Z</time>
      </trkpt>
      <trkpt lat="45.71817" lon="4.93203">
        <ele>205.6</ele>
        <time>2014-06-14T12:58:58Z</time>
      </trkpt>
      <trkpt lat="45.71828" lon="4.932">
        <ele>205.8</ele>
        <time>2014-06-14T12:59:02Z</time>
      </trkpt>
      <trkpt lat="45.71836" lon="4.93199">
        <ele>205.8</ele>
        <time>2014-06-14T12:59:05Z</time>
      </trkpt>
      <trkpt lat="45.71846" lon="4.93196">
        <ele>205.8</ele>
        <time>2014-06-14T12:59:09Z</time>
      </trkpt>
      <trkpt lat="45.71854" lon="4.93193">
        <ele>205.8</ele>
        <time>2014-06-14T12:59:14Z</time>
      </trkpt>
      <trkpt lat="45.71856" lon="4.93193">
        <ele>205.8</ele>
        <time>2014-06-14T12:59:15Z</time>
      </trkpt>
      <trkpt lat="45.71859" lon="4.93192">
        <ele>205.8</ele>
        <time>2014-06-14T12:59:18Z</time>
      </trkpt>
      <trkpt lat="45.71861" lon="4.93191">
        <ele>205.8</ele>
        <time>2014-06-14T12:59:20Z</time>
      </trkpt>
      <trkpt lat="45.71862" lon="4.93193">
        <ele>205.6</ele>
        <time>2014-06-14T12:59:26Z</time>
      </trkpt>
      <trkpt lat="45.71864" lon="4.93191">
        <ele>205.4</ele>
        <time>2014-06-14T12:59:33Z</time>
      </trkpt>
      <trkpt lat="45.71863" lon="4.93191">
        <ele>205.2</ele>
        <time>2014-06-14T12:59:37Z</time>
      </trkpt>
      <trkpt lat="45.71861" lon="4.93192">
        <ele>205</ele>
        <time>2014-06-14T12:59:38Z</time>
      </trkpt>
      <trkpt lat="45.7186" lon="4.93189">
        <ele>204.8</ele>
        <time>2014-06-14T12:59:41Z</time>
      </trkpt>
      <trkpt lat="45.71861" lon="4.93187">
        <ele>204.8</ele>
        <time>2014-06-14T12:59:42Z</time>
      </trkpt>
      <trkpt lat="45.71864" lon="4.93185">
        <ele>204.6</ele>
        <time>2014-06-14T12:59:45Z</time>
      </trkpt>
      <trkpt lat="45.71865" lon="4.93185">
        <ele>204.4</ele>
        <time>2014-06-14T12:59:47Z</time>
      </trkpt>
      <trkpt lat="45.71868" lon="4.93184">
        <ele>204</ele>
        <time>2014-06-14T12:59:55Z</time>
      </trkpt>
      <trkpt lat="45.71868" lon="4.93183">
        <ele>203.6</ele>
        <time>2014-06-14T13:00:03Z</time>
      </trkpt>
      <trkpt lat="45.7187" lon="4.93181">
        <ele>202.8</ele>
        <time>2014-06-14T13:00:16Z</time>
      </trkpt>
      <trkpt lat="45.71873" lon="4.9318">
        <ele>202.4</ele>
        <time>2014-06-14T13:00:22Z</time>
      </trkpt>
      <trkpt lat="45.71874" lon="4.93181">
        <ele>202.2</ele>
        <time>2014-06-14T13:00:24Z</time>
      </trkpt>
      <trkpt lat="45.71875" lon="4.93181">
        <ele>202.2</ele>
        <time>2014-06-14T13:00:25Z</time>
      </trkpt>
      <trkpt lat="45.71875" lon="4.93181">
        <ele>202.2</ele>
        <time>2014-06-14T13:00:26Z</time>
      </trkpt>
      <trkpt lat="45.71872" lon="4.93181">
        <ele>202</ele>
        <time>2014-06-14T13:00:28Z</time>
      </trkpt>
      <trkpt lat="45.71871" lon="4.93177">
        <ele>201.8</ele>
        <time>2014-06-14T13:00:30Z</time>
      </trkpt>
      <trkpt lat="45.71871" lon="4.93175">
        <ele>201.6</ele>
        <time>2014-06-14T13:00:32Z</time>
      </trkpt>
      <trkpt lat="45.71872" lon="4.93175">
        <ele>201.4</ele>
        <time>2014-06-14T13:00:35Z</time>
      </trkpt>
      <trkpt lat="45.71868" lon="4.93168">
        <ele>201</ele>
        <time>2014-06-14T13:00:41Z</time>
      </trkpt>
      <trkpt lat="45.71866" lon="4.93166">
        <ele>200.8</ele>
        <time>2014-06-14T13:00:42Z</time>
      </trkpt>
      <trkpt lat="45.71865" lon="4.93164">
        <ele>200.8</ele>
        <time>2014-06-14T13:00:43Z</time>
      </trkpt>
      <trkpt lat="45.71863" lon="4.93162">
        <ele>200.6</ele>
        <time>2014-06-14T13:00:45Z</time>
      </trkpt>
      <trkpt lat="45.71859" lon="4.93163">
        <ele>200.4</ele>
        <time>2014-06-14T13:00:48Z</time>
      </trkpt>
      <trkpt lat="45.71856" lon="4.93164">
        <ele>200.4</ele>
        <time>2014-06-14T13:00:49Z</time>
      </trkpt>
      <trkpt lat="45.7185" lon="4.93166">
        <ele>200.4</ele>
        <time>2014-06-14T13:00:53Z</time>
      </trkpt>
      <trkpt lat="45.71848" lon="4.93166">
        <ele>200.2</ele>
        <time>2014-06-14T13:00:54Z</time>
      </trkpt>
      <trkpt lat="45.71847" lon="4.93165">
        <ele>200.2</ele>
        <time>2014-06-14T13:00:55Z</time>
      </trkpt>
      <trkpt lat="45.71843" lon="4.93161">
        <ele>200.2</ele>
        <time>2014-06-14T13:00:58Z</time>
      </trkpt>
      <trkpt lat="45.71837" lon="4.93158">
        <ele>200.2</ele>
        <time>2014-06-14T13:01:02Z</time>
      </trkpt>
      <trkpt lat="45.7183" lon="4.93159">
        <ele>200</ele>
        <time>2014-06-14T13:01:06Z</time>
      </trkpt>
      <trkpt lat="45.71823" lon="4.93158">
        <ele>200</ele>
        <time>2014-06-14T13:01:10Z</time>
      </trkpt>
      <trkpt lat="45.71816" lon="4.93152">
        <ele>200</ele>
        <time>2014-06-14T13:01:15Z</time>
      </trkpt>
      <trkpt lat="45.71813" lon="4.9315">
        <ele>200</ele>
        <time>2014-06-14T13:01:17Z</time>
      </trkpt>
      <trkpt lat="45.71811" lon="4.93149">
        <ele>200</ele>
        <time>2014-06-14T13:01:19Z</time>
      </trkpt>
      <trkpt lat="45.71809" lon="4.93149">
        <ele>200</ele>
        <time>2014-06-14T13:01:20Z</time>
      </trkpt>
      <trkpt lat="45.71802" lon="4.93155">
        <ele>199.8</ele>
        <time>2014-06-14T13:01:26Z</time>
      </trkpt>
      <trkpt lat="45.71796" lon="4.93157">
        <ele>199.8</ele>
        <time>2014-06-14T13:01:30Z</time>
      </trkpt>
      <trkpt lat="45.7179" lon="4.93153">
        <ele>199.8</ele>
        <time>2014-06-14T13:01:34Z</time>
      </trkpt>
      <trkpt lat="45.71786" lon="4.93147">
        <ele>200</ele>
        <time>2014-06-14T13:01:38Z</time>
      </trkpt>
      <trkpt lat="45.71781" lon="4.9314">
        <ele>200</ele>
        <time>2014-06-14T13:01:42Z</time>
      </trkpt>
      <trkpt lat="45.71777" lon="4.93138">
        <ele>200</ele>
        <time>2014-06-14T13:01:45Z</time>
      </trkpt>
      <trkpt lat="45.71772" lon="4.93137">
        <ele>200</ele>
        <time>2014-06-14T13:01:48Z</time>
      </trkpt>
      <trkpt lat="45.71766" lon="4.93136">
        <ele>200</ele>
        <time>2014-06-14T13:01:52Z</time>
      </trkpt>
      <trkpt lat="45.71763" lon="4.93134">
        <ele>200</ele>
        <time>2014-06-14T13:01:54Z</time>
      </trkpt>
      <trkpt lat="45.7176" lon="4.93132">
        <ele>200</ele>
        <time>2014-06-14T13:01:56Z</time>
      </trkpt>
      <trkpt lat="45.71754" lon="4.93125">
        <ele>200</ele>
        <time>2014-06-14T13:02:01Z</time>
      </trkpt>
      <trkpt lat="45.71749" lon="4.93117">
        <ele>199.8</ele>
        <time>2014-06-14T13:02:05Z</time>
      </trkpt>
      <trkpt lat="45.71745" lon="4.93109">
        <ele>199.8</ele>
        <time>2014-06-14T13:02:09Z</time>
      </trkpt>
      <trkpt lat="45.71744" lon="4.93099">
        <ele>199.8</ele>
        <time>2014-06-14T13:02:13Z</time>
      </trkpt>
      <trkpt lat="45.71745" lon="4.93092">
        <ele>199.8</ele>
        <time>2014-06-14T13:02:16Z</time>
      </trkpt>
      <trkpt lat="45.71745" lon="4.9309">
        <ele>199.8</ele>
        <time>2014-06-14T13:02:17Z</time>
      </trkpt>
      <trkpt lat="45.71747" lon="4.93081">
        <ele>199.8</ele>
        <time>2014-06-14T13:02:21Z</time>
      </trkpt>
      <trkpt lat="45.71749" lon="4.93072">
        <ele>199.8</ele>
        <time>2014-06-14T13:02:25Z</time>
      </trkpt>
      <trkpt lat="45.71749" lon="4.93067">
        <ele>199.8</ele>
        <time>2014-06-14T13:02:27Z</time>
      </trkpt>
      <trkpt lat="45.71749" lon="4.93062">
        <ele>199.8</ele>
        <time>2014-06-14T13:02:29Z</time>
      </trkpt>
      <trkpt lat="45.7175" lon="4.93058">
        <ele>199.8</ele>
        <time>2014-06-14T13:02:31Z</time>
      </trkpt>
      <trkpt lat="45.71749" lon="4.93053">
        <ele>199.8</ele>
        <time>2014-06-14T13:02:34Z</time>
      </trkpt>
      <trkpt lat="45.71749" lon="4.93052">
        <ele>199.8</ele>
        <time>2014-06-14T13:02:35Z</time>
      </trkpt>
      <trkpt lat="45.71748" lon="4.93049">
        <ele>199.8</ele>
        <time>2014-06-14T13:02:40Z</time>
      </trkpt>
      <trkpt lat="45.71745" lon="4.93048">
        <ele>199.8</ele>
        <time>2014-06-14T13:02:46Z</time>
      </trkpt>
      <trkpt lat="45.71744" lon="4.93045">
        <ele>199.8</ele>
        <time>2014-06-14T13:02:50Z</time>
      </trkpt>
      <trkpt lat="45.71745" lon="4.93044">
        <ele>199.8</ele>
        <time>2014-06-14T13:02:51Z</time>
      </trkpt>
      <trkpt lat="45.71749" lon="4.93042">
        <ele>199.8</ele>
        <time>2014-06-14T13:02:56Z</time>
      </trkpt>
      <trkpt lat="45.71753" lon="4.93045">
        <ele>199.8</ele>
        <time>2014-06-14T13:03:00Z</time>
      </trkpt>
      <trkpt lat="45.71757" lon="4.93049">
        <ele>199.8</ele>
        <time>2014-06-14T13:03:04Z</time>
      </trkpt>
      <trkpt lat="45.7176" lon="4.93051">
        <ele>199.6</ele>
        <time>2014-06-14T13:03:06Z</time>
      </trkpt>
      <trkpt lat="45.71763" lon="4.93054">
        <ele>199.6</ele>
        <time>2014-06-14T13:03:09Z</time>
      </trkpt>
      <trkpt lat="45.71769" lon="4.93056">
        <ele>199.6</ele>
        <time>2014-06-14T13:03:12Z</time>
      </trkpt>
      <trkpt lat="45.71774" lon="4.9306">
        <ele>199.6</ele>
        <time>2014-06-14T13:03:16Z</time>
      </trkpt>
      <trkpt lat="45.71777" lon="4.93063">
        <ele>199.6</ele>
        <time>2014-06-14T13:03:18Z</time>
      </trkpt>
      <trkpt lat="45.71778" lon="4.93064">
        <ele>199.6</ele>
        <time>2014-06-14T13:03:19Z</time>
      </trkpt>
      <trkpt lat="45.71782" lon="4.93071">
        <ele>199.6</ele>
        <time>2014-06-14T13:03:23Z</time>
      </trkpt>
      <trkpt lat="45.71783" lon="4.93073">
        <ele>199.6</ele>
        <time>2014-06-14T13:03:24Z</time>
      </trkpt>
      <trkpt lat="45.71788" lon="4.93077">
        <ele>199.6</ele>
        <time>2014-06-14T13:03:28Z</time>
      </trkpt>
      <trkpt lat="45.71791" lon="4.93078">
        <ele>199.6</ele>
        <time>2014-06-14T13:03:30Z</time>
      </trkpt>
      <trkpt lat="45.71793" lon="4.93078">
        <ele>199.6</ele>
        <time>2014-06-14T13:03:31Z</time>
      </trkpt>
      <trkpt lat="45.71797" lon="4.93079">
        <ele>199.6</ele>
        <time>2014-06-14T13:03:34Z</time>
      </trkpt>
      <trkpt lat="45.71803" lon="4.93085">
        <ele>199.4</ele>
        <time>2014-06-14T13:03:38Z</time>
      </trkpt>
      <trkpt lat="45.71806" lon="4.93093">
        <ele>199.4</ele>
        <time>2014-06-14T13:03:42Z</time>
      </trkpt>
      <trkpt lat="45.71809" lon="4.93098">
        <ele>199.4</ele>
        <time>2014-06-14T13:03:45Z</time>
      </trkpt>
      <trkpt lat="45.7181" lon="4.93099">
        <ele>199.4</ele>
        <time>2014-06-14T13:03:46Z</time>
      </trkpt>
      <trkpt lat="45.71818" lon="4.931">
        <ele>199.4</ele>
        <time>2014-06-14T13:03:52Z</time>
      </trkpt>
      <trkpt lat="45.71819" lon="4.93101">
        <ele>199.4</ele>
        <time>2014-06-14T13:03:53Z</time>
      </trkpt>
      <trkpt lat="45.71823" lon="4.93102">
        <ele>199.4</ele>
        <time>2014-06-14T13:03:55Z</time>
      </trkpt>
      <trkpt lat="45.71824" lon="4.93103">
        <ele>199.4</ele>
        <time>2014-06-14T13:03:56Z</time>
      </trkpt>
      <trkpt lat="45.71827" lon="4.9311">
        <ele>199.2</ele>
        <time>2014-06-14T13:04:00Z</time>
      </trkpt>
      <trkpt lat="45.7183" lon="4.93116">
        <ele>199.2</ele>
        <time>2014-06-14T13:04:04Z</time>
      </trkpt>
      <trkpt lat="45.71831" lon="4.93118">
        <ele>199.2</ele>
        <time>2014-06-14T13:04:05Z</time>
      </trkpt>
      <trkpt lat="45.71835" lon="4.93122">
        <ele>199.2</ele>
        <time>2014-06-14T13:04:08Z</time>
      </trkpt>
      <trkpt lat="45.71836" lon="4.93123">
        <ele>199</ele>
        <time>2014-06-14T13:04:09Z</time>
      </trkpt>
      <trkpt lat="45.71844" lon="4.93125">
        <ele>199</ele>
        <time>2014-06-14T13:04:14Z</time>
      </trkpt>
      <trkpt lat="45.71852" lon="4.93123">
        <ele>199</ele>
        <time>2014-06-14T13:04:19Z</time>
      </trkpt>
      <trkpt lat="45.71853" lon="4.93123">
        <ele>199</ele>
        <time>2014-06-14T13:04:20Z</time>
      </trkpt>
      <trkpt lat="45.71856" lon="4.93121">
        <ele>199</ele>
        <time>2014-06-14T13:04:22Z</time>
      </trkpt>
      <trkpt lat="45.71859" lon="4.93121">
        <ele>199</ele>
        <time>2014-06-14T13:04:24Z</time>
      </trkpt>
      <trkpt lat="45.71864" lon="4.93124">
        <ele>198.8</ele>
        <time>2014-06-14T13:04:28Z</time>
      </trkpt>
      <trkpt lat="45.71865" lon="4.93125">
        <ele>198.8</ele>
        <time>2014-06-14T13:04:29Z</time>
      </trkpt>
      <trkpt lat="45.71868" lon="4.93126">
        <ele>198.8</ele>
        <time>2014-06-14T13:04:34Z</time>
      </trkpt>
      <trkpt lat="45.71868" lon="4.93126">
        <ele>198.8</ele>
        <time>2014-06-14T13:04:39Z</time>
      </trkpt>
      <trkpt lat="45.71869" lon="4.93128">
        <ele>198.8</ele>
        <time>2014-06-14T13:04:41Z</time>
      </trkpt>
      <trkpt lat="45.7187" lon="4.9313">
        <ele>198.8</ele>
        <time>2014-06-14T13:04:43Z</time>
      </trkpt>
      <trkpt lat="45.71873" lon="4.93136">
        <ele>198.8</ele>
        <time>2014-06-14T13:04:48Z</time>
      </trkpt>
      <trkpt lat="45.71879" lon="4.9314">
        <ele>198.8</ele>
        <time>2014-06-14T13:04:53Z</time>
      </trkpt>
      <trkpt lat="45.71879" lon="4.93142">
        <ele>199</ele>
        <time>2014-06-14T13:05:02Z</time>
      </trkpt>
      <trkpt lat="45.71878" lon="4.93143">
        <ele>199.4</ele>
        <time>2014-06-14T13:05:13Z</time>
      </trkpt>
      <trkpt lat="45.71879" lon="4.93142">
        <ele>199.8</ele>
        <time>2014-06-14T13:05:17Z</time>
      </trkpt>
      <trkpt lat="45.71879" lon="4.93143">
        <ele>200</ele>
        <time>2014-06-14T13:05:25Z</time>
      </trkpt>
      <trkpt lat="45.71879" lon="4.93144">
        <ele>200.2</ele>
        <time>2014-06-14T13:05:27Z</time>
      </trkpt>
      <trkpt lat="45.71882" lon="4.93148">
        <ele>200.2</ele>
        <time>2014-06-14T13:05:31Z</time>
      </trkpt>
      <trkpt lat="45.71883" lon="4.93148">
        <ele>200.2</ele>
        <time>2014-06-14T13:05:32Z</time>
      </trkpt>
      <trkpt lat="45.71886" lon="4.93152">
        <ele>200.4</ele>
        <time>2014-06-14T13:05:36Z</time>
      </trkpt>
      <trkpt lat="45.71889" lon="4.93155">
        <ele>200.4</ele>
        <time>2014-06-14T13:05:40Z</time>
      </trkpt>
      <trkpt lat="45.71888" lon="4.93159">
        <ele>200.6</ele>
        <time>2014-06-14T13:05:45Z</time>
      </trkpt>
      <trkpt lat="45.71886" lon="4.93162">
        <ele>200.6</ele>
        <time>2014-06-14T13:05:48Z</time>
      </trkpt>
      <trkpt lat="45.71884" lon="4.93165">
        <ele>200.4</ele>
        <time>2014-06-14T13:05:50Z</time>
      </trkpt>
      <trkpt lat="45.71879" lon="4.93171">
        <ele>200.4</ele>
        <time>2014-06-14T13:05:54Z</time>
      </trkpt>
      <trkpt lat="45.71877" lon="4.9317">
        <ele>200.4</ele>
        <time>2014-06-14T13:05:55Z</time>
      </trkpt>
      <trkpt lat="45.71876" lon="4.93172">
        <ele>200.4</ele>
        <time>2014-06-14T13:06:00Z</time>
      </trkpt>
      <trkpt lat="45.71872" lon="4.93176">
        <ele>200.6</ele>
        <time>2014-06-14T13:06:04Z</time>
      </trkpt>
      <trkpt lat="45.71872" lon="4.93178">
        <ele>200.6</ele>
        <time>2014-06-14T13:06:05Z</time>
      </trkpt>
      <trkpt lat="45.71872" lon="4.93179">
        <ele>200.6</ele>
        <time>2014-06-14T13:06:06Z</time>
      </trkpt>
      <trkpt lat="45.7187" lon="4.93183">
        <ele>200.6</ele>
        <time>2014-06-14T13:06:08Z</time>
      </trkpt>
      <trkpt lat="45.71867" lon="4.93186">
        <ele>200.6</ele>
        <time>2014-06-14T13:06:11Z</time>
      </trkpt>
      <trkpt lat="45.71861" lon="4.9319">
        <ele>200.6</ele>
        <time>2014-06-14T13:06:16Z</time>
      </trkpt>
      <trkpt lat="45.71861" lon="4.93191">
        <ele>200.6</ele>
        <time>2014-06-14T13:06:17Z</time>
      </trkpt>
      <trkpt lat="45.71861" lon="4.93192">
        <ele>200.6</ele>
        <time>2014-06-14T13:06:18Z</time>
      </trkpt>
      <trkpt lat="45.71862" lon="4.93192">
        <ele>200.6</ele>
        <time>2014-06-14T13:06:19Z</time>
      </trkpt>
      <trkpt lat="45.71864" lon="4.93194">
        <ele>200.6</ele>
        <time>2014-06-14T13:06:22Z</time>
      </trkpt>
      <trkpt lat="45.71864" lon="4.93195">
        <ele>200.8</ele>
        <time>2014-06-14T13:06:24Z</time>
      </trkpt>
      <trkpt lat="45.71861" lon="4.93194">
        <ele>200.8</ele>
        <time>2014-06-14T13:06:29Z</time>
      </trkpt>
      <trkpt lat="45.71852" lon="4.93194">
        <ele>201</ele>
        <time>2014-06-14T13:06:36Z</time>
      </trkpt>
      <trkpt lat="45.71848" lon="4.93196">
        <ele>201.2</ele>
        <time>2014-06-14T13:06:39Z</time>
      </trkpt>
      <trkpt lat="45.71837" lon="4.93199">
        <ele>201.8</ele>
        <time>2014-06-14T13:06:47Z</time>
      </trkpt>
      <trkpt lat="45.71836" lon="4.932">
        <ele>201.8</ele>
        <time>2014-06-14T13:06:48Z</time>
      </trkpt>
      <trkpt lat="45.7183" lon="4.93202">
        <ele>202</ele>
        <time>2014-06-14T13:06:52Z</time>
      </trkpt>
      <trkpt lat="45.71821" lon="4.93204">
        <ele>202.2</ele>
        <time>2014-06-14T13:06:58Z</time>
      </trkpt>
      <trkpt lat="45.71814" lon="4.93205">
        <ele>202.4</ele>
        <time>2014-06-14T13:07:03Z</time>
      </trkpt>
      <trkpt lat="45.71813" lon="4.93205">
        <ele>202.4</ele>
        <time>2014-06-14T13:07:04Z</time>
      </trkpt>
      <trkpt lat="45.71812" lon="4.93206">
        <ele>202.4</ele>
        <time>2014-06-14T13:07:05Z</time>
      </trkpt>
      <trkpt lat="45.7181" lon="4.93208">
        <ele>202.4</ele>
        <time>2014-06-14T13:07:08Z</time>
      </trkpt>
      <trkpt lat="45.7181" lon="4.93208">
        <ele>202.4</ele>
        <time>2014-06-14T13:07:09Z</time>
      </trkpt>
      <trkpt lat="45.7181" lon="4.9321">
        <ele>204</ele>
        <time>2014-06-14T13:08:00Z</time>
      </trkpt>
      <trkpt lat="45.7181" lon="4.9321">
        <ele>204.2</ele>
        <time>2014-06-14T13:08:04Z</time>
      </trkpt>
      <trkpt lat="45.7181" lon="4.93209">
        <ele>205.6</ele>
        <time>2014-06-14T13:08:33Z</time>
      </trkpt>
      <trkpt lat="45.7181" lon="4.93204">
        <ele>206.8</ele>
        <time>2014-06-14T13:09:08Z</time>
      </trkpt>
      <trkpt lat="45.71811" lon="4.93205">
        <ele>207</ele>
        <time>2014-06-14T13:09:15Z</time>
      </trkpt>
      <trkpt lat="45.71813" lon="4.93206">
        <ele>207</ele>
        <time>2014-06-14T13:09:37Z</time>
      </trkpt>
      <trkpt lat="45.71812" lon="4.93206">
        <ele>207</ele>
        <time>2014-06-14T13:09:44Z</time>
      </trkpt>
      <trkpt lat="45.71813" lon="4.93205">
        <ele>207.2</ele>
        <time>2014-06-14T13:10:06Z</time>
      </trkpt>
      <trkpt lat="45.71814" lon="4.93207">
        <ele>207.2</ele>
        <time>2014-06-14T13:10:10Z</time>
      </trkpt>
      <trkpt lat="45.71813" lon="4.93205">
        <ele>207</ele>
        <time>2014-06-14T13:10:15Z</time>
      </trkpt>
      <trkpt lat="45.71808" lon="4.93204">
        <ele>206.8</ele>
        <time>2014-06-14T13:10:19Z</time>
      </trkpt>
      <trkpt lat="45.718" lon="4.93206">
        <ele>206.8</ele>
        <time>2014-06-14T13:10:22Z</time>
      </trkpt>
      <trkpt lat="45.71794" lon="4.93211">
        <ele>206.6</ele>
        <time>2014-06-14T13:10:24Z</time>
      </trkpt>
      <trkpt lat="45.71788" lon="4.93227">
        <ele>206.4</ele>
        <time>2014-06-14T13:10:28Z</time>
      </trkpt>
      <trkpt lat="45.71792" lon="4.93242">
        <ele>206.4</ele>
        <time>2014-06-14T13:10:32Z</time>
      </trkpt>
      <trkpt lat="45.71797" lon="4.93249">
        <ele>206.2</ele>
        <time>2014-06-14T13:10:34Z</time>
      </trkpt>
      <trkpt lat="45.71805" lon="4.93262">
        <ele>206</ele>
        <time>2014-06-14T13:10:38Z</time>
      </trkpt>
      <trkpt lat="45.71809" lon="4.93269">
        <ele>206</ele>
        <time>2014-06-14T13:10:40Z</time>
      </trkpt>
      <trkpt lat="45.71821" lon="4.93283">
        <ele>206</ele>
        <time>2014-06-14T13:10:44Z</time>
      </trkpt>
      <trkpt lat="45.71824" lon="4.93286">
        <ele>205.8</ele>
        <time>2014-06-14T13:10:45Z</time>
      </trkpt>
      <trkpt lat="45.71837" lon="4.93296">
        <ele>205.8</ele>
        <time>2014-06-14T13:10:49Z</time>
      </trkpt>
      <trkpt lat="45.71841" lon="4.93299">
        <ele>205.8</ele>
        <time>2014-06-14T13:10:50Z</time>
      </trkpt>
      <trkpt lat="45.7185" lon="4.93304">
        <ele>205.6</ele>
        <time>2014-06-14T13:10:53Z</time>
      </trkpt>
      <trkpt lat="45.71861" lon="4.93308">
        <ele>205.6</ele>
        <time>2014-06-14T13:10:56Z</time>
      </trkpt>
      <trkpt lat="45.71875" lon="4.93314">
        <ele>205.4</ele>
        <time>2014-06-14T13:11:00Z</time>
      </trkpt>
      <trkpt lat="45.71878" lon="4.93315">
        <ele>205.4</ele>
        <time>2014-06-14T13:11:01Z</time>
      </trkpt>
      <trkpt lat="45.71896" lon="4.93324">
        <ele>205.2</ele>
        <time>2014-06-14T13:11:06Z</time>
      </trkpt>
      <trkpt lat="45.719" lon="4.93326">
        <ele>205.2</ele>
        <time>2014-06-14T13:11:07Z</time>
      </trkpt>
      <trkpt lat="45.71915" lon="4.93333">
        <ele>205</ele>
        <time>2014-06-14T13:11:11Z</time>
      </trkpt>
      <trkpt lat="45.71925" lon="4.93339">
        <ele>205</ele>
        <time>2014-06-14T13:11:14Z</time>
      </trkpt>
      <trkpt lat="45.71933" lon="4.93347">
        <ele>205</ele>
        <time>2014-06-14T13:11:17Z</time>
      </trkpt>
      <trkpt lat="45.71936" lon="4.93354">
        <ele>204.8</ele>
        <time>2014-06-14T13:11:19Z</time>
      </trkpt>
      <trkpt lat="45.71939" lon="4.9337">
        <ele>204.8</ele>
        <time>2014-06-14T13:11:23Z</time>
      </trkpt>
      <trkpt lat="45.7194" lon="4.93379">
        <ele>204.8</ele>
        <time>2014-06-14T13:11:25Z</time>
      </trkpt>
      <trkpt lat="45.71939" lon="4.93397">
        <ele>204.6</ele>
        <time>2014-06-14T13:11:29Z</time>
      </trkpt>
      <trkpt lat="45.71937" lon="4.93417">
        <ele>204.6</ele>
        <time>2014-06-14T13:11:33Z</time>
      </trkpt>
      <trkpt lat="45.71935" lon="4.93426">
        <ele>204.6</ele>
        <time>2014-06-14T13:11:35Z</time>
      </trkpt>
      <trkpt lat="45.71929" lon="4.93432">
        <ele>204.4</ele>
        <time>2014-06-14T13:11:37Z</time>
      </trkpt>
      <trkpt lat="45.71918" lon="4.9344">
        <ele>204.2</ele>
        <time>2014-06-14T13:11:41Z</time>
      </trkpt>
      <trkpt lat="45.71915" lon="4.93443">
        <ele>204.2</ele>
        <time>2014-06-14T13:11:42Z</time>
      </trkpt>
      <trkpt lat="45.71907" lon="4.9346">
        <ele>204</ele>
        <time>2014-06-14T13:11:47Z</time>
      </trkpt>
      <trkpt lat="45.71907" lon="4.93462">
        <ele>204</ele>
        <time>2014-06-14T13:11:48Z</time>
      </trkpt>
      <trkpt lat="45.71907" lon="4.93463">
        <ele>203.8</ele>
        <time>2014-06-14T13:11:51Z</time>
      </trkpt>
      <trkpt lat="45.71904" lon="4.93464">
        <ele>203.8</ele>
        <time>2014-06-14T13:12:20Z</time>
      </trkpt>
      <trkpt lat="45.71903" lon="4.93463">
        <ele>203.8</ele>
        <time>2014-06-14T13:12:21Z</time>
      </trkpt>
      <trkpt lat="45.71902" lon="4.93463">
        <ele>203.8</ele>
        <time>2014-06-14T13:12:23Z</time>
      </trkpt>
      <trkpt lat="45.71899" lon="4.93461">
        <ele>203.6</ele>
        <time>2014-06-14T13:12:25Z</time>
      </trkpt>
      <trkpt lat="45.71892" lon="4.93457">
        <ele>203.6</ele>
        <time>2014-06-14T13:12:28Z</time>
      </trkpt>
      <trkpt lat="45.71885" lon="4.93454">
        <ele>203.6</ele>
        <time>2014-06-14T13:12:31Z</time>
      </trkpt>
      <trkpt lat="45.71874" lon="4.93449">
        <ele>203.4</ele>
        <time>2014-06-14T13:12:35Z</time>
      </trkpt>
      <trkpt lat="45.71864" lon="4.93447">
        <ele>203.4</ele>
        <time>2014-06-14T13:12:39Z</time>
      </trkpt>
      <trkpt lat="45.71856" lon="4.93443">
        <ele>203.4</ele>
        <time>2014-06-14T13:12:42Z</time>
      </trkpt>
      <trkpt lat="45.71848" lon="4.9344">
        <ele>203.2</ele>
        <time>2014-06-14T13:12:45Z</time>
      </trkpt>
      <trkpt lat="45.71838" lon="4.93434">
        <ele>203.2</ele>
        <time>2014-06-14T13:12:49Z</time>
      </trkpt>
      <trkpt lat="45.71832" lon="4.93432">
        <ele>203.2</ele>
        <time>2014-06-14T13:12:51Z</time>
      </trkpt>
      <trkpt lat="45.7183" lon="4.93432">
        <ele>203.2</ele>
        <time>2014-06-14T13:12:52Z</time>
      </trkpt>
      <trkpt lat="45.71821" lon="4.93431">
        <ele>203</ele>
        <time>2014-06-14T13:12:55Z</time>
      </trkpt>
      <trkpt lat="45.71819" lon="4.93429">
        <ele>203</ele>
        <time>2014-06-14T13:12:56Z</time>
      </trkpt>
      <trkpt lat="45.71805" lon="4.93424">
        <ele>202.8</ele>
        <time>2014-06-14T13:13:01Z</time>
      </trkpt>
      <trkpt lat="45.718" lon="4.93422">
        <ele>202.6</ele>
        <time>2014-06-14T13:13:03Z</time>
      </trkpt>
      <trkpt lat="45.71792" lon="4.93419">
        <ele>202.4</ele>
        <time>2014-06-14T13:13:06Z</time>
      </trkpt>
      <trkpt lat="45.71779" lon="4.93415">
        <ele>202.2</ele>
        <time>2014-06-14T13:13:10Z</time>
      </trkpt>
      <trkpt lat="45.71774" lon="4.93413">
        <ele>202.2</ele>
        <time>2014-06-14T13:13:12Z</time>
      </trkpt>
      <trkpt lat="45.7176" lon="4.93408">
        <ele>202</ele>
        <time>2014-06-14T13:13:17Z</time>
      </trkpt>
      <trkpt lat="45.71757" lon="4.93407">
        <ele>201.8</ele>
        <time>2014-06-14T13:13:18Z</time>
      </trkpt>
      <trkpt lat="45.71744" lon="4.93402">
        <ele>201.6</ele>
        <time>2014-06-14T13:13:23Z</time>
      </trkpt>
      <trkpt lat="45.71741" lon="4.93401">
        <ele>201.6</ele>
        <time>2014-06-14T13:13:24Z</time>
      </trkpt>
      <trkpt lat="45.71728" lon="4.93397">
        <ele>201.4</ele>
        <time>2014-06-14T13:13:29Z</time>
      </trkpt>
      <trkpt lat="45.71723" lon="4.93394">
        <ele>201.4</ele>
        <time>2014-06-14T13:13:31Z</time>
      </trkpt>
      <trkpt lat="45.71709" lon="4.9339">
        <ele>201.4</ele>
        <time>2014-06-14T13:13:36Z</time>
      </trkpt>
      <trkpt lat="45.71704" lon="4.93389">
        <ele>201.4</ele>
        <time>2014-06-14T13:13:38Z</time>
      </trkpt>
      <trkpt lat="45.71689" lon="4.93383">
        <ele>201.8</ele>
        <time>2014-06-14T13:13:44Z</time>
      </trkpt>
      <trkpt lat="45.71684" lon="4.9338">
        <ele>202</ele>
        <time>2014-06-14T13:13:46Z</time>
      </trkpt>
      <trkpt lat="45.71677" lon="4.93377">
        <ele>202</ele>
        <time>2014-06-14T13:13:49Z</time>
      </trkpt>
      <trkpt lat="45.71666" lon="4.93372">
        <ele>202</ele>
        <time>2014-06-14T13:13:54Z</time>
      </trkpt>
      <trkpt lat="45.71662" lon="4.93371">
        <ele>202</ele>
        <time>2014-06-14T13:13:56Z</time>
      </trkpt>
      <trkpt lat="45.71659" lon="4.93369">
        <ele>202</ele>
        <time>2014-06-14T13:14:00Z</time>
      </trkpt>
      <trkpt lat="45.71655" lon="4.93369">
        <ele>202.2</ele>
        <time>2014-06-14T13:14:05Z</time>
      </trkpt>
      <trkpt lat="45.71647" lon="4.93365">
        <ele>202</ele>
        <time>2014-06-14T13:14:08Z</time>
      </trkpt>
      <trkpt lat="45.71638" lon="4.93359">
        <ele>202</ele>
        <time>2014-06-14T13:14:11Z</time>
      </trkpt>
      <trkpt lat="45.71628" lon="4.93352">
        <ele>202</ele>
        <time>2014-06-14T13:14:14Z</time>
      </trkpt>
      <trkpt lat="45.71611" lon="4.93341">
        <ele>202</ele>
        <time>2014-06-14T13:14:19Z</time>
      </trkpt>
      <trkpt lat="45.71608" lon="4.9334">
        <ele>202</ele>
        <time>2014-06-14T13:14:20Z</time>
      </trkpt>
      <trkpt lat="45.71592" lon="4.9333">
        <ele>202</ele>
        <time>2014-06-14T13:14:24Z</time>
      </trkpt>
      <trkpt lat="45.71585" lon="4.93325">
        <ele>202</ele>
        <time>2014-06-14T13:14:26Z</time>
      </trkpt>
      <trkpt lat="45.71574" lon="4.93316">
        <ele>202</ele>
        <time>2014-06-14T13:14:29Z</time>
      </trkpt>
      <trkpt lat="45.71554" lon="4.93301">
        <ele>202</ele>
        <time>2014-06-14T13:14:34Z</time>
      </trkpt>
      <trkpt lat="45.7155" lon="4.93298">
        <ele>202</ele>
        <time>2014-06-14T13:14:35Z</time>
      </trkpt>
      <trkpt lat="45.71535" lon="4.93284">
        <ele>201.8</ele>
        <time>2014-06-14T13:14:39Z</time>
      </trkpt>
      <trkpt lat="45.71518" lon="4.93268">
        <ele>201.8</ele>
        <time>2014-06-14T13:14:43Z</time>
      </trkpt>
      <trkpt lat="45.71514" lon="4.93264">
        <ele>202</ele>
        <time>2014-06-14T13:14:44Z</time>
      </trkpt>
      <trkpt lat="45.71501" lon="4.93252">
        <ele>202</ele>
        <time>2014-06-14T13:14:47Z</time>
      </trkpt>
      <trkpt lat="45.71485" lon="4.93235">
        <ele>202.4</ele>
        <time>2014-06-14T13:14:51Z</time>
      </trkpt>
      <trkpt lat="45.71482" lon="4.93231">
        <ele>202.4</ele>
        <time>2014-06-14T13:14:52Z</time>
      </trkpt>
      <trkpt lat="45.7147" lon="4.93216">
        <ele>202.8</ele>
        <time>2014-06-14T13:14:57Z</time>
      </trkpt>
      <trkpt lat="45.71458" lon="4.93205">
        <ele>203.2</ele>
        <time>2014-06-14T13:15:03Z</time>
      </trkpt>
      <trkpt lat="45.71455" lon="4.93203">
        <ele>203.2</ele>
        <time>2014-06-14T13:15:05Z</time>
      </trkpt>
      <trkpt lat="45.71453" lon="4.93204">
        <ele>203.2</ele>
        <time>2014-06-14T13:15:06Z</time>
      </trkpt>
      <trkpt lat="45.71452" lon="4.93206">
        <ele>203.2</ele>
        <time>2014-06-14T13:15:07Z</time>
      </trkpt>
      <trkpt lat="45.71441" lon="4.9322">
        <ele>203.4</ele>
        <time>2014-06-14T13:15:13Z</time>
      </trkpt>
      <trkpt lat="45.7144" lon="4.93222">
        <ele>203.4</ele>
        <time>2014-06-14T13:15:14Z</time>
      </trkpt>
      <trkpt lat="45.71433" lon="4.93232">
        <ele>203.4</ele>
        <time>2014-06-14T13:15:17Z</time>
      </trkpt>
      <trkpt lat="45.71426" lon="4.93244">
        <ele>203.4</ele>
        <time>2014-06-14T13:15:20Z</time>
      </trkpt>
      <trkpt lat="45.71421" lon="4.93252">
        <ele>203.4</ele>
        <time>2014-06-14T13:15:22Z</time>
      </trkpt>
      <trkpt lat="45.71411" lon="4.93266">
        <ele>203.4</ele>
        <time>2014-06-14T13:15:26Z</time>
      </trkpt>
      <trkpt lat="45.71404" lon="4.93277">
        <ele>203.4</ele>
        <time>2014-06-14T13:15:29Z</time>
      </trkpt>
      <trkpt lat="45.71399" lon="4.93285">
        <ele>203.4</ele>
        <time>2014-06-14T13:15:31Z</time>
      </trkpt>
      <trkpt lat="45.71385" lon="4.93307">
        <ele>203.4</ele>
        <time>2014-06-14T13:15:36Z</time>
      </trkpt>
      <trkpt lat="45.71372" lon="4.93326">
        <ele>203.2</ele>
        <time>2014-06-14T13:15:41Z</time>
      </trkpt>
      <trkpt lat="45.71365" lon="4.93337">
        <ele>203.2</ele>
        <time>2014-06-14T13:15:44Z</time>
      </trkpt>
      <trkpt lat="45.71357" lon="4.93348">
        <ele>203.2</ele>
        <time>2014-06-14T13:15:47Z</time>
      </trkpt>
      <trkpt lat="45.71348" lon="4.93363">
        <ele>203.2</ele>
        <time>2014-06-14T13:15:51Z</time>
      </trkpt>
      <trkpt lat="45.71345" lon="4.93367">
        <ele>203.2</ele>
        <time>2014-06-14T13:15:52Z</time>
      </trkpt>
      <trkpt lat="45.71332" lon="4.93386">
        <ele>203.2</ele>
        <time>2014-06-14T13:15:57Z</time>
      </trkpt>
      <trkpt lat="45.71326" lon="4.93393">
        <ele>203.2</ele>
        <time>2014-06-14T13:15:59Z</time>
      </trkpt>
      <trkpt lat="45.71319" lon="4.93405">
        <ele>203.2</ele>
        <time>2014-06-14T13:16:02Z</time>
      </trkpt>
      <trkpt lat="45.71308" lon="4.93422">
        <ele>203.4</ele>
        <time>2014-06-14T13:16:07Z</time>
      </trkpt>
      <trkpt lat="45.71306" lon="4.93424">
        <ele>203.4</ele>
        <time>2014-06-14T13:16:08Z</time>
      </trkpt>
      <trkpt lat="45.71301" lon="4.93428">
        <ele>203.4</ele>
        <time>2014-06-14T13:16:12Z</time>
      </trkpt>
      <trkpt lat="45.713" lon="4.93431">
        <ele>203.6</ele>
        <time>2014-06-14T13:16:15Z</time>
      </trkpt>
      <trkpt lat="45.71299" lon="4.93434">
        <ele>203.4</ele>
        <time>2014-06-14T13:16:16Z</time>
      </trkpt>
      <trkpt lat="45.71294" lon="4.93442">
        <ele>203.4</ele>
        <time>2014-06-14T13:16:19Z</time>
      </trkpt>
      <trkpt lat="45.71289" lon="4.93449">
        <ele>203.4</ele>
        <time>2014-06-14T13:16:22Z</time>
      </trkpt>
      <trkpt lat="45.71282" lon="4.93459">
        <ele>203.4</ele>
        <time>2014-06-14T13:16:26Z</time>
      </trkpt>
      <trkpt lat="45.7128" lon="4.93461">
        <ele>203.4</ele>
        <time>2014-06-14T13:16:27Z</time>
      </trkpt>
      <trkpt lat="45.71269" lon="4.93477">
        <ele>203.6</ele>
        <time>2014-06-14T13:16:33Z</time>
      </trkpt>
      <trkpt lat="45.71267" lon="4.9348">
        <ele>203.6</ele>
        <time>2014-06-14T13:16:34Z</time>
      </trkpt>
      <trkpt lat="45.71259" lon="4.93493">
        <ele>204</ele>
        <time>2014-06-14T13:16:39Z</time>
      </trkpt>
      <trkpt lat="45.71253" lon="4.93501">
        <ele>204.2</ele>
        <time>2014-06-14T13:16:42Z</time>
      </trkpt>
      <trkpt lat="45.71246" lon="4.9351">
        <ele>204.2</ele>
        <time>2014-06-14T13:16:46Z</time>
      </trkpt>
      <trkpt lat="45.7124" lon="4.9352">
        <ele>204.2</ele>
        <time>2014-06-14T13:16:50Z</time>
      </trkpt>
      <trkpt lat="45.71233" lon="4.93529">
        <ele>204.2</ele>
        <time>2014-06-14T13:16:54Z</time>
      </trkpt>
      <trkpt lat="45.71226" lon="4.93539">
        <ele>204.4</ele>
        <time>2014-06-14T13:16:58Z</time>
      </trkpt>
      <trkpt lat="45.71225" lon="4.93542">
        <ele>204.4</ele>
        <time>2014-06-14T13:16:59Z</time>
      </trkpt>
      <trkpt lat="45.71213" lon="4.93558">
        <ele>204.4</ele>
        <time>2014-06-14T13:17:06Z</time>
      </trkpt>
      <trkpt lat="45.71211" lon="4.93561">
        <ele>204.4</ele>
        <time>2014-06-14T13:17:07Z</time>
      </trkpt>
      <trkpt lat="45.71202" lon="4.93573">
        <ele>204.4</ele>
        <time>2014-06-14T13:17:12Z</time>
      </trkpt>
      <trkpt lat="45.71199" lon="4.93579">
        <ele>204.4</ele>
        <time>2014-06-14T13:17:14Z</time>
      </trkpt>
      <trkpt lat="45.71192" lon="4.93589">
        <ele>204.6</ele>
        <time>2014-06-14T13:17:18Z</time>
      </trkpt>
      <trkpt lat="45.71186" lon="4.93598">
        <ele>204.8</ele>
        <time>2014-06-14T13:17:22Z</time>
      </trkpt>
      <trkpt lat="45.71182" lon="4.93601">
        <ele>205</ele>
        <time>2014-06-14T13:17:24Z</time>
      </trkpt>
      <trkpt lat="45.7117" lon="4.93603">
        <ele>206</ele>
        <time>2014-06-14T13:17:30Z</time>
      </trkpt>
      <trkpt lat="45.71168" lon="4.93603">
        <ele>206.2</ele>
        <time>2014-06-14T13:17:31Z</time>
      </trkpt>
      <trkpt lat="45.71159" lon="4.93601">
        <ele>207</ele>
        <time>2014-06-14T13:17:37Z</time>
      </trkpt>
      <trkpt lat="45.71154" lon="4.93598">
        <ele>208</ele>
        <time>2014-06-14T13:17:42Z</time>
      </trkpt>
      <trkpt lat="45.71153" lon="4.93598">
        <ele>208.2</ele>
        <time>2014-06-14T13:17:43Z</time>
      </trkpt>
      <trkpt lat="45.71152" lon="4.93603">
        <ele>208.6</ele>
        <time>2014-06-14T13:17:46Z</time>
      </trkpt>
      <trkpt lat="45.7115" lon="4.93607">
        <ele>208.8</ele>
        <time>2014-06-14T13:17:48Z</time>
      </trkpt>
      <trkpt lat="45.71144" lon="4.93622">
        <ele>209.8</ele>
        <time>2014-06-14T13:17:56Z</time>
      </trkpt>
      <trkpt lat="45.71141" lon="4.93626">
        <ele>210</ele>
        <time>2014-06-14T13:17:58Z</time>
      </trkpt>
      <trkpt lat="45.71134" lon="4.93637">
        <ele>210.8</ele>
        <time>2014-06-14T13:18:05Z</time>
      </trkpt>
      <trkpt lat="45.71129" lon="4.93646">
        <ele>211.4</ele>
        <time>2014-06-14T13:18:11Z</time>
      </trkpt>
      <trkpt lat="45.71129" lon="4.93647">
        <ele>211.4</ele>
        <time>2014-06-14T13:18:12Z</time>
      </trkpt>
      <trkpt lat="45.71124" lon="4.93654">
        <ele>211.8</ele>
        <time>2014-06-14T13:18:16Z</time>
      </trkpt>
      <trkpt lat="45.71116" lon="4.93664">
        <ele>212</ele>
        <time>2014-06-14T13:18:19Z</time>
      </trkpt>
      <trkpt lat="45.71109" lon="4.93676">
        <ele>212.2</ele>
        <time>2014-06-14T13:18:22Z</time>
      </trkpt>
      <trkpt lat="45.71104" lon="4.93683">
        <ele>212.2</ele>
        <time>2014-06-14T13:18:24Z</time>
      </trkpt>
      <trkpt lat="45.7109" lon="4.93704">
        <ele>212.6</ele>
        <time>2014-06-14T13:18:30Z</time>
      </trkpt>
      <trkpt lat="45.71088" lon="4.93708">
        <ele>212.8</ele>
        <time>2014-06-14T13:18:31Z</time>
      </trkpt>
      <trkpt lat="45.71076" lon="4.93726">
        <ele>213.2</ele>
        <time>2014-06-14T13:18:36Z</time>
      </trkpt>
      <trkpt lat="45.71069" lon="4.93737">
        <ele>213.4</ele>
        <time>2014-06-14T13:18:39Z</time>
      </trkpt>
      <trkpt lat="45.71062" lon="4.93748">
        <ele>213.6</ele>
        <time>2014-06-14T13:18:42Z</time>
      </trkpt>
      <trkpt lat="45.71049" lon="4.93768">
        <ele>213.8</ele>
        <time>2014-06-14T13:18:47Z</time>
      </trkpt>
      <trkpt lat="45.71044" lon="4.93776">
        <ele>214</ele>
        <time>2014-06-14T13:18:49Z</time>
      </trkpt>
      <trkpt lat="45.71036" lon="4.93788">
        <ele>214.4</ele>
        <time>2014-06-14T13:18:52Z</time>
      </trkpt>
      <trkpt lat="45.71021" lon="4.93809">
        <ele>214.8</ele>
        <time>2014-06-14T13:18:57Z</time>
      </trkpt>
      <trkpt lat="45.71016" lon="4.93817">
        <ele>215</ele>
        <time>2014-06-14T13:18:59Z</time>
      </trkpt>
      <trkpt lat="45.71007" lon="4.9383">
        <ele>215.2</ele>
        <time>2014-06-14T13:19:02Z</time>
      </trkpt>
      <trkpt lat="45.70994" lon="4.93849">
        <ele>215.4</ele>
        <time>2014-06-14T13:19:06Z</time>
      </trkpt>
      <trkpt lat="45.70991" lon="4.93854">
        <ele>215.4</ele>
        <time>2014-06-14T13:19:07Z</time>
      </trkpt>
      <trkpt lat="45.7098" lon="4.93869">
        <ele>215.6</ele>
        <time>2014-06-14T13:19:10Z</time>
      </trkpt>
      <trkpt lat="45.70967" lon="4.9389">
        <ele>215.8</ele>
        <time>2014-06-14T13:19:14Z</time>
      </trkpt>
      <trkpt lat="45.70963" lon="4.93895">
        <ele>215.8</ele>
        <time>2014-06-14T13:19:15Z</time>
      </trkpt>
      <trkpt lat="45.70953" lon="4.93908">
        <ele>216</ele>
        <time>2014-06-14T13:19:18Z</time>
      </trkpt>
      <trkpt lat="45.70946" lon="4.93915">
        <ele>216</ele>
        <time>2014-06-14T13:19:20Z</time>
      </trkpt>
      <trkpt lat="45.70942" lon="4.93916">
        <ele>216</ele>
        <time>2014-06-14T13:19:21Z</time>
      </trkpt>
      <trkpt lat="45.70935" lon="4.93913">
        <ele>216</ele>
        <time>2014-06-14T13:19:23Z</time>
      </trkpt>
      <trkpt lat="45.70928" lon="4.9391">
        <ele>216</ele>
        <time>2014-06-14T13:19:25Z</time>
      </trkpt>
      <trkpt lat="45.70918" lon="4.93908">
        <ele>216</ele>
        <time>2014-06-14T13:19:28Z</time>
      </trkpt>
      <trkpt lat="45.70915" lon="4.93908">
        <ele>216</ele>
        <time>2014-06-14T13:19:29Z</time>
      </trkpt>
      <trkpt lat="45.70908" lon="4.9391">
        <ele>215.8</ele>
        <time>2014-06-14T13:19:31Z</time>
      </trkpt>
      <trkpt lat="45.70894" lon="4.93915">
        <ele>215.8</ele>
        <time>2014-06-14T13:19:35Z</time>
      </trkpt>
      <trkpt lat="45.7088" lon="4.93901">
        <ele>215.8</ele>
        <time>2014-06-14T13:19:39Z</time>
      </trkpt>
      <trkpt lat="45.70876" lon="4.93896">
        <ele>215.8</ele>
        <time>2014-06-14T13:19:40Z</time>
      </trkpt>
      <trkpt lat="45.70862" lon="4.93875">
        <ele>215.8</ele>
        <time>2014-06-14T13:19:44Z</time>
      </trkpt>
      <trkpt lat="45.70851" lon="4.93857">
        <ele>215.8</ele>
        <time>2014-06-14T13:19:47Z</time>
      </trkpt>
      <trkpt lat="45.70848" lon="4.93851">
        <ele>215.6</ele>
        <time>2014-06-14T13:19:48Z</time>
      </trkpt>
      <trkpt lat="45.70834" lon="4.93826">
        <ele>215.6</ele>
        <time>2014-06-14T13:19:52Z</time>
      </trkpt>
      <trkpt lat="45.70828" lon="4.93814">
        <ele>215.6</ele>
        <time>2014-06-14T13:19:54Z</time>
      </trkpt>
      <trkpt lat="45.70825" lon="4.93809">
        <ele>215.6</ele>
        <time>2014-06-14T13:19:55Z</time>
      </trkpt>
      <trkpt lat="45.70823" lon="4.93803">
        <ele>215.6</ele>
        <time>2014-06-14T13:19:56Z</time>
      </trkpt>
      <trkpt lat="45.70819" lon="4.93795">
        <ele>215.6</ele>
        <time>2014-06-14T13:19:58Z</time>
      </trkpt>
      <trkpt lat="45.70818" lon="4.93793">
        <ele>215.6</ele>
        <time>2014-06-14T13:19:59Z</time>
      </trkpt>
      <trkpt lat="45.70814" lon="4.93795">
        <ele>215.6</ele>
        <time>2014-06-14T13:20:01Z</time>
      </trkpt>
      <trkpt lat="45.70809" lon="4.938">
        <ele>215.6</ele>
        <time>2014-06-14T13:20:04Z</time>
      </trkpt>
      <trkpt lat="45.70808" lon="4.938">
        <ele>215.6</ele>
        <time>2014-06-14T13:20:06Z</time>
      </trkpt>
      <trkpt lat="45.70807" lon="4.93804">
        <ele>215.6</ele>
        <time>2014-06-14T13:20:10Z</time>
      </trkpt>
      <trkpt lat="45.70807" lon="4.938">
        <ele>215.8</ele>
        <time>2014-06-14T13:20:18Z</time>
      </trkpt>
      <trkpt lat="45.70808" lon="4.938">
        <ele>216.2</ele>
        <time>2014-06-14T13:20:28Z</time>
      </trkpt>
      <trkpt lat="45.70808" lon="4.93799">
        <ele>218</ele>
        <time>2014-06-14T13:20:59Z</time>
      </trkpt>
      <trkpt lat="45.70807" lon="4.93794">
        <ele>218</ele>
        <time>2014-06-14T13:21:01Z</time>
      </trkpt>
      <trkpt lat="45.70803" lon="4.93788">
        <ele>218</ele>
        <time>2014-06-14T13:21:03Z</time>
      </trkpt>
      <trkpt lat="45.70797" lon="4.93774">
        <ele>218</ele>
        <time>2014-06-14T13:21:07Z</time>
      </trkpt>
      <trkpt lat="45.70793" lon="4.93765">
        <ele>218</ele>
        <time>2014-06-14T13:21:10Z</time>
      </trkpt>
      <trkpt lat="45.70787" lon="4.93751">
        <ele>217.8</ele>
        <time>2014-06-14T13:21:14Z</time>
      </trkpt>
      <trkpt lat="45.70783" lon="4.93739">
        <ele>217.8</ele>
        <time>2014-06-14T13:21:17Z</time>
      </trkpt>
      <trkpt lat="45.70778" lon="4.93727">
        <ele>217.6</ele>
        <time>2014-06-14T13:21:20Z</time>
      </trkpt>
      <trkpt lat="45.70774" lon="4.93714">
        <ele>217.6</ele>
        <time>2014-06-14T13:21:23Z</time>
      </trkpt>
      <trkpt lat="45.70771" lon="4.93706">
        <ele>217.4</ele>
        <time>2014-06-14T13:21:25Z</time>
      </trkpt>
      <trkpt lat="45.70765" lon="4.93691">
        <ele>217.2</ele>
        <time>2014-06-14T13:21:29Z</time>
      </trkpt>
      <trkpt lat="45.70763" lon="4.93687">
        <ele>217.2</ele>
        <time>2014-06-14T13:21:30Z</time>
      </trkpt>
      <trkpt lat="45.70753" lon="4.93668">
        <ele>217</ele>
        <time>2014-06-14T13:21:35Z</time>
      </trkpt>
      <trkpt lat="45.70752" lon="4.93664">
        <ele>217</ele>
        <time>2014-06-14T13:21:36Z</time>
      </trkpt>
      <trkpt lat="45.70742" lon="4.93644">
        <ele>217</ele>
        <time>2014-06-14T13:21:42Z</time>
      </trkpt>
      <trkpt lat="45.7074" lon="4.93641">
        <ele>217</ele>
        <time>2014-06-14T13:21:43Z</time>
      </trkpt>
      <trkpt lat="45.70731" lon="4.93622">
        <ele>216.8</ele>
        <time>2014-06-14T13:21:49Z</time>
      </trkpt>
      <trkpt lat="45.70729" lon="4.93619">
        <ele>216.8</ele>
        <time>2014-06-14T13:21:50Z</time>
      </trkpt>
      <trkpt lat="45.70719" lon="4.936">
        <ele>216.6</ele>
        <time>2014-06-14T13:21:56Z</time>
      </trkpt>
      <trkpt lat="45.70709" lon="4.93585">
        <ele>216.6</ele>
        <time>2014-06-14T13:22:01Z</time>
      </trkpt>
      <trkpt lat="45.70705" lon="4.93579">
        <ele>216.6</ele>
        <time>2014-06-14T13:22:03Z</time>
      </trkpt>
      <trkpt lat="45.70694" lon="4.93565">
        <ele>216.4</ele>
        <time>2014-06-14T13:22:08Z</time>
      </trkpt>
      <trkpt lat="45.7069" lon="4.9356">
        <ele>216.4</ele>
        <time>2014-06-14T13:22:10Z</time>
      </trkpt>
      <trkpt lat="45.70684" lon="4.93551">
        <ele>216.2</ele>
        <time>2014-06-14T13:22:13Z</time>
      </trkpt>
      <trkpt lat="45.70674" lon="4.93542">
        <ele>216.2</ele>
        <time>2014-06-14T13:22:17Z</time>
      </trkpt>
      <trkpt lat="45.70672" lon="4.9354">
        <ele>216.2</ele>
        <time>2014-06-14T13:22:18Z</time>
      </trkpt>
      <trkpt lat="45.70659" lon="4.93526">
        <ele>216.2</ele>
        <time>2014-06-14T13:22:24Z</time>
      </trkpt>
      <trkpt lat="45.70656" lon="4.93524">
        <ele>216.2</ele>
        <time>2014-06-14T13:22:25Z</time>
      </trkpt>
      <trkpt lat="45.70643" lon="4.9351">
        <ele>216</ele>
        <time>2014-06-14T13:22:30Z</time>
      </trkpt>
      <trkpt lat="45.70633" lon="4.93488">
        <ele>215.8</ele>
        <time>2014-06-14T13:22:36Z</time>
      </trkpt>
      <trkpt lat="45.70622" lon="4.9347">
        <ele>215.6</ele>
        <time>2014-06-14T13:22:42Z</time>
      </trkpt>
      <trkpt lat="45.70619" lon="4.93469">
        <ele>215.8</ele>
        <time>2014-06-14T13:22:43Z</time>
      </trkpt>
      <trkpt lat="45.70608" lon="4.93465">
        <ele>216</ele>
        <time>2014-06-14T13:22:47Z</time>
      </trkpt>
      <trkpt lat="45.70601" lon="4.93461">
        <ele>216</ele>
        <time>2014-06-14T13:22:50Z</time>
      </trkpt>
      <trkpt lat="45.70593" lon="4.93457">
        <ele>215.8</ele>
        <time>2014-06-14T13:22:53Z</time>
      </trkpt>
      <trkpt lat="45.70582" lon="4.93454">
        <ele>215.8</ele>
        <time>2014-06-14T13:22:57Z</time>
      </trkpt>
      <trkpt lat="45.70577" lon="4.93453">
        <ele>215.8</ele>
        <time>2014-06-14T13:22:59Z</time>
      </trkpt>
      <trkpt lat="45.70563" lon="4.93451">
        <ele>215.8</ele>
        <time>2014-06-14T13:23:04Z</time>
      </trkpt>
      <trkpt lat="45.70558" lon="4.93451">
        <ele>215.6</ele>
        <time>2014-06-14T13:23:06Z</time>
      </trkpt>
      <trkpt lat="45.70545" lon="4.93451">
        <ele>215.6</ele>
        <time>2014-06-14T13:23:13Z</time>
      </trkpt>
      <trkpt lat="45.70543" lon="4.93451">
        <ele>215.6</ele>
        <time>2014-06-14T13:23:14Z</time>
      </trkpt>
      <trkpt lat="45.70533" lon="4.93454">
        <ele>215.4</ele>
        <time>2014-06-14T13:23:18Z</time>
      </trkpt>
      <trkpt lat="45.70526" lon="4.93455">
        <ele>215.4</ele>
        <time>2014-06-14T13:23:21Z</time>
      </trkpt>
      <trkpt lat="45.70523" lon="4.93454">
        <ele>215.2</ele>
        <time>2014-06-14T13:23:23Z</time>
      </trkpt>
      <trkpt lat="45.70521" lon="4.93454">
        <ele>215</ele>
        <time>2014-06-14T13:23:26Z</time>
      </trkpt>
      <trkpt lat="45.7052" lon="4.93455">
        <ele>215</ele>
        <time>2014-06-14T13:23:28Z</time>
      </trkpt>
      <trkpt lat="45.70519" lon="4.93456">
        <ele>214.8</ele>
        <time>2014-06-14T13:23:33Z</time>
      </trkpt>
      <trkpt lat="45.70514" lon="4.93458">
        <ele>214.8</ele>
        <time>2014-06-14T13:23:39Z</time>
      </trkpt>
      <trkpt lat="45.70508" lon="4.93458">
        <ele>214.8</ele>
        <time>2014-06-14T13:23:41Z</time>
      </trkpt>
      <trkpt lat="45.70499" lon="4.93459">
        <ele>214.6</ele>
        <time>2014-06-14T13:23:44Z</time>
      </trkpt>
      <trkpt lat="45.7049" lon="4.93461">
        <ele>214.6</ele>
        <time>2014-06-14T13:23:47Z</time>
      </trkpt>
      <trkpt lat="45.7048" lon="4.93463">
        <ele>214.4</ele>
        <time>2014-06-14T13:23:50Z</time>
      </trkpt>
      <trkpt lat="45.70469" lon="4.93464">
        <ele>214</ele>
        <time>2014-06-14T13:23:54Z</time>
      </trkpt>
      <trkpt lat="45.70464" lon="4.93465">
        <ele>214</ele>
        <time>2014-06-14T13:23:56Z</time>
      </trkpt>
      <trkpt lat="45.70457" lon="4.93467">
        <ele>213.8</ele>
        <time>2014-06-14T13:24:00Z</time>
      </trkpt>
      <trkpt lat="45.7046" lon="4.93464">
        <ele>213.4</ele>
        <time>2014-06-14T13:24:04Z</time>
      </trkpt>
      <trkpt lat="45.70463" lon="4.93464">
        <ele>213.2</ele>
        <time>2014-06-14T13:24:06Z</time>
      </trkpt>
      <trkpt lat="45.70465" lon="4.93464">
        <ele>213.2</ele>
        <time>2014-06-14T13:24:08Z</time>
      </trkpt>
      <trkpt lat="45.70472" lon="4.93464">
        <ele>212.8</ele>
        <time>2014-06-14T13:24:14Z</time>
      </trkpt>
      <trkpt lat="45.70477" lon="4.93463">
        <ele>212.6</ele>
        <time>2014-06-14T13:24:21Z</time>
      </trkpt>
      <trkpt lat="45.70477" lon="4.93462">
        <ele>212.2</ele>
        <time>2014-06-14T13:24:30Z</time>
      </trkpt>
      <trkpt lat="45.70479" lon="4.93462">
        <ele>211.8</ele>
        <time>2014-06-14T13:24:43Z</time>
      </trkpt>
      <trkpt lat="45.70483" lon="4.93461">
        <ele>211.8</ele>
        <time>2014-06-14T13:24:45Z</time>
      </trkpt>
      <trkpt lat="45.70497" lon="4.93458">
        <ele>211.8</ele>
        <time>2014-06-14T13:24:50Z</time>
      </trkpt>
      <trkpt lat="45.70517" lon="4.93454">
        <ele>211.8</ele>
        <time>2014-06-14T13:24:56Z</time>
      </trkpt>
      <trkpt lat="45.70532" lon="4.93452">
        <ele>212.2</ele>
        <time>2014-06-14T13:25:01Z</time>
      </trkpt>
      <trkpt lat="45.70538" lon="4.93451">
        <ele>212.4</ele>
        <time>2014-06-14T13:25:03Z</time>
      </trkpt>
      <trkpt lat="45.70541" lon="4.93449">
        <ele>212.4</ele>
        <time>2014-06-14T13:25:05Z</time>
      </trkpt>
      <trkpt lat="45.70542" lon="4.93449">
        <ele>212.6</ele>
        <time>2014-06-14T13:25:06Z</time>
      </trkpt>
      <trkpt lat="45.70536" lon="4.93447">
        <ele>212.8</ele>
        <time>2014-06-14T13:25:11Z</time>
      </trkpt>
      <trkpt lat="45.70527" lon="4.93443">
        <ele>213</ele>
        <time>2014-06-14T13:25:17Z</time>
      </trkpt>
      <trkpt lat="45.70523" lon="4.93434">
        <ele>212.8</ele>
        <time>2014-06-14T13:25:22Z</time>
      </trkpt>
      <trkpt lat="45.70523" lon="4.93424">
        <ele>212.6</ele>
        <time>2014-06-14T13:25:26Z</time>
      </trkpt>
      <trkpt lat="45.70522" lon="4.9342">
        <ele>212.4</ele>
        <time>2014-06-14T13:25:28Z</time>
      </trkpt>
      <trkpt lat="45.70522" lon="4.93417">
        <ele>212.4</ele>
        <time>2014-06-14T13:25:29Z</time>
      </trkpt>
      <trkpt lat="45.70522" lon="4.93412">
        <ele>212.2</ele>
        <time>2014-06-14T13:25:34Z</time>
      </trkpt>
      <trkpt lat="45.70526" lon="4.93427">
        <ele>212</ele>
        <time>2014-06-14T13:25:37Z</time>
      </trkpt>
      <trkpt lat="45.70529" lon="4.9344">
        <ele>211.8</ele>
        <time>2014-06-14T13:25:40Z</time>
      </trkpt>
      <trkpt lat="45.70531" lon="4.93442">
        <ele>211.8</ele>
        <time>2014-06-14T13:25:41Z</time>
      </trkpt>
      <trkpt lat="45.70535" lon="4.93441">
        <ele>211.8</ele>
        <time>2014-06-14T13:25:45Z</time>
      </trkpt>
      <trkpt lat="45.70538" lon="4.93439">
        <ele>211.8</ele>
        <time>2014-06-14T13:25:48Z</time>
      </trkpt>
      <trkpt lat="45.70539" lon="4.93437">
        <ele>211.8</ele>
        <time>2014-06-14T13:25:50Z</time>
      </trkpt>
      <trkpt lat="45.70541" lon="4.93436">
        <ele>212.2</ele>
        <time>2014-06-14T13:25:52Z</time>
      </trkpt>
      <trkpt lat="45.70542" lon="4.93445">
        <ele>215.2</ele>
        <time>2014-06-14T13:26:03Z</time>
      </trkpt>
      <trkpt lat="45.70544" lon="4.93447">
        <ele>218.8</ele>
        <time>2014-06-14T13:26:13Z</time>
      </trkpt>
      <trkpt lat="45.70545" lon="4.93449">
        <ele>219</ele>
        <time>2014-06-14T13:26:16Z</time>
      </trkpt>
      <trkpt lat="45.70545" lon="4.93446">
        <ele>220</ele>
        <time>2014-06-14T13:26:20Z</time>
      </trkpt>
      <trkpt lat="45.70544" lon="4.93446">
        <ele>219.6</ele>
        <time>2014-06-14T13:26:21Z</time>
      </trkpt>
      <trkpt lat="45.70544" lon="4.93444">
        <ele>220.2</ele>
        <time>2014-06-14T13:26:24Z</time>
      </trkpt>
      <trkpt lat="45.70544" lon="4.93444">
        <ele>220.6</ele>
        <time>2014-06-14T13:26:25Z</time>
      </trkpt>
      <trkpt lat="45.70541" lon="4.93443">
        <ele>220</ele>
        <time>2014-06-14T13:26:30Z</time>
      </trkpt>
      <trkpt lat="45.7054" lon="4.93443">
        <ele>220.2</ele>
        <time>2014-06-14T13:26:32Z</time>
      </trkpt>
      <trkpt lat="45.7054" lon="4.93442">
        <ele>219.8</ele>
        <time>2014-06-14T13:26:37Z</time>
      </trkpt>
      <trkpt lat="45.70537" lon="4.93435">
        <ele>218.8</ele>
        <time>2014-06-14T13:26:55Z</time>
      </trkpt>
      <trkpt lat="45.70538" lon="4.93435">
        <ele>218.8</ele>
        <time>2014-06-14T13:26:56Z</time>
      </trkpt>
      <trkpt lat="45.70541" lon="4.93441">
        <ele>218.4</ele>
        <time>2014-06-14T13:27:01Z</time>
      </trkpt>
      <trkpt lat="45.70541" lon="4.93444">
        <ele>218.8</ele>
        <time>2014-06-14T13:27:04Z</time>
      </trkpt>
      <trkpt lat="45.70542" lon="4.93445">
        <ele>222</ele>
        <time>2014-06-14T13:27:14Z</time>
      </trkpt>
      <trkpt lat="45.70543" lon="4.93444">
        <ele>223.2</ele>
        <time>2014-06-14T13:27:23Z</time>
      </trkpt>
      <trkpt lat="45.70543" lon="4.93444">
        <ele>223</ele>
        <time>2014-06-14T13:27:27Z</time>
      </trkpt>
      <trkpt lat="45.7054" lon="4.93442">
        <ele>223.2</ele>
        <time>2014-06-14T13:27:35Z</time>
      </trkpt>
      <trkpt lat="45.70541" lon="4.93438">
        <ele>223.2</ele>
        <time>2014-06-14T13:27:36Z</time>
      </trkpt>
      <trkpt lat="45.70544" lon="4.93425">
        <ele>223.4</ele>
        <time>2014-06-14T13:27:39Z</time>
      </trkpt>
      <trkpt lat="45.7054" lon="4.93419">
        <ele>223.2</ele>
        <time>2014-06-14T13:27:41Z</time>
      </trkpt>
      <trkpt lat="45.70539" lon="4.93416">
        <ele>223</ele>
        <time>2014-06-14T13:27:43Z</time>
      </trkpt>
      <trkpt lat="45.70537" lon="4.93413">
        <ele>222.8</ele>
        <time>2014-06-14T13:27:45Z</time>
      </trkpt>
      <trkpt lat="45.70537" lon="4.93411">
        <ele>222.6</ele>
        <time>2014-06-14T13:27:46Z</time>
      </trkpt>
      <trkpt lat="45.70545" lon="4.93409">
        <ele>222.6</ele>
        <time>2014-06-14T13:27:50Z</time>
      </trkpt>
      <trkpt lat="45.70539" lon="4.93415">
        <ele>222.6</ele>
        <time>2014-06-14T13:27:56Z</time>
      </trkpt>
      <trkpt lat="45.70541" lon="4.93423">
        <ele>222.4</ele>
        <time>2014-06-14T13:27:59Z</time>
      </trkpt>
      <trkpt lat="45.7054" lon="4.93427">
        <ele>222.4</ele>
        <time>2014-06-14T13:28:00Z</time>
      </trkpt>
      <trkpt lat="45.70535" lon="4.93435">
        <ele>222.4</ele>
        <time>2014-06-14T13:28:04Z</time>
      </trkpt>
      <trkpt lat="45.70534" lon="4.93437">
        <ele>222.6</ele>
        <time>2014-06-14T13:28:06Z</time>
      </trkpt>
      <trkpt lat="45.70535" lon="4.93441">
        <ele>222.4</ele>
        <time>2014-06-14T13:28:09Z</time>
      </trkpt>
      <trkpt lat="45.70537" lon="4.93443">
        <ele>222.4</ele>
        <time>2014-06-14T13:28:11Z</time>
      </trkpt>
      <trkpt lat="45.70538" lon="4.93443">
        <ele>222.4</ele>
        <time>2014-06-14T13:28:12Z</time>
      </trkpt>
      <trkpt lat="45.70539" lon="4.93443">
        <ele>222.4</ele>
        <time>2014-06-14T13:28:13Z</time>
      </trkpt>
      <trkpt lat="45.70542" lon="4.93444">
        <ele>222.4</ele>
        <time>2014-06-14T13:28:15Z</time>
      </trkpt>
      <trkpt lat="45.70545" lon="4.93443">
        <ele>222.4</ele>
        <time>2014-06-14T13:28:16Z</time>
      </trkpt>
      <trkpt lat="45.70547" lon="4.93443">
        <ele>222.4</ele>
        <time>2014-06-14T13:28:17Z</time>
      </trkpt>
      <trkpt lat="45.70548" lon="4.93442">
        <ele>222.4</ele>
        <time>2014-06-14T13:28:18Z</time>
      </trkpt>
      <trkpt lat="45.7055" lon="4.93445">
        <ele>222.4</ele>
        <time>2014-06-14T13:28:21Z</time>
      </trkpt>
      <trkpt lat="45.70552" lon="4.93449">
        <ele>222.4</ele>
        <time>2014-06-14T13:28:24Z</time>
      </trkpt>
      <trkpt lat="45.70551" lon="4.9345">
        <ele>222.2</ele>
        <time>2014-06-14T13:28:27Z</time>
      </trkpt>
      <trkpt lat="45.70552" lon="4.93452">
        <ele>222</ele>
        <time>2014-06-14T13:28:37Z</time>
      </trkpt>
      <trkpt lat="45.70553" lon="4.93458">
        <ele>221.8</ele>
        <time>2014-06-14T13:28:39Z</time>
      </trkpt>
      <trkpt lat="45.7055" lon="4.93475">
        <ele>221.8</ele>
        <time>2014-06-14T13:28:43Z</time>
      </trkpt>
      <trkpt lat="45.70549" lon="4.93485">
        <ele>221.6</ele>
        <time>2014-06-14T13:28:45Z</time>
      </trkpt>
      <trkpt lat="45.70545" lon="4.93511">
        <ele>221.4</ele>
        <time>2014-06-14T13:28:51Z</time>
      </trkpt>
      <trkpt lat="45.70542" lon="4.93537">
        <ele>221.2</ele>
        <time>2014-06-14T13:28:57Z</time>
      </trkpt>
      <trkpt lat="45.7054" lon="4.93548">
        <ele>221.2</ele>
        <time>2014-06-14T13:28:59Z</time>
      </trkpt>
      <trkpt lat="45.70537" lon="4.93565">
        <ele>221</ele>
        <time>2014-06-14T13:29:02Z</time>
      </trkpt>
      <trkpt lat="45.70532" lon="4.93594">
        <ele>220.8</ele>
        <time>2014-06-14T13:29:07Z</time>
      </trkpt>
      <trkpt lat="45.70529" lon="4.93613">
        <ele>220.8</ele>
        <time>2014-06-14T13:29:10Z</time>
      </trkpt>
      <trkpt lat="45.70528" lon="4.93624">
        <ele>220.6</ele>
        <time>2014-06-14T13:29:12Z</time>
      </trkpt>
      <trkpt lat="45.70527" lon="4.9363">
        <ele>220.6</ele>
        <time>2014-06-14T13:29:13Z</time>
      </trkpt>
      <trkpt lat="45.70527" lon="4.93635">
        <ele>220.6</ele>
        <time>2014-06-14T13:29:14Z</time>
      </trkpt>
      <trkpt lat="45.70526" lon="4.9365">
        <ele>220.4</ele>
        <time>2014-06-14T13:29:17Z</time>
      </trkpt>
      <trkpt lat="45.70525" lon="4.93655">
        <ele>220.4</ele>
        <time>2014-06-14T13:29:18Z</time>
      </trkpt>
      <trkpt lat="45.70525" lon="4.9366">
        <ele>220.4</ele>
        <time>2014-06-14T13:29:19Z</time>
      </trkpt>
      <trkpt lat="45.70525" lon="4.93676">
        <ele>220.4</ele>
        <time>2014-06-14T13:29:22Z</time>
      </trkpt>
      <trkpt lat="45.70524" lon="4.93703">
        <ele>220.2</ele>
        <time>2014-06-14T13:29:27Z</time>
      </trkpt>
      <trkpt lat="45.70523" lon="4.93714">
        <ele>220.2</ele>
        <time>2014-06-14T13:29:29Z</time>
      </trkpt>
      <trkpt lat="45.70521" lon="4.9373">
        <ele>220.2</ele>
        <time>2014-06-14T13:29:32Z</time>
      </trkpt>
      <trkpt lat="45.70519" lon="4.93754">
        <ele>220</ele>
        <time>2014-06-14T13:29:37Z</time>
      </trkpt>
      <trkpt lat="45.70519" lon="4.9376">
        <ele>220</ele>
        <time>2014-06-14T13:29:38Z</time>
      </trkpt>
      <trkpt lat="45.70514" lon="4.93786">
        <ele>220</ele>
        <time>2014-06-14T13:29:43Z</time>
      </trkpt>
      <trkpt lat="45.7051" lon="4.93808">
        <ele>219.8</ele>
        <time>2014-06-14T13:29:47Z</time>
      </trkpt>
      <trkpt lat="45.70509" lon="4.93814">
        <ele>219.8</ele>
        <time>2014-06-14T13:29:48Z</time>
      </trkpt>
      <trkpt lat="45.70505" lon="4.93839">
        <ele>219.8</ele>
        <time>2014-06-14T13:29:52Z</time>
      </trkpt>
      <trkpt lat="45.70501" lon="4.93865">
        <ele>219.6</ele>
        <time>2014-06-14T13:29:56Z</time>
      </trkpt>
      <trkpt lat="45.705" lon="4.93872">
        <ele>219.6</ele>
        <time>2014-06-14T13:29:57Z</time>
      </trkpt>
      <trkpt lat="45.70496" lon="4.93893">
        <ele>219.6</ele>
        <time>2014-06-14T13:30:00Z</time>
      </trkpt>
      <trkpt lat="45.70491" lon="4.93922">
        <ele>219.4</ele>
        <time>2014-06-14T13:30:04Z</time>
      </trkpt>
      <trkpt lat="45.70489" lon="4.9393">
        <ele>219.4</ele>
        <time>2014-06-14T13:30:05Z</time>
      </trkpt>
      <trkpt lat="45.70485" lon="4.93953">
        <ele>219.4</ele>
        <time>2014-06-14T13:30:08Z</time>
      </trkpt>
      <trkpt lat="45.70478" lon="4.93982">
        <ele>219.2</ele>
        <time>2014-06-14T13:30:12Z</time>
      </trkpt>
      <trkpt lat="45.70472" lon="4.94">
        <ele>219</ele>
        <time>2014-06-14T13:30:15Z</time>
      </trkpt>
      <trkpt lat="45.70468" lon="4.94009">
        <ele>219</ele>
        <time>2014-06-14T13:30:17Z</time>
      </trkpt>
      <trkpt lat="45.70466" lon="4.94011">
        <ele>219</ele>
        <time>2014-06-14T13:30:18Z</time>
      </trkpt>
      <trkpt lat="45.70464" lon="4.94012">
        <ele>218.8</ele>
        <time>2014-06-14T13:30:20Z</time>
      </trkpt>
      <trkpt lat="45.70463" lon="4.94012">
        <ele>218.8</ele>
        <time>2014-06-14T13:30:22Z</time>
      </trkpt>
      <trkpt lat="45.7046" lon="4.94013">
        <ele>218.6</ele>
        <time>2014-06-14T13:30:24Z</time>
      </trkpt>
      <trkpt lat="45.70454" lon="4.94014">
        <ele>218.6</ele>
        <time>2014-06-14T13:30:26Z</time>
      </trkpt>
      <trkpt lat="45.70448" lon="4.94015">
        <ele>218.4</ele>
        <time>2014-06-14T13:30:28Z</time>
      </trkpt>
      <trkpt lat="45.70433" lon="4.94022">
        <ele>218.2</ele>
        <time>2014-06-14T13:30:33Z</time>
      </trkpt>
      <trkpt lat="45.70431" lon="4.94024">
        <ele>218</ele>
        <time>2014-06-14T13:30:34Z</time>
      </trkpt>
      <trkpt lat="45.70417" lon="4.94031">
        <ele>217.8</ele>
        <time>2014-06-14T13:30:39Z</time>
      </trkpt>
      <trkpt lat="45.70412" lon="4.94033">
        <ele>217.8</ele>
        <time>2014-06-14T13:30:41Z</time>
      </trkpt>
      <trkpt lat="45.70402" lon="4.94038">
        <ele>217.6</ele>
        <time>2014-06-14T13:30:45Z</time>
      </trkpt>
      <trkpt lat="45.70395" lon="4.94041">
        <ele>217.6</ele>
        <time>2014-06-14T13:30:48Z</time>
      </trkpt>
      <trkpt lat="45.70387" lon="4.94044">
        <ele>217.4</ele>
        <time>2014-06-14T13:30:51Z</time>
      </trkpt>
      <trkpt lat="45.70377" lon="4.94049">
        <ele>217.4</ele>
        <time>2014-06-14T13:30:55Z</time>
      </trkpt>
      <trkpt lat="45.70372" lon="4.9405">
        <ele>217.4</ele>
        <time>2014-06-14T13:30:57Z</time>
      </trkpt>
      <trkpt lat="45.7036" lon="4.94056">
        <ele>217.2</ele>
        <time>2014-06-14T13:31:02Z</time>
      </trkpt>
      <trkpt lat="45.70356" lon="4.94058">
        <ele>217</ele>
        <time>2014-06-14T13:31:04Z</time>
      </trkpt>
      <trkpt lat="45.70342" lon="4.94066">
        <ele>216.6</ele>
        <time>2014-06-14T13:31:11Z</time>
      </trkpt>
      <trkpt lat="45.70323" lon="4.94076">
        <ele>216.4</ele>
        <time>2014-06-14T13:31:19Z</time>
      </trkpt>
      <trkpt lat="45.70313" lon="4.94082">
        <ele>216.2</ele>
        <time>2014-06-14T13:31:24Z</time>
      </trkpt>
      <trkpt lat="45.70307" lon="4.94088">
        <ele>216</ele>
        <time>2014-06-14T13:31:27Z</time>
      </trkpt>
      <trkpt lat="45.70305" lon="4.9409">
        <ele>216</ele>
        <time>2014-06-14T13:31:28Z</time>
      </trkpt>
      <trkpt lat="45.70304" lon="4.94103">
        <ele>216</ele>
        <time>2014-06-14T13:31:32Z</time>
      </trkpt>
      <trkpt lat="45.70305" lon="4.94106">
        <ele>215.8</ele>
        <time>2014-06-14T13:31:33Z</time>
      </trkpt>
      <trkpt lat="45.70306" lon="4.94115">
        <ele>215.8</ele>
        <time>2014-06-14T13:31:36Z</time>
      </trkpt>
      <trkpt lat="45.70307" lon="4.94133">
        <ele>215.8</ele>
        <time>2014-06-14T13:31:42Z</time>
      </trkpt>
      <trkpt lat="45.70307" lon="4.94142">
        <ele>215.8</ele>
        <time>2014-06-14T13:31:45Z</time>
      </trkpt>
      <trkpt lat="45.70307" lon="4.94155">
        <ele>215.8</ele>
        <time>2014-06-14T13:31:49Z</time>
      </trkpt>
      <trkpt lat="45.70309" lon="4.94169">
        <ele>215.8</ele>
        <time>2014-06-14T13:31:53Z</time>
      </trkpt>
      <trkpt lat="45.7031" lon="4.94177">
        <ele>215.8</ele>
        <time>2014-06-14T13:31:55Z</time>
      </trkpt>
      <trkpt lat="45.70312" lon="4.94195">
        <ele>215.8</ele>
        <time>2014-06-14T13:32:00Z</time>
      </trkpt>
      <trkpt lat="45.70314" lon="4.9421">
        <ele>215.8</ele>
        <time>2014-06-14T13:32:04Z</time>
      </trkpt>
      <trkpt lat="45.70315" lon="4.94222">
        <ele>216</ele>
        <time>2014-06-14T13:32:07Z</time>
      </trkpt>
      <trkpt lat="45.70316" lon="4.94235">
        <ele>216.2</ele>
        <time>2014-06-14T13:32:10Z</time>
      </trkpt>
      <trkpt lat="45.70318" lon="4.94247">
        <ele>216.2</ele>
        <time>2014-06-14T13:32:13Z</time>
      </trkpt>
      <trkpt lat="45.7032" lon="4.94264">
        <ele>216.4</ele>
        <time>2014-06-14T13:32:17Z</time>
      </trkpt>
      <trkpt lat="45.70322" lon="4.94273">
        <ele>216.4</ele>
        <time>2014-06-14T13:32:19Z</time>
      </trkpt>
      <trkpt lat="45.70323" lon="4.94285">
        <ele>216.6</ele>
        <time>2014-06-14T13:32:22Z</time>
      </trkpt>
      <trkpt lat="45.70326" lon="4.94301">
        <ele>216.8</ele>
        <time>2014-06-14T13:32:26Z</time>
      </trkpt>
      <trkpt lat="45.70328" lon="4.94309">
        <ele>216.8</ele>
        <time>2014-06-14T13:32:28Z</time>
      </trkpt>
      <trkpt lat="45.70332" lon="4.94327">
        <ele>217.2</ele>
        <time>2014-06-14T13:32:33Z</time>
      </trkpt>
      <trkpt lat="45.70333" lon="4.94331">
        <ele>217.2</ele>
        <time>2014-06-14T13:32:34Z</time>
      </trkpt>
      <trkpt lat="45.70335" lon="4.94351">
        <ele>217.4</ele>
        <time>2014-06-14T13:32:40Z</time>
      </trkpt>
      <trkpt lat="45.70336" lon="4.94355">
        <ele>217.4</ele>
        <time>2014-06-14T13:32:41Z</time>
      </trkpt>
      <trkpt lat="45.70336" lon="4.94372">
        <ele>217.6</ele>
        <time>2014-06-14T13:32:46Z</time>
      </trkpt>
      <trkpt lat="45.70337" lon="4.9438">
        <ele>217.8</ele>
        <time>2014-06-14T13:32:48Z</time>
      </trkpt>
      <trkpt lat="45.70341" lon="4.94398">
        <ele>217.8</ele>
        <time>2014-06-14T13:32:52Z</time>
      </trkpt>
      <trkpt lat="45.70342" lon="4.94407">
        <ele>218</ele>
        <time>2014-06-14T13:32:54Z</time>
      </trkpt>
      <trkpt lat="45.70344" lon="4.94419">
        <ele>218.2</ele>
        <time>2014-06-14T13:32:57Z</time>
      </trkpt>
      <trkpt lat="45.70345" lon="4.94432">
        <ele>218.4</ele>
        <time>2014-06-14T13:33:02Z</time>
      </trkpt>
      <trkpt lat="45.70346" lon="4.94434">
        <ele>218.4</ele>
        <time>2014-06-14T13:33:24Z</time>
      </trkpt>
      <trkpt lat="45.70346" lon="4.94435">
        <ele>218.8</ele>
        <time>2014-06-14T13:33:55Z</time>
      </trkpt>
      <trkpt lat="45.70348" lon="4.94437">
        <ele>218.8</ele>
        <time>2014-06-14T13:33:57Z</time>
      </trkpt>
      <trkpt lat="45.70349" lon="4.94439">
        <ele>218.8</ele>
        <time>2014-06-14T13:33:59Z</time>
      </trkpt>
      <trkpt lat="45.70352" lon="4.94444">
        <ele>218.8</ele>
        <time>2014-06-14T13:34:02Z</time>
      </trkpt>
      <trkpt lat="45.70357" lon="4.94453">
        <ele>218.8</ele>
        <time>2014-06-14T13:34:07Z</time>
      </trkpt>
      <trkpt lat="45.70358" lon="4.94459">
        <ele>218.8</ele>
        <time>2014-06-14T13:34:10Z</time>
      </trkpt>
      <trkpt lat="45.70363" lon="4.94471">
        <ele>218.6</ele>
        <time>2014-06-14T13:34:16Z</time>
      </trkpt>
      <trkpt lat="45.70365" lon="4.94477">
        <ele>218.8</ele>
        <time>2014-06-14T13:34:19Z</time>
      </trkpt>
      <trkpt lat="45.70368" lon="4.94495">
        <ele>219</ele>
        <time>2014-06-14T13:34:27Z</time>
      </trkpt>
      <trkpt lat="45.70368" lon="4.94505">
        <ele>219.6</ele>
        <time>2014-06-14T13:34:31Z</time>
      </trkpt>
      <trkpt lat="45.70368" lon="4.94509">
        <ele>219.8</ele>
        <time>2014-06-14T13:34:32Z</time>
      </trkpt>
      <trkpt lat="45.70373" lon="4.94525">
        <ele>220.6</ele>
        <time>2014-06-14T13:34:37Z</time>
      </trkpt>
      <trkpt lat="45.70376" lon="4.94532">
        <ele>220.6</ele>
        <time>2014-06-14T13:34:39Z</time>
      </trkpt>
      <trkpt lat="45.70379" lon="4.94547">
        <ele>221</ele>
        <time>2014-06-14T13:34:43Z</time>
      </trkpt>
      <trkpt lat="45.70378" lon="4.94559">
        <ele>221.2</ele>
        <time>2014-06-14T13:34:46Z</time>
      </trkpt>
      <trkpt lat="45.70378" lon="4.94567">
        <ele>221.2</ele>
        <time>2014-06-14T13:34:48Z</time>
      </trkpt>
      <trkpt lat="45.7038" lon="4.94588">
        <ele>221.6</ele>
        <time>2014-06-14T13:34:53Z</time>
      </trkpt>
      <trkpt lat="45.7038" lon="4.9461">
        <ele>221.8</ele>
        <time>2014-06-14T13:34:59Z</time>
      </trkpt>
      <trkpt lat="45.70381" lon="4.94614">
        <ele>221.6</ele>
        <time>2014-06-14T13:35:00Z</time>
      </trkpt>
      <trkpt lat="45.70384" lon="4.94623">
        <ele>221.8</ele>
        <time>2014-06-14T13:35:03Z</time>
      </trkpt>
      <trkpt lat="45.70377" lon="4.94634">
        <ele>221.8</ele>
        <time>2014-06-14T13:35:08Z</time>
      </trkpt>
      <trkpt lat="45.70375" lon="4.94636">
        <ele>222</ele>
        <time>2014-06-14T13:35:09Z</time>
      </trkpt>
      <trkpt lat="45.70362" lon="4.94644">
        <ele>222</ele>
        <time>2014-06-14T13:35:15Z</time>
      </trkpt>
      <trkpt lat="45.70356" lon="4.94648">
        <ele>222.2</ele>
        <time>2014-06-14T13:35:18Z</time>
      </trkpt>
      <trkpt lat="45.70346" lon="4.94656">
        <ele>222.6</ele>
        <time>2014-06-14T13:35:23Z</time>
      </trkpt>
      <trkpt lat="45.7034" lon="4.94661">
        <ele>222.8</ele>
        <time>2014-06-14T13:35:26Z</time>
      </trkpt>
      <trkpt lat="45.70338" lon="4.94665">
        <ele>222.8</ele>
        <time>2014-06-14T13:35:28Z</time>
      </trkpt>
      <trkpt lat="45.70337" lon="4.94666">
        <ele>223</ele>
        <time>2014-06-14T13:35:29Z</time>
      </trkpt>
      <trkpt lat="45.70332" lon="4.9467">
        <ele>223</ele>
        <time>2014-06-14T13:35:34Z</time>
      </trkpt>
      <trkpt lat="45.70329" lon="4.94672">
        <ele>223</ele>
        <time>2014-06-14T13:35:35Z</time>
      </trkpt>
      <trkpt lat="45.70324" lon="4.94676">
        <ele>223</ele>
        <time>2014-06-14T13:35:37Z</time>
      </trkpt>
      <trkpt lat="45.70314" lon="4.94685">
        <ele>222.8</ele>
        <time>2014-06-14T13:35:41Z</time>
      </trkpt>
      <trkpt lat="45.70309" lon="4.94691">
        <ele>222.8</ele>
        <time>2014-06-14T13:35:43Z</time>
      </trkpt>
      <trkpt lat="45.70293" lon="4.94705">
        <ele>222.4</ele>
        <time>2014-06-14T13:35:49Z</time>
      </trkpt>
      <trkpt lat="45.7029" lon="4.94708">
        <ele>222.4</ele>
        <time>2014-06-14T13:35:50Z</time>
      </trkpt>
      <trkpt lat="45.70278" lon="4.9472">
        <ele>222.4</ele>
        <time>2014-06-14T13:35:54Z</time>
      </trkpt>
      <trkpt lat="45.70264" lon="4.94732">
        <ele>222.2</ele>
        <time>2014-06-14T13:35:58Z</time>
      </trkpt>
      <trkpt lat="45.70261" lon="4.94736">
        <ele>222.2</ele>
        <time>2014-06-14T13:35:59Z</time>
      </trkpt>
      <trkpt lat="45.70246" lon="4.94752">
        <ele>222</ele>
        <time>2014-06-14T13:36:04Z</time>
      </trkpt>
      <trkpt lat="45.70243" lon="4.94754">
        <ele>222</ele>
        <time>2014-06-14T13:36:05Z</time>
      </trkpt>
      <trkpt lat="45.70228" lon="4.94769">
        <ele>222</ele>
        <time>2014-06-14T13:36:10Z</time>
      </trkpt>
      <trkpt lat="45.70219" lon="4.94779">
        <ele>222</ele>
        <time>2014-06-14T13:36:13Z</time>
      </trkpt>
      <trkpt lat="45.70212" lon="4.94785">
        <ele>222</ele>
        <time>2014-06-14T13:36:15Z</time>
      </trkpt>
      <trkpt lat="45.70194" lon="4.94802">
        <ele>222</ele>
        <time>2014-06-14T13:36:21Z</time>
      </trkpt>
      <trkpt lat="45.70178" lon="4.94817">
        <ele>222.4</ele>
        <time>2014-06-14T13:36:27Z</time>
      </trkpt>
      <trkpt lat="45.70176" lon="4.9482">
        <ele>222.4</ele>
        <time>2014-06-14T13:36:28Z</time>
      </trkpt>
      <trkpt lat="45.7016" lon="4.9483">
        <ele>222.6</ele>
        <time>2014-06-14T13:36:33Z</time>
      </trkpt>
      <trkpt lat="45.70155" lon="4.94835">
        <ele>222.8</ele>
        <time>2014-06-14T13:36:35Z</time>
      </trkpt>
      <trkpt lat="45.70143" lon="4.94845">
        <ele>223.2</ele>
        <time>2014-06-14T13:36:39Z</time>
      </trkpt>
      <trkpt lat="45.70131" lon="4.94852">
        <ele>223</ele>
        <time>2014-06-14T13:36:42Z</time>
      </trkpt>
      <trkpt lat="45.70123" lon="4.94856">
        <ele>223</ele>
        <time>2014-06-14T13:36:44Z</time>
      </trkpt>
      <trkpt lat="45.7012" lon="4.94857">
        <ele>223</ele>
        <time>2014-06-14T13:36:46Z</time>
      </trkpt>
      <trkpt lat="45.7011" lon="4.94859">
        <ele>222.8</ele>
        <time>2014-06-14T13:36:51Z</time>
      </trkpt>
      <trkpt lat="45.70105" lon="4.94863">
        <ele>222.6</ele>
        <time>2014-06-14T13:36:53Z</time>
      </trkpt>
      <trkpt lat="45.70102" lon="4.94871">
        <ele>222.6</ele>
        <time>2014-06-14T13:36:55Z</time>
      </trkpt>
      <trkpt lat="45.70098" lon="4.94886">
        <ele>222.4</ele>
        <time>2014-06-14T13:36:58Z</time>
      </trkpt>
      <trkpt lat="45.70096" lon="4.94909">
        <ele>222.2</ele>
        <time>2014-06-14T13:37:02Z</time>
      </trkpt>
      <trkpt lat="45.70095" lon="4.94915">
        <ele>222.2</ele>
        <time>2014-06-14T13:37:03Z</time>
      </trkpt>
      <trkpt lat="45.70091" lon="4.94944">
        <ele>222</ele>
        <time>2014-06-14T13:37:08Z</time>
      </trkpt>
      <trkpt lat="45.70082" lon="4.94966">
        <ele>221.8</ele>
        <time>2014-06-14T13:37:12Z</time>
      </trkpt>
      <trkpt lat="45.7008" lon="4.94972">
        <ele>221.8</ele>
        <time>2014-06-14T13:37:13Z</time>
      </trkpt>
      <trkpt lat="45.70072" lon="4.94992">
        <ele>221.6</ele>
        <time>2014-06-14T13:37:16Z</time>
      </trkpt>
      <trkpt lat="45.70064" lon="4.9501">
        <ele>221.6</ele>
        <time>2014-06-14T13:37:19Z</time>
      </trkpt>
      <trkpt lat="45.70062" lon="4.95017">
        <ele>221.6</ele>
        <time>2014-06-14T13:37:20Z</time>
      </trkpt>
      <trkpt lat="45.70052" lon="4.95041">
        <ele>221.4</ele>
        <time>2014-06-14T13:37:24Z</time>
      </trkpt>
      <trkpt lat="45.70049" lon="4.95047">
        <ele>221.2</ele>
        <time>2014-06-14T13:37:25Z</time>
      </trkpt>
      <trkpt lat="45.7004" lon="4.95066">
        <ele>221</ele>
        <time>2014-06-14T13:37:29Z</time>
      </trkpt>
      <trkpt lat="45.70037" lon="4.95074">
        <ele>221</ele>
        <time>2014-06-14T13:37:31Z</time>
      </trkpt>
      <trkpt lat="45.70028" lon="4.95085">
        <ele>220.8</ele>
        <time>2014-06-14T13:37:35Z</time>
      </trkpt>
      <trkpt lat="45.70023" lon="4.95089">
        <ele>220.6</ele>
        <time>2014-06-14T13:37:37Z</time>
      </trkpt>
      <trkpt lat="45.70012" lon="4.95092">
        <ele>220.6</ele>
        <time>2014-06-14T13:37:40Z</time>
      </trkpt>
      <trkpt lat="45.70004" lon="4.95092">
        <ele>220.4</ele>
        <time>2014-06-14T13:37:42Z</time>
      </trkpt>
      <trkpt lat="45.69991" lon="4.95092">
        <ele>220.4</ele>
        <time>2014-06-14T13:37:45Z</time>
      </trkpt>
      <trkpt lat="45.69973" lon="4.95089">
        <ele>220.2</ele>
        <time>2014-06-14T13:37:49Z</time>
      </trkpt>
      <trkpt lat="45.69952" lon="4.95088">
        <ele>219.8</ele>
        <time>2014-06-14T13:37:54Z</time>
      </trkpt>
      <trkpt lat="45.69933" lon="4.95087">
        <ele>219.8</ele>
        <time>2014-06-14T13:37:58Z</time>
      </trkpt>
      <trkpt lat="45.6992" lon="4.95086">
        <ele>219.6</ele>
        <time>2014-06-14T13:38:01Z</time>
      </trkpt>
      <trkpt lat="45.69913" lon="4.95085">
        <ele>219.4</ele>
        <time>2014-06-14T13:38:04Z</time>
      </trkpt>
      <trkpt lat="45.69911" lon="4.95084">
        <ele>219.2</ele>
        <time>2014-06-14T13:38:05Z</time>
      </trkpt>
      <trkpt lat="45.69909" lon="4.95085">
        <ele>219.2</ele>
        <time>2014-06-14T13:38:06Z</time>
      </trkpt>
      <trkpt lat="45.69906" lon="4.95093">
        <ele>219</ele>
        <time>2014-06-14T13:38:08Z</time>
      </trkpt>
      <trkpt lat="45.69904" lon="4.95102">
        <ele>218.8</ele>
        <time>2014-06-14T13:38:11Z</time>
      </trkpt>
      <trkpt lat="45.69904" lon="4.95102">
        <ele>218.8</ele>
        <time>2014-06-14T13:38:12Z</time>
      </trkpt>
      <trkpt lat="45.69904" lon="4.95103">
        <ele>218.6</ele>
        <time>2014-06-14T13:38:16Z</time>
      </trkpt>
      <trkpt lat="45.69903" lon="4.95112">
        <ele>218.4</ele>
        <time>2014-06-14T13:38:19Z</time>
      </trkpt>
      <trkpt lat="45.69901" lon="4.95129">
        <ele>218.2</ele>
        <time>2014-06-14T13:38:24Z</time>
      </trkpt>
      <trkpt lat="45.69901" lon="4.95135">
        <ele>218.2</ele>
        <time>2014-06-14T13:38:26Z</time>
      </trkpt>
      <trkpt lat="45.699" lon="4.95145">
        <ele>218.2</ele>
        <time>2014-06-14T13:38:29Z</time>
      </trkpt>
      <trkpt lat="45.699" lon="4.95151">
        <ele>218.2</ele>
        <time>2014-06-14T13:38:31Z</time>
      </trkpt>
      <trkpt lat="45.699" lon="4.95157">
        <ele>218</ele>
        <time>2014-06-14T13:38:33Z</time>
      </trkpt>
      <trkpt lat="45.699" lon="4.9516">
        <ele>218</ele>
        <time>2014-06-14T13:38:34Z</time>
      </trkpt>
      <trkpt lat="45.699" lon="4.95167">
        <ele>218</ele>
        <time>2014-06-14T13:38:36Z</time>
      </trkpt>
      <trkpt lat="45.69897" lon="4.95184">
        <ele>218</ele>
        <time>2014-06-14T13:38:41Z</time>
      </trkpt>
      <trkpt lat="45.69896" lon="4.95191">
        <ele>218</ele>
        <time>2014-06-14T13:38:43Z</time>
      </trkpt>
      <trkpt lat="45.69892" lon="4.9521">
        <ele>218</ele>
        <time>2014-06-14T13:38:49Z</time>
      </trkpt>
      <trkpt lat="45.6989" lon="4.95219">
        <ele>218</ele>
        <time>2014-06-14T13:38:52Z</time>
      </trkpt>
      <trkpt lat="45.69886" lon="4.95238">
        <ele>218.2</ele>
        <time>2014-06-14T13:38:58Z</time>
      </trkpt>
      <trkpt lat="45.69885" lon="4.95243">
        <ele>218.2</ele>
        <time>2014-06-14T13:39:00Z</time>
      </trkpt>
      <trkpt lat="45.69883" lon="4.95249">
        <ele>218.2</ele>
        <time>2014-06-14T13:39:05Z</time>
      </trkpt>
      <trkpt lat="45.69879" lon="4.95265">
        <ele>218.4</ele>
        <time>2014-06-14T13:39:10Z</time>
      </trkpt>
      <trkpt lat="45.69878" lon="4.95269">
        <ele>218.4</ele>
        <time>2014-06-14T13:39:11Z</time>
      </trkpt>
      <trkpt lat="45.69873" lon="4.9529">
        <ele>218.8</ele>
        <time>2014-06-14T13:39:17Z</time>
      </trkpt>
      <trkpt lat="45.69865" lon="4.95317">
        <ele>218.8</ele>
        <time>2014-06-14T13:39:25Z</time>
      </trkpt>
      <trkpt lat="45.69864" lon="4.95321">
        <ele>219</ele>
        <time>2014-06-14T13:39:26Z</time>
      </trkpt>
      <trkpt lat="45.69859" lon="4.95344">
        <ele>219</ele>
        <time>2014-06-14T13:39:32Z</time>
      </trkpt>
      <trkpt lat="45.69855" lon="4.95369">
        <ele>219.4</ele>
        <time>2014-06-14T13:39:39Z</time>
      </trkpt>
      <trkpt lat="45.69851" lon="4.95391">
        <ele>219.4</ele>
        <time>2014-06-14T13:39:45Z</time>
      </trkpt>
      <trkpt lat="45.69851" lon="4.95395">
        <ele>219.4</ele>
        <time>2014-06-14T13:39:46Z</time>
      </trkpt>
      <trkpt lat="45.69847" lon="4.95414">
        <ele>219.4</ele>
        <time>2014-06-14T13:39:51Z</time>
      </trkpt>
      <trkpt lat="45.69846" lon="4.95421">
        <ele>219.4</ele>
        <time>2014-06-14T13:39:53Z</time>
      </trkpt>
      <trkpt lat="45.69844" lon="4.95444">
        <ele>219.4</ele>
        <time>2014-06-14T13:39:59Z</time>
      </trkpt>
      <trkpt lat="45.69844" lon="4.95447">
        <ele>219.4</ele>
        <time>2014-06-14T13:40:00Z</time>
      </trkpt>
      <trkpt lat="45.69842" lon="4.95466">
        <ele>219.4</ele>
        <time>2014-06-14T13:40:05Z</time>
      </trkpt>
      <trkpt lat="45.69842" lon="4.95474">
        <ele>219.4</ele>
        <time>2014-06-14T13:40:07Z</time>
      </trkpt>
      <trkpt lat="45.69841" lon="4.95488">
        <ele>219.4</ele>
        <time>2014-06-14T13:40:11Z</time>
      </trkpt>
      <trkpt lat="45.69843" lon="4.955">
        <ele>219.4</ele>
        <time>2014-06-14T13:40:14Z</time>
      </trkpt>
      <trkpt lat="45.69843" lon="4.9551">
        <ele>219.6</ele>
        <time>2014-06-14T13:40:16Z</time>
      </trkpt>
      <trkpt lat="45.69843" lon="4.95529">
        <ele>219.4</ele>
        <time>2014-06-14T13:40:21Z</time>
      </trkpt>
      <trkpt lat="45.69843" lon="4.95532">
        <ele>219.4</ele>
        <time>2014-06-14T13:40:22Z</time>
      </trkpt>
      <trkpt lat="45.69843" lon="4.95555">
        <ele>219.4</ele>
        <time>2014-06-14T13:40:28Z</time>
      </trkpt>
      <trkpt lat="45.69842" lon="4.95578">
        <ele>219.4</ele>
        <time>2014-06-14T13:40:34Z</time>
      </trkpt>
      <trkpt lat="45.69841" lon="4.95583">
        <ele>219.4</ele>
        <time>2014-06-14T13:40:35Z</time>
      </trkpt>
      <trkpt lat="45.6984" lon="4.95604">
        <ele>219.2</ele>
        <time>2014-06-14T13:40:40Z</time>
      </trkpt>
      <trkpt lat="45.6984" lon="4.95612">
        <ele>219.4</ele>
        <time>2014-06-14T13:40:42Z</time>
      </trkpt>
      <trkpt lat="45.69837" lon="4.95628">
        <ele>219.6</ele>
        <time>2014-06-14T13:40:46Z</time>
      </trkpt>
      <trkpt lat="45.69833" lon="4.95638">
        <ele>219.6</ele>
        <time>2014-06-14T13:40:49Z</time>
      </trkpt>
      <trkpt lat="45.69828" lon="4.9565">
        <ele>219.8</ele>
        <time>2014-06-14T13:40:53Z</time>
      </trkpt>
      <trkpt lat="45.69822" lon="4.95658">
        <ele>219.8</ele>
        <time>2014-06-14T13:40:56Z</time>
      </trkpt>
      <trkpt lat="45.69818" lon="4.95662">
        <ele>220</ele>
        <time>2014-06-14T13:40:59Z</time>
      </trkpt>
      <trkpt lat="45.69818" lon="4.95663">
        <ele>220</ele>
        <time>2014-06-14T13:41:00Z</time>
      </trkpt>
      <trkpt lat="45.69814" lon="4.95669">
        <ele>220.2</ele>
        <time>2014-06-14T13:41:03Z</time>
      </trkpt>
      <trkpt lat="45.69812" lon="4.95671">
        <ele>220.2</ele>
        <time>2014-06-14T13:41:04Z</time>
      </trkpt>
      <trkpt lat="45.69807" lon="4.95676">
        <ele>220.2</ele>
        <time>2014-06-14T13:41:06Z</time>
      </trkpt>
      <trkpt lat="45.69798" lon="4.95683">
        <ele>220</ele>
        <time>2014-06-14T13:41:09Z</time>
      </trkpt>
      <trkpt lat="45.69788" lon="4.95688">
        <ele>220</ele>
        <time>2014-06-14T13:41:12Z</time>
      </trkpt>
      <trkpt lat="45.69773" lon="4.95693">
        <ele>220</ele>
        <time>2014-06-14T13:41:16Z</time>
      </trkpt>
      <trkpt lat="45.69769" lon="4.95694">
        <ele>220</ele>
        <time>2014-06-14T13:41:17Z</time>
      </trkpt>
      <trkpt lat="45.69758" lon="4.95698">
        <ele>220</ele>
        <time>2014-06-14T13:41:20Z</time>
      </trkpt>
      <trkpt lat="45.69755" lon="4.95703">
        <ele>220</ele>
        <time>2014-06-14T13:41:21Z</time>
      </trkpt>
      <trkpt lat="45.69752" lon="4.95707">
        <ele>220</ele>
        <time>2014-06-14T13:41:22Z</time>
      </trkpt>
      <trkpt lat="45.69744" lon="4.95711">
        <ele>220</ele>
        <time>2014-06-14T13:41:24Z</time>
      </trkpt>
      <trkpt lat="45.69735" lon="4.95713">
        <ele>220</ele>
        <time>2014-06-14T13:41:26Z</time>
      </trkpt>
      <trkpt lat="45.69732" lon="4.95714">
        <ele>219.8</ele>
        <time>2014-06-14T13:41:27Z</time>
      </trkpt>
      <trkpt lat="45.69728" lon="4.95715">
        <ele>219.8</ele>
        <time>2014-06-14T13:41:28Z</time>
      </trkpt>
      <trkpt lat="45.69725" lon="4.95715">
        <ele>219.8</ele>
        <time>2014-06-14T13:41:29Z</time>
      </trkpt>
      <trkpt lat="45.69712" lon="4.95715">
        <ele>219.8</ele>
        <time>2014-06-14T13:41:33Z</time>
      </trkpt>
      <trkpt lat="45.69707" lon="4.9572">
        <ele>219.8</ele>
        <time>2014-06-14T13:41:35Z</time>
      </trkpt>
      <trkpt lat="45.69704" lon="4.95738">
        <ele>219.6</ele>
        <time>2014-06-14T13:41:40Z</time>
      </trkpt>
      <trkpt lat="45.69704" lon="4.95742">
        <ele>219.6</ele>
        <time>2014-06-14T13:41:41Z</time>
      </trkpt>
      <trkpt lat="45.69701" lon="4.95765">
        <ele>219.8</ele>
        <time>2014-06-14T13:41:46Z</time>
      </trkpt>
      <trkpt lat="45.69701" lon="4.95775">
        <ele>219.8</ele>
        <time>2014-06-14T13:41:48Z</time>
      </trkpt>
      <trkpt lat="45.697" lon="4.95794">
        <ele>219.8</ele>
        <time>2014-06-14T13:41:52Z</time>
      </trkpt>
      <trkpt lat="45.697" lon="4.9581">
        <ele>220</ele>
        <time>2014-06-14T13:41:55Z</time>
      </trkpt>
      <trkpt lat="45.69699" lon="4.9582">
        <ele>220</ele>
        <time>2014-06-14T13:41:57Z</time>
      </trkpt>
      <trkpt lat="45.69698" lon="4.95851">
        <ele>220.2</ele>
        <time>2014-06-14T13:42:03Z</time>
      </trkpt>
      <trkpt lat="45.69697" lon="4.95861">
        <ele>220.4</ele>
        <time>2014-06-14T13:42:05Z</time>
      </trkpt>
      <trkpt lat="45.69695" lon="4.95881">
        <ele>220.6</ele>
        <time>2014-06-14T13:42:09Z</time>
      </trkpt>
      <trkpt lat="45.69694" lon="4.95904">
        <ele>220.8</ele>
        <time>2014-06-14T13:42:14Z</time>
      </trkpt>
      <trkpt lat="45.69694" lon="4.95909">
        <ele>221</ele>
        <time>2014-06-14T13:42:15Z</time>
      </trkpt>
      <trkpt lat="45.69691" lon="4.95937">
        <ele>221.6</ele>
        <time>2014-06-14T13:42:21Z</time>
      </trkpt>
      <trkpt lat="45.69692" lon="4.95956">
        <ele>222</ele>
        <time>2014-06-14T13:42:26Z</time>
      </trkpt>
      <trkpt lat="45.69692" lon="4.95964">
        <ele>222.4</ele>
        <time>2014-06-14T13:42:28Z</time>
      </trkpt>
      <trkpt lat="45.69689" lon="4.95983">
        <ele>223</ele>
        <time>2014-06-14T13:42:33Z</time>
      </trkpt>
      <trkpt lat="45.69687" lon="4.9599">
        <ele>223.4</ele>
        <time>2014-06-14T13:42:35Z</time>
      </trkpt>
      <trkpt lat="45.69685" lon="4.9601">
        <ele>224</ele>
        <time>2014-06-14T13:42:40Z</time>
      </trkpt>
      <trkpt lat="45.69685" lon="4.96019">
        <ele>224.4</ele>
        <time>2014-06-14T13:42:42Z</time>
      </trkpt>
      <trkpt lat="45.69684" lon="4.96043">
        <ele>225.4</ele>
        <time>2014-06-14T13:42:48Z</time>
      </trkpt>
      <trkpt lat="45.69684" lon="4.96046">
        <ele>225.6</ele>
        <time>2014-06-14T13:42:49Z</time>
      </trkpt>
      <trkpt lat="45.69683" lon="4.96067">
        <ele>226.4</ele>
        <time>2014-06-14T13:42:55Z</time>
      </trkpt>
      <trkpt lat="45.69682" lon="4.96075">
        <ele>226.8</ele>
        <time>2014-06-14T13:42:57Z</time>
      </trkpt>
      <trkpt lat="45.6968" lon="4.96095">
        <ele>227.8</ele>
        <time>2014-06-14T13:43:04Z</time>
      </trkpt>
      <trkpt lat="45.6968" lon="4.96101">
        <ele>228</ele>
        <time>2014-06-14T13:43:05Z</time>
      </trkpt>
      <trkpt lat="45.69678" lon="4.96116">
        <ele>228.6</ele>
        <time>2014-06-14T13:43:10Z</time>
      </trkpt>
      <trkpt lat="45.69678" lon="4.96126">
        <ele>229</ele>
        <time>2014-06-14T13:43:13Z</time>
      </trkpt>
      <trkpt lat="45.69677" lon="4.96141">
        <ele>229.6</ele>
        <time>2014-06-14T13:43:17Z</time>
      </trkpt>
      <trkpt lat="45.69678" lon="4.96152">
        <ele>229.8</ele>
        <time>2014-06-14T13:43:20Z</time>
      </trkpt>
      <trkpt lat="45.6968" lon="4.96174">
        <ele>230.4</ele>
        <time>2014-06-14T13:43:26Z</time>
      </trkpt>
      <trkpt lat="45.69682" lon="4.9618">
        <ele>230.6</ele>
        <time>2014-06-14T13:43:28Z</time>
      </trkpt>
      <trkpt lat="45.69683" lon="4.96184">
        <ele>230.8</ele>
        <time>2014-06-14T13:43:30Z</time>
      </trkpt>
      <trkpt lat="45.69682" lon="4.96184">
        <ele>231</ele>
        <time>2014-06-14T13:43:31Z</time>
      </trkpt>
      <trkpt lat="45.69683" lon="4.96185">
        <ele>231</ele>
        <time>2014-06-14T13:43:32Z</time>
      </trkpt>
      <trkpt lat="45.69685" lon="4.96193">
        <ele>231.4</ele>
        <time>2014-06-14T13:43:36Z</time>
      </trkpt>
      <trkpt lat="45.69685" lon="4.96197">
        <ele>231.6</ele>
        <time>2014-06-14T13:43:37Z</time>
      </trkpt>
      <trkpt lat="45.69687" lon="4.96204">
        <ele>231.8</ele>
        <time>2014-06-14T13:43:39Z</time>
      </trkpt>
      <trkpt lat="45.69689" lon="4.96216">
        <ele>232</ele>
        <time>2014-06-14T13:43:42Z</time>
      </trkpt>
      <trkpt lat="45.69693" lon="4.96231">
        <ele>232.6</ele>
        <time>2014-06-14T13:43:46Z</time>
      </trkpt>
      <trkpt lat="45.69694" lon="4.96238">
        <ele>232.8</ele>
        <time>2014-06-14T13:43:48Z</time>
      </trkpt>
      <trkpt lat="45.69697" lon="4.96257">
        <ele>233.6</ele>
        <time>2014-06-14T13:43:53Z</time>
      </trkpt>
      <trkpt lat="45.69702" lon="4.96278">
        <ele>234.2</ele>
        <time>2014-06-14T13:43:59Z</time>
      </trkpt>
      <trkpt lat="45.69704" lon="4.96282">
        <ele>234.2</ele>
        <time>2014-06-14T13:44:00Z</time>
      </trkpt>
      <trkpt lat="45.69714" lon="4.96298">
        <ele>235</ele>
        <time>2014-06-14T13:44:06Z</time>
      </trkpt>
      <trkpt lat="45.69716" lon="4.963">
        <ele>235</ele>
        <time>2014-06-14T13:44:07Z</time>
      </trkpt>
      <trkpt lat="45.69722" lon="4.96311">
        <ele>235.2</ele>
        <time>2014-06-14T13:44:11Z</time>
      </trkpt>
      <trkpt lat="45.69724" lon="4.96313">
        <ele>235.2</ele>
        <time>2014-06-14T13:44:12Z</time>
      </trkpt>
      <trkpt lat="45.69725" lon="4.96311">
        <ele>235.2</ele>
        <time>2014-06-14T13:44:14Z</time>
      </trkpt>
      <trkpt lat="45.69724" lon="4.96305">
        <ele>235</ele>
        <time>2014-06-14T13:44:18Z</time>
      </trkpt>
      <trkpt lat="45.69725" lon="4.96303">
        <ele>235</ele>
        <time>2014-06-14T13:44:19Z</time>
      </trkpt>
      <trkpt lat="45.69729" lon="4.963">
        <ele>235</ele>
        <time>2014-06-14T13:44:24Z</time>
      </trkpt>
      <trkpt lat="45.69732" lon="4.963">
        <ele>234.8</ele>
        <time>2014-06-14T13:44:25Z</time>
      </trkpt>
      <trkpt lat="45.69733" lon="4.963">
        <ele>234.8</ele>
        <time>2014-06-14T13:44:26Z</time>
      </trkpt>
      <trkpt lat="45.69736" lon="4.96297">
        <ele>234.8</ele>
        <time>2014-06-14T13:44:29Z</time>
      </trkpt>
      <trkpt lat="45.69739" lon="4.96294">
        <ele>234.6</ele>
        <time>2014-06-14T13:44:33Z</time>
      </trkpt>
      <trkpt lat="45.69742" lon="4.96291">
        <ele>233.8</ele>
        <time>2014-06-14T13:44:57Z</time>
      </trkpt>
      <trkpt lat="45.69749" lon="4.96293">
        <ele>233</ele>
        <time>2014-06-14T13:45:28Z</time>
      </trkpt>
      <trkpt lat="45.69754" lon="4.96295">
        <ele>233</ele>
        <time>2014-06-14T13:45:31Z</time>
      </trkpt>
      <trkpt lat="45.69756" lon="4.96296">
        <ele>232.8</ele>
        <time>2014-06-14T13:45:33Z</time>
      </trkpt>
      <trkpt lat="45.69762" lon="4.96296">
        <ele>232.6</ele>
        <time>2014-06-14T13:45:38Z</time>
      </trkpt>
      <trkpt lat="45.69763" lon="4.96295">
        <ele>232.6</ele>
        <time>2014-06-14T13:45:39Z</time>
      </trkpt>
      <trkpt lat="45.69766" lon="4.96293">
        <ele>232.6</ele>
        <time>2014-06-14T13:45:43Z</time>
      </trkpt>
      <trkpt lat="45.69767" lon="4.96292">
        <ele>232.4</ele>
        <time>2014-06-14T13:45:46Z</time>
      </trkpt>
      <trkpt lat="45.69767" lon="4.96293">
        <ele>232.2</ele>
        <time>2014-06-14T13:45:49Z</time>
      </trkpt>
      <trkpt lat="45.6977" lon="4.96289">
        <ele>232.8</ele>
        <time>2014-06-14T13:46:28Z</time>
      </trkpt>
      <trkpt lat="45.6977" lon="4.96291">
        <ele>233.2</ele>
        <time>2014-06-14T13:47:00Z</time>
      </trkpt>
      <trkpt lat="45.6977" lon="4.96294">
        <ele>233.2</ele>
        <time>2014-06-14T13:47:14Z</time>
      </trkpt>
      <trkpt lat="45.69771" lon="4.96292">
        <ele>234.6</ele>
        <time>2014-06-14T13:47:38Z</time>
      </trkpt>
      <trkpt lat="45.69769" lon="4.96295">
        <ele>235.2</ele>
        <time>2014-06-14T13:47:55Z</time>
      </trkpt>
      <trkpt lat="45.69769" lon="4.96294">
        <ele>235.4</ele>
        <time>2014-06-14T13:47:57Z</time>
      </trkpt>
      <trkpt lat="45.69769" lon="4.96293">
        <ele>235.4</ele>
        <time>2014-06-14T13:47:59Z</time>
      </trkpt>
      <trkpt lat="45.69769" lon="4.96293">
        <ele>235.8</ele>
        <time>2014-06-14T13:48:12Z</time>
      </trkpt>
      <trkpt lat="45.69769" lon="4.96294">
        <ele>236.2</ele>
        <time>2014-06-14T13:48:30Z</time>
      </trkpt>
      <trkpt lat="45.69771" lon="4.96293">
        <ele>236.4</ele>
        <time>2014-06-14T13:48:34Z</time>
      </trkpt>
      <trkpt lat="45.69772" lon="4.96292">
        <ele>237</ele>
        <time>2014-06-14T13:48:42Z</time>
      </trkpt>
      <trkpt lat="45.6977" lon="4.96294">
        <ele>237.2</ele>
        <time>2014-06-14T13:48:57Z</time>
      </trkpt>
      <trkpt lat="45.69768" lon="4.96296">
        <ele>237.2</ele>
        <time>2014-06-14T13:49:01Z</time>
      </trkpt>
      <trkpt lat="45.69765" lon="4.96298">
        <ele>237</ele>
        <time>2014-06-14T13:49:04Z</time>
      </trkpt>
      <trkpt lat="45.69753" lon="4.963">
        <ele>237</ele>
        <time>2014-06-14T13:49:06Z</time>
      </trkpt>
      <trkpt lat="45.69749" lon="4.96299">
        <ele>237</ele>
        <time>2014-06-14T13:49:07Z</time>
      </trkpt>
      <trkpt lat="45.69743" lon="4.96293">
        <ele>236.8</ele>
        <time>2014-06-14T13:49:10Z</time>
      </trkpt>
      <trkpt lat="45.69742" lon="4.96292">
        <ele>236.8</ele>
        <time>2014-06-14T13:49:11Z</time>
      </trkpt>
      <trkpt lat="45.69742" lon="4.96292">
        <ele>236.8</ele>
        <time>2014-06-14T13:49:12Z</time>
      </trkpt>
      <trkpt lat="45.69741" lon="4.96291">
        <ele>236.8</ele>
        <time>2014-06-14T13:49:15Z</time>
      </trkpt>
      <trkpt lat="45.69739" lon="4.96291">
        <ele>236.6</ele>
        <time>2014-06-14T13:49:17Z</time>
      </trkpt>
      <trkpt lat="45.69735" lon="4.96295">
        <ele>236.6</ele>
        <time>2014-06-14T13:49:20Z</time>
      </trkpt>
      <trkpt lat="45.6973" lon="4.96299">
        <ele>236.6</ele>
        <time>2014-06-14T13:49:25Z</time>
      </trkpt>
      <trkpt lat="45.69729" lon="4.96299">
        <ele>236.6</ele>
        <time>2014-06-14T13:49:26Z</time>
      </trkpt>
      <trkpt lat="45.69728" lon="4.963">
        <ele>236.6</ele>
        <time>2014-06-14T13:49:31Z</time>
      </trkpt>
      <trkpt lat="45.69725" lon="4.9631">
        <ele>236.8</ele>
        <time>2014-06-14T13:49:37Z</time>
      </trkpt>
      <trkpt lat="45.69724" lon="4.96311">
        <ele>236.8</ele>
        <time>2014-06-14T13:49:39Z</time>
      </trkpt>
      <trkpt lat="45.69723" lon="4.9631">
        <ele>236.8</ele>
        <time>2014-06-14T13:49:41Z</time>
      </trkpt>
      <trkpt lat="45.69724" lon="4.9631">
        <ele>236.8</ele>
        <time>2014-06-14T13:49:46Z</time>
      </trkpt>
      <trkpt lat="45.69724" lon="4.96311">
        <ele>236.8</ele>
        <time>2014-06-14T13:49:51Z</time>
      </trkpt>
      <trkpt lat="45.69721" lon="4.96314">
        <ele>237</ele>
        <time>2014-06-14T13:49:57Z</time>
      </trkpt>
      <trkpt lat="45.69715" lon="4.96313">
        <ele>237</ele>
        <time>2014-06-14T13:50:02Z</time>
      </trkpt>
      <trkpt lat="45.69711" lon="4.96315">
        <ele>237</ele>
        <time>2014-06-14T13:50:06Z</time>
      </trkpt>
      <trkpt lat="45.69707" lon="4.96317">
        <ele>237</ele>
        <time>2014-06-14T13:50:08Z</time>
      </trkpt>
      <trkpt lat="45.69698" lon="4.96322">
        <ele>237.2</ele>
        <time>2014-06-14T13:50:12Z</time>
      </trkpt>
      <trkpt lat="45.69693" lon="4.96324">
        <ele>237</ele>
        <time>2014-06-14T13:50:14Z</time>
      </trkpt>
      <trkpt lat="45.69689" lon="4.96326">
        <ele>237</ele>
        <time>2014-06-14T13:50:16Z</time>
      </trkpt>
      <trkpt lat="45.69674" lon="4.96334">
        <ele>237</ele>
        <time>2014-06-14T13:50:21Z</time>
      </trkpt>
      <trkpt lat="45.69672" lon="4.96336">
        <ele>237</ele>
        <time>2014-06-14T13:50:22Z</time>
      </trkpt>
      <trkpt lat="45.6966" lon="4.96344">
        <ele>237</ele>
        <time>2014-06-14T13:50:29Z</time>
      </trkpt>
      <trkpt lat="45.69656" lon="4.96346">
        <ele>237</ele>
        <time>2014-06-14T13:50:30Z</time>
      </trkpt>
      <trkpt lat="45.69644" lon="4.96354">
        <ele>237.2</ele>
        <time>2014-06-14T13:50:35Z</time>
      </trkpt>
      <trkpt lat="45.69638" lon="4.96356">
        <ele>237</ele>
        <time>2014-06-14T13:50:38Z</time>
      </trkpt>
      <trkpt lat="45.69632" lon="4.96361">
        <ele>237</ele>
        <time>2014-06-14T13:50:42Z</time>
      </trkpt>
      <trkpt lat="45.69617" lon="4.9637">
        <ele>237.6</ele>
        <time>2014-06-14T13:50:48Z</time>
      </trkpt>
      <trkpt lat="45.69604" lon="4.96374">
        <ele>237.4</ele>
        <time>2014-06-14T13:50:54Z</time>
      </trkpt>
      <trkpt lat="45.69601" lon="4.96376">
        <ele>237.4</ele>
        <time>2014-06-14T13:50:56Z</time>
      </trkpt>
      <trkpt lat="45.69585" lon="4.96387">
        <ele>237.8</ele>
        <time>2014-06-14T13:51:02Z</time>
      </trkpt>
      <trkpt lat="45.69577" lon="4.96394">
        <ele>239.4</ele>
        <time>2014-06-14T13:51:08Z</time>
      </trkpt>
      <trkpt lat="45.69567" lon="4.96396">
        <ele>240.4</ele>
        <time>2014-06-14T13:51:13Z</time>
      </trkpt>
      <trkpt lat="45.69563" lon="4.96398">
        <ele>241</ele>
        <time>2014-06-14T13:51:16Z</time>
      </trkpt>
      <trkpt lat="45.69555" lon="4.96403">
        <ele>241.4</ele>
        <time>2014-06-14T13:51:23Z</time>
      </trkpt>
      <trkpt lat="45.69549" lon="4.96405">
        <ele>241.6</ele>
        <time>2014-06-14T13:51:26Z</time>
      </trkpt>
      <trkpt lat="45.69544" lon="4.96406">
        <ele>242</ele>
        <time>2014-06-14T13:51:30Z</time>
      </trkpt>
      <trkpt lat="45.69537" lon="4.96408">
        <ele>242.6</ele>
        <time>2014-06-14T13:51:36Z</time>
      </trkpt>
      <trkpt lat="45.69531" lon="4.96411">
        <ele>243.4</ele>
        <time>2014-06-14T13:51:42Z</time>
      </trkpt>
      <trkpt lat="45.69531" lon="4.96411">
        <ele>243.6</ele>
        <time>2014-06-14T13:51:43Z</time>
      </trkpt>
      <trkpt lat="45.69526" lon="4.96415">
        <ele>244.4</ele>
        <time>2014-06-14T13:51:50Z</time>
      </trkpt>
      <trkpt lat="45.6952" lon="4.96417">
        <ele>244.4</ele>
        <time>2014-06-14T13:51:54Z</time>
      </trkpt>
      <trkpt lat="45.69518" lon="4.96418">
        <ele>244.6</ele>
        <time>2014-06-14T13:51:55Z</time>
      </trkpt>
      <trkpt lat="45.69514" lon="4.96418">
        <ele>244.8</ele>
        <time>2014-06-14T13:51:58Z</time>
      </trkpt>
      <trkpt lat="45.69512" lon="4.96418">
        <ele>245</ele>
        <time>2014-06-14T13:52:00Z</time>
      </trkpt>
      <trkpt lat="45.69511" lon="4.96416">
        <ele>245</ele>
        <time>2014-06-14T13:52:01Z</time>
      </trkpt>
      <trkpt lat="45.69507" lon="4.96411">
        <ele>245.4</ele>
        <time>2014-06-14T13:52:06Z</time>
      </trkpt>
      <trkpt lat="45.69511" lon="4.96415">
        <ele>245.4</ele>
        <time>2014-06-14T13:52:09Z</time>
      </trkpt>
      <trkpt lat="45.69515" lon="4.96416">
        <ele>245.6</ele>
        <time>2014-06-14T13:52:11Z</time>
      </trkpt>
      <trkpt lat="45.69519" lon="4.96415">
        <ele>245.6</ele>
        <time>2014-06-14T13:52:13Z</time>
      </trkpt>
      <trkpt lat="45.69524" lon="4.96412">
        <ele>245.4</ele>
        <time>2014-06-14T13:52:16Z</time>
      </trkpt>
      <trkpt lat="45.69526" lon="4.96411">
        <ele>245.4</ele>
        <time>2014-06-14T13:52:17Z</time>
      </trkpt>
      <trkpt lat="45.69531" lon="4.96405">
        <ele>245.2</ele>
        <time>2014-06-14T13:52:19Z</time>
      </trkpt>
      <trkpt lat="45.69532" lon="4.96395">
        <ele>244.8</ele>
        <time>2014-06-14T13:52:24Z</time>
      </trkpt>
      <trkpt lat="45.69531" lon="4.96385">
        <ele>244.4</ele>
        <time>2014-06-14T13:52:29Z</time>
      </trkpt>
      <trkpt lat="45.6953" lon="4.96378">
        <ele>244.2</ele>
        <time>2014-06-14T13:52:31Z</time>
      </trkpt>
      <trkpt lat="45.69527" lon="4.96369">
        <ele>244</ele>
        <time>2014-06-14T13:52:34Z</time>
      </trkpt>
      <trkpt lat="45.69525" lon="4.96361">
        <ele>243.8</ele>
        <time>2014-06-14T13:52:37Z</time>
      </trkpt>
      <trkpt lat="45.69524" lon="4.96354">
        <ele>243.6</ele>
        <time>2014-06-14T13:52:39Z</time>
      </trkpt>
      <trkpt lat="45.69523" lon="4.96352">
        <ele>243.4</ele>
        <time>2014-06-14T13:52:40Z</time>
      </trkpt>
      <trkpt lat="45.69519" lon="4.96341">
        <ele>243</ele>
        <time>2014-06-14T13:52:43Z</time>
      </trkpt>
      <trkpt lat="45.69518" lon="4.96338">
        <ele>243</ele>
        <time>2014-06-14T13:52:44Z</time>
      </trkpt>
      <trkpt lat="45.69513" lon="4.96327">
        <ele>242.6</ele>
        <time>2014-06-14T13:52:47Z</time>
      </trkpt>
      <trkpt lat="45.6951" lon="4.96319">
        <ele>242.2</ele>
        <time>2014-06-14T13:52:49Z</time>
      </trkpt>
      <trkpt lat="45.69505" lon="4.96304">
        <ele>241.2</ele>
        <time>2014-06-14T13:52:53Z</time>
      </trkpt>
      <trkpt lat="45.69504" lon="4.96299">
        <ele>241</ele>
        <time>2014-06-14T13:52:54Z</time>
      </trkpt>
      <trkpt lat="45.69498" lon="4.96277">
        <ele>239.6</ele>
        <time>2014-06-14T13:53:00Z</time>
      </trkpt>
      <trkpt lat="45.69497" lon="4.96275">
        <ele>239.4</ele>
        <time>2014-06-14T13:53:01Z</time>
      </trkpt>
      <trkpt lat="45.69494" lon="4.9625">
        <ele>238.2</ele>
        <time>2014-06-14T13:53:07Z</time>
      </trkpt>
      <trkpt lat="45.69492" lon="4.96237">
        <ele>237.6</ele>
        <time>2014-06-14T13:53:10Z</time>
      </trkpt>
      <trkpt lat="45.6949" lon="4.96234">
        <ele>237.4</ele>
        <time>2014-06-14T13:53:11Z</time>
      </trkpt>
      <trkpt lat="45.69488" lon="4.96225">
        <ele>237</ele>
        <time>2014-06-14T13:53:13Z</time>
      </trkpt>
      <trkpt lat="45.69489" lon="4.96215">
        <ele>236.8</ele>
        <time>2014-06-14T13:53:15Z</time>
      </trkpt>
      <trkpt lat="45.6949" lon="4.96195">
        <ele>236.4</ele>
        <time>2014-06-14T13:53:19Z</time>
      </trkpt>
      <trkpt lat="45.69489" lon="4.96186">
        <ele>236</ele>
        <time>2014-06-14T13:53:20Z</time>
      </trkpt>
      <trkpt lat="45.6949" lon="4.96168">
        <ele>235.8</ele>
        <time>2014-06-14T13:53:25Z</time>
      </trkpt>
      <trkpt lat="45.6949" lon="4.96154">
        <ele>235.6</ele>
        <time>2014-06-14T13:53:28Z</time>
      </trkpt>
      <trkpt lat="45.6949" lon="4.96142">
        <ele>235.4</ele>
        <time>2014-06-14T13:53:31Z</time>
      </trkpt>
      <trkpt lat="45.69489" lon="4.96121">
        <ele>235.2</ele>
        <time>2014-06-14T13:53:36Z</time>
      </trkpt>
      <trkpt lat="45.69489" lon="4.96116">
        <ele>235.2</ele>
        <time>2014-06-14T13:53:37Z</time>
      </trkpt>
      <trkpt lat="45.69488" lon="4.96093">
        <ele>235</ele>
        <time>2014-06-14T13:53:42Z</time>
      </trkpt>
      <trkpt lat="45.69487" lon="4.96089">
        <ele>235</ele>
        <time>2014-06-14T13:53:43Z</time>
      </trkpt>
      <trkpt lat="45.69486" lon="4.96073">
        <ele>234.8</ele>
        <time>2014-06-14T13:53:47Z</time>
      </trkpt>
      <trkpt lat="45.69487" lon="4.9606">
        <ele>234.6</ele>
        <time>2014-06-14T13:53:50Z</time>
      </trkpt>
      <trkpt lat="45.69487" lon="4.96053">
        <ele>234.6</ele>
        <time>2014-06-14T13:53:52Z</time>
      </trkpt>
      <trkpt lat="45.69488" lon="4.96042">
        <ele>234.4</ele>
        <time>2014-06-14T13:53:56Z</time>
      </trkpt>
      <trkpt lat="45.69486" lon="4.96032">
        <ele>234.2</ele>
        <time>2014-06-14T13:53:59Z</time>
      </trkpt>
      <trkpt lat="45.69485" lon="4.96024">
        <ele>234.2</ele>
        <time>2014-06-14T13:54:01Z</time>
      </trkpt>
      <trkpt lat="45.69482" lon="4.96005">
        <ele>234</ele>
        <time>2014-06-14T13:54:06Z</time>
      </trkpt>
      <trkpt lat="45.6948" lon="4.95985">
        <ele>233.6</ele>
        <time>2014-06-14T13:54:12Z</time>
      </trkpt>
      <trkpt lat="45.6948" lon="4.95977">
        <ele>233.6</ele>
        <time>2014-06-14T13:54:14Z</time>
      </trkpt>
      <trkpt lat="45.69482" lon="4.95969">
        <ele>233.6</ele>
        <time>2014-06-14T13:54:17Z</time>
      </trkpt>
      <trkpt lat="45.69486" lon="4.9596">
        <ele>233.4</ele>
        <time>2014-06-14T13:54:22Z</time>
      </trkpt>
      <trkpt lat="45.69487" lon="4.95955">
        <ele>233.2</ele>
        <time>2014-06-14T13:54:26Z</time>
      </trkpt>
      <trkpt lat="45.69488" lon="4.95955">
        <ele>233.2</ele>
        <time>2014-06-14T13:54:28Z</time>
      </trkpt>
      <trkpt lat="45.69491" lon="4.95959">
        <ele>233</ele>
        <time>2014-06-14T13:54:31Z</time>
      </trkpt>
      <trkpt lat="45.6949" lon="4.95958">
        <ele>233</ele>
        <time>2014-06-14T13:54:33Z</time>
      </trkpt>
      <trkpt lat="45.69485" lon="4.95951">
        <ele>232.8</ele>
        <time>2014-06-14T13:54:37Z</time>
      </trkpt>
      <trkpt lat="45.6948" lon="4.95943">
        <ele>232.6</ele>
        <time>2014-06-14T13:54:40Z</time>
      </trkpt>
      <trkpt lat="45.69477" lon="4.95936">
        <ele>232.6</ele>
        <time>2014-06-14T13:54:42Z</time>
      </trkpt>
      <trkpt lat="45.69475" lon="4.95923">
        <ele>232.2</ele>
        <time>2014-06-14T13:54:47Z</time>
      </trkpt>
      <trkpt lat="45.69474" lon="4.95923">
        <ele>232.2</ele>
        <time>2014-06-14T13:54:48Z</time>
      </trkpt>
      <trkpt lat="45.69471" lon="4.95927">
        <ele>232</ele>
        <time>2014-06-14T13:54:50Z</time>
      </trkpt>
      <trkpt lat="45.69457" lon="4.95933">
        <ele>231.8</ele>
        <time>2014-06-14T13:54:55Z</time>
      </trkpt>
      <trkpt lat="45.69454" lon="4.95933">
        <ele>231.8</ele>
        <time>2014-06-14T13:54:56Z</time>
      </trkpt>
      <trkpt lat="45.69436" lon="4.95935">
        <ele>231.4</ele>
        <time>2014-06-14T13:55:02Z</time>
      </trkpt>
      <trkpt lat="45.69422" lon="4.95934">
        <ele>231.2</ele>
        <time>2014-06-14T13:55:07Z</time>
      </trkpt>
      <trkpt lat="45.69417" lon="4.95932">
        <ele>231</ele>
        <time>2014-06-14T13:55:09Z</time>
      </trkpt>
      <trkpt lat="45.69408" lon="4.9593">
        <ele>231</ele>
        <time>2014-06-14T13:55:12Z</time>
      </trkpt>
      <trkpt lat="45.69397" lon="4.95928">
        <ele>230.8</ele>
        <time>2014-06-14T13:55:16Z</time>
      </trkpt>
      <trkpt lat="45.69392" lon="4.95926">
        <ele>230.8</ele>
        <time>2014-06-14T13:55:18Z</time>
      </trkpt>
      <trkpt lat="45.69379" lon="4.95919">
        <ele>230.6</ele>
        <time>2014-06-14T13:55:24Z</time>
      </trkpt>
      <trkpt lat="45.69378" lon="4.95917">
        <ele>230.6</ele>
        <time>2014-06-14T13:55:25Z</time>
      </trkpt>
      <trkpt lat="45.69378" lon="4.95912">
        <ele>230.4</ele>
        <time>2014-06-14T13:55:28Z</time>
      </trkpt>
      <trkpt lat="45.69382" lon="4.95905">
        <ele>230</ele>
        <time>2014-06-14T13:55:31Z</time>
      </trkpt>
      <trkpt lat="45.69383" lon="4.95902">
        <ele>230</ele>
        <time>2014-06-14T13:55:32Z</time>
      </trkpt>
      <trkpt lat="45.69384" lon="4.95897">
        <ele>229.8</ele>
        <time>2014-06-14T13:55:33Z</time>
      </trkpt>
      <trkpt lat="45.69386" lon="4.95883">
        <ele>229.4</ele>
        <time>2014-06-14T13:55:37Z</time>
      </trkpt>
      <trkpt lat="45.69385" lon="4.95871">
        <ele>229</ele>
        <time>2014-06-14T13:55:40Z</time>
      </trkpt>
      <trkpt lat="45.69383" lon="4.95856">
        <ele>228.6</ele>
        <time>2014-06-14T13:55:44Z</time>
      </trkpt>
      <trkpt lat="45.6938" lon="4.95843">
        <ele>228</ele>
        <time>2014-06-14T13:55:48Z</time>
      </trkpt>
      <trkpt lat="45.69376" lon="4.95821">
        <ele>227.4</ele>
        <time>2014-06-14T13:55:53Z</time>
      </trkpt>
      <trkpt lat="45.69375" lon="4.95816">
        <ele>227.2</ele>
        <time>2014-06-14T13:55:54Z</time>
      </trkpt>
      <trkpt lat="45.69376" lon="4.95805">
        <ele>227</ele>
        <time>2014-06-14T13:55:57Z</time>
      </trkpt>
      <trkpt lat="45.69377" lon="4.95803">
        <ele>226.8</ele>
        <time>2014-06-14T13:55:58Z</time>
      </trkpt>
      <trkpt lat="45.69382" lon="4.95801">
        <ele>226.6</ele>
        <time>2014-06-14T13:56:00Z</time>
      </trkpt>
      <trkpt lat="45.69385" lon="4.958">
        <ele>226.6</ele>
        <time>2014-06-14T13:56:01Z</time>
      </trkpt>
      <trkpt lat="45.69391" lon="4.95798">
        <ele>226.4</ele>
        <time>2014-06-14T13:56:03Z</time>
      </trkpt>
      <trkpt lat="45.69402" lon="4.95795">
        <ele>226.2</ele>
        <time>2014-06-14T13:56:07Z</time>
      </trkpt>
      <trkpt lat="45.69406" lon="4.95794">
        <ele>226</ele>
        <time>2014-06-14T13:56:08Z</time>
      </trkpt>
      <trkpt lat="45.69423" lon="4.95787">
        <ele>225.8</ele>
        <time>2014-06-14T13:56:14Z</time>
      </trkpt>
      <trkpt lat="45.69434" lon="4.95784">
        <ele>225.6</ele>
        <time>2014-06-14T13:56:19Z</time>
      </trkpt>
      <trkpt lat="45.69435" lon="4.95785">
        <ele>225.6</ele>
        <time>2014-06-14T13:56:20Z</time>
      </trkpt>
      <trkpt lat="45.69436" lon="4.9579">
        <ele>225.4</ele>
        <time>2014-06-14T13:56:23Z</time>
      </trkpt>
      <trkpt lat="45.69436" lon="4.95791">
        <ele>225.4</ele>
        <time>2014-06-14T13:56:24Z</time>
      </trkpt>
      <trkpt lat="45.69437" lon="4.95791">
        <ele>225.4</ele>
        <time>2014-06-14T13:56:27Z</time>
      </trkpt>
      <trkpt lat="45.69437" lon="4.95793">
        <ele>225.4</ele>
        <time>2014-06-14T13:56:33Z</time>
      </trkpt>
      <trkpt lat="45.69437" lon="4.95793">
        <ele>225.6</ele>
        <time>2014-06-14T13:56:40Z</time>
      </trkpt>
      <trkpt lat="45.69436" lon="4.95799">
        <ele>225.6</ele>
        <time>2014-06-14T13:56:44Z</time>
      </trkpt>
      <trkpt lat="45.69437" lon="4.95815">
        <ele>226</ele>
        <time>2014-06-14T13:56:51Z</time>
      </trkpt>
      <trkpt lat="45.69437" lon="4.9582">
        <ele>226.2</ele>
        <time>2014-06-14T13:56:53Z</time>
      </trkpt>
      <trkpt lat="45.69437" lon="4.95832">
        <ele>226.4</ele>
        <time>2014-06-14T13:56:56Z</time>
      </trkpt>
      <trkpt lat="45.69436" lon="4.95837">
        <ele>226.6</ele>
        <time>2014-06-14T13:56:58Z</time>
      </trkpt>
      <trkpt lat="45.69431" lon="4.95837">
        <ele>226.6</ele>
        <time>2014-06-14T13:57:00Z</time>
      </trkpt>
      <trkpt lat="45.69428" lon="4.95835">
        <ele>226.6</ele>
        <time>2014-06-14T13:57:01Z</time>
      </trkpt>
      <trkpt lat="45.69418" lon="4.9583">
        <ele>226.6</ele>
        <time>2014-06-14T13:57:05Z</time>
      </trkpt>
      <trkpt lat="45.69414" lon="4.95829">
        <ele>226.6</ele>
        <time>2014-06-14T13:57:09Z</time>
      </trkpt>
      <trkpt lat="45.69412" lon="4.95827">
        <ele>226.4</ele>
        <time>2014-06-14T13:57:11Z</time>
      </trkpt>
      <trkpt lat="45.69412" lon="4.95825">
        <ele>226.4</ele>
        <time>2014-06-14T13:57:17Z</time>
      </trkpt>
      <trkpt lat="45.69413" lon="4.95825">
        <ele>226.2</ele>
        <time>2014-06-14T13:57:24Z</time>
      </trkpt>
      <trkpt lat="45.69414" lon="4.95824">
        <ele>226</ele>
        <time>2014-06-14T13:57:30Z</time>
      </trkpt>
      <trkpt lat="45.69412" lon="4.95824">
        <ele>225.8</ele>
        <time>2014-06-14T13:57:34Z</time>
      </trkpt>
      <trkpt lat="45.69412" lon="4.95825">
        <ele>225.6</ele>
        <time>2014-06-14T13:57:42Z</time>
      </trkpt>
      <trkpt lat="45.69412" lon="4.95831">
        <ele>225.6</ele>
        <time>2014-06-14T13:57:46Z</time>
      </trkpt>
      <trkpt lat="45.69409" lon="4.95833">
        <ele>225.6</ele>
        <time>2014-06-14T13:57:51Z</time>
      </trkpt>
      <trkpt lat="45.69409" lon="4.95834">
        <ele>225.6</ele>
        <time>2014-06-14T13:57:55Z</time>
      </trkpt>
      <trkpt lat="45.6941" lon="4.95835">
        <ele>225.6</ele>
        <time>2014-06-14T13:57:58Z</time>
      </trkpt>
      <trkpt lat="45.6941" lon="4.95837">
        <ele>225.6</ele>
        <time>2014-06-14T13:57:59Z</time>
      </trkpt>
      <trkpt lat="45.6941" lon="4.9584">
        <ele>225.6</ele>
        <time>2014-06-14T13:58:00Z</time>
      </trkpt>
      <trkpt lat="45.69408" lon="4.95846">
        <ele>225.6</ele>
        <time>2014-06-14T13:58:03Z</time>
      </trkpt>
      <trkpt lat="45.69406" lon="4.9585">
        <ele>225.4</ele>
        <time>2014-06-14T13:58:06Z</time>
      </trkpt>
      <trkpt lat="45.69406" lon="4.95849">
        <ele>225.4</ele>
        <time>2014-06-14T13:58:07Z</time>
      </trkpt>
      <trkpt lat="45.69402" lon="4.95852">
        <ele>225.4</ele>
        <time>2014-06-14T13:58:15Z</time>
      </trkpt>
      <trkpt lat="45.69401" lon="4.95855">
        <ele>225.2</ele>
        <time>2014-06-14T13:58:19Z</time>
      </trkpt>
      <trkpt lat="45.694" lon="4.95851">
        <ele>225.2</ele>
        <time>2014-06-14T13:58:25Z</time>
      </trkpt>
      <trkpt lat="45.694" lon="4.95846">
        <ele>225</ele>
        <time>2014-06-14T13:58:28Z</time>
      </trkpt>
      <trkpt lat="45.694" lon="4.95844">
        <ele>225</ele>
        <time>2014-06-14T13:58:29Z</time>
      </trkpt>
      <trkpt lat="45.69402" lon="4.95841">
        <ele>224.8</ele>
        <time>2014-06-14T13:58:33Z</time>
      </trkpt>
      <trkpt lat="45.6941" lon="4.95837">
        <ele>224.6</ele>
        <time>2014-06-14T13:58:40Z</time>
      </trkpt>
      <trkpt lat="45.69409" lon="4.95837">
        <ele>224.6</ele>
        <time>2014-06-14T13:58:43Z</time>
      </trkpt>
      <trkpt lat="45.69408" lon="4.95838">
        <ele>224.6</ele>
        <time>2014-06-14T13:58:44Z</time>
      </trkpt>
      <trkpt lat="45.69408" lon="4.95839">
        <ele>224.4</ele>
        <time>2014-06-14T13:58:51Z</time>
      </trkpt>
      <trkpt lat="45.69409" lon="4.95834">
        <ele>224</ele>
        <time>2014-06-14T13:59:10Z</time>
      </trkpt>
      <trkpt lat="45.6941" lon="4.95833">
        <ele>224</ele>
        <time>2014-06-14T13:59:11Z</time>
      </trkpt>
      <trkpt lat="45.69416" lon="4.95828">
        <ele>223.8</ele>
        <time>2014-06-14T13:59:15Z</time>
      </trkpt>
      <trkpt lat="45.69416" lon="4.95829">
        <ele>223.8</ele>
        <time>2014-06-14T13:59:16Z</time>
      </trkpt>
      <trkpt lat="45.69414" lon="4.95832">
        <ele>223.8</ele>
        <time>2014-06-14T13:59:19Z</time>
      </trkpt>
      <trkpt lat="45.69415" lon="4.95832">
        <ele>223.6</ele>
        <time>2014-06-14T13:59:24Z</time>
      </trkpt>
      <trkpt lat="45.69415" lon="4.9583">
        <ele>223.6</ele>
        <time>2014-06-14T13:59:25Z</time>
      </trkpt>
      <trkpt lat="45.69417" lon="4.95828">
        <ele>223.6</ele>
        <time>2014-06-14T13:59:26Z</time>
      </trkpt>
      <trkpt lat="45.69422" lon="4.95828">
        <ele>223.6</ele>
        <time>2014-06-14T13:59:28Z</time>
      </trkpt>
      <trkpt lat="45.69428" lon="4.95832">
        <ele>223.4</ele>
        <time>2014-06-14T13:59:30Z</time>
      </trkpt>
      <trkpt lat="45.69432" lon="4.95833">
        <ele>223.4</ele>
        <time>2014-06-14T13:59:31Z</time>
      </trkpt>
      <trkpt lat="45.69434" lon="4.9583">
        <ele>223.4</ele>
        <time>2014-06-14T13:59:32Z</time>
      </trkpt>
      <trkpt lat="45.69437" lon="4.95814">
        <ele>223.4</ele>
        <time>2014-06-14T13:59:35Z</time>
      </trkpt>
      <trkpt lat="45.69436" lon="4.95806">
        <ele>223.4</ele>
        <time>2014-06-14T13:59:37Z</time>
      </trkpt>
      <trkpt lat="45.69438" lon="4.95794">
        <ele>223.4</ele>
        <time>2014-06-14T13:59:40Z</time>
      </trkpt>
      <trkpt lat="45.69438" lon="4.95787">
        <ele>223.4</ele>
        <time>2014-06-14T13:59:43Z</time>
      </trkpt>
      <trkpt lat="45.69438" lon="4.95788">
        <ele>223.4</ele>
        <time>2014-06-14T13:59:45Z</time>
      </trkpt>
      <trkpt lat="45.69437" lon="4.95791">
        <ele>223.4</ele>
        <time>2014-06-14T13:59:49Z</time>
      </trkpt>
      <trkpt lat="45.69437" lon="4.95791">
        <ele>223.2</ele>
        <time>2014-06-14T13:59:50Z</time>
      </trkpt>
      <trkpt lat="45.69437" lon="4.95793">
        <ele>223.2</ele>
        <time>2014-06-14T13:59:56Z</time>
      </trkpt>
      <trkpt lat="45.69438" lon="4.95792">
        <ele>223.6</ele>
        <time>2014-06-14T14:00:11Z</time>
      </trkpt>
      <trkpt lat="45.69438" lon="4.9579">
        <ele>223.6</ele>
        <time>2014-06-14T14:00:17Z</time>
      </trkpt>
      <trkpt lat="45.69438" lon="4.95784">
        <ele>223.8</ele>
        <time>2014-06-14T14:00:21Z</time>
      </trkpt>
      <trkpt lat="45.69437" lon="4.95782">
        <ele>223.8</ele>
        <time>2014-06-14T14:00:23Z</time>
      </trkpt>
      <trkpt lat="45.69437" lon="4.95782">
        <ele>224.2</ele>
        <time>2014-06-14T14:00:30Z</time>
      </trkpt>
      <trkpt lat="45.69437" lon="4.95774">
        <ele>224.4</ele>
        <time>2014-06-14T14:00:36Z</time>
      </trkpt>
      <trkpt lat="45.69439" lon="4.95758">
        <ele>224.6</ele>
        <time>2014-06-14T14:00:44Z</time>
      </trkpt>
      <trkpt lat="45.69441" lon="4.95748">
        <ele>225</ele>
        <time>2014-06-14T14:00:49Z</time>
      </trkpt>
      <trkpt lat="45.69441" lon="4.95744">
        <ele>225.2</ele>
        <time>2014-06-14T14:00:52Z</time>
      </trkpt>
      <trkpt lat="45.69441" lon="4.95742">
        <ele>225.8</ele>
        <time>2014-06-14T14:00:59Z</time>
      </trkpt>
      <trkpt lat="45.69439" lon="4.9574">
        <ele>226.4</ele>
        <time>2014-06-14T14:01:04Z</time>
      </trkpt>
      <trkpt lat="45.69435" lon="4.95744">
        <ele>226.6</ele>
        <time>2014-06-14T14:01:08Z</time>
      </trkpt>
      <trkpt lat="45.69428" lon="4.95745">
        <ele>226.8</ele>
        <time>2014-06-14T14:01:10Z</time>
      </trkpt>
      <trkpt lat="45.69418" lon="4.95747">
        <ele>227.2</ele>
        <time>2014-06-14T14:01:13Z</time>
      </trkpt>
      <trkpt lat="45.69408" lon="4.9575">
        <ele>227.2</ele>
        <time>2014-06-14T14:01:16Z</time>
      </trkpt>
      <trkpt lat="45.69404" lon="4.9575">
        <ele>227.2</ele>
        <time>2014-06-14T14:01:17Z</time>
      </trkpt>
      <trkpt lat="45.69388" lon="4.95751">
        <ele>227.6</ele>
        <time>2014-06-14T14:01:22Z</time>
      </trkpt>
      <trkpt lat="45.69382" lon="4.95752">
        <ele>227.4</ele>
        <time>2014-06-14T14:01:24Z</time>
      </trkpt>
      <trkpt lat="45.6937" lon="4.95753">
        <ele>227.4</ele>
        <time>2014-06-14T14:01:28Z</time>
      </trkpt>
      <trkpt lat="45.69359" lon="4.95748">
        <ele>227.4</ele>
        <time>2014-06-14T14:01:32Z</time>
      </trkpt>
      <trkpt lat="45.69351" lon="4.95743">
        <ele>227.2</ele>
        <time>2014-06-14T14:01:35Z</time>
      </trkpt>
      <trkpt lat="45.69345" lon="4.95741">
        <ele>227.2</ele>
        <time>2014-06-14T14:01:37Z</time>
      </trkpt>
      <trkpt lat="45.69333" lon="4.9574">
        <ele>227.2</ele>
        <time>2014-06-14T14:01:41Z</time>
      </trkpt>
      <trkpt lat="45.6933" lon="4.9574">
        <ele>227.2</ele>
        <time>2014-06-14T14:01:42Z</time>
      </trkpt>
      <trkpt lat="45.69315" lon="4.9574">
        <ele>227.2</ele>
        <time>2014-06-14T14:01:47Z</time>
      </trkpt>
      <trkpt lat="45.693" lon="4.95743">
        <ele>227.2</ele>
        <time>2014-06-14T14:01:52Z</time>
      </trkpt>
      <trkpt lat="45.69297" lon="4.95743">
        <ele>227.2</ele>
        <time>2014-06-14T14:01:53Z</time>
      </trkpt>
      <trkpt lat="45.69281" lon="4.95746">
        <ele>227.2</ele>
        <time>2014-06-14T14:01:58Z</time>
      </trkpt>
      <trkpt lat="45.69279" lon="4.95746">
        <ele>227.2</ele>
        <time>2014-06-14T14:01:59Z</time>
      </trkpt>
      <trkpt lat="45.69271" lon="4.95744">
        <ele>227</ele>
        <time>2014-06-14T14:02:03Z</time>
      </trkpt>
      <trkpt lat="45.69266" lon="4.9574">
        <ele>227</ele>
        <time>2014-06-14T14:02:08Z</time>
      </trkpt>
      <trkpt lat="45.69263" lon="4.95735">
        <ele>227</ele>
        <time>2014-06-14T14:02:10Z</time>
      </trkpt>
      <trkpt lat="45.69262" lon="4.95722">
        <ele>227</ele>
        <time>2014-06-14T14:02:13Z</time>
      </trkpt>
      <trkpt lat="45.69262" lon="4.95707">
        <ele>226.8</ele>
        <time>2014-06-14T14:02:16Z</time>
      </trkpt>
      <trkpt lat="45.69262" lon="4.95698">
        <ele>226.6</ele>
        <time>2014-06-14T14:02:18Z</time>
      </trkpt>
      <trkpt lat="45.69262" lon="4.95679">
        <ele>226.6</ele>
        <time>2014-06-14T14:02:21Z</time>
      </trkpt>
      <trkpt lat="45.69262" lon="4.95671">
        <ele>226.6</ele>
        <time>2014-06-14T14:02:22Z</time>
      </trkpt>
      <trkpt lat="45.69263" lon="4.9565">
        <ele>226.6</ele>
        <time>2014-06-14T14:02:25Z</time>
      </trkpt>
      <trkpt lat="45.69264" lon="4.95636">
        <ele>226.4</ele>
        <time>2014-06-14T14:02:27Z</time>
      </trkpt>
      <trkpt lat="45.69266" lon="4.95623">
        <ele>226.4</ele>
        <time>2014-06-14T14:02:29Z</time>
      </trkpt>
      <trkpt lat="45.6927" lon="4.95606">
        <ele>226.2</ele>
        <time>2014-06-14T14:02:32Z</time>
      </trkpt>
      <trkpt lat="45.69271" lon="4.95588">
        <ele>226.2</ele>
        <time>2014-06-14T14:02:34Z</time>
      </trkpt>
      <trkpt lat="45.69273" lon="4.95573">
        <ele>226.2</ele>
        <time>2014-06-14T14:02:36Z</time>
      </trkpt>
      <trkpt lat="45.69273" lon="4.95562">
        <ele>226</ele>
        <time>2014-06-14T14:02:38Z</time>
      </trkpt>
      <trkpt lat="45.69273" lon="4.95556">
        <ele>226</ele>
        <time>2014-06-14T14:02:39Z</time>
      </trkpt>
      <trkpt lat="45.69273" lon="4.9553">
        <ele>226</ele>
        <time>2014-06-14T14:02:43Z</time>
      </trkpt>
      <trkpt lat="45.69274" lon="4.95525">
        <ele>226</ele>
        <time>2014-06-14T14:02:44Z</time>
      </trkpt>
      <trkpt lat="45.69275" lon="4.95503">
        <ele>225.8</ele>
        <time>2014-06-14T14:02:48Z</time>
      </trkpt>
      <trkpt lat="45.69276" lon="4.95472">
        <ele>225.8</ele>
        <time>2014-06-14T14:02:53Z</time>
      </trkpt>
      <trkpt lat="45.69276" lon="4.95461">
        <ele>225.8</ele>
        <time>2014-06-14T14:02:55Z</time>
      </trkpt>
      <trkpt lat="45.69278" lon="4.95446">
        <ele>225.8</ele>
        <time>2014-06-14T14:02:58Z</time>
      </trkpt>
      <trkpt lat="45.69279" lon="4.95416">
        <ele>225.6</ele>
        <time>2014-06-14T14:03:03Z</time>
      </trkpt>
      <trkpt lat="45.6928" lon="4.95403">
        <ele>225.6</ele>
        <time>2014-06-14T14:03:05Z</time>
      </trkpt>
      <trkpt lat="45.6928" lon="4.95389">
        <ele>225.6</ele>
        <time>2014-06-14T14:03:07Z</time>
      </trkpt>
      <trkpt lat="45.69282" lon="4.95363">
        <ele>225.6</ele>
        <time>2014-06-14T14:03:11Z</time>
      </trkpt>
      <trkpt lat="45.69281" lon="4.95356">
        <ele>225.6</ele>
        <time>2014-06-14T14:03:12Z</time>
      </trkpt>
      <trkpt lat="45.69282" lon="4.95337">
        <ele>225.4</ele>
        <time>2014-06-14T14:03:15Z</time>
      </trkpt>
      <trkpt lat="45.69283" lon="4.95324">
        <ele>225.4</ele>
        <time>2014-06-14T14:03:17Z</time>
      </trkpt>
      <trkpt lat="45.69286" lon="4.95311">
        <ele>225.4</ele>
        <time>2014-06-14T14:03:19Z</time>
      </trkpt>
      <trkpt lat="45.69288" lon="4.95304">
        <ele>225.4</ele>
        <time>2014-06-14T14:03:20Z</time>
      </trkpt>
      <trkpt lat="45.69292" lon="4.95291">
        <ele>225.4</ele>
        <time>2014-06-14T14:03:22Z</time>
      </trkpt>
      <trkpt lat="45.69294" lon="4.95285">
        <ele>225.4</ele>
        <time>2014-06-14T14:03:23Z</time>
      </trkpt>
      <trkpt lat="45.69301" lon="4.9526">
        <ele>225.6</ele>
        <time>2014-06-14T14:03:27Z</time>
      </trkpt>
      <trkpt lat="45.69304" lon="4.95248">
        <ele>225.6</ele>
        <time>2014-06-14T14:03:29Z</time>
      </trkpt>
      <trkpt lat="45.69307" lon="4.9523">
        <ele>225.8</ele>
        <time>2014-06-14T14:03:32Z</time>
      </trkpt>
      <trkpt lat="45.6931" lon="4.95212">
        <ele>226</ele>
        <time>2014-06-14T14:03:35Z</time>
      </trkpt>
      <trkpt lat="45.69312" lon="4.952">
        <ele>226.2</ele>
        <time>2014-06-14T14:03:37Z</time>
      </trkpt>
      <trkpt lat="45.69316" lon="4.95177">
        <ele>226.4</ele>
        <time>2014-06-14T14:03:41Z</time>
      </trkpt>
      <trkpt lat="45.69316" lon="4.95172">
        <ele>226.4</ele>
        <time>2014-06-14T14:03:42Z</time>
      </trkpt>
      <trkpt lat="45.69317" lon="4.95166">
        <ele>226.4</ele>
        <time>2014-06-14T14:03:43Z</time>
      </trkpt>
      <trkpt lat="45.6932" lon="4.95143">
        <ele>226.4</ele>
        <time>2014-06-14T14:03:48Z</time>
      </trkpt>
      <trkpt lat="45.6932" lon="4.95139">
        <ele>226.4</ele>
        <time>2014-06-14T14:03:49Z</time>
      </trkpt>
      <trkpt lat="45.69321" lon="4.95133">
        <ele>226.4</ele>
        <time>2014-06-14T14:03:52Z</time>
      </trkpt>
      <trkpt lat="45.6932" lon="4.95132">
        <ele>226.4</ele>
        <time>2014-06-14T14:03:53Z</time>
      </trkpt>
      <trkpt lat="45.69319" lon="4.95114">
        <ele>227</ele>
        <time>2014-06-14T14:03:58Z</time>
      </trkpt>
      <trkpt lat="45.6932" lon="4.95109">
        <ele>227</ele>
        <time>2014-06-14T14:03:59Z</time>
      </trkpt>
      <trkpt lat="45.69321" lon="4.95086">
        <ele>227.4</ele>
        <time>2014-06-14T14:04:04Z</time>
      </trkpt>
      <trkpt lat="45.69322" lon="4.9506">
        <ele>228.6</ele>
        <time>2014-06-14T14:04:10Z</time>
      </trkpt>
      <trkpt lat="45.69322" lon="4.95056">
        <ele>228.6</ele>
        <time>2014-06-14T14:04:11Z</time>
      </trkpt>
      <trkpt lat="45.69328" lon="4.95036">
        <ele>228.8</ele>
        <time>2014-06-14T14:04:16Z</time>
      </trkpt>
      <trkpt lat="45.69329" lon="4.95032">
        <ele>228.8</ele>
        <time>2014-06-14T14:04:17Z</time>
      </trkpt>
      <trkpt lat="45.69338" lon="4.95011">
        <ele>229.4</ele>
        <time>2014-06-14T14:04:23Z</time>
      </trkpt>
      <trkpt lat="45.6934" lon="4.95008">
        <ele>229.4</ele>
        <time>2014-06-14T14:04:24Z</time>
      </trkpt>
      <trkpt lat="45.69353" lon="4.94992">
        <ele>230</ele>
        <time>2014-06-14T14:04:30Z</time>
      </trkpt>
      <trkpt lat="45.69355" lon="4.94989">
        <ele>230</ele>
        <time>2014-06-14T14:04:31Z</time>
      </trkpt>
      <trkpt lat="45.69367" lon="4.94975">
        <ele>230.4</ele>
        <time>2014-06-14T14:04:36Z</time>
      </trkpt>
      <trkpt lat="45.69369" lon="4.94973">
        <ele>230.6</ele>
        <time>2014-06-14T14:04:37Z</time>
      </trkpt>
      <trkpt lat="45.69381" lon="4.9496">
        <ele>230.8</ele>
        <time>2014-06-14T14:04:42Z</time>
      </trkpt>
      <trkpt lat="45.69383" lon="4.94957">
        <ele>231</ele>
        <time>2014-06-14T14:04:43Z</time>
      </trkpt>
      <trkpt lat="45.69399" lon="4.9494">
        <ele>231.6</ele>
        <time>2014-06-14T14:04:50Z</time>
      </trkpt>
      <trkpt lat="45.69415" lon="4.94926">
        <ele>232.2</ele>
        <time>2014-06-14T14:04:57Z</time>
      </trkpt>
      <trkpt lat="45.69417" lon="4.94924">
        <ele>232.2</ele>
        <time>2014-06-14T14:04:58Z</time>
      </trkpt>
      <trkpt lat="45.69432" lon="4.94913">
        <ele>232.6</ele>
        <time>2014-06-14T14:05:04Z</time>
      </trkpt>
      <trkpt lat="45.69442" lon="4.94898">
        <ele>232.6</ele>
        <time>2014-06-14T14:05:09Z</time>
      </trkpt>
      <trkpt lat="45.69445" lon="4.94892">
        <ele>232.6</ele>
        <time>2014-06-14T14:05:11Z</time>
      </trkpt>
      <trkpt lat="45.69449" lon="4.9488">
        <ele>232.4</ele>
        <time>2014-06-14T14:05:14Z</time>
      </trkpt>
      <trkpt lat="45.69454" lon="4.94866">
        <ele>232.4</ele>
        <time>2014-06-14T14:05:18Z</time>
      </trkpt>
      <trkpt lat="45.69457" lon="4.94858">
        <ele>232.2</ele>
        <time>2014-06-14T14:05:20Z</time>
      </trkpt>
      <trkpt lat="45.69463" lon="4.94841">
        <ele>232</ele>
        <time>2014-06-14T14:05:25Z</time>
      </trkpt>
      <trkpt lat="45.69465" lon="4.94838">
        <ele>232</ele>
        <time>2014-06-14T14:05:26Z</time>
      </trkpt>
      <trkpt lat="45.69473" lon="4.94818">
        <ele>231.8</ele>
        <time>2014-06-14T14:05:32Z</time>
      </trkpt>
      <trkpt lat="45.69474" lon="4.94815">
        <ele>231.6</ele>
        <time>2014-06-14T14:05:33Z</time>
      </trkpt>
      <trkpt lat="45.69483" lon="4.94795">
        <ele>231.4</ele>
        <time>2014-06-14T14:05:39Z</time>
      </trkpt>
      <trkpt lat="45.69484" lon="4.94792">
        <ele>231.4</ele>
        <time>2014-06-14T14:05:40Z</time>
      </trkpt>
      <trkpt lat="45.69493" lon="4.94771">
        <ele>231.2</ele>
        <time>2014-06-14T14:05:46Z</time>
      </trkpt>
      <trkpt lat="45.69494" lon="4.94768">
        <ele>231.2</ele>
        <time>2014-06-14T14:05:47Z</time>
      </trkpt>
      <trkpt lat="45.69502" lon="4.94747">
        <ele>231.2</ele>
        <time>2014-06-14T14:05:53Z</time>
      </trkpt>
      <trkpt lat="45.69507" lon="4.94734">
        <ele>231</ele>
        <time>2014-06-14T14:05:58Z</time>
      </trkpt>
      <trkpt lat="45.69509" lon="4.94726">
        <ele>230.6</ele>
        <time>2014-06-14T14:06:03Z</time>
      </trkpt>
      <trkpt lat="45.69509" lon="4.94722">
        <ele>230.6</ele>
        <time>2014-06-14T14:06:04Z</time>
      </trkpt>
      <trkpt lat="45.69512" lon="4.94698">
        <ele>230.4</ele>
        <time>2014-06-14T14:06:09Z</time>
      </trkpt>
      <trkpt lat="45.69514" lon="4.94693">
        <ele>230.4</ele>
        <time>2014-06-14T14:06:10Z</time>
      </trkpt>
      <trkpt lat="45.69524" lon="4.94668">
        <ele>230.2</ele>
        <time>2014-06-14T14:06:15Z</time>
      </trkpt>
      <trkpt lat="45.69534" lon="4.94639">
        <ele>230</ele>
        <time>2014-06-14T14:06:20Z</time>
      </trkpt>
      <trkpt lat="45.6954" lon="4.94621">
        <ele>229.8</ele>
        <time>2014-06-14T14:06:23Z</time>
      </trkpt>
      <trkpt lat="45.69543" lon="4.94616">
        <ele>229.8</ele>
        <time>2014-06-14T14:06:24Z</time>
      </trkpt>
      <trkpt lat="45.69546" lon="4.94605">
        <ele>229.6</ele>
        <time>2014-06-14T14:06:26Z</time>
      </trkpt>
      <trkpt lat="45.69549" lon="4.94593">
        <ele>229.4</ele>
        <time>2014-06-14T14:06:28Z</time>
      </trkpt>
      <trkpt lat="45.6955" lon="4.94587">
        <ele>229.4</ele>
        <time>2014-06-14T14:06:29Z</time>
      </trkpt>
      <trkpt lat="45.69551" lon="4.94581">
        <ele>229.4</ele>
        <time>2014-06-14T14:06:30Z</time>
      </trkpt>
      <trkpt lat="45.69548" lon="4.94572">
        <ele>229.2</ele>
        <time>2014-06-14T14:06:32Z</time>
      </trkpt>
      <trkpt lat="45.69542" lon="4.9457">
        <ele>229.2</ele>
        <time>2014-06-14T14:06:34Z</time>
      </trkpt>
      <trkpt lat="45.69538" lon="4.94567">
        <ele>229.2</ele>
        <time>2014-06-14T14:06:35Z</time>
      </trkpt>
      <trkpt lat="45.69533" lon="4.94564">
        <ele>229</ele>
        <time>2014-06-14T14:06:36Z</time>
      </trkpt>
      <trkpt lat="45.69525" lon="4.94551">
        <ele>228.8</ele>
        <time>2014-06-14T14:06:39Z</time>
      </trkpt>
      <trkpt lat="45.69524" lon="4.94545">
        <ele>228.6</ele>
        <time>2014-06-14T14:06:40Z</time>
      </trkpt>
      <trkpt lat="45.69525" lon="4.94532">
        <ele>228.4</ele>
        <time>2014-06-14T14:06:42Z</time>
      </trkpt>
      <trkpt lat="45.69526" lon="4.94525">
        <ele>228.4</ele>
        <time>2014-06-14T14:06:43Z</time>
      </trkpt>
      <trkpt lat="45.69527" lon="4.94518">
        <ele>228.2</ele>
        <time>2014-06-14T14:06:44Z</time>
      </trkpt>
      <trkpt lat="45.69529" lon="4.94496">
        <ele>227.8</ele>
        <time>2014-06-14T14:06:47Z</time>
      </trkpt>
      <trkpt lat="45.69532" lon="4.94464">
        <ele>227.2</ele>
        <time>2014-06-14T14:06:51Z</time>
      </trkpt>
      <trkpt lat="45.69533" lon="4.94455">
        <ele>227.2</ele>
        <time>2014-06-14T14:06:52Z</time>
      </trkpt>
      <trkpt lat="45.69535" lon="4.94436">
        <ele>226.8</ele>
        <time>2014-06-14T14:06:54Z</time>
      </trkpt>
      <trkpt lat="45.69539" lon="4.94407">
        <ele>226.4</ele>
        <time>2014-06-14T14:06:57Z</time>
      </trkpt>
      <trkpt lat="45.69544" lon="4.94379">
        <ele>225.8</ele>
        <time>2014-06-14T14:07:00Z</time>
      </trkpt>
      <trkpt lat="45.69545" lon="4.9436">
        <ele>225.6</ele>
        <time>2014-06-14T14:07:02Z</time>
      </trkpt>
      <trkpt lat="45.69545" lon="4.9435">
        <ele>225.4</ele>
        <time>2014-06-14T14:07:03Z</time>
      </trkpt>
      <trkpt lat="45.69547" lon="4.9432">
        <ele>225</ele>
        <time>2014-06-14T14:07:06Z</time>
      </trkpt>
      <trkpt lat="45.69548" lon="4.9431">
        <ele>224.8</ele>
        <time>2014-06-14T14:07:07Z</time>
      </trkpt>
      <trkpt lat="45.69549" lon="4.943">
        <ele>224.6</ele>
        <time>2014-06-14T14:07:08Z</time>
      </trkpt>
      <trkpt lat="45.6955" lon="4.94292">
        <ele>224.4</ele>
        <time>2014-06-14T14:07:09Z</time>
      </trkpt>
      <trkpt lat="45.69551" lon="4.94267">
        <ele>223.6</ele>
        <time>2014-06-14T14:07:12Z</time>
      </trkpt>
      <trkpt lat="45.69551" lon="4.94261">
        <ele>223.4</ele>
        <time>2014-06-14T14:07:13Z</time>
      </trkpt>
      <trkpt lat="45.69551" lon="4.94248">
        <ele>223</ele>
        <time>2014-06-14T14:07:15Z</time>
      </trkpt>
      <trkpt lat="45.69551" lon="4.94235">
        <ele>222.6</ele>
        <time>2014-06-14T14:07:17Z</time>
      </trkpt>
      <trkpt lat="45.69551" lon="4.94228">
        <ele>222.4</ele>
        <time>2014-06-14T14:07:18Z</time>
      </trkpt>
      <trkpt lat="45.6955" lon="4.9421">
        <ele>221.8</ele>
        <time>2014-06-14T14:07:21Z</time>
      </trkpt>
      <trkpt lat="45.6955" lon="4.94205">
        <ele>221.6</ele>
        <time>2014-06-14T14:07:22Z</time>
      </trkpt>
      <trkpt lat="45.6955" lon="4.94199">
        <ele>221.6</ele>
        <time>2014-06-14T14:07:23Z</time>
      </trkpt>
      <trkpt lat="45.69549" lon="4.9417">
        <ele>220.6</ele>
        <time>2014-06-14T14:07:29Z</time>
      </trkpt>
      <trkpt lat="45.69543" lon="4.94149">
        <ele>219.6</ele>
        <time>2014-06-14T14:07:34Z</time>
      </trkpt>
      <trkpt lat="45.6954" lon="4.94147">
        <ele>219.4</ele>
        <time>2014-06-14T14:07:35Z</time>
      </trkpt>
      <trkpt lat="45.69521" lon="4.94145">
        <ele>219</ele>
        <time>2014-06-14T14:07:39Z</time>
      </trkpt>
      <trkpt lat="45.69507" lon="4.94144">
        <ele>218.6</ele>
        <time>2014-06-14T14:07:42Z</time>
      </trkpt>
      <trkpt lat="45.695" lon="4.94141">
        <ele>218.6</ele>
        <time>2014-06-14T14:07:44Z</time>
      </trkpt>
      <trkpt lat="45.69496" lon="4.9414">
        <ele>218.6</ele>
        <time>2014-06-14T14:07:45Z</time>
      </trkpt>
      <trkpt lat="45.69493" lon="4.94138">
        <ele>218.4</ele>
        <time>2014-06-14T14:07:46Z</time>
      </trkpt>
      <trkpt lat="45.69493" lon="4.9413">
        <ele>218.4</ele>
        <time>2014-06-14T14:07:48Z</time>
      </trkpt>
      <trkpt lat="45.69494" lon="4.9412">
        <ele>218.2</ele>
        <time>2014-06-14T14:07:50Z</time>
      </trkpt>
      <trkpt lat="45.69498" lon="4.94109">
        <ele>218</ele>
        <time>2014-06-14T14:07:53Z</time>
      </trkpt>
      <trkpt lat="45.69507" lon="4.94107">
        <ele>217.8</ele>
        <time>2014-06-14T14:07:56Z</time>
      </trkpt>
      <trkpt lat="45.69509" lon="4.94112">
        <ele>217.4</ele>
        <time>2014-06-14T14:07:59Z</time>
      </trkpt>
      <trkpt lat="45.69501" lon="4.94111">
        <ele>217.2</ele>
        <time>2014-06-14T14:08:02Z</time>
      </trkpt>
      <trkpt lat="45.69497" lon="4.9411">
        <ele>217</ele>
        <time>2014-06-14T14:08:03Z</time>
      </trkpt>
      <trkpt lat="45.69483" lon="4.94105">
        <ele>216.8</ele>
        <time>2014-06-14T14:08:07Z</time>
      </trkpt>
      <trkpt lat="45.69482" lon="4.94103">
        <ele>216.6</ele>
        <time>2014-06-14T14:08:08Z</time>
      </trkpt>
      <trkpt lat="45.69483" lon="4.94101">
        <ele>216.4</ele>
        <time>2014-06-14T14:08:10Z</time>
      </trkpt>
      <trkpt lat="45.69484" lon="4.941">
        <ele>216.2</ele>
        <time>2014-06-14T14:08:12Z</time>
      </trkpt>
      <trkpt lat="45.69487" lon="4.94101">
        <ele>216</ele>
        <time>2014-06-14T14:08:14Z</time>
      </trkpt>
      <trkpt lat="45.69502" lon="4.94106">
        <ele>215.6</ele>
        <time>2014-06-14T14:08:19Z</time>
      </trkpt>
      <trkpt lat="45.6952" lon="4.94111">
        <ele>215.2</ele>
        <time>2014-06-14T14:08:24Z</time>
      </trkpt>
      <trkpt lat="45.69529" lon="4.94114">
        <ele>214.8</ele>
        <time>2014-06-14T14:08:28Z</time>
      </trkpt>
      <trkpt lat="45.6953" lon="4.94113">
        <ele>214.6</ele>
        <time>2014-06-14T14:08:31Z</time>
      </trkpt>
      <trkpt lat="45.69534" lon="4.94112">
        <ele>214.4</ele>
        <time>2014-06-14T14:08:34Z</time>
      </trkpt>
      <trkpt lat="45.69536" lon="4.94115">
        <ele>213.8</ele>
        <time>2014-06-14T14:08:39Z</time>
      </trkpt>
      <trkpt lat="45.69535" lon="4.94116">
        <ele>213</ele>
        <time>2014-06-14T14:08:49Z</time>
      </trkpt>
      <trkpt lat="45.69534" lon="4.94117">
        <ele>213</ele>
        <time>2014-06-14T14:08:52Z</time>
      </trkpt>
    </trkseg>
  </trk>
</gpx>